<?xml version='1.0' encoding='UTF-8'?><gpx version="1.1" creator="JPX - https://github.com/jenetics/jpx" xmlns="http://www.topografix.com/GPX/1/1"><trk><trkseg><trkpt lat="40.95603300148013" lon="14.608197309458594"><ele>197.0</ele><time>2026-04-18T12:34:26Z</time></trkpt><trkpt lat="40.956043995572614" lon="14.608357099687524"><ele>197.0</ele><time>2026-04-18T12:34:27Z</time></trkpt><trkpt lat="40.95604399461719" lon="14.608505597198388"><ele>197.0</ele><time>2026-04-18T12:34:28Z</time></trkpt><trkpt lat="40.95605751041939" lon="14.608702585550894"><ele>197.0</ele><time>2026-04-18T12:34:29Z</time></trkpt><trkpt lat="40.956022136229805" lon="14.60889492646023"><ele>196.6</ele><time>2026-04-18T12:34:30Z</time></trkpt><trkpt lat="40.95604004126816" lon="14.608994179239598"><ele>196.2</ele><time>2026-04-18T12:34:31Z</time></trkpt><trkpt lat="40.95606196972115" lon="14.609076862799354"><ele>195.8</ele><time>2026-04-18T12:34:33Z</time></trkpt><trkpt lat="40.95594500019892" lon="14.609173949313817"><ele>195.4</ele><time>2026-04-18T12:34:36Z</time></trkpt><trkpt lat="40.95582006059166" lon="14.609311528011387"><ele>195.0</ele><time>2026-04-18T12:34:37Z</time></trkpt><trkpt lat="40.95572447049032" lon="14.609389641219114"><ele>194.75</ele><time>2026-04-18T12:34:38Z</time></trkpt><trkpt lat="40.955625109427714" lon="14.609490825997893"><ele>194.5</ele><time>2026-04-18T12:34:39Z</time></trkpt><trkpt lat="40.95553597290785" lon="14.609581492862835"><ele>194.25</ele><time>2026-04-18T12:34:40Z</time></trkpt><trkpt lat="40.9554217834884" lon="14.60969748054353"><ele>194.0</ele><time>2026-04-18T12:34:41Z</time></trkpt><trkpt lat="40.95533229287152" lon="14.609785216577484"><ele>194.0</ele><time>2026-04-18T12:34:42Z</time></trkpt><trkpt lat="40.95523045009946" lon="14.609886527565092"><ele>194.0</ele><time>2026-04-18T12:34:43Z</time></trkpt><trkpt lat="40.955068555100695" lon="14.610046606091066"><ele>194.0</ele><time>2026-04-18T12:34:44Z</time></trkpt><trkpt lat="40.95496617519279" lon="14.610173293129268"><ele>193.0</ele><time>2026-04-18T12:34:45Z</time></trkpt><trkpt lat="40.95490133814134" lon="14.610322549550842"><ele>192.0</ele><time>2026-04-18T12:34:46Z</time></trkpt><trkpt lat="40.95485478253065" lon="14.610487072168063"><ele>191.0</ele><time>2026-04-18T12:34:47Z</time></trkpt><trkpt lat="40.9548362918438" lon="14.610667640128328"><ele>190.0</ele><time>2026-04-18T12:34:48Z</time></trkpt><trkpt lat="40.95483614137262" lon="14.61086088012425"><ele>190.0</ele><time>2026-04-18T12:34:49Z</time></trkpt><trkpt lat="40.954847792670755" lon="14.61103870688202"><ele>190.0</ele><time>2026-04-18T12:34:50Z</time></trkpt><trkpt lat="40.954851106894786" lon="14.611203309514774"><ele>190.0</ele><time>2026-04-18T12:34:50.999Z</time></trkpt><trkpt lat="40.95485552504007" lon="14.611340643860025"><ele>190.0</ele><time>2026-04-18T12:34:51.999Z</time></trkpt><trkpt lat="40.954867535185684" lon="14.611460757917063"><ele>190.2</ele><time>2026-04-18T12:34:52.999Z</time></trkpt><trkpt lat="40.954879178790605" lon="14.611572822342488"><ele>190.4</ele><time>2026-04-18T12:34:53.999Z</time></trkpt><trkpt lat="40.95488405008357" lon="14.611663656099287"><ele>190.60000000000002</ele><time>2026-04-18T12:34:54.999Z</time></trkpt><trkpt lat="40.954855545664444" lon="14.611798053917973"><ele>190.8</ele><time>2026-04-18T12:34:56.999Z</time></trkpt><trkpt lat="40.95479349084538" lon="14.611887996385578"><ele>191.0</ele><time>2026-04-18T12:34:58.999Z</time></trkpt><trkpt lat="40.954718027726294" lon="14.612000678646142"><ele>191.0</ele><time>2026-04-18T12:35:00.999Z</time></trkpt><trkpt lat="40.954655618433144" lon="14.612144486811564"><ele>191.0</ele><time>2026-04-18T12:35:02.999Z</time></trkpt><trkpt lat="40.95463489511184" lon="14.612226636514226"><ele>191.0</ele><time>2026-04-18T12:35:03.999Z</time></trkpt><trkpt lat="40.95459266745879" lon="14.612288680493384"><ele>191.0</ele><time>2026-04-18T12:35:04.999Z</time></trkpt><trkpt lat="40.954502183880024" lon="14.612422421259232"><ele>191.0</ele><time>2026-04-18T12:35:06.999Z</time></trkpt><trkpt lat="40.954451068565824" lon="14.61250487608479"><ele>191.0</ele><time>2026-04-18T12:35:07.999Z</time></trkpt><trkpt lat="40.95440105893045" lon="14.612597072450153"><ele>191.0</ele><time>2026-04-18T12:35:08.999Z</time></trkpt><trkpt lat="40.95435645418277" lon="14.612691770846153"><ele>191.0</ele><time>2026-04-18T12:35:09.999Z</time></trkpt><trkpt lat="40.95430809182154" lon="14.61278648568673"><ele>191.0</ele><time>2026-04-18T12:35:10.999Z</time></trkpt><trkpt lat="40.95427064604596" lon="14.612873624837903"><ele>191.0</ele><time>2026-04-18T12:35:11.999Z</time></trkpt><trkpt lat="40.95423799259361" lon="14.612949059284244"><ele>191.0</ele><time>2026-04-18T12:35:12.999Z</time></trkpt><trkpt lat="40.954165441274526" lon="14.613108274423757"><ele>191.0</ele><time>2026-04-18T12:35:14.999Z</time></trkpt><trkpt lat="40.95412825745047" lon="14.613197778569267"><ele>191.0</ele><time>2026-04-18T12:35:15.999Z</time></trkpt><trkpt lat="40.95408811302343" lon="14.613283718996808"><ele>191.0</ele><time>2026-04-18T12:35:16.999Z</time></trkpt><trkpt lat="40.95405265599957" lon="14.613368575742715"><ele>191.0</ele><time>2026-04-18T12:35:17.999Z</time></trkpt><trkpt lat="40.95402392628301" lon="14.613447071429777"><ele>191.0</ele><time>2026-04-18T12:35:18.999Z</time></trkpt><trkpt lat="40.95395827644075" lon="14.613597391559257"><ele>191.0</ele><time>2026-04-18T12:35:20.999Z</time></trkpt><trkpt lat="40.95392368559887" lon="14.613685813872225"><ele>191.0</ele><time>2026-04-18T12:35:21.999Z</time></trkpt><trkpt lat="40.953898768642986" lon="14.613784044735452"><ele>191.0</ele><time>2026-04-18T12:35:22.999Z</time></trkpt><trkpt lat="40.953882417654114" lon="14.613881624551306"><ele>191.0</ele><time>2026-04-18T12:35:23.999Z</time></trkpt><trkpt lat="40.953869610122375" lon="14.613979237554233"><ele>191.0</ele><time>2026-04-18T12:35:24.999Z</time></trkpt><trkpt lat="40.95387140029827" lon="14.614085393193736"><ele>191.0</ele><time>2026-04-18T12:35:25.999Z</time></trkpt><trkpt lat="40.95387077630117" lon="14.614196663231906"><ele>191.0</ele><time>2026-04-18T12:35:26.999Z</time></trkpt><trkpt lat="40.95386831675678" lon="14.614327547276735"><ele>191.4</ele><time>2026-04-18T12:35:27.999Z</time></trkpt><trkpt lat="40.95387124831941" lon="14.614510660519255"><ele>191.8</ele><time>2026-04-18T12:35:28.999Z</time></trkpt><trkpt lat="40.95387507062196" lon="14.614638943247256"><ele>192.20000000000002</ele><time>2026-04-18T12:35:29.999Z</time></trkpt><trkpt lat="40.95388545765951" lon="14.614774493820592"><ele>192.60000000000002</ele><time>2026-04-18T12:35:31.999Z</time></trkpt><trkpt lat="40.95386561816169" lon="14.614865900806752"><ele>193.0</ele><time>2026-04-18T12:35:33.999Z</time></trkpt><trkpt lat="40.95374533055914" lon="14.614916773757788"><ele>192.99999999999997</ele><time>2026-04-18T12:35:35.999Z</time></trkpt><trkpt lat="40.95365246135687" lon="14.614921094411537"><ele>193.0</ele><time>2026-04-18T12:35:36.999Z</time></trkpt><trkpt lat="40.9535668203679" lon="14.614922495098325"><ele>193.0</ele><time>2026-04-18T12:35:37.999Z</time></trkpt><trkpt lat="40.95348547064171" lon="14.61492372677608"><ele>193.0</ele><time>2026-04-18T12:35:38.999Z</time></trkpt><trkpt lat="40.95340011151311" lon="14.614924628822182"><ele>192.99999999999997</ele><time>2026-04-18T12:35:39.999Z</time></trkpt><trkpt lat="40.95331775330046" lon="14.614921010830228"><ele>193.0</ele><time>2026-04-18T12:35:40.998Z</time></trkpt><trkpt lat="40.953245717892706" lon="14.61493369019997"><ele>192.49999999999997</ele><time>2026-04-18T12:35:41.998Z</time></trkpt><trkpt lat="40.95317335156691" lon="14.614943332933837"><ele>192.0</ele><time>2026-04-18T12:35:42.998Z</time></trkpt><trkpt lat="40.95308681574942" lon="14.614949262839419"><ele>191.5</ele><time>2026-04-18T12:35:43.998Z</time></trkpt><trkpt lat="40.95299728537509" lon="14.614960017531992"><ele>191.0</ele><time>2026-04-18T12:35:44.998Z</time></trkpt><trkpt lat="40.952909184971155" lon="14.61496896367405"><ele>190.5</ele><time>2026-04-18T12:35:45.998Z</time></trkpt><trkpt lat="40.952816348694896" lon="14.614977900168219"><ele>190.0</ele><time>2026-04-18T12:35:46.998Z</time></trkpt><trkpt lat="40.952727185154366" lon="14.61498642101056"><ele>190.0</ele><time>2026-04-18T12:35:47.998Z</time></trkpt><trkpt lat="40.95262992532734" lon="14.614987231266072"><ele>190.0</ele><time>2026-04-18T12:35:48.998Z</time></trkpt><trkpt lat="40.95251635549655" lon="14.614973722740231"><ele>190.0</ele><time>2026-04-18T12:35:49.998Z</time></trkpt><trkpt lat="40.95239884373095" lon="14.614976458116121"><ele>190.0</ele><time>2026-04-18T12:35:50.998Z</time></trkpt><trkpt lat="40.95228235724889" lon="14.614984748484819"><ele>190.0</ele><time>2026-04-18T12:35:51.998Z</time></trkpt><trkpt lat="40.95217531285156" lon="14.614983477508273"><ele>190.0</ele><time>2026-04-18T12:35:52.998Z</time></trkpt><trkpt lat="40.95208153185215" lon="14.614967576765123"><ele>190.0</ele><time>2026-04-18T12:35:53.998Z</time></trkpt><trkpt lat="40.9520114154268" lon="14.61495570234268"><ele>190.0</ele><time>2026-04-18T12:35:54.998Z</time></trkpt><trkpt lat="40.95190155710118" lon="14.614936724767277"><ele>190.0</ele><time>2026-04-18T12:35:56.998Z</time></trkpt><trkpt lat="40.95181039167004" lon="14.614933897065553"><ele>190.0</ele><time>2026-04-18T12:35:58.998Z</time></trkpt><trkpt lat="40.951734888011195" lon="14.61495264054763"><ele>190.0</ele><time>2026-04-18T12:36:01.998Z</time></trkpt><trkpt lat="40.95172996692124" lon="14.615093076837312"><ele>190.0</ele><time>2026-04-18T12:36:02.998Z</time></trkpt><trkpt lat="40.951725746114086" lon="14.615215131215324"><ele>190.0</ele><time>2026-04-18T12:36:03.998Z</time></trkpt><trkpt lat="40.95171868438862" lon="14.615378386038925"><ele>190.0</ele><time>2026-04-18T12:36:04.998Z</time></trkpt><trkpt lat="40.95171794079299" lon="14.615531050035683"><ele>190.0</ele><time>2026-04-18T12:36:05.998Z</time></trkpt><trkpt lat="40.95171345906158" lon="14.615650461053704"><ele>190.0</ele><time>2026-04-18T12:36:06.998Z</time></trkpt><trkpt lat="40.951694799040496" lon="14.615791051109325"><ele>190.8</ele><time>2026-04-18T12:36:07.998Z</time></trkpt><trkpt lat="40.951696308689144" lon="14.615925339523052"><ele>191.6</ele><time>2026-04-18T12:36:08.998Z</time></trkpt><trkpt lat="40.95169330539481" lon="14.61605239615733"><ele>192.39999999999998</ele><time>2026-04-18T12:36:09.998Z</time></trkpt><trkpt lat="40.951694384085734" lon="14.61617305613764"><ele>193.2</ele><time>2026-04-18T12:36:10.998Z</time></trkpt><trkpt lat="40.951690691968025" lon="14.616284725508958"><ele>194.0</ele><time>2026-04-18T12:36:11.998Z</time></trkpt><trkpt lat="40.951685116263995" lon="14.616392423895324"><ele>194.2</ele><time>2026-04-18T12:36:12.998Z</time></trkpt><trkpt lat="40.95167778350729" lon="14.616505135108657"><ele>194.39999999999998</ele><time>2026-04-18T12:36:13.998Z</time></trkpt><trkpt lat="40.951673679304605" lon="14.616639141749552"><ele>194.6</ele><time>2026-04-18T12:36:14.998Z</time></trkpt><trkpt lat="40.951654734062615" lon="14.616768398071924"><ele>194.8</ele><time>2026-04-18T12:36:15.998Z</time></trkpt><trkpt lat="40.95164709778656" lon="14.616923347767637"><ele>195.0</ele><time>2026-04-18T12:36:16.998Z</time></trkpt><trkpt lat="40.95165221811405" lon="14.617051033896878"><ele>195.8</ele><time>2026-04-18T12:36:17.998Z</time></trkpt><trkpt lat="40.95165733846768" lon="14.61715604377351"><ele>196.6</ele><time>2026-04-18T12:36:18.998Z</time></trkpt><trkpt lat="40.95165582167473" lon="14.617333760112038"><ele>197.39999999999998</ele><time>2026-04-18T12:36:20.998Z</time></trkpt><trkpt lat="40.951651613394546" lon="14.617419903275145"><ele>198.2</ele><time>2026-04-18T12:36:21.998Z</time></trkpt><trkpt lat="40.95165296123277" lon="14.617565058622803"><ele>199.0</ele><time>2026-04-18T12:36:23.999Z</time></trkpt><trkpt lat="40.951657166390945" lon="14.617669921997617"><ele>198.99999999999997</ele><time>2026-04-18T12:36:24.999Z</time></trkpt><trkpt lat="40.95165711227631" lon="14.617774764324452"><ele>199.0</ele><time>2026-04-18T12:36:25.999Z</time></trkpt><trkpt lat="40.95166108805047" lon="14.617899714460316"><ele>199.0</ele><time>2026-04-18T12:36:26.999Z</time></trkpt><trkpt lat="40.95166991970433" lon="14.618006977252634"><ele>199.0</ele><time>2026-04-18T12:36:27.999Z</time></trkpt><trkpt lat="40.95167526636031" lon="14.618107717204778"><ele>198.99999999999997</ele><time>2026-04-18T12:36:28.999Z</time></trkpt><trkpt lat="40.95169971446514" lon="14.6182362480735"><ele>199.0</ele><time>2026-04-18T12:36:29.999Z</time></trkpt><trkpt lat="40.95171525821061" lon="14.618346049972951"><ele>199.2</ele><time>2026-04-18T12:36:30.999Z</time></trkpt><trkpt lat="40.95171306743387" lon="14.618462818785865"><ele>199.39999999999998</ele><time>2026-04-18T12:36:31.999Z</time></trkpt><trkpt lat="40.95171843486411" lon="14.618580884096932"><ele>199.6</ele><time>2026-04-18T12:36:32.999Z</time></trkpt><trkpt lat="40.9517324880977" lon="14.618675024663958"><ele>199.8</ele><time>2026-04-18T12:36:33.999Z</time></trkpt><trkpt lat="40.95174413766334" lon="14.618838094594748"><ele>200.0</ele><time>2026-04-18T12:36:36Z</time></trkpt><trkpt lat="40.95175812726174" lon="14.618959905543713"><ele>200.6</ele><time>2026-04-18T12:36:37Z</time></trkpt><trkpt lat="40.951783363847106" lon="14.619070445826317"><ele>201.2</ele><time>2026-04-18T12:36:38Z</time></trkpt><trkpt lat="40.951791783816745" lon="14.619182440072668"><ele>201.8</ele><time>2026-04-18T12:36:39Z</time></trkpt><trkpt lat="40.95181157098743" lon="14.619327047842113"><ele>202.4</ele><time>2026-04-18T12:36:41Z</time></trkpt><trkpt lat="40.95182093405097" lon="14.619414042936839"><ele>203.0</ele><time>2026-04-18T12:36:42.999Z</time></trkpt><trkpt lat="40.951923744442595" lon="14.619417461870636"><ele>203.00000000000003</ele><time>2026-04-18T12:36:43.999Z</time></trkpt><trkpt lat="40.95199364400536" lon="14.619411119573211"><ele>203.0</ele><time>2026-04-18T12:36:44.999Z</time></trkpt><trkpt lat="40.95206643040993" lon="14.619392237079934"><ele>203.0</ele><time>2026-04-18T12:36:45.999Z</time></trkpt><trkpt lat="40.952130064283935" lon="14.619375232488135"><ele>203.0</ele><time>2026-04-18T12:36:46.999Z</time></trkpt><trkpt lat="40.95219491111647" lon="14.619376601656953"><ele>203.00000000000003</ele><time>2026-04-18T12:36:48.999Z</time></trkpt><trkpt lat="40.952255172710714" lon="14.619548300594722"><ele>203.0</ele><time>2026-04-18T12:36:50.999Z</time></trkpt><trkpt lat="40.95229957528246" lon="14.619683810424199"><ele>203.66666666666669</ele><time>2026-04-18T12:36:51.999Z</time></trkpt><trkpt lat="40.95234184439405" lon="14.619873516543608"><ele>204.33333333333334</ele><time>2026-04-18T12:36:52.999Z</time></trkpt><trkpt lat="40.952360986877615" lon="14.61995534557329"><ele>205.0</ele><time>2026-04-18T12:36:53.999Z</time></trkpt><trkpt lat="40.95237288635134" lon="14.620048999908864"><ele>205.66666666666669</ele><time>2026-04-18T12:36:54.999Z</time></trkpt><trkpt lat="40.95239365196981" lon="14.62013987435219"><ele>206.33333333333334</ele><time>2026-04-18T12:36:55.999Z</time></trkpt><trkpt lat="40.95239707636168" lon="14.620257179268748"><ele>207.0</ele><time>2026-04-18T12:36:56.999Z</time></trkpt><trkpt lat="40.95240433461147" lon="14.62040954205282"><ele>208.0</ele><time>2026-04-18T12:36:57.999Z</time></trkpt><trkpt lat="40.95241634763865" lon="14.620546586686967"><ele>209.0</ele><time>2026-04-18T12:36:58.999Z</time></trkpt><trkpt lat="40.95241757006757" lon="14.620652086610377"><ele>210.0</ele><time>2026-04-18T12:36:59.999Z</time></trkpt><trkpt lat="40.952430811408846" lon="14.620752423922912"><ele>211.0</ele><time>2026-04-18T12:37:00.999Z</time></trkpt><trkpt lat="40.952442713486384" lon="14.62085499616523"><ele>212.0</ele><time>2026-04-18T12:37:01.999Z</time></trkpt><trkpt lat="40.95244941625104" lon="14.62094573200151"><ele>213.0</ele><time>2026-04-18T12:37:02.999Z</time></trkpt><trkpt lat="40.9524449657376" lon="14.62104709746363"><ele>212.99999999999997</ele><time>2026-04-18T12:37:03.999Z</time></trkpt><trkpt lat="40.952453130121924" lon="14.621141285100004"><ele>213.0</ele><time>2026-04-18T12:37:04.999Z</time></trkpt><trkpt lat="40.95246775441595" lon="14.621240539774115"><ele>213.0</ele><time>2026-04-18T12:37:05.999Z</time></trkpt><trkpt lat="40.95246060937241" lon="14.621326964791594"><ele>213.0</ele><time>2026-04-18T12:37:06.999Z</time></trkpt><trkpt lat="40.95247543251599" lon="14.62141182406043"><ele>213.0</ele><time>2026-04-18T12:37:07.999Z</time></trkpt><trkpt lat="40.952503463945256" lon="14.621489452032282"><ele>212.99999999999997</ele><time>2026-04-18T12:37:08.999Z</time></trkpt><trkpt lat="40.9525746717657" lon="14.621547188493059"><ele>213.0</ele><time>2026-04-18T12:37:09.999Z</time></trkpt><trkpt lat="40.952687766690964" lon="14.621592085031306"><ele>218.0</ele><time>2026-04-18T12:37:10.999Z</time></trkpt><trkpt lat="40.952813925149" lon="14.621672698466845"><ele>223.0</ele><time>2026-04-18T12:37:11.999Z</time></trkpt><trkpt lat="40.952949220990924" lon="14.621759928697182"><ele>228.0</ele><time>2026-04-18T12:37:12.999Z</time></trkpt><trkpt lat="40.95307238479452" lon="14.621838233637787"><ele>233.0</ele><time>2026-04-18T12:37:13.999Z</time></trkpt><trkpt lat="40.953183965314885" lon="14.621906669027103"><ele>233.0</ele><time>2026-04-18T12:37:14.999Z</time></trkpt><trkpt lat="40.953297705344376" lon="14.621954301896286"><ele>233.0</ele><time>2026-04-18T12:37:15.999Z</time></trkpt><trkpt lat="40.95339736813572" lon="14.62202377407443"><ele>233.0</ele><time>2026-04-18T12:37:16.999Z</time></trkpt><trkpt lat="40.953493042811495" lon="14.622081614804047"><ele>233.0</ele><time>2026-04-18T12:37:17.999Z</time></trkpt><trkpt lat="40.95358220702511" lon="14.62214039744796"><ele>233.0</ele><time>2026-04-18T12:37:18.999Z</time></trkpt><trkpt lat="40.95366964987479" lon="14.622192622351285"><ele>236.83333333333334</ele><time>2026-04-18T12:37:19.999Z</time></trkpt><trkpt lat="40.953753732081914" lon="14.622248019197063"><ele>240.66666666666669</ele><time>2026-04-18T12:37:20.999Z</time></trkpt><trkpt lat="40.953840571190604" lon="14.622261469873305"><ele>244.5</ele><time>2026-04-18T12:37:21.999Z</time></trkpt><trkpt lat="40.95393361019599" lon="14.622275145229855"><ele>248.33333333333331</ele><time>2026-04-18T12:37:23.999Z</time></trkpt><trkpt lat="40.95394551376691" lon="14.622372691066909"><ele>252.16666666666666</ele><time>2026-04-18T12:37:25.999Z</time></trkpt><trkpt lat="40.95395720678725" lon="14.622481599092835"><ele>256.0</ele><time>2026-04-18T12:37:26.999Z</time></trkpt><trkpt lat="40.95395172229409" lon="14.622581763641808"><ele>256.0</ele><time>2026-04-18T12:37:27.999Z</time></trkpt><trkpt lat="40.95394922454647" lon="14.622681818720654"><ele>256.0</ele><time>2026-04-18T12:37:29.999Z</time></trkpt><trkpt lat="40.95407429531988" lon="14.622697489381036"><ele>256.0</ele><time>2026-04-18T12:37:30.999Z</time></trkpt><trkpt lat="40.95416337528147" lon="14.622702224760955"><ele>256.0</ele><time>2026-04-18T12:37:31.999Z</time></trkpt><trkpt lat="40.9542841011545" lon="14.622725343471245"><ele>256.0</ele><time>2026-04-18T12:37:32.999Z</time></trkpt><trkpt lat="40.95441407777675" lon="14.62276941176586"><ele>257.0</ele><time>2026-04-18T12:37:33.999Z</time></trkpt><trkpt lat="40.95453040475243" lon="14.622819380133645"><ele>258.0</ele><time>2026-04-18T12:37:34.999Z</time></trkpt><trkpt lat="40.95462370773287" lon="14.622841903686737"><ele>259.0</ele><time>2026-04-18T12:37:35.999Z</time></trkpt><trkpt lat="40.95470219791883" lon="14.622865564170173"><ele>260.0</ele><time>2026-04-18T12:37:36.999Z</time></trkpt><trkpt lat="40.954776189120444" lon="14.622881150416404"><ele>261.0</ele><time>2026-04-18T12:37:37.999Z</time></trkpt><trkpt lat="40.954860994396704" lon="14.622894711078617"><ele>261.0</ele><time>2026-04-18T12:37:38.999Z</time></trkpt><trkpt lat="40.95495019094899" lon="14.622900942624348"><ele>261.0</ele><time>2026-04-18T12:37:39.999Z</time></trkpt><trkpt lat="40.95503752122272" lon="14.622929000729817"><ele>261.0</ele><time>2026-04-18T12:37:40.999Z</time></trkpt><trkpt lat="40.95513237682621" lon="14.622936071379955"><ele>261.0</ele><time>2026-04-18T12:37:41.999Z</time></trkpt><trkpt lat="40.95523989604243" lon="14.622933412069381"><ele>261.0</ele><time>2026-04-18T12:37:42.999Z</time></trkpt><trkpt lat="40.95536391961574" lon="14.622915131509037"><ele>263.5</ele><time>2026-04-18T12:37:43.999Z</time></trkpt><trkpt lat="40.95548447701459" lon="14.622947519200759"><ele>266.0</ele><time>2026-04-18T12:37:44.999Z</time></trkpt><trkpt lat="40.95559108953777" lon="14.622974420372923"><ele>268.5</ele><time>2026-04-18T12:37:45.999Z</time></trkpt><trkpt lat="40.955703273265506" lon="14.623012185051266"><ele>271.0</ele><time>2026-04-18T12:37:46.998Z</time></trkpt><trkpt lat="40.95583228386005" lon="14.62305010001092"><ele>276.25</ele><time>2026-04-18T12:37:47.998Z</time></trkpt><trkpt lat="40.955965726829454" lon="14.623127109248191"><ele>281.5</ele><time>2026-04-18T12:37:48.998Z</time></trkpt><trkpt lat="40.956105220739296" lon="14.62318078823478"><ele>286.75</ele><time>2026-04-18T12:37:49.998Z</time></trkpt><trkpt lat="40.95623458631373" lon="14.623221420467985"><ele>292.0</ele><time>2026-04-18T12:37:50.998Z</time></trkpt><trkpt lat="40.956358345088475" lon="14.623250628744596"><ele>292.0</ele><time>2026-04-18T12:37:51.998Z</time></trkpt><trkpt lat="40.95648708846777" lon="14.623251918801058"><ele>292.0</ele><time>2026-04-18T12:37:52.998Z</time></trkpt><trkpt lat="40.956610623276376" lon="14.623280840213202"><ele>292.0</ele><time>2026-04-18T12:37:53.998Z</time></trkpt><trkpt lat="40.956725423602634" lon="14.623272152034847"><ele>292.0</ele><time>2026-04-18T12:37:54.998Z</time></trkpt><trkpt lat="40.95681619184181" lon="14.623250297941006"><ele>294.0</ele><time>2026-04-18T12:37:55.998Z</time></trkpt><trkpt lat="40.95689358267888" lon="14.623163955851053"><ele>296.0</ele><time>2026-04-18T12:37:56.998Z</time></trkpt><trkpt lat="40.95695662498267" lon="14.623129747594914"><ele>298.0</ele><time>2026-04-18T12:37:57.998Z</time></trkpt><trkpt lat="40.95703358540226" lon="14.623139524827897"><ele>300.0</ele><time>2026-04-18T12:37:58.998Z</time></trkpt><trkpt lat="40.95713681234742" lon="14.623166327542007"><ele>302.0</ele><time>2026-04-18T12:37:59.998Z</time></trkpt><trkpt lat="40.957253458530744" lon="14.623221336237622"><ele>302.0</ele><time>2026-04-18T12:38:00.998Z</time></trkpt><trkpt lat="40.95739642399509" lon="14.6233276613325"><ele>302.0</ele><time>2026-04-18T12:38:01.998Z</time></trkpt><trkpt lat="40.957527903557434" lon="14.623416523316052"><ele>302.0</ele><time>2026-04-18T12:38:02.998Z</time></trkpt><trkpt lat="40.957632222836914" lon="14.623507537545391"><ele>302.0</ele><time>2026-04-18T12:38:03.998Z</time></trkpt><trkpt lat="40.95771958069033" lon="14.623587044320102"><ele>305.75</ele><time>2026-04-18T12:38:04.998Z</time></trkpt><trkpt lat="40.95777148012428" lon="14.623715855941965"><ele>309.5</ele><time>2026-04-18T12:38:05.998Z</time></trkpt><trkpt lat="40.95784033330486" lon="14.623858369332872"><ele>313.25</ele><time>2026-04-18T12:38:06.998Z</time></trkpt><trkpt lat="40.9579357528487" lon="14.62405276298307"><ele>317.0</ele><time>2026-04-18T12:38:07.998Z</time></trkpt><trkpt lat="40.95803622838679" lon="14.624225832518576"><ele>317.0</ele><time>2026-04-18T12:38:08.998Z</time></trkpt><trkpt lat="40.95807853010426" lon="14.6243673121329"><ele>317.0</ele><time>2026-04-18T12:38:09.998Z</time></trkpt><trkpt lat="40.95811760428798" lon="14.62448581513719"><ele>317.0</ele><time>2026-04-18T12:38:10.998Z</time></trkpt><trkpt lat="40.95816394159447" lon="14.62462336197609"><ele>317.0</ele><time>2026-04-18T12:38:11.998Z</time></trkpt><trkpt lat="40.958231983624614" lon="14.624787989025023"><ele>318.6</ele><time>2026-04-18T12:38:12.998Z</time></trkpt><trkpt lat="40.95823677047631" lon="14.624958567091664"><ele>320.2</ele><time>2026-04-18T12:38:13.998Z</time></trkpt><trkpt lat="40.95824236849715" lon="14.625109034456923"><ele>321.8</ele><time>2026-04-18T12:38:14.998Z</time></trkpt><trkpt lat="40.95824702016573" lon="14.625238816009853"><ele>323.4</ele><time>2026-04-18T12:38:15.998Z</time></trkpt><trkpt lat="40.95824824214672" lon="14.625358586417237"><ele>325.0</ele><time>2026-04-18T12:38:16.998Z</time></trkpt><trkpt lat="40.958262923688416" lon="14.625495703038167"><ele>326.4</ele><time>2026-04-18T12:38:17.998Z</time></trkpt><trkpt lat="40.958258219047174" lon="14.625612294357495"><ele>327.8</ele><time>2026-04-18T12:38:18.998Z</time></trkpt><trkpt lat="40.95825488081026" lon="14.62572621410614"><ele>329.20000000000005</ele><time>2026-04-18T12:38:19.998Z</time></trkpt><trkpt lat="40.95824714412961" lon="14.62584836170738"><ele>330.6</ele><time>2026-04-18T12:38:20.998Z</time></trkpt><trkpt lat="40.958237004376755" lon="14.625977776805135"><ele>332.0</ele><time>2026-04-18T12:38:21.998Z</time></trkpt><trkpt lat="40.958228488757314" lon="14.62612303493074"><ele>333.5</ele><time>2026-04-18T12:38:22.998Z</time></trkpt><trkpt lat="40.958204293361376" lon="14.626276140170257"><ele>335.0</ele><time>2026-04-18T12:38:23.998Z</time></trkpt><trkpt lat="40.95820621426645" lon="14.626446776272347"><ele>336.5</ele><time>2026-04-18T12:38:24.998Z</time></trkpt><trkpt lat="40.95817745781165" lon="14.626635379995939"><ele>338.0</ele><time>2026-04-18T12:38:25.998Z</time></trkpt><trkpt lat="40.95818124915207" lon="14.626851739693288"><ele>339.6666666666667</ele><time>2026-04-18T12:38:26.998Z</time></trkpt><trkpt lat="40.95816519747785" lon="14.627064232847905"><ele>341.3333333333333</ele><time>2026-04-18T12:38:27.998Z</time></trkpt><trkpt lat="40.958154047609185" lon="14.627274256025904"><ele>343.0</ele><time>2026-04-18T12:38:28.999Z</time></trkpt><trkpt lat="40.95813224990479" lon="14.627493517607485"><ele>343.0</ele><time>2026-04-18T12:38:29.999Z</time></trkpt><trkpt lat="40.95813229321664" lon="14.627703879728271"><ele>343.0</ele><time>2026-04-18T12:38:30.999Z</time></trkpt><trkpt lat="40.95813727003866" lon="14.627898588495217"><ele>343.0</ele><time>2026-04-18T12:38:31.999Z</time></trkpt><trkpt lat="40.95813534225391" lon="14.628068220931189"><ele>343.0</ele><time>2026-04-18T12:38:32.999Z</time></trkpt><trkpt lat="40.958132643200415" lon="14.62825867847747"><ele>344.25</ele><time>2026-04-18T12:38:33.999Z</time></trkpt><trkpt lat="40.95814235050792" lon="14.628456834947801"><ele>345.5</ele><time>2026-04-18T12:38:34.999Z</time></trkpt><trkpt lat="40.95812774265355" lon="14.628638870878344"><ele>346.75</ele><time>2026-04-18T12:38:35.999Z</time></trkpt><trkpt lat="40.958152062964274" lon="14.628818848443537"><ele>348.0</ele><time>2026-04-18T12:38:36.999Z</time></trkpt><trkpt lat="40.95816171424249" lon="14.628977294247521"><ele>349.4</ele><time>2026-04-18T12:38:37.999Z</time></trkpt><trkpt lat="40.95816108867998" lon="14.629100014812927"><ele>350.79999999999995</ele><time>2026-04-18T12:38:38.999Z</time></trkpt><trkpt lat="40.9581313289961" lon="14.62920458277294"><ele>352.2</ele><time>2026-04-18T12:38:39.999Z</time></trkpt><trkpt lat="40.95804834361739" lon="14.629283941493581"><ele>353.6</ele><time>2026-04-18T12:38:40.999Z</time></trkpt><trkpt lat="40.95793766131716" lon="14.629401366950232"><ele>355.0</ele><time>2026-04-18T12:38:41.999Z</time></trkpt><trkpt lat="40.957800468890014" lon="14.629607079910786"><ele>350.66666666666663</ele><time>2026-04-18T12:38:42.999Z</time></trkpt><trkpt lat="40.95766224436461" lon="14.629818333959332"><ele>346.3333333333333</ele><time>2026-04-18T12:38:43.999Z</time></trkpt><trkpt lat="40.957555449567494" lon="14.62999900996"><ele>342.0</ele><time>2026-04-18T12:38:44.999Z</time></trkpt><trkpt lat="40.9574664340903" lon="14.630140171072021"><ele>342.0</ele><time>2026-04-18T12:38:45.999Z</time></trkpt><trkpt lat="40.9573999363411" lon="14.630267676582628"><ele>342.0</ele><time>2026-04-18T12:38:46.999Z</time></trkpt><trkpt lat="40.95735590867134" lon="14.630412172955467"><ele>342.0</ele><time>2026-04-18T12:38:47.999Z</time></trkpt><trkpt lat="40.957286202252966" lon="14.63062951032564"><ele>342.0</ele><time>2026-04-18T12:38:48.999Z</time></trkpt><trkpt lat="40.95724173887689" lon="14.630770057932514"><ele>347.25</ele><time>2026-04-18T12:38:49.999Z</time></trkpt><trkpt lat="40.95719862184919" lon="14.630903556824475"><ele>352.5</ele><time>2026-04-18T12:38:50.999Z</time></trkpt><trkpt lat="40.9571560202923" lon="14.631043389351767"><ele>357.75</ele><time>2026-04-18T12:38:51.999Z</time></trkpt><trkpt lat="40.95711677924487" lon="14.631206027306344"><ele>363.0</ele><time>2026-04-18T12:38:52.999Z</time></trkpt><trkpt lat="40.957078882498614" lon="14.631399451984985"><ele>368.6666666666667</ele><time>2026-04-18T12:38:53.999Z</time></trkpt><trkpt lat="40.95703961574521" lon="14.631618273701228"><ele>374.33333333333337</ele><time>2026-04-18T12:38:54.999Z</time></trkpt><trkpt lat="40.95698639486692" lon="14.631846317638173"><ele>380.0</ele><time>2026-04-18T12:38:55.999Z</time></trkpt><trkpt lat="40.95695015296143" lon="14.632085158239487"><ele>383.75</ele><time>2026-04-18T12:38:56.999Z</time></trkpt><trkpt lat="40.956915141466716" lon="14.632299550754903"><ele>387.5</ele><time>2026-04-18T12:38:57.999Z</time></trkpt><trkpt lat="40.95690237177657" lon="14.632477257183828"><ele>391.25</ele><time>2026-04-18T12:38:58.999Z</time></trkpt><trkpt lat="40.956889602101" lon="14.632656286060723"><ele>395.0</ele><time>2026-04-18T12:38:59.999Z</time></trkpt><trkpt lat="40.95686226563274" lon="14.632833146008114"><ele>399.0</ele><time>2026-04-18T12:39:00.999Z</time></trkpt><trkpt lat="40.956812671825524" lon="14.633027990076915"><ele>403.0</ele><time>2026-04-18T12:39:01.999Z</time></trkpt><trkpt lat="40.95674209004062" lon="14.633274721006133"><ele>407.0</ele><time>2026-04-18T12:39:02.999Z</time></trkpt><trkpt lat="40.95668182534121" lon="14.63352010462311"><ele>396.3333333333333</ele><time>2026-04-18T12:39:03.999Z</time></trkpt><trkpt lat="40.9566259667106" lon="14.633745110857435"><ele>385.66666666666663</ele><time>2026-04-18T12:39:04.999Z</time></trkpt><trkpt lat="40.95655294955499" lon="14.633997371297434"><ele>375.0</ele><time>2026-04-18T12:39:05.999Z</time></trkpt><trkpt lat="40.95649478685484" lon="14.634233394113476"><ele>375.0</ele><time>2026-04-18T12:39:06.999Z</time></trkpt><trkpt lat="40.9564454935128" lon="14.634449209925492"><ele>375.0</ele><time>2026-04-18T12:39:07.999Z</time></trkpt><trkpt lat="40.95639750315182" lon="14.634651830197981"><ele>375.0</ele><time>2026-04-18T12:39:08.999Z</time></trkpt><trkpt lat="40.956349629281874" lon="14.634837448913014"><ele>379.33333333333337</ele><time>2026-04-18T12:39:09.999Z</time></trkpt><trkpt lat="40.956286029633105" lon="14.635023902810303"><ele>383.6666666666667</ele><time>2026-04-18T12:39:10.999Z</time></trkpt><trkpt lat="40.956228936294025" lon="14.635240857509205"><ele>388.0</ele><time>2026-04-18T12:39:11.999Z</time></trkpt><trkpt lat="40.95617437115047" lon="14.63550013502976"><ele>394.0</ele><time>2026-04-18T12:39:12.999Z</time></trkpt><trkpt lat="40.95610095844303" lon="14.63571676396828"><ele>400.0</ele><time>2026-04-18T12:39:13.999Z</time></trkpt><trkpt lat="40.956036824561764" lon="14.635897013663396"><ele>406.0</ele><time>2026-04-18T12:39:14.999Z</time></trkpt><trkpt lat="40.95598869649217" lon="14.636098962587068"><ele>410.75</ele><time>2026-04-18T12:39:15.999Z</time></trkpt><trkpt lat="40.95596381269926" lon="14.636322754066429"><ele>415.5</ele><time>2026-04-18T12:39:16.999Z</time></trkpt><trkpt lat="40.955944079874726" lon="14.63653035502693"><ele>420.25</ele><time>2026-04-18T12:39:17.999Z</time></trkpt><trkpt lat="40.95591665954921" lon="14.636678773096802"><ele>425.0</ele><time>2026-04-18T12:39:18.999Z</time></trkpt><trkpt lat="40.955884128194086" lon="14.636767464562288"><ele>425.0</ele><time>2026-04-18T12:39:19.999Z</time></trkpt><trkpt lat="40.95588059367413" lon="14.636888612365055"><ele>425.0</ele><time>2026-04-18T12:39:21.999Z</time></trkpt><trkpt lat="40.95601133125823" lon="14.63688456404399"><ele>425.0</ele><time>2026-04-18T12:39:23.999Z</time></trkpt><trkpt lat="40.95605878159792" lon="14.636757097048868"><ele>425.0</ele><time>2026-04-18T12:39:24.999Z</time></trkpt><trkpt lat="40.95604679735445" lon="14.636575586329139"><ele>425.0</ele><time>2026-04-18T12:39:25.999Z</time></trkpt><trkpt lat="40.95611416129929" lon="14.636367259460405"><ele>425.0</ele><time>2026-04-18T12:39:26.999Z</time></trkpt><trkpt lat="40.95618520855046" lon="14.636138600971652"><ele>425.0</ele><time>2026-04-18T12:39:27.999Z</time></trkpt><trkpt lat="40.95626019891857" lon="14.635934510094092"><ele>418.66666666666663</ele><time>2026-04-18T12:39:28.999Z</time></trkpt><trkpt lat="40.95634926885403" lon="14.635752436646499"><ele>412.33333333333337</ele><time>2026-04-18T12:39:29.999Z</time></trkpt><trkpt lat="40.956461904262284" lon="14.635559281068815"><ele>406.0</ele><time>2026-04-18T12:39:30.999Z</time></trkpt><trkpt lat="40.95654250400915" lon="14.635367851765622"><ele>400.0</ele><time>2026-04-18T12:39:31.999Z</time></trkpt><trkpt lat="40.956620014380164" lon="14.635196708579304"><ele>394.0</ele><time>2026-04-18T12:39:32.999Z</time></trkpt><trkpt lat="40.95670889082681" lon="14.635039975384753"><ele>388.0</ele><time>2026-04-18T12:39:33.999Z</time></trkpt><trkpt lat="40.956769886787114" lon="14.634812187334054"><ele>404.0</ele><time>2026-04-18T12:39:34.999Z</time></trkpt><trkpt lat="40.95686943210305" lon="14.634556547815503"><ele>420.0</ele><time>2026-04-18T12:39:35.999Z</time></trkpt><trkpt lat="40.95699476043506" lon="14.634276611220052"><ele>420.0</ele><time>2026-04-18T12:39:36.999Z</time></trkpt><trkpt lat="40.95711117701342" lon="14.633956618150156"><ele>420.0</ele><time>2026-04-18T12:39:37.999Z</time></trkpt><trkpt lat="40.957205070654766" lon="14.633614840766741"><ele>415.66666666666663</ele><time>2026-04-18T12:39:38.999Z</time></trkpt><trkpt lat="40.95731732294574" lon="14.633344548449246"><ele>411.3333333333333</ele><time>2026-04-18T12:39:39.999Z</time></trkpt><trkpt lat="40.957371545279216" lon="14.6330937990129"><ele>407.0</ele><time>2026-04-18T12:39:40.999Z</time></trkpt><trkpt lat="40.95744598814458" lon="14.632888234660816"><ele>419.0</ele><time>2026-04-18T12:39:41.999Z</time></trkpt><trkpt lat="40.95754428489831" lon="14.632675932006787"><ele>431.0</ele><time>2026-04-18T12:39:42.999Z</time></trkpt><trkpt lat="40.95760387289613" lon="14.632439668455778"><ele>443.0</ele><time>2026-04-18T12:39:43.999Z</time></trkpt><trkpt lat="40.95765323830288" lon="14.632240672148178"><ele>443.0</ele><time>2026-04-18T12:39:44.999Z</time></trkpt><trkpt lat="40.957713990695694" lon="14.632077134102218"><ele>443.0</ele><time>2026-04-18T12:39:45.999Z</time></trkpt><trkpt lat="40.95778477081885" lon="14.631928471655572"><ele>443.0</ele><time>2026-04-18T12:39:46.999Z</time></trkpt><trkpt lat="40.957864017433124" lon="14.631779173495126"><ele>443.0</ele><time>2026-04-18T12:39:47.999Z</time></trkpt><trkpt lat="40.95796473299028" lon="14.631630342674798"><ele>437.3333333333333</ele><time>2026-04-18T12:39:48.999Z</time></trkpt><trkpt lat="40.958073902955434" lon="14.631436972348911"><ele>431.66666666666663</ele><time>2026-04-18T12:39:49.999Z</time></trkpt><trkpt lat="40.95822327043622" lon="14.631249589935146"><ele>426.0</ele><time>2026-04-18T12:39:50.999Z</time></trkpt><trkpt lat="40.95835978519422" lon="14.631077267895357"><ele>430.66666666666663</ele><time>2026-04-18T12:39:51.999Z</time></trkpt><trkpt lat="40.958490352394534" lon="14.630913074315588"><ele>435.3333333333333</ele><time>2026-04-18T12:39:52.999Z</time></trkpt><trkpt lat="40.95863740509143" lon="14.630785738504256"><ele>440.0</ele><time>2026-04-18T12:39:53.999Z</time></trkpt><trkpt lat="40.95875939573855" lon="14.630626753798632"><ele>440.0</ele><time>2026-04-18T12:39:54.998Z</time></trkpt><trkpt lat="40.95889631728354" lon="14.630532850775959"><ele>440.0</ele><time>2026-04-18T12:39:55.998Z</time></trkpt><trkpt lat="40.95898243436279" lon="14.63036881877213"><ele>440.0</ele><time>2026-04-18T12:39:56.998Z</time></trkpt><trkpt lat="40.95908306918951" lon="14.630197242031375"><ele>444.5</ele><time>2026-04-18T12:39:57.998Z</time></trkpt><trkpt lat="40.95920905222963" lon="14.630073305527969"><ele>449.0</ele><time>2026-04-18T12:39:58.998Z</time></trkpt><trkpt lat="40.9593084115847" lon="14.629940137233035"><ele>453.5</ele><time>2026-04-18T12:39:59.998Z</time></trkpt><trkpt lat="40.95935463272082" lon="14.6297759212759"><ele>458.0</ele><time>2026-04-18T12:40:00.998Z</time></trkpt><trkpt lat="40.95939892976567" lon="14.629643461755679"><ele>458.0</ele><time>2026-04-18T12:40:01.998Z</time></trkpt><trkpt lat="40.95942777586102" lon="14.629559093156658"><ele>457.99999999999994</ele><time>2026-04-18T12:40:02.998Z</time></trkpt><trkpt lat="40.959490722065205" lon="14.629520464641132"><ele>457.99999999999994</ele><time>2026-04-18T12:40:04.998Z</time></trkpt><trkpt lat="40.959527007344306" lon="14.629655326474925"><ele>458.0</ele><time>2026-04-18T12:40:06.998Z</time></trkpt><trkpt lat="40.9594799078513" lon="14.629788316318372"><ele>458.0</ele><time>2026-04-18T12:40:07.998Z</time></trkpt><trkpt lat="40.95941018662856" lon="14.629979593210924"><ele>458.0</ele><time>2026-04-18T12:40:08.998Z</time></trkpt><trkpt lat="40.959318881980565" lon="14.630140454823362"><ele>458.0</ele><time>2026-04-18T12:40:09.998Z</time></trkpt><trkpt lat="40.95922885944068" lon="14.630341262111301"><ele>458.0</ele><time>2026-04-18T12:40:10.998Z</time></trkpt><trkpt lat="40.95913592652239" lon="14.630544190014367"><ele>452.0</ele><time>2026-04-18T12:40:11.998Z</time></trkpt><trkpt lat="40.95906532814357" lon="14.630753620495167"><ele>446.0</ele><time>2026-04-18T12:40:12.998Z</time></trkpt><trkpt lat="40.958957880550905" lon="14.630905757094741"><ele>440.0</ele><time>2026-04-18T12:40:13.998Z</time></trkpt><trkpt lat="40.95887641189904" lon="14.631068709650137"><ele>446.0</ele><time>2026-04-18T12:40:14.998Z</time></trkpt><trkpt lat="40.95878872469093" lon="14.631207090820855"><ele>452.0</ele><time>2026-04-18T12:40:15.998Z</time></trkpt><trkpt lat="40.95872444163827" lon="14.631350016840287"><ele>458.0</ele><time>2026-04-18T12:40:16.998Z</time></trkpt><trkpt lat="40.95867656203637" lon="14.631485135753344"><ele>464.0</ele><time>2026-04-18T12:40:17.998Z</time></trkpt><trkpt lat="40.958636893892745" lon="14.63160318320653"><ele>464.0</ele><time>2026-04-18T12:40:18.998Z</time></trkpt><trkpt lat="40.95859804200493" lon="14.63170980007265"><ele>464.0</ele><time>2026-04-18T12:40:19.998Z</time></trkpt><trkpt lat="40.95855954592569" lon="14.631831381260517"><ele>464.0</ele><time>2026-04-18T12:40:20.998Z</time></trkpt><trkpt lat="40.95854313310127" lon="14.631947946336378"><ele>464.0</ele><time>2026-04-18T12:40:21.998Z</time></trkpt><trkpt lat="40.95852137583854" lon="14.63207432639354"><ele>464.0</ele><time>2026-04-18T12:40:22.998Z</time></trkpt><trkpt lat="40.95850601027276" lon="14.632199099316464"><ele>468.2</ele><time>2026-04-18T12:40:23.998Z</time></trkpt><trkpt lat="40.95849234454303" lon="14.632334221346666"><ele>472.4</ele><time>2026-04-18T12:40:24.998Z</time></trkpt><trkpt lat="40.95849042976661" lon="14.63245188540443"><ele>476.6</ele><time>2026-04-18T12:40:25.998Z</time></trkpt><trkpt lat="40.95848533889621" lon="14.63259817205589"><ele>480.8</ele><time>2026-04-18T12:40:26.998Z</time></trkpt><trkpt lat="40.958482642211365" lon="14.632729448013878"><ele>485.0</ele><time>2026-04-18T12:40:27.998Z</time></trkpt><trkpt lat="40.9584766897971" lon="14.632855540179346"><ele>488.0</ele><time>2026-04-18T12:40:28.998Z</time></trkpt><trkpt lat="40.95847838501407" lon="14.632980390906015"><ele>491.0</ele><time>2026-04-18T12:40:29.998Z</time></trkpt><trkpt lat="40.95846769432685" lon="14.63310781970658"><ele>494.0</ele><time>2026-04-18T12:40:30.998Z</time></trkpt><trkpt lat="40.9584695316285" lon="14.633233556349648"><ele>497.0</ele><time>2026-04-18T12:40:31.998Z</time></trkpt><trkpt lat="40.95847171080567" lon="14.633358162994359"><ele>500.0</ele><time>2026-04-18T12:40:32.998Z</time></trkpt><trkpt lat="40.958479757359235" lon="14.633485002185544"><ele>500.0</ele><time>2026-04-18T12:40:33.999Z</time></trkpt><trkpt lat="40.958489102128354" lon="14.633625437967765"><ele>500.0</ele><time>2026-04-18T12:40:34.999Z</time></trkpt><trkpt lat="40.95849922160523" lon="14.63376752874983"><ele>500.0</ele><time>2026-04-18T12:40:35.999Z</time></trkpt><trkpt lat="40.95850454055352" lon="14.633914260287641"><ele>500.0</ele><time>2026-04-18T12:40:36.999Z</time></trkpt><trkpt lat="40.958514196777024" lon="14.634063209306298"><ele>500.0</ele><time>2026-04-18T12:40:37.999Z</time></trkpt><trkpt lat="40.95851878892478" lon="14.6342131434437"><ele>502.2</ele><time>2026-04-18T12:40:38.999Z</time></trkpt><trkpt lat="40.95852306068653" lon="14.63436185726101"><ele>504.4</ele><time>2026-04-18T12:40:39.999Z</time></trkpt><trkpt lat="40.95853231134136" lon="14.63451800202141"><ele>506.6</ele><time>2026-04-18T12:40:40.999Z</time></trkpt><trkpt lat="40.958537901448445" lon="14.634655991787424"><ele>508.8</ele><time>2026-04-18T12:40:41.999Z</time></trkpt><trkpt lat="40.958540889822004" lon="14.634792971822536"><ele>511.0</ele><time>2026-04-18T12:40:42.999Z</time></trkpt><trkpt lat="40.95853222157719" lon="14.634931756208138"><ele>513.75</ele><time>2026-04-18T12:40:43.999Z</time></trkpt><trkpt lat="40.958513013407" lon="14.635083327510488"><ele>516.5</ele><time>2026-04-18T12:40:44.999Z</time></trkpt><trkpt lat="40.958461892565" lon="14.635238673119323"><ele>519.25</ele><time>2026-04-18T12:40:45.999Z</time></trkpt><trkpt lat="40.95842956895766" lon="14.635414292719966"><ele>522.0</ele><time>2026-04-18T12:40:46.999Z</time></trkpt><trkpt lat="40.958384107196636" lon="14.635596546175018"><ele>518.6666666666666</ele><time>2026-04-18T12:40:47.999Z</time></trkpt><trkpt lat="40.95833116897199" lon="14.635803208282137"><ele>515.3333333333333</ele><time>2026-04-18T12:40:48.999Z</time></trkpt><trkpt lat="40.95827307859931" lon="14.636004720306373"><ele>512.0</ele><time>2026-04-18T12:40:49.999Z</time></trkpt><trkpt lat="40.958202535551266" lon="14.636198969562038"><ele>512.0</ele><time>2026-04-18T12:40:50.999Z</time></trkpt><trkpt lat="40.95814237002566" lon="14.636428933238664"><ele>512.0</ele><time>2026-04-18T12:40:51.999Z</time></trkpt><trkpt lat="40.95807106494949" lon="14.636661939822341"><ele>512.0</ele><time>2026-04-18T12:40:52.999Z</time></trkpt><trkpt lat="40.95800761363582" lon="14.636866978201622"><ele>516.3333333333333</ele><time>2026-04-18T12:40:53.999Z</time></trkpt><trkpt lat="40.957949542206315" lon="14.637054105847989"><ele>520.6666666666666</ele><time>2026-04-18T12:40:54.999Z</time></trkpt><trkpt lat="40.957890623748725" lon="14.637245053308554"><ele>525.0</ele><time>2026-04-18T12:40:55.999Z</time></trkpt><trkpt lat="40.95783559789754" lon="14.637443977099368"><ele>525.0</ele><time>2026-04-18T12:40:56.999Z</time></trkpt><trkpt lat="40.957777872046876" lon="14.637649735238833"><ele>525.0</ele><time>2026-04-18T12:40:57.999Z</time></trkpt><trkpt lat="40.95772198062724" lon="14.63786166212128"><ele>525.0</ele><time>2026-04-18T12:40:58.999Z</time></trkpt><trkpt lat="40.9576770710181" lon="14.638044114074713"><ele>528.5</ele><time>2026-04-18T12:40:59.999Z</time></trkpt><trkpt lat="40.95763338422329" lon="14.638223989090754"><ele>532.0</ele><time>2026-04-18T12:41:00.999Z</time></trkpt><trkpt lat="40.957601654092656" lon="14.638413602791237"><ele>535.5</ele><time>2026-04-18T12:41:01.999Z</time></trkpt><trkpt lat="40.95758783580252" lon="14.638608407803565"><ele>539.0</ele><time>2026-04-18T12:41:02.999Z</time></trkpt><trkpt lat="40.957580592317676" lon="14.638802373242024"><ele>541.75</ele><time>2026-04-18T12:41:03.999Z</time></trkpt><trkpt lat="40.95758499641739" lon="14.638972746743152"><ele>544.5</ele><time>2026-04-18T12:41:04.999Z</time></trkpt><trkpt lat="40.95759533870997" lon="14.639139605759254"><ele>547.25</ele><time>2026-04-18T12:41:05.999Z</time></trkpt><trkpt lat="40.95759460024633" lon="14.639296519384239"><ele>550.0</ele><time>2026-04-18T12:41:06.999Z</time></trkpt><trkpt lat="40.957647602504665" lon="14.639438652373304"><ele>548.25</ele><time>2026-04-18T12:41:07.999Z</time></trkpt><trkpt lat="40.95770796153897" lon="14.639583937918761"><ele>546.5</ele><time>2026-04-18T12:41:08.999Z</time></trkpt><trkpt lat="40.957764976232085" lon="14.639745256922886"><ele>544.75</ele><time>2026-04-18T12:41:09.999Z</time></trkpt><trkpt lat="40.95784807540393" lon="14.639884407245342"><ele>543.0</ele><time>2026-04-18T12:41:10.999Z</time></trkpt><trkpt lat="40.957915594211535" lon="14.640009474163271"><ele>543.0</ele><time>2026-04-18T12:41:11.999Z</time></trkpt><trkpt lat="40.957975580788386" lon="14.640134405311974"><ele>543.0</ele><time>2026-04-18T12:41:12.999Z</time></trkpt><trkpt lat="40.95802910813646" lon="14.640255642208103"><ele>543.0</ele><time>2026-04-18T12:41:13.999Z</time></trkpt><trkpt lat="40.95807296740443" lon="14.64037097820062"><ele>543.0</ele><time>2026-04-18T12:41:14.999Z</time></trkpt><trkpt lat="40.95812011845012" lon="14.64047293780589"><ele>543.0</ele><time>2026-04-18T12:41:15.999Z</time></trkpt><trkpt lat="40.95815534995137" lon="14.640567592369132"><ele>542.5</ele><time>2026-04-18T12:41:16.999Z</time></trkpt><trkpt lat="40.95818925814633" lon="14.640659655971767"><ele>542.0</ele><time>2026-04-18T12:41:17.999Z</time></trkpt><trkpt lat="40.95822449763468" lon="14.640748167484366"><ele>541.5</ele><time>2026-04-18T12:41:18.999Z</time></trkpt><trkpt lat="40.95825690808541" lon="14.640842837408753"><ele>541.0</ele><time>2026-04-18T12:41:19.999Z</time></trkpt><trkpt lat="40.95828416494548" lon="14.64093673774446"><ele>540.5</ele><time>2026-04-18T12:41:20.999Z</time></trkpt><trkpt lat="40.95831294092157" lon="14.641034412506798"><ele>540.0</ele><time>2026-04-18T12:41:21.999Z</time></trkpt><trkpt lat="40.95833584999227" lon="14.641113891671763"><ele>542.5</ele><time>2026-04-18T12:41:22.999Z</time></trkpt><trkpt lat="40.95835922878163" lon="14.64121015074351"><ele>545.0</ele><time>2026-04-18T12:41:24.999Z</time></trkpt><trkpt lat="40.95835497986566" lon="14.64130188768335"><ele>547.5</ele><time>2026-04-18T12:41:26.999Z</time></trkpt><trkpt lat="40.95833743047476" lon="14.641386684639146"><ele>550.0</ele><time>2026-04-18T12:41:29.999Z</time></trkpt><trkpt lat="40.95845018596531" lon="14.641275155805513"><ele>552.5</ele><time>2026-04-18T12:42:18.998Z</time></trkpt><trkpt lat="40.958422708349524" lon="14.641173638807885"><ele>555.0</ele><time>2026-04-18T12:42:19.998Z</time></trkpt><trkpt lat="40.95843388695445" lon="14.64109136434032"><ele>559.0</ele><time>2026-04-18T12:42:20.998Z</time></trkpt><trkpt lat="40.958446694507344" lon="14.640914585405152"><ele>563.0</ele><time>2026-04-18T12:42:22.998Z</time></trkpt><trkpt lat="40.95844418816367" lon="14.640754500011232"><ele>567.0</ele><time>2026-04-18T12:42:24.998Z</time></trkpt><trkpt lat="40.958455395455346" lon="14.640661760689369"><ele>571.0</ele><time>2026-04-18T12:42:25.998Z</time></trkpt><trkpt lat="40.95845396946357" lon="14.64057431660159"><ele>575.0</ele><time>2026-04-18T12:42:26.998Z</time></trkpt><trkpt lat="40.958442187620555" lon="14.640489108848026"><ele>575.0</ele><time>2026-04-18T12:42:27.998Z</time></trkpt><trkpt lat="40.958465737487074" lon="14.640390635938417"><ele>575.0</ele><time>2026-04-18T12:42:29.998Z</time></trkpt><trkpt lat="40.95853291304098" lon="14.640579467718942"><ele>575.0</ele><time>2026-04-18T12:42:36.998Z</time></trkpt><trkpt lat="40.95852604749791" lon="14.640698109287385"><ele>575.0</ele><time>2026-04-18T12:42:37.998Z</time></trkpt><trkpt lat="40.9585362223884" lon="14.640831825566549"><ele>575.0</ele><time>2026-04-18T12:42:38.998Z</time></trkpt><trkpt lat="40.95854053237049" lon="14.640938060073127"><ele>575.0</ele><time>2026-04-18T12:42:39.999Z</time></trkpt><trkpt lat="40.9585462677934" lon="14.641069000750127"><ele>575.0</ele><time>2026-04-18T12:42:40.999Z</time></trkpt><trkpt lat="40.958551539018366" lon="14.641182187594895"><ele>575.0</ele><time>2026-04-18T12:42:41.999Z</time></trkpt><trkpt lat="40.9585563170036" lon="14.641282994123708"><ele>575.0</ele><time>2026-04-18T12:42:42.999Z</time></trkpt><trkpt lat="40.95856048935733" lon="14.64138464576789"><ele>575.0</ele><time>2026-04-18T12:42:43.999Z</time></trkpt><trkpt lat="40.958564329650535" lon="14.64146892725137"><ele>575.0</ele><time>2026-04-18T12:42:44.999Z</time></trkpt><trkpt lat="40.958517039110966" lon="14.64156490778707"><ele>576.4</ele><time>2026-04-18T12:42:47Z</time></trkpt><trkpt lat="40.95842768684513" lon="14.641581008657628"><ele>577.8</ele><time>2026-04-18T12:42:49Z</time></trkpt><trkpt lat="40.958304093087605" lon="14.641663952222522"><ele>579.2</ele><time>2026-04-18T12:42:51Z</time></trkpt><trkpt lat="40.95822709630471" lon="14.641688366858139"><ele>580.6</ele><time>2026-04-18T12:42:52Z</time></trkpt><trkpt lat="40.958164683787466" lon="14.641731794838275"><ele>582.0</ele><time>2026-04-18T12:42:53Z</time></trkpt><trkpt lat="40.95808850384209" lon="14.641805826955611"><ele>580.8000000000001</ele><time>2026-04-18T12:42:54Z</time></trkpt><trkpt lat="40.958002556435964" lon="14.641880737741506"><ele>579.6</ele><time>2026-04-18T12:42:55Z</time></trkpt><trkpt lat="40.95790060558106" lon="14.64194808990333"><ele>578.4000000000001</ele><time>2026-04-18T12:42:56Z</time></trkpt><trkpt lat="40.95780012710541" lon="14.642027054560616"><ele>577.2</ele><time>2026-04-18T12:42:57Z</time></trkpt><trkpt lat="40.95772791603246" lon="14.64209207466138"><ele>576.0</ele><time>2026-04-18T12:42:58Z</time></trkpt><trkpt lat="40.9576570636764" lon="14.64218140603938"><ele>576.0</ele><time>2026-04-18T12:43:00Z</time></trkpt><trkpt lat="40.95766573168092" lon="14.642278974767118"><ele>576.0</ele><time>2026-04-18T12:43:03Z</time></trkpt><trkpt lat="40.95776049475954" lon="14.64229041628767"><ele>576.0</ele><time>2026-04-18T12:43:05Z</time></trkpt><trkpt lat="40.95782455670772" lon="14.642234113989906"><ele>576.0</ele><time>2026-04-18T12:43:07Z</time></trkpt><trkpt lat="40.95788438260941" lon="14.642207613968267"><ele>576.0</ele><time>2026-04-18T12:43:07.999Z</time></trkpt><trkpt lat="40.9579649858058" lon="14.642173984217962"><ele>576.0</ele><time>2026-04-18T12:43:08.999Z</time></trkpt><trkpt lat="40.95804583278559" lon="14.642147960017374"><ele>576.0</ele><time>2026-04-18T12:43:09.999Z</time></trkpt><trkpt lat="40.95813595108739" lon="14.642120447166638"><ele>576.0</ele><time>2026-04-18T12:43:10.999Z</time></trkpt><trkpt lat="40.958245782275256" lon="14.64208598786925"><ele>576.0</ele><time>2026-04-18T12:43:11.999Z</time></trkpt><trkpt lat="40.95835580646256" lon="14.642026945105625"><ele>576.0</ele><time>2026-04-18T12:43:12.999Z</time></trkpt><trkpt lat="40.95846360452473" lon="14.641952541759624"><ele>576.0</ele><time>2026-04-18T12:43:13.999Z</time></trkpt><trkpt lat="40.958556894545346" lon="14.641887000927776"><ele>577.0</ele><time>2026-04-18T12:43:14.999Z</time></trkpt><trkpt lat="40.958638830458874" lon="14.641843918367524"><ele>578.0</ele><time>2026-04-18T12:43:15.999Z</time></trkpt><trkpt lat="40.958700411915615" lon="14.641807197232916"><ele>579.0</ele><time>2026-04-18T12:43:16.999Z</time></trkpt><trkpt lat="40.95875198168591" lon="14.64175799360815"><ele>580.0</ele><time>2026-04-18T12:43:17.999Z</time></trkpt><trkpt lat="40.958790630918394" lon="14.641680454132299"><ele>581.0</ele><time>2026-04-18T12:43:18.999Z</time></trkpt><trkpt lat="40.95881753241941" lon="14.641572193022151"><ele>582.0</ele><time>2026-04-18T12:43:19.999Z</time></trkpt><trkpt lat="40.9588407172985" lon="14.641452058011275"><ele>582.0</ele><time>2026-04-18T12:43:20.999Z</time></trkpt><trkpt lat="40.958885748376616" lon="14.641347185306591"><ele>582.0</ele><time>2026-04-18T12:43:21.999Z</time></trkpt><trkpt lat="40.958895659635616" lon="14.64124896341424"><ele>582.0</ele><time>2026-04-18T12:43:22.999Z</time></trkpt><trkpt lat="40.95893822966312" lon="14.641150634022633"><ele>582.0</ele><time>2026-04-18T12:43:23.999Z</time></trkpt><trkpt lat="40.9589738244214" lon="14.641018506424054"><ele>582.0</ele><time>2026-04-18T12:43:25.999Z</time></trkpt><trkpt lat="40.95904396653333" lon="14.641010101006605"><ele>582.0</ele><time>2026-04-18T12:43:30.999Z</time></trkpt><trkpt lat="40.95904858158831" lon="14.64111478405864"><ele>582.0</ele><time>2026-04-18T12:43:32.999Z</time></trkpt><trkpt lat="40.95898751480527" lon="14.641169490940033"><ele>582.0</ele><time>2026-04-18T12:43:33.999Z</time></trkpt><trkpt lat="40.95897046930116" lon="14.641259760251158"><ele>582.0</ele><time>2026-04-18T12:43:34.999Z</time></trkpt><trkpt lat="40.95897922694241" lon="14.6413562217984"><ele>582.0</ele><time>2026-04-18T12:43:35.999Z</time></trkpt><trkpt lat="40.95899196995191" lon="14.64146371304658"><ele>582.0</ele><time>2026-04-18T12:43:36.999Z</time></trkpt><trkpt lat="40.95900466627542" lon="14.64157759501095"><ele>582.0</ele><time>2026-04-18T12:43:37.999Z</time></trkpt><trkpt lat="40.95899374278814" lon="14.641674901626264"><ele>582.0</ele><time>2026-04-18T12:43:38.999Z</time></trkpt><trkpt lat="40.959004046847745" lon="14.641787834614647"><ele>582.0</ele><time>2026-04-18T12:43:39.999Z</time></trkpt><trkpt lat="40.95899301127926" lon="14.641905608589724"><ele>582.0</ele><time>2026-04-18T12:43:40.999Z</time></trkpt><trkpt lat="40.95896864464887" lon="14.64199094831576"><ele>582.0</ele><time>2026-04-18T12:43:41.999Z</time></trkpt><trkpt lat="40.95887530251058" lon="14.642087280534469"><ele>582.0</ele><time>2026-04-18T12:43:43.999Z</time></trkpt><trkpt lat="40.95880930144122" lon="14.642149702203394"><ele>582.0</ele><time>2026-04-18T12:43:44.999Z</time></trkpt><trkpt lat="40.95874722089243" lon="14.642236042599038"><ele>584.6</ele><time>2026-04-18T12:43:45.999Z</time></trkpt><trkpt lat="40.95868913871972" lon="14.642325907741826"><ele>587.2</ele><time>2026-04-18T12:43:46.999Z</time></trkpt><trkpt lat="40.9586188335346" lon="14.642419772593104"><ele>589.8</ele><time>2026-04-18T12:43:47.999Z</time></trkpt><trkpt lat="40.95854987033422" lon="14.64248835971667"><ele>592.4</ele><time>2026-04-18T12:43:48.999Z</time></trkpt><trkpt lat="40.95845646507204" lon="14.642596089256173"><ele>595.0</ele><time>2026-04-18T12:43:50.999Z</time></trkpt><trkpt lat="40.95851110804563" lon="14.642699920350747"><ele>595.0</ele><time>2026-04-18T12:43:53.999Z</time></trkpt><trkpt lat="40.958591871134" lon="14.642667153762288"><ele>595.0</ele><time>2026-04-18T12:43:55.999Z</time></trkpt><trkpt lat="40.95866106889348" lon="14.642603466721857"><ele>595.0</ele><time>2026-04-18T12:43:56.999Z</time></trkpt><trkpt lat="40.958722752693774" lon="14.64255091398759"><ele>595.0</ele><time>2026-04-18T12:43:57.999Z</time></trkpt><trkpt lat="40.95879205684036" lon="14.64251061147984"><ele>595.0</ele><time>2026-04-18T12:43:58.999Z</time></trkpt><trkpt lat="40.95886887587941" lon="14.642480551505098"><ele>595.0</ele><time>2026-04-18T12:43:59.999Z</time></trkpt><trkpt lat="40.95894789383981" lon="14.642433804593145"><ele>595.0</ele><time>2026-04-18T12:44:00.999Z</time></trkpt><trkpt lat="40.959016995771115" lon="14.64239770552267"><ele>595.0</ele><time>2026-04-18T12:44:01.999Z</time></trkpt><trkpt lat="40.95909490218701" lon="14.642359225812971"><ele>595.0</ele><time>2026-04-18T12:44:02.999Z</time></trkpt><trkpt lat="40.95918150533919" lon="14.642301361934447"><ele>595.0</ele><time>2026-04-18T12:44:03.999Z</time></trkpt><trkpt lat="40.95926108923609" lon="14.642250350094855"><ele>595.0</ele><time>2026-04-18T12:44:04.999Z</time></trkpt><trkpt lat="40.95931842427372" lon="14.642201923768775"><ele>595.0</ele><time>2026-04-18T12:44:05.999Z</time></trkpt><trkpt lat="40.95939859172275" lon="14.642099019131036"><ele>597.4</ele><time>2026-04-18T12:44:07.999Z</time></trkpt><trkpt lat="40.95944871733453" lon="14.641938474406654"><ele>599.8</ele><time>2026-04-18T12:44:09.999Z</time></trkpt><trkpt lat="40.95948716641449" lon="14.641812149529269"><ele>602.2</ele><time>2026-04-18T12:44:10.999Z</time></trkpt><trkpt lat="40.95952743637421" lon="14.641696357096654"><ele>604.6</ele><time>2026-04-18T12:44:11.999Z</time></trkpt><trkpt lat="40.95956750411784" lon="14.641604814481735"><ele>607.0</ele><time>2026-04-18T12:44:12.999Z</time></trkpt><trkpt lat="40.959595223552114" lon="14.641501765450236"><ele>607.0</ele><time>2026-04-18T12:44:13.999Z</time></trkpt><trkpt lat="40.959623719052146" lon="14.64139056996664"><ele>607.0</ele><time>2026-04-18T12:44:14.999Z</time></trkpt><trkpt lat="40.95965587115669" lon="14.64127083167614"><ele>607.0</ele><time>2026-04-18T12:44:15.999Z</time></trkpt><trkpt lat="40.95967273954234" lon="14.641164676052561"><ele>607.0</ele><time>2026-04-18T12:44:16.999Z</time></trkpt><trkpt lat="40.95968686186913" lon="14.6410518698116"><ele>607.0</ele><time>2026-04-18T12:44:17.999Z</time></trkpt><trkpt lat="40.959682976067555" lon="14.640924716792806"><ele>607.0</ele><time>2026-04-18T12:44:18.999Z</time></trkpt><trkpt lat="40.959687113269396" lon="14.640829602961784"><ele>606.8333333333334</ele><time>2026-04-18T12:44:19.999Z</time></trkpt><trkpt lat="40.95970574497118" lon="14.640706816815138"><ele>606.6666666666667</ele><time>2026-04-18T12:44:20.999Z</time></trkpt><trkpt lat="40.95972104042164" lon="14.640578716198032"><ele>606.5</ele><time>2026-04-18T12:44:21.999Z</time></trkpt><trkpt lat="40.95972444682354" lon="14.640472592277716"><ele>606.3333333333334</ele><time>2026-04-18T12:44:22.999Z</time></trkpt><trkpt lat="40.95972778164458" lon="14.640358944685492"><ele>606.1666666666666</ele><time>2026-04-18T12:44:23.999Z</time></trkpt><trkpt lat="40.95972889352703" lon="14.64024744377457"><ele>606.0</ele><time>2026-04-18T12:44:24.999Z</time></trkpt><trkpt lat="40.959718757898976" lon="14.640144085928538"><ele>606.0</ele><time>2026-04-18T12:44:25.999Z</time></trkpt><trkpt lat="40.95970119360225" lon="14.64005431062347"><ele>606.0</ele><time>2026-04-18T12:44:27.999Z</time></trkpt><trkpt lat="40.95976775119056" lon="14.640030197285743"><ele>606.0</ele><time>2026-04-18T12:44:31.999Z</time></trkpt><trkpt lat="40.959795405318154" lon="14.64016300603863"><ele>606.0</ele><time>2026-04-18T12:44:34.998Z</time></trkpt><trkpt lat="40.95982209481698" lon="14.64034322479026"><ele>606.0</ele><time>2026-04-18T12:44:36.998Z</time></trkpt><trkpt lat="40.95984062153781" lon="14.640425014911617"><ele>606.0</ele><time>2026-04-18T12:44:37.998Z</time></trkpt><trkpt lat="40.95986100044058" lon="14.640507184294979"><ele>606.0</ele><time>2026-04-18T12:44:38.998Z</time></trkpt><trkpt lat="40.959906186754516" lon="14.64068925039043"><ele>606.0</ele><time>2026-04-18T12:44:40.998Z</time></trkpt><trkpt lat="40.95993344583822" lon="14.640804943822115"><ele>606.0</ele><time>2026-04-18T12:44:41.998Z</time></trkpt><trkpt lat="40.959965150132284" lon="14.640921582097143"><ele>606.0</ele><time>2026-04-18T12:44:42.998Z</time></trkpt><trkpt lat="40.95998792543874" lon="14.641022920385712"><ele>606.0</ele><time>2026-04-18T12:44:43.998Z</time></trkpt><trkpt lat="40.96000935639452" lon="14.641119036906316"><ele>606.1666666666666</ele><time>2026-04-18T12:44:44.998Z</time></trkpt><trkpt lat="40.96002734990686" lon="14.641206157122603"><ele>606.3333333333334</ele><time>2026-04-18T12:44:46Z</time></trkpt><trkpt lat="40.96004616605609" lon="14.641304357030611"><ele>606.5</ele><time>2026-04-18T12:44:47Z</time></trkpt><trkpt lat="40.960063789500204" lon="14.64139839086134"><ele>606.6666666666667</ele><time>2026-04-18T12:44:48Z</time></trkpt><trkpt lat="40.960091957066936" lon="14.641490382624882"><ele>606.8333333333334</ele><time>2026-04-18T12:44:49Z</time></trkpt><trkpt lat="40.96012077939925" lon="14.641593888919177"><ele>607.0</ele><time>2026-04-18T12:44:50Z</time></trkpt><trkpt lat="40.960140927602005" lon="14.64169431197147"><ele>610.1666666666667</ele><time>2026-04-18T12:44:51Z</time></trkpt><trkpt lat="40.960171005930945" lon="14.641789900432684"><ele>613.3333333333334</ele><time>2026-04-18T12:44:52Z</time></trkpt><trkpt lat="40.96019521679244" lon="14.641890452511099"><ele>616.5</ele><time>2026-04-18T12:44:53Z</time></trkpt><trkpt lat="40.96022004815558" lon="14.641986681908056"><ele>619.6666666666666</ele><time>2026-04-18T12:44:54Z</time></trkpt><trkpt lat="40.96024443157312" lon="14.642088436424379"><ele>622.8333333333333</ele><time>2026-04-18T12:44:55Z</time></trkpt><trkpt lat="40.960279117285374" lon="14.642182612619342"><ele>626.0</ele><time>2026-04-18T12:44:56Z</time></trkpt><trkpt lat="40.960339036131735" lon="14.642288631300469"><ele>626.0</ele><time>2026-04-18T12:44:58Z</time></trkpt><trkpt lat="40.960437436332455" lon="14.64239783358323"><ele>626.0</ele><time>2026-04-18T12:45:00Z</time></trkpt><trkpt lat="40.96048233041403" lon="14.64247535962476"><ele>626.0</ele><time>2026-04-18T12:45:02Z</time></trkpt><trkpt lat="40.96054776336671" lon="14.642590887616235"><ele>626.0</ele><time>2026-04-18T12:45:04Z</time></trkpt><trkpt lat="40.96059617143101" lon="14.642652029938672"><ele>626.0</ele><time>2026-04-18T12:45:05Z</time></trkpt><trkpt lat="40.960644099625675" lon="14.642751482618031"><ele>626.8333333333333</ele><time>2026-04-18T12:45:07Z</time></trkpt><trkpt lat="40.96068080238572" lon="14.64286233383287"><ele>627.6666666666666</ele><time>2026-04-18T12:45:35Z</time></trkpt><trkpt lat="40.96073357365769" lon="14.64294288975069"><ele>628.5</ele><time>2026-04-18T12:45:37Z</time></trkpt><trkpt lat="40.96076440322104" lon="14.643016185417538"><ele>629.3333333333334</ele><time>2026-04-18T12:45:57.999Z</time></trkpt><trkpt lat="40.960781474315176" lon="14.643097132998598"><ele>630.1666666666667</ele><time>2026-04-18T12:46:05.999Z</time></trkpt><trkpt lat="40.9608427977623" lon="14.64314557950796"><ele>631.0</ele><time>2026-04-18T12:48:18.999Z</time></trkpt><trkpt lat="40.96090878682591" lon="14.643216013851811"><ele>632.1428571428572</ele><time>2026-04-18T12:48:21.999Z</time></trkpt><trkpt lat="40.960927243842015" lon="14.643317702032904"><ele>633.2857142857142</ele><time>2026-04-18T12:48:23.999Z</time></trkpt><trkpt lat="40.96093167334485" lon="14.643412964769546"><ele>634.4285714285714</ele><time>2026-04-18T12:52:30.999Z</time></trkpt><trkpt lat="40.96096401389559" lon="14.643487113127037"><ele>635.5714285714287</ele><time>2026-04-18T12:52:31.999Z</time></trkpt><trkpt lat="40.96102840073816" lon="14.643560738592894"><ele>636.7142857142858</ele><time>2026-04-18T12:52:33.999Z</time></trkpt><trkpt lat="40.961062642930905" lon="14.643632335529174"><ele>637.8571428571429</ele><time>2026-04-18T12:52:36.999Z</time></trkpt><trkpt lat="40.96113881267514" lon="14.643614652253719"><ele>639.0</ele><time>2026-04-18T12:53:16.999Z</time></trkpt><trkpt lat="40.96115822409755" lon="14.643724604387595"><ele>639.0</ele><time>2026-04-18T12:54:09.999Z</time></trkpt><trkpt lat="40.96110237367038" lon="14.643885384477386"><ele>639.0</ele><time>2026-04-18T12:54:11.999Z</time></trkpt><trkpt lat="40.961176054099326" lon="14.643885908046235"><ele>639.0</ele><time>2026-04-18T12:57:44Z</time></trkpt><trkpt lat="40.96115525098954" lon="14.643970135569743"><ele>639.0</ele><time>2026-04-18T12:57:46Z</time></trkpt><trkpt lat="40.961109794796826" lon="14.644095933065595"><ele>639.0</ele><time>2026-04-18T12:57:48Z</time></trkpt><trkpt lat="40.9610789938842" lon="14.644177155951962"><ele>639.0</ele><time>2026-04-18T12:57:49Z</time></trkpt><trkpt lat="40.961042441749825" lon="14.644257312282214"><ele>639.0</ele><time>2026-04-18T12:57:50Z</time></trkpt><trkpt lat="40.96095758482663" lon="14.644316218747534"><ele>639.0</ele><time>2026-04-18T12:57:52Z</time></trkpt><trkpt lat="40.96089238174766" lon="14.644327812511019"><ele>639.0</ele><time>2026-04-18T12:57:53Z</time></trkpt><trkpt lat="40.960816801030184" lon="14.644325554124759"><ele>639.0</ele><time>2026-04-18T12:57:54Z</time></trkpt><trkpt lat="40.96073623587502" lon="14.644307843610482"><ele>639.0</ele><time>2026-04-18T12:57:55Z</time></trkpt><trkpt lat="40.960649707170354" lon="14.64428148316154"><ele>639.0</ele><time>2026-04-18T12:57:56Z</time></trkpt><trkpt lat="40.960575415867645" lon="14.644216974210341"><ele>639.6</ele><time>2026-04-18T12:57:57Z</time></trkpt><trkpt lat="40.960482242396644" lon="14.644181836002426"><ele>640.2</ele><time>2026-04-18T12:57:58Z</time></trkpt><trkpt lat="40.96039237615326" lon="14.644120207009973"><ele>640.8000000000001</ele><time>2026-04-18T12:57:59Z</time></trkpt><trkpt lat="40.96029728459646" lon="14.644097705138677"><ele>641.4</ele><time>2026-04-18T12:58:00Z</time></trkpt><trkpt lat="40.96019466671104" lon="14.644115049815289"><ele>642.0</ele><time>2026-04-18T12:58:01Z</time></trkpt><trkpt lat="40.960094346649534" lon="14.644152302619753"><ele>642.8</ele><time>2026-04-18T12:58:02Z</time></trkpt><trkpt lat="40.96000783524591" lon="14.644187172635826"><ele>643.6</ele><time>2026-04-18T12:58:03Z</time></trkpt><trkpt lat="40.95990844269023" lon="14.64421341596415"><ele>644.4</ele><time>2026-04-18T12:58:04Z</time></trkpt><trkpt lat="40.95980478047569" lon="14.644230695028375"><ele>645.1999999999999</ele><time>2026-04-18T12:58:05Z</time></trkpt><trkpt lat="40.95971020549556" lon="14.644262287209912"><ele>646.0</ele><time>2026-04-18T12:58:06Z</time></trkpt><trkpt lat="40.95961551618351" lon="14.644333581573292"><ele>646.0</ele><time>2026-04-18T12:58:07Z</time></trkpt><trkpt lat="40.95954719693584" lon="14.644431172030504"><ele>646.0</ele><time>2026-04-18T12:58:08Z</time></trkpt><trkpt lat="40.95949600186255" lon="14.644564630340687"><ele>646.0</ele><time>2026-04-18T12:58:09Z</time></trkpt><trkpt lat="40.959460143212" lon="14.644712320783588"><ele>646.0</ele><time>2026-04-18T12:58:10Z</time></trkpt><trkpt lat="40.959437677681585" lon="14.64485813609172"><ele>646.0</ele><time>2026-04-18T12:58:11Z</time></trkpt><trkpt lat="40.959435117802286" lon="14.6449997865848"><ele>650.5</ele><time>2026-04-18T12:58:12Z</time></trkpt><trkpt lat="40.95945370858956" lon="14.645146816631085"><ele>655.0</ele><time>2026-04-18T12:58:13Z</time></trkpt><trkpt lat="40.9594861045041" lon="14.645310651700164"><ele>659.5</ele><time>2026-04-18T12:58:14Z</time></trkpt><trkpt lat="40.95952971535991" lon="14.645482615878633"><ele>664.0</ele><time>2026-04-18T12:58:15Z</time></trkpt><trkpt lat="40.95959017434917" lon="14.645664392690247"><ele>664.75</ele><time>2026-04-18T12:58:16Z</time></trkpt><trkpt lat="40.95967099790138" lon="14.645834179385483"><ele>665.5</ele><time>2026-04-18T12:58:17Z</time></trkpt><trkpt lat="40.95975290186404" lon="14.64599231665506"><ele>666.25</ele><time>2026-04-18T12:58:18Z</time></trkpt><trkpt lat="40.95981186045484" lon="14.646129858264011"><ele>667.0</ele><time>2026-04-18T12:58:19Z</time></trkpt><trkpt lat="40.95984514478785" lon="14.64627405968332"><ele>667.0</ele><time>2026-04-18T12:58:20Z</time></trkpt><trkpt lat="40.95986604965788" lon="14.646430514449193"><ele>667.0</ele><time>2026-04-18T12:58:21Z</time></trkpt><trkpt lat="40.95987452726765" lon="14.64660221332251"><ele>667.0</ele><time>2026-04-18T12:58:22Z</time></trkpt><trkpt lat="40.95988106252086" lon="14.64677979215395"><ele>667.0</ele><time>2026-04-18T12:58:23Z</time></trkpt><trkpt lat="40.95988657650685" lon="14.646963679297983"><ele>667.5</ele><time>2026-04-18T12:58:24Z</time></trkpt><trkpt lat="40.95988742497641" lon="14.647143804701544"><ele>668.0</ele><time>2026-04-18T12:58:25Z</time></trkpt><trkpt lat="40.95988045007693" lon="14.647309066398758"><ele>668.5</ele><time>2026-04-18T12:58:26Z</time></trkpt><trkpt lat="40.95986746227556" lon="14.647476402847856"><ele>669.0</ele><time>2026-04-18T12:58:27Z</time></trkpt><trkpt lat="40.959854307756665" lon="14.647644765257494"><ele>669.25</ele><time>2026-04-18T12:58:28Z</time></trkpt><trkpt lat="40.959856785078934" lon="14.647811167815536"><ele>669.5</ele><time>2026-04-18T12:58:29Z</time></trkpt><trkpt lat="40.9598747148238" lon="14.647989449631607"><ele>669.75</ele><time>2026-04-18T12:58:30Z</time></trkpt><trkpt lat="40.959893385545584" lon="14.648164250357835"><ele>670.0</ele><time>2026-04-18T12:58:31Z</time></trkpt><trkpt lat="40.95990671955262" lon="14.64833175236758"><ele>670.0</ele><time>2026-04-18T12:58:32Z</time></trkpt><trkpt lat="40.95992614709041" lon="14.648496169168178"><ele>670.0</ele><time>2026-04-18T12:58:33Z</time></trkpt><trkpt lat="40.95994921345062" lon="14.648662613151625"><ele>670.0</ele><time>2026-04-18T12:58:34Z</time></trkpt><trkpt lat="40.95996925277756" lon="14.648825860614364"><ele>670.0</ele><time>2026-04-18T12:58:35Z</time></trkpt><trkpt lat="40.95998454581167" lon="14.6489834900021"><ele>670.75</ele><time>2026-04-18T12:58:36Z</time></trkpt><trkpt lat="40.9600030471076" lon="14.649143028876953"><ele>671.5</ele><time>2026-04-18T12:58:37Z</time></trkpt><trkpt lat="40.96001886601723" lon="14.649294101147191"><ele>672.25</ele><time>2026-04-18T12:58:38Z</time></trkpt><trkpt lat="40.9600241035888" lon="14.64943678517565"><ele>673.0</ele><time>2026-04-18T12:58:39Z</time></trkpt><trkpt lat="40.960019890363924" lon="14.649583416150346"><ele>673.4</ele><time>2026-04-18T12:58:40Z</time></trkpt><trkpt lat="40.960012107713474" lon="14.649732757924165"><ele>673.8</ele><time>2026-04-18T12:58:41Z</time></trkpt><trkpt lat="40.96000243694593" lon="14.649868037767847"><ele>674.2</ele><time>2026-04-18T12:58:42Z</time></trkpt><trkpt lat="40.95999275605651" lon="14.65000345714811"><ele>674.6</ele><time>2026-04-18T12:58:43Z</time></trkpt><trkpt lat="40.959989032850096" lon="14.650152919871232"><ele>675.0</ele><time>2026-04-18T12:58:44Z</time></trkpt><trkpt lat="40.95996469722791" lon="14.65031405774123"><ele>675.75</ele><time>2026-04-18T12:58:45Z</time></trkpt><trkpt lat="40.95997089124895" lon="14.650472906031922"><ele>676.5</ele><time>2026-04-18T12:58:46Z</time></trkpt><trkpt lat="40.9599606279022" lon="14.65064067154217"><ele>677.25</ele><time>2026-04-18T12:58:47Z</time></trkpt><trkpt lat="40.959947843070125" lon="14.650843623118808"><ele>678.0</ele><time>2026-04-18T12:58:47.999Z</time></trkpt><trkpt lat="40.95996524339249" lon="14.651021238515606"><ele>677.5</ele><time>2026-04-18T12:58:48.999Z</time></trkpt><trkpt lat="40.95997771764219" lon="14.651183736186791"><ele>677.0</ele><time>2026-04-18T12:58:49.999Z</time></trkpt><trkpt lat="40.95999633751939" lon="14.65134804284086"><ele>676.5</ele><time>2026-04-18T12:58:50.999Z</time></trkpt><trkpt lat="40.96003120435323" lon="14.651514776900504"><ele>676.0</ele><time>2026-04-18T12:58:51.999Z</time></trkpt><trkpt lat="40.96007800290029" lon="14.6516792920706"><ele>682.75</ele><time>2026-04-18T12:58:52.999Z</time></trkpt><trkpt lat="40.96013463233377" lon="14.651837454741056"><ele>689.5</ele><time>2026-04-18T12:58:53.999Z</time></trkpt><trkpt lat="40.96019491514708" lon="14.651990844576979"><ele>696.25</ele><time>2026-04-18T12:58:54.999Z</time></trkpt><trkpt lat="40.96025906003668" lon="14.652144169499852"><ele>703.0</ele><time>2026-04-18T12:58:55.999Z</time></trkpt><trkpt lat="40.9603253577382" lon="14.652296314724536"><ele>703.0</ele><time>2026-04-18T12:58:56.999Z</time></trkpt><trkpt lat="40.96038489878849" lon="14.65243440419774"><ele>703.0</ele><time>2026-04-18T12:58:57.999Z</time></trkpt><trkpt lat="40.96043797713311" lon="14.652567262078522"><ele>703.0</ele><time>2026-04-18T12:58:58.999Z</time></trkpt><trkpt lat="40.96048980504643" lon="14.652693102029781"><ele>703.0</ele><time>2026-04-18T12:58:59.999Z</time></trkpt><trkpt lat="40.960557543000554" lon="14.652808785722913"><ele>701.2</ele><time>2026-04-18T12:59:00.999Z</time></trkpt><trkpt lat="40.960635961291615" lon="14.652929172247422"><ele>699.4</ele><time>2026-04-18T12:59:01.999Z</time></trkpt><trkpt lat="40.96075099305312" lon="14.652993020837856"><ele>697.6</ele><time>2026-04-18T12:59:02.999Z</time></trkpt><trkpt lat="40.960845513365896" lon="14.65303019341943"><ele>695.8000000000001</ele><time>2026-04-18T12:59:03.999Z</time></trkpt><trkpt lat="40.96090977502094" lon="14.65309215372907"><ele>694.0</ele><time>2026-04-18T12:59:04.999Z</time></trkpt><trkpt lat="40.96097075996569" lon="14.653192235571499"><ele>694.0</ele><time>2026-04-18T12:59:06.999Z</time></trkpt><trkpt lat="40.96096031549238" lon="14.653276926471563"><ele>694.0</ele><time>2026-04-18T12:59:07.999Z</time></trkpt><trkpt lat="40.96086010191723" lon="14.653397764720514"><ele>694.0</ele><time>2026-04-18T12:59:09.999Z</time></trkpt><trkpt lat="40.960805140829144" lon="14.65349551395442"><ele>694.0</ele><time>2026-04-18T12:59:10.999Z</time></trkpt><trkpt lat="40.960775750636074" lon="14.653623476991784"><ele>694.0</ele><time>2026-04-18T12:59:11.999Z</time></trkpt><trkpt lat="40.96079007742385" lon="14.653746832475727"><ele>694.8333333333334</ele><time>2026-04-18T12:59:12.999Z</time></trkpt><trkpt lat="40.960810361987946" lon="14.653825883291951"><ele>695.6666666666667</ele><time>2026-04-18T12:59:13.999Z</time></trkpt><trkpt lat="40.960864064848685" lon="14.653908876269835"><ele>696.5</ele><time>2026-04-18T12:59:15.999Z</time></trkpt><trkpt lat="40.96092720255493" lon="14.653899722808372"><ele>697.3333333333334</ele><time>2026-04-18T12:59:16.999Z</time></trkpt><trkpt lat="40.96096390117426" lon="14.653823719294252"><ele>698.1666666666666</ele><time>2026-04-18T12:59:17.999Z</time></trkpt><trkpt lat="40.96094370775399" lon="14.653719229986406"><ele>699.0</ele><time>2026-04-18T12:59:18.999Z</time></trkpt><trkpt lat="40.96095027809273" lon="14.65357206791988"><ele>706.2</ele><time>2026-04-18T12:59:20.999Z</time></trkpt><trkpt lat="40.96103671067103" lon="14.653461521593323"><ele>713.4000000000001</ele><time>2026-04-18T12:59:22.999Z</time></trkpt><trkpt lat="40.96110496798942" lon="14.65335244064779"><ele>720.6</ele><time>2026-04-18T12:59:23.999Z</time></trkpt><trkpt lat="40.961190206362105" lon="14.653263940921232"><ele>727.8</ele><time>2026-04-18T12:59:24.999Z</time></trkpt><trkpt lat="40.961233558639464" lon="14.653160769736207"><ele>735.0</ele><time>2026-04-18T12:59:25.999Z</time></trkpt><trkpt lat="40.96125303792961" lon="14.653071012287333"><ele>735.0</ele><time>2026-04-18T12:59:27Z</time></trkpt><trkpt lat="40.9612079638005" lon="14.652954015247817"><ele>735.0</ele><time>2026-04-18T12:59:28Z</time></trkpt><trkpt lat="40.96115617680561" lon="14.652880011019565"><ele>735.0</ele><time>2026-04-18T12:59:29Z</time></trkpt><trkpt lat="40.96106831149888" lon="14.652788766693185"><ele>735.0</ele><time>2026-04-18T12:59:30Z</time></trkpt><trkpt lat="40.960995757136814" lon="14.65267421271511"><ele>735.0</ele><time>2026-04-18T12:59:31Z</time></trkpt><trkpt lat="40.96097189507858" lon="14.652534820922506"><ele>735.75</ele><time>2026-04-18T12:59:32Z</time></trkpt><trkpt lat="40.960933879709806" lon="14.652384045456497"><ele>736.5</ele><time>2026-04-18T12:59:33Z</time></trkpt><trkpt lat="40.96089820659417" lon="14.652218002365492"><ele>737.25</ele><time>2026-04-18T12:59:34Z</time></trkpt><trkpt lat="40.960863231642605" lon="14.652044752472262"><ele>738.0</ele><time>2026-04-18T12:59:35Z</time></trkpt><trkpt lat="40.96082801019624" lon="14.651869526615735"><ele>732.0</ele><time>2026-04-18T12:59:36Z</time></trkpt><trkpt lat="40.960801803049854" lon="14.65170846982625"><ele>726.0</ele><time>2026-04-18T12:59:37Z</time></trkpt><trkpt lat="40.9607865582151" lon="14.65156459598502"><ele>720.0</ele><time>2026-04-18T12:59:38Z</time></trkpt><trkpt lat="40.96078516188007" lon="14.651414822470686"><ele>714.0</ele><time>2026-04-18T12:59:39Z</time></trkpt><trkpt lat="40.9607987381138" lon="14.651265767718511"><ele>714.0</ele><time>2026-04-18T12:59:40Z</time></trkpt><trkpt lat="40.96082560671951" lon="14.651127499901978"><ele>714.0</ele><time>2026-04-18T12:59:41Z</time></trkpt><trkpt lat="40.96084919665876" lon="14.651013738072459"><ele>714.0</ele><time>2026-04-18T12:59:42Z</time></trkpt><trkpt lat="40.96086603745706" lon="14.65093252375948"><ele>714.0</ele><time>2026-04-18T12:59:43Z</time></trkpt><trkpt lat="40.96089547346162" lon="14.6508246192142"><ele>714.0</ele><time>2026-04-18T12:59:45Z</time></trkpt><trkpt lat="40.96094976584787" lon="14.650775572803251"><ele>714.0</ele><time>2026-04-18T12:59:47Z</time></trkpt><trkpt lat="40.96097925249088" lon="14.650892769149891"><ele>719.5</ele><time>2026-04-18T12:59:49Z</time></trkpt><trkpt lat="40.96099922928327" lon="14.651077304994983"><ele>725.0</ele><time>2026-04-18T12:59:51Z</time></trkpt><trkpt lat="40.96102048863156" lon="14.651205177914607"><ele>730.5</ele><time>2026-04-18T12:59:52Z</time></trkpt><trkpt lat="40.961032508814256" lon="14.651371432393656"><ele>736.0</ele><time>2026-04-18T12:59:53Z</time></trkpt><trkpt lat="40.961088725988766" lon="14.651519307654848"><ele>736.5</ele><time>2026-04-18T12:59:54Z</time></trkpt><trkpt lat="40.961142491618574" lon="14.651641888031186"><ele>737.0</ele><time>2026-04-18T12:59:55Z</time></trkpt><trkpt lat="40.96121882170705" lon="14.651750665457737"><ele>737.5</ele><time>2026-04-18T12:59:56Z</time></trkpt><trkpt lat="40.961310177212816" lon="14.651878464187147"><ele>738.0</ele><time>2026-04-18T12:59:57Z</time></trkpt><trkpt lat="40.96139593121708" lon="14.652037662687832"><ele>738.0</ele><time>2026-04-18T12:59:58Z</time></trkpt><trkpt lat="40.961494255553994" lon="14.652186767041767"><ele>738.0</ele><time>2026-04-18T12:59:59Z</time></trkpt><trkpt lat="40.96156387026631" lon="14.652292589446056"><ele>738.0</ele><time>2026-04-18T13:00:00Z</time></trkpt><trkpt lat="40.96161784586225" lon="14.65234010741115"><ele>738.0</ele><time>2026-04-18T13:00:01Z</time></trkpt><trkpt lat="40.96168583764268" lon="14.652405063878607"><ele>738.0</ele><time>2026-04-18T13:00:03Z</time></trkpt><trkpt lat="40.961768616734055" lon="14.652359996715292"><ele>738.0</ele><time>2026-04-18T13:00:05Z</time></trkpt><trkpt lat="40.961724637482085" lon="14.65223345809297"><ele>738.0</ele><time>2026-04-18T13:00:06Z</time></trkpt><trkpt lat="40.961671822669665" lon="14.652103506596568"><ele>738.0</ele><time>2026-04-18T13:00:07Z</time></trkpt><trkpt lat="40.96160491232246" lon="14.651935169327274"><ele>738.0</ele><time>2026-04-18T13:00:08Z</time></trkpt><trkpt lat="40.96160608993999" lon="14.651792345855041"><ele>739.2</ele><time>2026-04-18T13:00:09Z</time></trkpt><trkpt lat="40.961613202434506" lon="14.651660875690878"><ele>740.4</ele><time>2026-04-18T13:00:10Z</time></trkpt><trkpt lat="40.961661431370594" lon="14.651552219040191"><ele>741.6</ele><time>2026-04-18T13:00:11Z</time></trkpt><trkpt lat="40.96169108213643" lon="14.651470094943582"><ele>742.8000000000001</ele><time>2026-04-18T13:00:12Z</time></trkpt><trkpt lat="40.961796072796375" lon="14.651406565465978"><ele>744.0</ele><time>2026-04-18T13:00:14Z</time></trkpt><trkpt lat="40.96186687699895" lon="14.651493185221053"><ele>746.0</ele><time>2026-04-18T13:00:15Z</time></trkpt><trkpt lat="40.96195388202687" lon="14.651555259748202"><ele>748.0</ele><time>2026-04-18T13:00:16Z</time></trkpt><trkpt lat="40.96206301197089" lon="14.65165255344291"><ele>750.0</ele><time>2026-04-18T13:00:17Z</time></trkpt><trkpt lat="40.96216563101169" lon="14.651765467872849"><ele>752.0</ele><time>2026-04-18T13:00:18Z</time></trkpt><trkpt lat="40.962252155739996" lon="14.651864989741078"><ele>752.0</ele><time>2026-04-18T13:00:19Z</time></trkpt><trkpt lat="40.96235031780308" lon="14.651942611722824"><ele>752.0</ele><time>2026-04-18T13:00:20Z</time></trkpt><trkpt lat="40.9624251604119" lon="14.652035886326093"><ele>752.0</ele><time>2026-04-18T13:00:21Z</time></trkpt><trkpt lat="40.962497935915465" lon="14.652097550930216"><ele>752.0</ele><time>2026-04-18T13:00:22Z</time></trkpt><trkpt lat="40.96255767477006" lon="14.652155140652539"><ele>752.0</ele><time>2026-04-18T13:00:23Z</time></trkpt><trkpt lat="40.962613630325265" lon="14.652207749627452"><ele>752.0</ele><time>2026-04-18T13:00:24Z</time></trkpt><trkpt lat="40.96266792214699" lon="14.652325332801883"><ele>755.2857142857142</ele><time>2026-04-18T13:00:26Z</time></trkpt><trkpt lat="40.96270741574499" lon="14.652413864598152"><ele>758.5714285714286</ele><time>2026-04-18T13:00:28Z</time></trkpt><trkpt lat="40.9627075899895" lon="14.652507042420075"><ele>761.8571428571429</ele><time>2026-04-18T13:00:30Z</time></trkpt><trkpt lat="40.96270405032845" lon="14.652615072763519"><ele>765.1428571428571</ele><time>2026-04-18T13:02:40Z</time></trkpt><trkpt lat="40.962689508586486" lon="14.652706215216233"><ele>768.4285714285714</ele><time>2026-04-18T13:02:41Z</time></trkpt><trkpt lat="40.96267448979373" lon="14.65279057616176"><ele>771.7142857142857</ele><time>2026-04-18T13:02:42Z</time></trkpt><trkpt lat="40.962647782663616" lon="14.652867623495634"><ele>775.0</ele><time>2026-04-18T13:02:43Z</time></trkpt><trkpt lat="40.96262889479444" lon="14.652949181254126"><ele>773.3333333333333</ele><time>2026-04-18T13:02:44Z</time></trkpt><trkpt lat="40.96260130900021" lon="14.65303658570376"><ele>771.6666666666666</ele><time>2026-04-18T13:02:45Z</time></trkpt><trkpt lat="40.96258088949996" lon="14.653131308647206"><ele>770.0</ele><time>2026-04-18T13:02:46Z</time></trkpt><trkpt lat="40.962556921074764" lon="14.653244761780057"><ele>768.3333333333333</ele><time>2026-04-18T13:02:47Z</time></trkpt><trkpt lat="40.9625373711443" lon="14.653351188013565"><ele>766.6666666666666</ele><time>2026-04-18T13:02:48Z</time></trkpt><trkpt lat="40.96252634857275" lon="14.653455447762237"><ele>765.0</ele><time>2026-04-18T13:02:49Z</time></trkpt><trkpt lat="40.96249130953589" lon="14.653539215476544"><ele>767.3333333333334</ele><time>2026-04-18T13:02:50Z</time></trkpt><trkpt lat="40.96248032756218" lon="14.65362457356031"><ele>769.6666666666667</ele><time>2026-04-18T13:02:51Z</time></trkpt><trkpt lat="40.962457787359156" lon="14.653730811237011"><ele>772.0</ele><time>2026-04-18T13:02:52Z</time></trkpt><trkpt lat="40.962420048140224" lon="14.653837256806202"><ele>774.3333333333334</ele><time>2026-04-18T13:02:53Z</time></trkpt><trkpt lat="40.96238546735843" lon="14.653925078532593"><ele>776.6666666666667</ele><time>2026-04-18T13:02:54Z</time></trkpt><trkpt lat="40.96235870777671" lon="14.654012012293897"><ele>779.0</ele><time>2026-04-18T13:02:55Z</time></trkpt><trkpt lat="40.962343015948505" lon="14.65411357529651"><ele>779.0</ele><time>2026-04-18T13:02:56Z</time></trkpt><trkpt lat="40.96233368262284" lon="14.654222107295691"><ele>779.0</ele><time>2026-04-18T13:02:57Z</time></trkpt><trkpt lat="40.962323972620666" lon="14.654331592439766"><ele>779.0</ele><time>2026-04-18T13:02:58Z</time></trkpt><trkpt lat="40.9623195242389" lon="14.65442898420121"><ele>779.0</ele><time>2026-04-18T13:02:59Z</time></trkpt><trkpt lat="40.96230633490013" lon="14.654610396823115"><ele>779.0</ele><time>2026-04-18T13:03:01Z</time></trkpt><trkpt lat="40.962286021309616" lon="14.654714829219637"><ele>782.2</ele><time>2026-04-18T13:03:02Z</time></trkpt><trkpt lat="40.96226340353154" lon="14.654819367463011"><ele>785.4000000000001</ele><time>2026-04-18T13:03:03Z</time></trkpt><trkpt lat="40.962219311788914" lon="14.65490633856473"><ele>788.6</ele><time>2026-04-18T13:03:04Z</time></trkpt><trkpt lat="40.96214815241791" lon="14.654997672502638"><ele>791.8</ele><time>2026-04-18T13:03:05Z</time></trkpt><trkpt lat="40.96207877045125" lon="14.655116716548966"><ele>795.0</ele><time>2026-04-18T13:03:06Z</time></trkpt><trkpt lat="40.96204326047577" lon="14.655266399071893"><ele>800.0</ele><time>2026-04-18T13:03:08Z</time></trkpt><trkpt lat="40.961984350470836" lon="14.655370684485906"><ele>805.0</ele><time>2026-04-18T13:03:10Z</time></trkpt><trkpt lat="40.9618836041899" lon="14.655484131030018"><ele>810.0</ele><time>2026-04-18T13:03:12Z</time></trkpt><trkpt lat="40.96182191296306" lon="14.655617287325233"><ele>815.0</ele><time>2026-04-18T13:03:14Z</time></trkpt><trkpt lat="40.96177282651338" lon="14.655675270014813"><ele>820.0</ele><time>2026-04-18T13:03:16Z</time></trkpt><trkpt lat="40.96173167115032" lon="14.655797092112271"><ele>819.1666666666666</ele><time>2026-04-18T13:03:17.999Z</time></trkpt><trkpt lat="40.9616947853594" lon="14.655877487928377"><ele>818.3333333333333</ele><time>2026-04-18T13:03:18.999Z</time></trkpt><trkpt lat="40.96163865588785" lon="14.655969099954167"><ele>817.5</ele><time>2026-04-18T13:03:20.999Z</time></trkpt><trkpt lat="40.96157826097134" lon="14.656025305097085"><ele>816.6666666666667</ele><time>2026-04-18T13:03:22.999Z</time></trkpt><trkpt lat="40.961514409675765" lon="14.656098290325653"><ele>815.8333333333334</ele><time>2026-04-18T13:03:24.999Z</time></trkpt><trkpt lat="40.96155208591539" lon="14.656184484772131"><ele>815.0</ele><time>2026-04-18T13:05:29.999Z</time></trkpt><trkpt lat="40.96164149988934" lon="14.656147125858812"><ele>816.0</ele><time>2026-04-18T13:05:32.999Z</time></trkpt><trkpt lat="40.96171106532774" lon="14.656027537608903"><ele>817.0</ele><time>2026-04-18T13:05:34.999Z</time></trkpt><trkpt lat="40.9617841031173" lon="14.655945308324895"><ele>818.0</ele><time>2026-04-18T13:05:36.999Z</time></trkpt><trkpt lat="40.96188558741895" lon="14.655884782920431"><ele>819.0</ele><time>2026-04-18T13:05:38.999Z</time></trkpt><trkpt lat="40.96194115780425" lon="14.655835979124708"><ele>820.0</ele><time>2026-04-18T13:05:39.999Z</time></trkpt><trkpt lat="40.96204411779671" lon="14.65575416567966"><ele>820.0</ele><time>2026-04-18T13:05:41.999Z</time></trkpt><trkpt lat="40.96210252663458" lon="14.655703644425204"><ele>820.0</ele><time>2026-04-18T13:05:42.999Z</time></trkpt><trkpt lat="40.96214730715363" lon="14.655632458723861"><ele>820.0</ele><time>2026-04-18T13:05:43.999Z</time></trkpt><trkpt lat="40.96220034966249" lon="14.655573942017858"><ele>820.0</ele><time>2026-04-18T13:05:45.001Z</time></trkpt><trkpt lat="40.96225442355655" lon="14.655526384184647"><ele>820.0</ele><time>2026-04-18T13:05:46.001Z</time></trkpt><trkpt lat="40.96231794742384" lon="14.655467361210297"><ele>820.0</ele><time>2026-04-18T13:05:47.001Z</time></trkpt><trkpt lat="40.96237504701948" lon="14.655390257884047"><ele>820.0</ele><time>2026-04-18T13:05:48.001Z</time></trkpt><trkpt lat="40.96242131750046" lon="14.655322812510528"><ele>821.9999999999999</ele><time>2026-04-18T13:05:49.001Z</time></trkpt><trkpt lat="40.96248194467353" lon="14.65523774557695"><ele>824.0</ele><time>2026-04-18T13:05:50Z</time></trkpt><trkpt lat="40.96254004327919" lon="14.655169282665685"><ele>826.0</ele><time>2026-04-18T13:05:51Z</time></trkpt><trkpt lat="40.96260026391792" lon="14.655117143770962"><ele>828.0</ele><time>2026-04-18T13:05:52Z</time></trkpt><trkpt lat="40.96266068890745" lon="14.655055992147783"><ele>829.9999999999999</ele><time>2026-04-18T13:05:53Z</time></trkpt><trkpt lat="40.96272273839099" lon="14.654999641368352"><ele>832.0</ele><time>2026-04-18T13:05:54Z</time></trkpt><trkpt lat="40.96278459093016" lon="14.65493210043826"><ele>832.0</ele><time>2026-04-18T13:05:55Z</time></trkpt><trkpt lat="40.96286341610175" lon="14.654863789424361"><ele>832.0</ele><time>2026-04-18T13:05:56Z</time></trkpt><trkpt lat="40.962915518128085" lon="14.654790488413166"><ele>832.0</ele><time>2026-04-18T13:05:57Z</time></trkpt><trkpt lat="40.96296844814872" lon="14.654726009070455"><ele>832.0</ele><time>2026-04-18T13:05:58Z</time></trkpt><trkpt lat="40.96302519259664" lon="14.65465716784725"><ele>832.0</ele><time>2026-04-18T13:05:59Z</time></trkpt><trkpt lat="40.9631253915794" lon="14.654528951792278"><ele>831.9999999999999</ele><time>2026-04-18T13:06:01Z</time></trkpt><trkpt lat="40.9631815024577" lon="14.654462160888936"><ele>832.0</ele><time>2026-04-18T13:06:02Z</time></trkpt><trkpt lat="40.96324250039618" lon="14.654407968296944"><ele>832.0</ele><time>2026-04-18T13:06:03Z</time></trkpt><trkpt lat="40.96331035876535" lon="14.65434870352749"><ele>832.0</ele><time>2026-04-18T13:06:04Z</time></trkpt><trkpt lat="40.96337417045613" lon="14.654286799385225"><ele>831.9999999999999</ele><time>2026-04-18T13:06:05Z</time></trkpt><trkpt lat="40.9634382622792" lon="14.654207469408252"><ele>832.0</ele><time>2026-04-18T13:06:06Z</time></trkpt><trkpt lat="40.963487119941924" lon="14.65412461206672"><ele>833.4000000000001</ele><time>2026-04-18T13:06:07Z</time></trkpt><trkpt lat="40.963526496645834" lon="14.654033295583362"><ele>834.8000000000001</ele><time>2026-04-18T13:06:08Z</time></trkpt><trkpt lat="40.963593324968784" lon="14.65394813162255"><ele>836.2</ele><time>2026-04-18T13:06:09Z</time></trkpt><trkpt lat="40.96366629465968" lon="14.653891838486828"><ele>837.6</ele><time>2026-04-18T13:06:10Z</time></trkpt><trkpt lat="40.963733980102035" lon="14.653866636432973"><ele>839.0</ele><time>2026-04-18T13:06:11Z</time></trkpt><trkpt lat="40.96382705736237" lon="14.653758609292618"><ele>839.0000000000001</ele><time>2026-04-18T13:06:13Z</time></trkpt><trkpt lat="40.963912246899774" lon="14.653671843655978"><ele>839.0</ele><time>2026-04-18T13:06:15Z</time></trkpt><trkpt lat="40.96397561192882" lon="14.653650004480552"><ele>839.0</ele><time>2026-04-18T13:06:16Z</time></trkpt><trkpt lat="40.96404050102565" lon="14.653629919488374"><ele>839.0</ele><time>2026-04-18T13:06:17Z</time></trkpt><trkpt lat="40.96409836935476" lon="14.653591675787261"><ele>839.0000000000001</ele><time>2026-04-18T13:06:18Z</time></trkpt><trkpt lat="40.9641752987454" lon="14.653528472727775"><ele>839.0</ele><time>2026-04-18T13:06:19Z</time></trkpt><trkpt lat="40.964291830345765" lon="14.653490721071892"><ele>835.4000000000001</ele><time>2026-04-18T13:06:21Z</time></trkpt><trkpt lat="40.96436010509612" lon="14.653493712833297"><ele>831.8</ele><time>2026-04-18T13:06:22Z</time></trkpt><trkpt lat="40.964470084313284" lon="14.65349177617664"><ele>828.2</ele><time>2026-04-18T13:06:24Z</time></trkpt><trkpt lat="40.96457472207723" lon="14.653459165297319"><ele>824.5999999999999</ele><time>2026-04-18T13:06:26Z</time></trkpt><trkpt lat="40.96468951438674" lon="14.653440851763374"><ele>821.0</ele><time>2026-04-18T13:06:28Z</time></trkpt><trkpt lat="40.96479184269111" lon="14.653443948812432"><ele>821.0000000000001</ele><time>2026-04-18T13:06:30Z</time></trkpt><trkpt lat="40.96486323454081" lon="14.653471088609578"><ele>821.0</ele><time>2026-04-18T13:06:32Z</time></trkpt><trkpt lat="40.96493100892024" lon="14.653508472183127"><ele>821.0</ele><time>2026-04-18T13:06:34Z</time></trkpt><trkpt lat="40.965004089663836" lon="14.65355990064232"><ele>821.0</ele><time>2026-04-18T13:06:36Z</time></trkpt><trkpt lat="40.96507786930797" lon="14.6536449697279"><ele>821.0000000000001</ele><time>2026-04-18T13:06:38Z</time></trkpt><trkpt lat="40.965167674770214" lon="14.653708905910092"><ele>821.0</ele><time>2026-04-18T13:07:54Z</time></trkpt><trkpt lat="40.96521509421558" lon="14.653768898016144"><ele>823.3333333333334</ele><time>2026-04-18T13:07:55Z</time></trkpt><trkpt lat="40.965269246687804" lon="14.653835083430854"><ele>825.6666666666667</ele><time>2026-04-18T13:07:56Z</time></trkpt><trkpt lat="40.96534399311029" lon="14.653884194343703"><ele>828.0</ele><time>2026-04-18T13:07:57Z</time></trkpt><trkpt lat="40.9654434716773" lon="14.653977839982241"><ele>830.3333333333333</ele><time>2026-04-18T13:07:59Z</time></trkpt><trkpt lat="40.96549085339441" lon="14.654036829436782"><ele>832.6666666666666</ele><time>2026-04-18T13:08:00Z</time></trkpt><trkpt lat="40.96554562254217" lon="14.654123033269004"><ele>835.0</ele><time>2026-04-18T13:08:01Z</time></trkpt><trkpt lat="40.96560967127137" lon="14.654219401160365"><ele>835.0</ele><time>2026-04-18T13:08:02Z</time></trkpt><trkpt lat="40.96568626749241" lon="14.654311357719646"><ele>835.0</ele><time>2026-04-18T13:08:03Z</time></trkpt><trkpt lat="40.96574601519844" lon="14.65438886845675"><ele>835.0</ele><time>2026-04-18T13:08:04Z</time></trkpt><trkpt lat="40.96579800328663" lon="14.654467849125506"><ele>835.0</ele><time>2026-04-18T13:08:05Z</time></trkpt><trkpt lat="40.965861262096105" lon="14.654558491195504"><ele>835.0</ele><time>2026-04-18T13:08:06Z</time></trkpt><trkpt lat="40.96592404386328" lon="14.654644648782803"><ele>836.4</ele><time>2026-04-18T13:08:07Z</time></trkpt><trkpt lat="40.965948387480054" lon="14.654737945139768"><ele>837.8</ele><time>2026-04-18T13:08:08Z</time></trkpt><trkpt lat="40.96600049881048" lon="14.654897673476125"><ele>839.2</ele><time>2026-04-18T13:08:10Z</time></trkpt><trkpt lat="40.96605725746105" lon="14.654989712006728"><ele>840.6</ele><time>2026-04-18T13:08:11Z</time></trkpt><trkpt lat="40.96612344186266" lon="14.655066143261067"><ele>842.0</ele><time>2026-04-18T13:08:12Z</time></trkpt><trkpt lat="40.96620616720626" lon="14.655113794599476"><ele>842.0</ele><time>2026-04-18T13:08:13Z</time></trkpt><trkpt lat="40.966298829859724" lon="14.655172537395467"><ele>842.0</ele><time>2026-04-18T13:08:14Z</time></trkpt><trkpt lat="40.96640844824266" lon="14.655283019661585"><ele>842.0</ele><time>2026-04-18T13:08:16Z</time></trkpt><trkpt lat="40.966456537656114" lon="14.655391401042932"><ele>842.0</ele><time>2026-04-18T13:08:17Z</time></trkpt><trkpt lat="40.96653362718133" lon="14.655425308212754"><ele>842.0</ele><time>2026-04-18T13:08:18Z</time></trkpt><trkpt lat="40.96658494475509" lon="14.655497767475469"><ele>838.1666666666667</ele><time>2026-04-18T13:08:19Z</time></trkpt><trkpt lat="40.96663991321702" lon="14.655581686360089"><ele>834.3333333333334</ele><time>2026-04-18T13:08:20Z</time></trkpt><trkpt lat="40.96670417549083" lon="14.655665177608672"><ele>830.5</ele><time>2026-04-18T13:08:21Z</time></trkpt><trkpt lat="40.966757467955844" lon="14.655756741958147"><ele>826.6666666666667</ele><time>2026-04-18T13:08:22Z</time></trkpt><trkpt lat="40.96679790871355" lon="14.655831177946226"><ele>822.8333333333334</ele><time>2026-04-18T13:08:23Z</time></trkpt><trkpt lat="40.96685040288347" lon="14.655917868050215"><ele>819.0</ele><time>2026-04-18T13:08:24Z</time></trkpt><trkpt lat="40.966887966749674" lon="14.655989370565592"><ele>819.0</ele><time>2026-04-18T13:08:25Z</time></trkpt><trkpt lat="40.96695026664558" lon="14.656077709698355"><ele>819.0</ele><time>2026-04-18T13:08:26Z</time></trkpt><trkpt lat="40.9669806056632" lon="14.656193469058072"><ele>819.0</ele><time>2026-04-18T13:08:28Z</time></trkpt><trkpt lat="40.96696578865862" lon="14.65630779268807"><ele>819.0</ele><time>2026-04-18T13:08:30Z</time></trkpt><trkpt lat="40.96700193775307" lon="14.656426962537106"><ele>819.0</ele><time>2026-04-18T13:08:33Z</time></trkpt><trkpt lat="40.96699738844351" lon="14.656574903138088"><ele>822.8333333333334</ele><time>2026-04-18T13:08:35Z</time></trkpt><trkpt lat="40.9670126456732" lon="14.656711861666386"><ele>826.6666666666667</ele><time>2026-04-18T13:08:37Z</time></trkpt><trkpt lat="40.96701088386353" lon="14.65681362329707"><ele>830.5</ele><time>2026-04-18T13:08:39Z</time></trkpt><trkpt lat="40.96703593436743" lon="14.656895110004614"><ele>834.3333333333334</ele><time>2026-04-18T13:08:41Z</time></trkpt><trkpt lat="40.9670581414315" lon="14.656982421892002"><ele>838.1666666666667</ele><time>2026-04-18T13:08:42Z</time></trkpt><trkpt lat="40.967056532831" lon="14.657108285323854"><ele>842.0</ele><time>2026-04-18T13:08:44Z</time></trkpt><trkpt lat="40.96709948873713" lon="14.657207211661586"><ele>846.1666666666667</ele><time>2026-04-18T13:08:46Z</time></trkpt><trkpt lat="40.96712534294226" lon="14.657301925042377"><ele>850.3333333333334</ele><time>2026-04-18T13:08:48Z</time></trkpt><trkpt lat="40.96716130487976" lon="14.657379238930318"><ele>854.5</ele><time>2026-04-18T13:08:50Z</time></trkpt><trkpt lat="40.9671623059128" lon="14.657516788019954"><ele>858.6666666666667</ele><time>2026-04-18T13:08:52Z</time></trkpt><trkpt lat="40.967146520864794" lon="14.657652548894346"><ele>862.8333333333334</ele><time>2026-04-18T13:08:54Z</time></trkpt><trkpt lat="40.967173983556265" lon="14.657773418592352"><ele>867.0</ele><time>2026-04-18T13:08:56Z</time></trkpt><trkpt lat="40.96717491310324" lon="14.657920992869752"><ele>869.8</ele><time>2026-04-18T13:08:58Z</time></trkpt><trkpt lat="40.96718193026808" lon="14.658009512486581"><ele>872.6</ele><time>2026-04-18T13:08:59Z</time></trkpt><trkpt lat="40.96718547049692" lon="14.65812826237166"><ele>875.3999999999999</ele><time>2026-04-18T13:09:00Z</time></trkpt><trkpt lat="40.96719418964134" lon="14.658272370603441"><ele>878.1999999999999</ele><time>2026-04-18T13:09:02Z</time></trkpt><trkpt lat="40.96719668072106" lon="14.658357403240426"><ele>881.0</ele><time>2026-04-18T13:09:03Z</time></trkpt><trkpt lat="40.96724043801072" lon="14.65851611518227"><ele>881.0000000000001</ele><time>2026-04-18T13:09:05Z</time></trkpt><trkpt lat="40.96724853054045" lon="14.658600511836372"><ele>881.0</ele><time>2026-04-18T13:09:05.999Z</time></trkpt><trkpt lat="40.967248123327074" lon="14.658745276109247"><ele>881.0</ele><time>2026-04-18T13:09:07.999Z</time></trkpt><trkpt lat="40.96726808919263" lon="14.658905373802622"><ele>881.0</ele><time>2026-04-18T13:09:09.999Z</time></trkpt><trkpt lat="40.96727707153277" lon="14.659008530530398"><ele>881.0000000000001</ele><time>2026-04-18T13:09:10.999Z</time></trkpt><trkpt lat="40.96729594572136" lon="14.659095394044181"><ele>881.0</ele><time>2026-04-18T13:09:11.999Z</time></trkpt><trkpt lat="40.96729404884085" lon="14.659265708482259"><ele>882.5999999999999</ele><time>2026-04-18T13:09:13.999Z</time></trkpt><trkpt lat="40.96729262976497" lon="14.659422049756524"><ele>884.1999999999999</ele><time>2026-04-18T13:09:15.999Z</time></trkpt><trkpt lat="40.9672707485599" lon="14.659566437002105"><ele>885.8000000000001</ele><time>2026-04-18T13:09:17.999Z</time></trkpt><trkpt lat="40.96727947143972" lon="14.659728845968012"><ele>887.4000000000001</ele><time>2026-04-18T13:09:19.999Z</time></trkpt><trkpt lat="40.96727758105582" lon="14.65982123976252"><ele>889.0</ele><time>2026-04-18T13:09:20.999Z</time></trkpt><trkpt lat="40.9672811662339" lon="14.659959258472577"><ele>891.2</ele><time>2026-04-18T13:09:22.999Z</time></trkpt><trkpt lat="40.96725066796922" lon="14.660091449103378"><ele>893.4000000000001</ele><time>2026-04-18T13:09:25.999Z</time></trkpt><trkpt lat="40.9672441073838" lon="14.66018866660653"><ele>895.6</ele><time>2026-04-18T13:09:26.999Z</time></trkpt><trkpt lat="40.96721125296123" lon="14.660326253003321"><ele>897.8</ele><time>2026-04-18T13:09:28.999Z</time></trkpt><trkpt lat="40.967195757700864" lon="14.660415003361875"><ele>900.0</ele><time>2026-04-18T13:09:29.999Z</time></trkpt><trkpt lat="40.96718096303579" lon="14.660538856900764"><ele>901.2</ele><time>2026-04-18T13:09:31.999Z</time></trkpt><trkpt lat="40.96714387700484" lon="14.66069726744235"><ele>902.4</ele><time>2026-04-18T13:09:33.999Z</time></trkpt><trkpt lat="40.96715490115014" lon="14.660821533011452"><ele>903.5999999999999</ele><time>2026-04-18T13:09:35.999Z</time></trkpt><trkpt lat="40.967116849606626" lon="14.66094365140238"><ele>904.8</ele><time>2026-04-18T13:09:38.999Z</time></trkpt><trkpt lat="40.96711676489047" lon="14.661057790186344"><ele>906.0</ele><time>2026-04-18T13:09:40.999Z</time></trkpt><trkpt lat="40.967101311606" lon="14.661141106881184"><ele>906.1666666666666</ele><time>2026-04-18T13:09:42.999Z</time></trkpt><trkpt lat="40.967072846494" lon="14.661228978600459"><ele>906.3333333333333</ele><time>2026-04-18T13:09:44.999Z</time></trkpt><trkpt lat="40.96707179873399" lon="14.661326055756993"><ele>906.5</ele><time>2026-04-18T13:09:46.999Z</time></trkpt><trkpt lat="40.96705044843825" lon="14.661404868041688"><ele>906.6666666666666</ele><time>2026-04-18T13:09:47.999Z</time></trkpt><trkpt lat="40.96704002710275" lon="14.661506638705822"><ele>906.8333333333333</ele><time>2026-04-18T13:09:49.999Z</time></trkpt><trkpt lat="40.96701511763158" lon="14.661636018601811"><ele>907.0</ele><time>2026-04-18T13:14:44Z</time></trkpt><trkpt lat="40.966977641226755" lon="14.661714139671066"><ele>907.0</ele><time>2026-04-18T13:14:45Z</time></trkpt><trkpt lat="40.96696619862314" lon="14.661823216074438"><ele>907.0</ele><time>2026-04-18T13:14:46Z</time></trkpt><trkpt lat="40.96695051556871" lon="14.661982454927942"><ele>907.0</ele><time>2026-04-18T13:14:48Z</time></trkpt><trkpt lat="40.96692476115416" lon="14.66207900089324"><ele>907.0</ele><time>2026-04-18T13:14:49Z</time></trkpt><trkpt lat="40.96691339158461" lon="14.662171561891288"><ele>907.0</ele><time>2026-04-18T13:14:50Z</time></trkpt><trkpt lat="40.96690039636009" lon="14.66231214063318"><ele>906.4000000000001</ele><time>2026-04-18T13:14:52Z</time></trkpt><trkpt lat="40.966858064084995" lon="14.662406519810283"><ele>905.8000000000001</ele><time>2026-04-18T13:14:54Z</time></trkpt><trkpt lat="40.96679232424758" lon="14.662548770552318"><ele>905.2</ele><time>2026-04-18T13:14:56Z</time></trkpt><trkpt lat="40.96674891859017" lon="14.662633854694947"><ele>904.6</ele><time>2026-04-18T13:14:57Z</time></trkpt><trkpt lat="40.966730357683495" lon="14.662741893960867"><ele>904.0</ele><time>2026-04-18T13:14:59Z</time></trkpt><trkpt lat="40.966661705836444" lon="14.662802521016264"><ele>912.8333333333333</ele><time>2026-04-18T13:16:11.999Z</time></trkpt><trkpt lat="40.96662945603461" lon="14.662912784296644"><ele>921.6666666666666</ele><time>2026-04-18T13:16:28Z</time></trkpt><trkpt lat="40.96659397691569" lon="14.662982334601756"><ele>930.5</ele><time>2026-04-18T13:16:30Z</time></trkpt><trkpt lat="40.96658663802141" lon="14.663101314108124"><ele>939.3333333333333</ele><time>2026-04-18T13:16:35Z</time></trkpt><trkpt lat="40.96655474423643" lon="14.663183681501206"><ele>948.1666666666666</ele><time>2026-04-18T13:24:05.999Z</time></trkpt><trkpt lat="40.9665310184836" lon="14.663286116821158"><ele>957.0</ele><time>2026-04-18T13:24:16.999Z</time></trkpt><trkpt lat="40.96648023816347" lon="14.663419942811855"><ele>957.0</ele><time>2026-04-18T13:24:18.999Z</time></trkpt><trkpt lat="40.966455788202275" lon="14.66353266313896"><ele>957.0</ele><time>2026-04-18T13:24:19.999Z</time></trkpt><trkpt lat="40.96640041857787" lon="14.66363347336638"><ele>957.0</ele><time>2026-04-18T13:24:21.998Z</time></trkpt><trkpt lat="40.96636567181365" lon="14.663767619042885"><ele>957.0</ele><time>2026-04-18T13:24:23.998Z</time></trkpt><trkpt lat="40.96631201378123" lon="14.663870519698104"><ele>957.0</ele><time>2026-04-18T13:24:25.998Z</time></trkpt><trkpt lat="40.966274517520525" lon="14.66399804636553"><ele>956.2</ele><time>2026-04-18T13:24:27.998Z</time></trkpt><trkpt lat="40.96626763875525" lon="14.664090745279717"><ele>955.4000000000001</ele><time>2026-04-18T13:24:29.998Z</time></trkpt><trkpt lat="40.96620710191007" lon="14.664221504411554"><ele>954.5999999999999</ele><time>2026-04-18T13:24:31.998Z</time></trkpt><trkpt lat="40.966172939426755" lon="14.664330870654142"><ele>953.8</ele><time>2026-04-18T13:24:33.998Z</time></trkpt><trkpt lat="40.966124678289034" lon="14.664450593534927"><ele>953.0</ele><time>2026-04-18T13:24:35.998Z</time></trkpt><trkpt lat="40.966088389994106" lon="14.66457939738706"><ele>951.6666666666667</ele><time>2026-04-18T13:24:37.998Z</time></trkpt><trkpt lat="40.96609129838599" lon="14.664698387815474"><ele>950.3333333333334</ele><time>2026-04-18T13:24:39Z</time></trkpt><trkpt lat="40.96603739950241" lon="14.664798393068535"><ele>949.0</ele><time>2026-04-18T13:24:40Z</time></trkpt><trkpt lat="40.96599246575006" lon="14.66491181893887"><ele>947.6666666666667</ele><time>2026-04-18T13:24:42Z</time></trkpt><trkpt lat="40.9659552226523" lon="14.664986801332052"><ele>946.3333333333334</ele><time>2026-04-18T13:24:43Z</time></trkpt><trkpt lat="40.965916885943564" lon="14.665082022472756"><ele>945.0</ele><time>2026-04-18T13:24:44Z</time></trkpt><trkpt lat="40.96588355307195" lon="14.665195312158067"><ele>949.5</ele><time>2026-04-18T13:24:45Z</time></trkpt><trkpt lat="40.96583236154639" lon="14.665289203076764"><ele>954.0</ele><time>2026-04-18T13:24:46Z</time></trkpt><trkpt lat="40.96576948219599" lon="14.66536795568761"><ele>958.5</ele><time>2026-04-18T13:24:47Z</time></trkpt><trkpt lat="40.96572915601449" lon="14.665442752844168"><ele>963.0</ele><time>2026-04-18T13:24:48Z</time></trkpt><trkpt lat="40.965698891333496" lon="14.665529159615907"><ele>967.5</ele><time>2026-04-18T13:24:49Z</time></trkpt><trkpt lat="40.96564962865577" lon="14.665609157869879"><ele>972.0</ele><time>2026-04-18T13:24:50Z</time></trkpt><trkpt lat="40.96560497999467" lon="14.665681529747621"><ele>972.0</ele><time>2026-04-18T13:24:51Z</time></trkpt><trkpt lat="40.96555143764247" lon="14.66573404114271"><ele>972.0</ele><time>2026-04-18T13:24:52Z</time></trkpt><trkpt lat="40.96550714407422" lon="14.66579449560282"><ele>972.0</ele><time>2026-04-18T13:24:53Z</time></trkpt><trkpt lat="40.96545550898704" lon="14.665886237201212"><ele>972.0</ele><time>2026-04-18T13:24:55Z</time></trkpt><trkpt lat="40.965426588218" lon="14.665976080022261"><ele>972.0</ele><time>2026-04-18T13:26:21.998Z</time></trkpt><trkpt lat="40.96538297675956" lon="14.666044402621274"><ele>972.0</ele><time>2026-04-18T13:26:23.998Z</time></trkpt><trkpt lat="40.96533647427106" lon="14.666136756496593"><ele>972.0</ele><time>2026-04-18T13:26:25.998Z</time></trkpt><trkpt lat="40.96527797677332" lon="14.666197631703929"><ele>970.4000000000001</ele><time>2026-04-18T13:26:27.998Z</time></trkpt><trkpt lat="40.965199843063886" lon="14.666319429010947"><ele>968.8000000000001</ele><time>2026-04-18T13:26:29.998Z</time></trkpt><trkpt lat="40.9651294851747" lon="14.666439206919245"><ele>967.2</ele><time>2026-04-18T13:26:31.998Z</time></trkpt><trkpt lat="40.96505341653969" lon="14.666504960149206"><ele>965.6</ele><time>2026-04-18T13:26:33.998Z</time></trkpt><trkpt lat="40.96493664369792" lon="14.666549231546323"><ele>964.0</ele><time>2026-04-18T13:26:35.998Z</time></trkpt><trkpt lat="40.9648811850016" lon="14.666621708699443"><ele>963.9999999999999</ele><time>2026-04-18T13:26:37.998Z</time></trkpt><trkpt lat="40.96487202294103" lon="14.666706357879184"><ele>964.0</ele><time>2026-04-18T13:26:39.998Z</time></trkpt><trkpt lat="40.96489458016547" lon="14.666800872604117"><ele>964.0</ele><time>2026-04-18T13:26:42.998Z</time></trkpt><trkpt lat="40.96497143995412" lon="14.666865893488074"><ele>964.0</ele><time>2026-04-18T13:26:45Z</time></trkpt><trkpt lat="40.96504943726736" lon="14.666929234726645"><ele>963.9999999999999</ele><time>2026-04-18T13:26:47Z</time></trkpt><trkpt lat="40.965118102090194" lon="14.667042779849774"><ele>964.0</ele><time>2026-04-18T13:26:49Z</time></trkpt><trkpt lat="40.965182084397" lon="14.667086751338942"><ele>966.6666666666666</ele><time>2026-04-18T13:26:50Z</time></trkpt><trkpt lat="40.96526690262274" lon="14.667154710541014"><ele>969.3333333333333</ele><time>2026-04-18T13:26:52Z</time></trkpt><trkpt lat="40.96534313333819" lon="14.667212398515016"><ele>972.0</ele><time>2026-04-18T13:26:54Z</time></trkpt><trkpt lat="40.96540820636492" lon="14.667227710935883"><ele>974.6666666666667</ele><time>2026-04-18T13:26:56Z</time></trkpt><trkpt lat="40.965482334113794" lon="14.66733269786653"><ele>977.3333333333334</ele><time>2026-04-18T13:26:58Z</time></trkpt><trkpt lat="40.96551949533554" lon="14.667432808319607"><ele>980.0</ele><time>2026-04-18T13:27:00Z</time></trkpt><trkpt lat="40.96554333695833" lon="14.667518419451977"><ele>980.0000000000001</ele><time>2026-04-18T13:27:02Z</time></trkpt><trkpt lat="40.96555026762059" lon="14.667622085419778"><ele>980.0</ele><time>2026-04-18T13:27:04Z</time></trkpt><trkpt lat="40.96552744509664" lon="14.667756985408515"><ele>980.0</ele><time>2026-04-18T13:27:06Z</time></trkpt><trkpt lat="40.96552505256829" lon="14.667846401363086"><ele>980.0</ele><time>2026-04-18T13:27:07Z</time></trkpt><trkpt lat="40.96551762296709" lon="14.66794366792536"><ele>980.0000000000001</ele><time>2026-04-18T13:27:08Z</time></trkpt><trkpt lat="40.96550975772779" lon="14.668058367485571"><ele>980.0</ele><time>2026-04-18T13:27:09Z</time></trkpt><trkpt lat="40.96548782450489" lon="14.668142793232638"><ele>979.8333333333334</ele><time>2026-04-18T13:27:10Z</time></trkpt><trkpt lat="40.96543672364309" lon="14.668283292781506"><ele>979.6666666666667</ele><time>2026-04-18T13:27:12Z</time></trkpt><trkpt lat="40.96539239099646" lon="14.66835991549524"><ele>979.5</ele><time>2026-04-18T13:27:13Z</time></trkpt><trkpt lat="40.96532674397977" lon="14.668411251266221"><ele>979.3333333333333</ele><time>2026-04-18T13:27:14Z</time></trkpt><trkpt lat="40.96526365990264" lon="14.668455638149139"><ele>979.1666666666666</ele><time>2026-04-18T13:27:15Z</time></trkpt><trkpt lat="40.96519437732682" lon="14.668519024441373"><ele>979.0</ele><time>2026-04-18T13:27:16Z</time></trkpt><trkpt lat="40.96512868241762" lon="14.66862094905398"><ele>977.6666666666666</ele><time>2026-04-18T13:27:18Z</time></trkpt><trkpt lat="40.965145743481166" lon="14.668729136876701"><ele>976.3333333333333</ele><time>2026-04-18T13:27:20Z</time></trkpt><trkpt lat="40.965190609618276" lon="14.668872220631672"><ele>975.0</ele><time>2026-04-18T13:27:22Z</time></trkpt><trkpt lat="40.965233067166295" lon="14.668977681192985"><ele>973.6666666666667</ele><time>2026-04-18T13:27:24Z</time></trkpt><trkpt lat="40.96528594795706" lon="14.669035151212372"><ele>972.3333333333334</ele><time>2026-04-18T13:27:25Z</time></trkpt><trkpt lat="40.96534605042937" lon="14.669077958643793"><ele>971.0</ele><time>2026-04-18T13:27:26Z</time></trkpt><trkpt lat="40.96543214779717" lon="14.669179748861707"><ele>971.0000000000001</ele><time>2026-04-18T13:27:28Z</time></trkpt><trkpt lat="40.96549418979846" lon="14.669314130362938"><ele>971.0</ele><time>2026-04-18T13:27:29.999Z</time></trkpt><trkpt lat="40.96546542803576" lon="14.669457244988337"><ele>971.0</ele><time>2026-04-18T13:27:31.999Z</time></trkpt><trkpt lat="40.96546307326695" lon="14.669557243259923"><ele>971.0</ele><time>2026-04-18T13:27:32.999Z</time></trkpt><trkpt lat="40.96545282402043" lon="14.66965339627306"><ele>971.0000000000001</ele><time>2026-04-18T13:27:33.999Z</time></trkpt><trkpt lat="40.96542343338332" lon="14.669732951882397"><ele>971.0</ele><time>2026-04-18T13:27:34.999Z</time></trkpt><trkpt lat="40.9654184524081" lon="14.669827616241172"><ele>970.8</ele><time>2026-04-18T13:27:35.999Z</time></trkpt><trkpt lat="40.96540500804107" lon="14.669916113174905"><ele>970.5999999999999</ele><time>2026-04-18T13:27:36.999Z</time></trkpt><trkpt lat="40.96536926974869" lon="14.670084220604986"><ele>970.4</ele><time>2026-04-18T13:27:38.999Z</time></trkpt><trkpt lat="40.96531997002016" lon="14.670203127637238"><ele>970.2</ele><time>2026-04-18T13:27:40.999Z</time></trkpt><trkpt lat="40.96524337843614" lon="14.670341351542008"><ele>970.0</ele><time>2026-04-18T13:27:42.999Z</time></trkpt><trkpt lat="40.96513786987476" lon="14.670398035095213"><ele>967.9999999999999</ele><time>2026-04-18T13:27:44.999Z</time></trkpt><trkpt lat="40.965072030064185" lon="14.670469608639332"><ele>966.0</ele><time>2026-04-18T13:27:45.999Z</time></trkpt><trkpt lat="40.9650122225997" lon="14.670527162799186"><ele>964.0</ele><time>2026-04-18T13:27:46.999Z</time></trkpt><trkpt lat="40.96492798568091" lon="14.670605426846112"><ele>962.0</ele><time>2026-04-18T13:27:48.999Z</time></trkpt><trkpt lat="40.964816232491394" lon="14.670645278794927"><ele>959.9999999999999</ele><time>2026-04-18T13:27:50.999Z</time></trkpt><trkpt lat="40.96475323320155" lon="14.670661441657984"><ele>958.0</ele><time>2026-04-18T13:27:51.999Z</time></trkpt><trkpt lat="40.96469433587062" lon="14.670717289007932"><ele>966.8</ele><time>2026-04-18T13:27:52.999Z</time></trkpt><trkpt lat="40.96462703841608" lon="14.670752614646258"><ele>975.5999999999999</ele><time>2026-04-18T13:27:53.999Z</time></trkpt><trkpt lat="40.96452987845458" lon="14.670791727850457"><ele>984.4000000000001</ele><time>2026-04-18T13:27:55.999Z</time></trkpt><trkpt lat="40.964484470542615" lon="14.670902888228982"><ele>993.2</ele><time>2026-04-18T13:27:58.999Z</time></trkpt><trkpt lat="40.96451889848896" lon="14.670993927015754"><ele>1002.0</ele><time>2026-04-18T13:28:00.999Z</time></trkpt><trkpt lat="40.96461281930397" lon="14.671073821878302"><ele>1003.6</ele><time>2026-04-18T13:28:02.999Z</time></trkpt><trkpt lat="40.964685687473114" lon="14.67114554282526"><ele>1005.2</ele><time>2026-04-18T13:28:03.999Z</time></trkpt><trkpt lat="40.964746222761256" lon="14.671198986394213"><ele>1006.8</ele><time>2026-04-18T13:28:04.999Z</time></trkpt><trkpt lat="40.96482568484636" lon="14.671308893548634"><ele>1008.4</ele><time>2026-04-18T13:28:06.999Z</time></trkpt><trkpt lat="40.96486971696457" lon="14.671425929258099"><ele>1010.0</ele><time>2026-04-18T13:28:08.999Z</time></trkpt><trkpt lat="40.96486742370255" lon="14.671564844347612"><ele>1010.0000000000001</ele><time>2026-04-18T13:28:10.999Z</time></trkpt><trkpt lat="40.96495253712788" lon="14.671698244209082"><ele>1010.0</ele><time>2026-04-18T13:28:12.999Z</time></trkpt><trkpt lat="40.96501553475742" lon="14.671743708027202"><ele>1010.0</ele><time>2026-04-18T13:28:13.999Z</time></trkpt><trkpt lat="40.965080031180996" lon="14.671800415974076"><ele>1010.0</ele><time>2026-04-18T13:28:14.999Z</time></trkpt><trkpt lat="40.96513201250929" lon="14.671861357652924"><ele>1010.0000000000001</ele><time>2026-04-18T13:28:16.999Z</time></trkpt><trkpt lat="40.96514072285328" lon="14.671972131389028"><ele>1010.0</ele><time>2026-04-18T13:28:18.998Z</time></trkpt><trkpt lat="40.96514401903627" lon="14.672077731182165"><ele>1008.8333333333334</ele><time>2026-04-18T13:28:19.998Z</time></trkpt><trkpt lat="40.96513874920433" lon="14.672180474875177"><ele>1007.6666666666667</ele><time>2026-04-18T13:28:20.998Z</time></trkpt><trkpt lat="40.965134335116474" lon="14.67226661588448"><ele>1006.5</ele><time>2026-04-18T13:28:21.998Z</time></trkpt><trkpt lat="40.96515194276675" lon="14.672354098225686"><ele>1005.3333333333333</ele><time>2026-04-18T13:28:23.998Z</time></trkpt><trkpt lat="40.96525641517086" lon="14.672417397949067"><ele>1004.1666666666666</ele><time>2026-04-18T13:28:25.998Z</time></trkpt><trkpt lat="40.96532743720115" lon="14.672474789928343"><ele>1003.0</ele><time>2026-04-18T13:28:26.998Z</time></trkpt><trkpt lat="40.965385444171574" lon="14.672515496841605"><ele>1003.0</ele><time>2026-04-18T13:28:27.998Z</time></trkpt><trkpt lat="40.96546312261843" lon="14.672631499085707"><ele>1003.0</ele><time>2026-04-18T13:28:29.998Z</time></trkpt><trkpt lat="40.96549871508378" lon="14.67273266900379"><ele>1003.0</ele><time>2026-04-18T13:28:31.998Z</time></trkpt><trkpt lat="40.96552217608248" lon="14.672879069452517"><ele>1003.0</ele><time>2026-04-18T13:28:33.998Z</time></trkpt><trkpt lat="40.96559667497952" lon="14.672961295664182"><ele>1003.0</ele><time>2026-04-18T13:28:34.998Z</time></trkpt><trkpt lat="40.96561181475973" lon="14.673046715236534"><ele>1007.1666666666666</ele><time>2026-04-18T13:28:35.998Z</time></trkpt><trkpt lat="40.965630784575325" lon="14.673157098496409"><ele>1011.3333333333333</ele><time>2026-04-18T13:28:37.998Z</time></trkpt><trkpt lat="40.96564895727084" lon="14.67329205424837"><ele>1015.5</ele><time>2026-04-18T13:28:39.998Z</time></trkpt><trkpt lat="40.96566298480109" lon="14.673383090645277"><ele>1019.6666666666667</ele><time>2026-04-18T13:28:41.998Z</time></trkpt><trkpt lat="40.96575555125922" lon="14.673405887973452"><ele>1023.8333333333334</ele><time>2026-04-18T13:28:44.998Z</time></trkpt><trkpt lat="40.96582044179426" lon="14.67342830365528"><ele>1028.0</ele><time>2026-04-18T13:28:51Z</time></trkpt><trkpt lat="40.96590859154942" lon="14.673482716476206"><ele>1029.6</ele><time>2026-04-18T13:28:54Z</time></trkpt><trkpt lat="40.96601499176916" lon="14.673426664668348"><ele>1031.1999999999998</ele><time>2026-04-18T13:28:56Z</time></trkpt><trkpt lat="40.96612020539072" lon="14.673296750624335"><ele>1032.8</ele><time>2026-04-18T13:28:58Z</time></trkpt><trkpt lat="40.96618204540348" lon="14.673223336710722"><ele>1034.3999999999999</ele><time>2026-04-18T13:28:59Z</time></trkpt><trkpt lat="40.96624722485326" lon="14.67313705141918"><ele>1036.0</ele><time>2026-04-18T13:29:00Z</time></trkpt><trkpt lat="40.96628334449368" lon="14.673058010968036"><ele>1036.0</ele><time>2026-04-18T13:29:01Z</time></trkpt><trkpt lat="40.96636840691718" lon="14.672948959615441"><ele>1036.0</ele><time>2026-04-18T13:29:03Z</time></trkpt><trkpt lat="40.966446577319246" lon="14.672908901042927"><ele>1036.0</ele><time>2026-04-18T13:29:06Z</time></trkpt><trkpt lat="40.966519263276616" lon="14.672941980089249"><ele>1036.0</ele><time>2026-04-18T13:29:09Z</time></trkpt><trkpt lat="40.96656113085683" lon="14.673020510373743"><ele>1036.0</ele><time>2026-04-18T13:29:11Z</time></trkpt><trkpt lat="40.966555087138545" lon="14.67312059327457"><ele>1036.0</ele><time>2026-04-18T13:29:13Z</time></trkpt><trkpt lat="40.966502499268536" lon="14.67319195751184"><ele>1036.0</ele><time>2026-04-18T13:29:15Z</time></trkpt><trkpt lat="40.96645739561759" lon="14.673287788959831"><ele>1036.0</ele><time>2026-04-18T13:29:17Z</time></trkpt><trkpt lat="40.966414869161866" lon="14.673401175186326"><ele>1036.0</ele><time>2026-04-18T13:29:19Z</time></trkpt><trkpt lat="40.96638305105019" lon="14.673533343983863"><ele>1036.0</ele><time>2026-04-18T13:29:21Z</time></trkpt><trkpt lat="40.96639259384723" lon="14.673662450149282"><ele>1036.0</ele><time>2026-04-18T13:29:23Z</time></trkpt><trkpt lat="40.96639243054179" lon="14.673747044302269"><ele>1036.0</ele><time>2026-04-18T13:29:24Z</time></trkpt><trkpt lat="40.96640150273271" lon="14.673868661937096"><ele>1036.6666666666665</ele><time>2026-04-18T13:29:26Z</time></trkpt><trkpt lat="40.9663578944998" lon="14.67399204528288"><ele>1037.3333333333333</ele><time>2026-04-18T13:29:27.999Z</time></trkpt><trkpt lat="40.96632278816692" lon="14.674089199313556"><ele>1038.0</ele><time>2026-04-18T13:29:29.999Z</time></trkpt><trkpt lat="40.9662839931784" lon="14.674197278519335"><ele>1038.6666666666667</ele><time>2026-04-18T13:34:56.998Z</time></trkpt><trkpt lat="40.96621108428794" lon="14.674255941878926"><ele>1039.3333333333335</ele><time>2026-04-18T13:35:00.998Z</time></trkpt><trkpt lat="40.966159207183274" lon="14.674318878019744"><ele>1040.0</ele><time>2026-04-18T13:35:02.998Z</time></trkpt><trkpt lat="40.9661202619852" lon="14.674387088394287"><ele>1038.1666666666667</ele><time>2026-04-18T13:35:04.998Z</time></trkpt><trkpt lat="40.966086427313336" lon="14.674498607281889"><ele>1036.3333333333335</ele><time>2026-04-18T13:35:07.998Z</time></trkpt><trkpt lat="40.9660279354987" lon="14.674592508403505"><ele>1034.5</ele><time>2026-04-18T13:35:11Z</time></trkpt><trkpt lat="40.96602791762853" lon="14.674687875287093"><ele>1032.6666666666667</ele><time>2026-04-18T13:35:13Z</time></trkpt><trkpt lat="40.96603523076547" lon="14.674798007185016"><ele>1030.8333333333333</ele><time>2026-04-18T13:35:15Z</time></trkpt><trkpt lat="40.9660399652584" lon="14.674938018122429"><ele>1029.0</ele><time>2026-04-18T13:35:17Z</time></trkpt><trkpt lat="40.966040080589565" lon="14.675025246541093"><ele>1029.0</ele><time>2026-04-18T13:35:18Z</time></trkpt><trkpt lat="40.96605974583776" lon="14.675108248230876"><ele>1029.0</ele><time>2026-04-18T13:35:19Z</time></trkpt><trkpt lat="40.966059704036496" lon="14.675258788238898"><ele>1029.0</ele><time>2026-04-18T13:35:21Z</time></trkpt><trkpt lat="40.96604826360934" lon="14.675345602938409"><ele>1029.0</ele><time>2026-04-18T13:35:22Z</time></trkpt><trkpt lat="40.96607139513566" lon="14.675465726042109"><ele>1029.0</ele><time>2026-04-18T13:35:24Z</time></trkpt><trkpt lat="40.96612455770336" lon="14.675603722843128"><ele>1028.3333333333333</ele><time>2026-04-18T13:35:26Z</time></trkpt><trkpt lat="40.96615316728686" lon="14.675678970536026"><ele>1027.6666666666667</ele><time>2026-04-18T13:35:27Z</time></trkpt><trkpt lat="40.966192609886356" lon="14.675756362482508"><ele>1027.0</ele><time>2026-04-18T13:35:28Z</time></trkpt><trkpt lat="40.96624640429497" lon="14.675821476069256"><ele>1026.3333333333335</ele><time>2026-04-18T13:35:29Z</time></trkpt><trkpt lat="40.96631232558494" lon="14.675972378141589"><ele>1025.6666666666667</ele><time>2026-04-18T13:35:31Z</time></trkpt><trkpt lat="40.96633713094542" lon="14.676099257206738"><ele>1025.0</ele><time>2026-04-18T13:35:33Z</time></trkpt><trkpt lat="40.96633996207224" lon="14.676193657548676"><ele>1024.0</ele><time>2026-04-18T13:35:35Z</time></trkpt><trkpt lat="40.966283392675315" lon="14.676291845409322"><ele>1023.0</ele><time>2026-04-18T13:35:37Z</time></trkpt><trkpt lat="40.966240370011406" lon="14.676441765237065"><ele>1022.0</ele><time>2026-04-18T13:35:39Z</time></trkpt><trkpt lat="40.96619212112059" lon="14.676589525397384"><ele>1021.0</ele><time>2026-04-18T13:35:41Z</time></trkpt><trkpt lat="40.96615482978636" lon="14.67670593611902"><ele>1020.0</ele><time>2026-04-18T13:35:43Z</time></trkpt><trkpt lat="40.96604555939175" lon="14.676802238199526"><ele>1020.0</ele><time>2026-04-18T13:35:45Z</time></trkpt><trkpt lat="40.965986246948674" lon="14.676841580216907"><ele>1020.0</ele><time>2026-04-18T13:35:47Z</time></trkpt><trkpt lat="40.965956470026065" lon="14.676920973010937"><ele>1020.0</ele><time>2026-04-18T13:35:48Z</time></trkpt><trkpt lat="40.96595256047573" lon="14.677063369604214"><ele>1020.0</ele><time>2026-04-18T13:35:49.999Z</time></trkpt><trkpt lat="40.966017402304196" lon="14.677134622978665"><ele>1020.0</ele><time>2026-04-18T13:35:51.999Z</time></trkpt><trkpt lat="40.9660818514472" lon="14.677236535536256"><ele>1020.0</ele><time>2026-04-18T13:35:52.999Z</time></trkpt><trkpt lat="40.96614963935949" lon="14.677346823073025"><ele>1019.8</ele><time>2026-04-18T13:35:54.999Z</time></trkpt><trkpt lat="40.96618917169658" lon="14.677507447889617"><ele>1019.6</ele><time>2026-04-18T13:35:56.999Z</time></trkpt><trkpt lat="40.966203319910605" lon="14.677618777560738"><ele>1019.4000000000001</ele><time>2026-04-18T13:35:57.999Z</time></trkpt><trkpt lat="40.96620659227602" lon="14.677710049530749"><ele>1019.2</ele><time>2026-04-18T13:35:58.999Z</time></trkpt><trkpt lat="40.96620997582618" lon="14.677838708131356"><ele>1019.0</ele><time>2026-04-18T13:35:59.999Z</time></trkpt><trkpt lat="40.96618909043934" lon="14.677950340361946"><ele>1020.4000000000001</ele><time>2026-04-18T13:36:00.999Z</time></trkpt><trkpt lat="40.96617208089058" lon="14.678065771738835"><ele>1021.8000000000001</ele><time>2026-04-18T13:36:01.999Z</time></trkpt><trkpt lat="40.96614443958187" lon="14.678188170363626"><ele>1023.1999999999999</ele><time>2026-04-18T13:36:02.999Z</time></trkpt><trkpt lat="40.96610224608636" lon="14.678313227573883"><ele>1024.6</ele><time>2026-04-18T13:36:03.999Z</time></trkpt><trkpt lat="40.966081216331986" lon="14.678411464078058"><ele>1026.0</ele><time>2026-04-18T13:36:04.999Z</time></trkpt><trkpt lat="40.966091635541076" lon="14.67857372467838"><ele>1026.1666666666667</ele><time>2026-04-18T13:36:06.999Z</time></trkpt><trkpt lat="40.966074029683845" lon="14.67870408191311"><ele>1026.3333333333333</ele><time>2026-04-18T13:36:08.999Z</time></trkpt><trkpt lat="40.96605793203994" lon="14.678798400111983"><ele>1026.5</ele><time>2026-04-18T13:36:09.999Z</time></trkpt><trkpt lat="40.96604440633517" lon="14.678906770007638"><ele>1026.6666666666665</ele><time>2026-04-18T13:36:10.999Z</time></trkpt><trkpt lat="40.9660308791068" lon="14.679012080720906"><ele>1026.8333333333333</ele><time>2026-04-18T13:36:11.999Z</time></trkpt><trkpt lat="40.9660197891307" lon="14.679150628930618"><ele>1027.0</ele><time>2026-04-18T13:36:13.999Z</time></trkpt><trkpt lat="40.965986142358865" lon="14.679312523021263"><ele>1026.6</ele><time>2026-04-18T13:36:15.999Z</time></trkpt><trkpt lat="40.96596385741035" lon="14.679471574859713"><ele>1026.2</ele><time>2026-04-18T13:36:17.999Z</time></trkpt><trkpt lat="40.96588685069704" lon="14.679627527588996"><ele>1025.8</ele><time>2026-04-18T13:36:19.999Z</time></trkpt><trkpt lat="40.96584875800353" lon="14.679712747795646"><ele>1025.4</ele><time>2026-04-18T13:36:20.999Z</time></trkpt><trkpt lat="40.96576381797699" lon="14.679807319371877"><ele>1025.0</ele><time>2026-04-18T13:36:22.999Z</time></trkpt><trkpt lat="40.96574455525221" lon="14.679908048717751"><ele>1027.1666666666667</ele><time>2026-04-18T13:36:24.999Z</time></trkpt><trkpt lat="40.96577306091562" lon="14.680015968299674"><ele>1029.3333333333335</ele><time>2026-04-18T13:36:27.999Z</time></trkpt><trkpt lat="40.965800922338666" lon="14.680114316082184"><ele>1031.5</ele><time>2026-04-18T13:36:28.999Z</time></trkpt><trkpt lat="40.96580649111571" lon="14.680224585097973"><ele>1033.6666666666667</ele><time>2026-04-18T13:36:29.999Z</time></trkpt><trkpt lat="40.96578233516071" lon="14.680352874490515"><ele>1035.8333333333333</ele><time>2026-04-18T13:36:30.999Z</time></trkpt><trkpt lat="40.9657860555429" lon="14.680458220243683"><ele>1038.0</ele><time>2026-04-18T13:36:31.999Z</time></trkpt><trkpt lat="40.965789196353136" lon="14.680550659421412"><ele>1038.0</ele><time>2026-04-18T13:36:32.999Z</time></trkpt><trkpt lat="40.96580415517506" lon="14.680654919029159"><ele>1038.0</ele><time>2026-04-18T13:36:33.999Z</time></trkpt><trkpt lat="40.96578039216612" lon="14.680736191296566"><ele>1038.0</ele><time>2026-04-18T13:36:34.999Z</time></trkpt><trkpt lat="40.96574722548041" lon="14.680837528809308"><ele>1038.0</ele><time>2026-04-18T13:36:35.999Z</time></trkpt><trkpt lat="40.965712374978665" lon="14.680931256992372"><ele>1038.0</ele><time>2026-04-18T13:36:36.999Z</time></trkpt><trkpt lat="40.96570833907683" lon="14.68103568394336"><ele>1038.0</ele><time>2026-04-18T13:36:37.998Z</time></trkpt><trkpt lat="40.96570327933045" lon="14.68113996584045"><ele>1037.8333333333333</ele><time>2026-04-18T13:36:38.998Z</time></trkpt><trkpt lat="40.9657095900488" lon="14.68123484860202"><ele>1037.6666666666667</ele><time>2026-04-18T13:36:39.998Z</time></trkpt><trkpt lat="40.9657259894549" lon="14.68134630857804"><ele>1037.5</ele><time>2026-04-18T13:36:41.998Z</time></trkpt><trkpt lat="40.96571490278205" lon="14.68144684359222"><ele>1037.3333333333335</ele><time>2026-04-18T13:36:44.998Z</time></trkpt><trkpt lat="40.9656996490709" lon="14.681559061237223"><ele>1037.1666666666667</ele><time>2026-04-18T13:37:32Z</time></trkpt><trkpt lat="40.96567525660794" lon="14.681656092535762"><ele>1037.0</ele><time>2026-04-18T13:37:34Z</time></trkpt><trkpt lat="40.96564914703479" lon="14.681785016402575"><ele>1037.0</ele><time>2026-04-18T13:37:36Z</time></trkpt><trkpt lat="40.96559166097658" lon="14.681911560509008"><ele>1037.0</ele><time>2026-04-18T13:37:38Z</time></trkpt><trkpt lat="40.96548729676581" lon="14.682037173475344"><ele>1037.0</ele><time>2026-04-18T13:37:40Z</time></trkpt><trkpt lat="40.96539615195377" lon="14.682093923996536"><ele>1037.0</ele><time>2026-04-18T13:37:42Z</time></trkpt><trkpt lat="40.965366421973705" lon="14.682225996963885"><ele>1036.4</ele><time>2026-04-18T13:37:44Z</time></trkpt><trkpt lat="40.96532010697456" lon="14.682365946858498"><ele>1035.8000000000002</ele><time>2026-04-18T13:37:46Z</time></trkpt><trkpt lat="40.96527673165044" lon="14.682449473130626"><ele>1035.2</ele><time>2026-04-18T13:37:47Z</time></trkpt><trkpt lat="40.96520438576782" lon="14.682560245681888"><ele>1034.6000000000001</ele><time>2026-04-18T13:37:49Z</time></trkpt><trkpt lat="40.96512670516197" lon="14.682652001267416"><ele>1034.0</ele><time>2026-04-18T13:37:51Z</time></trkpt><trkpt lat="40.96504959555522" lon="14.682690610233562"><ele>1032.8</ele><time>2026-04-18T13:37:53Z</time></trkpt><trkpt lat="40.96500158371255" lon="14.682810591442168"><ele>1031.6000000000001</ele><time>2026-04-18T13:37:54.999Z</time></trkpt><trkpt lat="40.96499247781202" lon="14.682944663968057"><ele>1030.4</ele><time>2026-04-18T13:37:56.999Z</time></trkpt><trkpt lat="40.96498772555707" lon="14.683061737041413"><ele>1029.2</ele><time>2026-04-18T13:37:58.999Z</time></trkpt><trkpt lat="40.96495484857181" lon="14.683197185911855"><ele>1028.0</ele><time>2026-04-18T13:38:00.999Z</time></trkpt><trkpt lat="40.964927702194444" lon="14.683310906601562"><ele>1028.0</ele><time>2026-04-18T13:38:02.999Z</time></trkpt><trkpt lat="40.964952050578994" lon="14.683397369063897"><ele>1028.0</ele><time>2026-04-18T13:38:03.999Z</time></trkpt><trkpt lat="40.96496022781487" lon="14.683552287255358"><ele>1028.0</ele><time>2026-04-18T13:38:05.999Z</time></trkpt><trkpt lat="40.96492867489372" lon="14.683680233985802"><ele>1028.0</ele><time>2026-04-18T13:38:07.999Z</time></trkpt><trkpt lat="40.96487579332001" lon="14.68384906058126"><ele>1028.0</ele><time>2026-04-18T13:38:09.999Z</time></trkpt><trkpt lat="40.964838034377166" lon="14.684007587996334"><ele>1025.6666666666667</ele><time>2026-04-18T13:38:11.999Z</time></trkpt><trkpt lat="40.96483383796356" lon="14.684107102683697"><ele>1023.3333333333334</ele><time>2026-04-18T13:38:12.999Z</time></trkpt><trkpt lat="40.96483189315469" lon="14.684208108328269"><ele>1021.0</ele><time>2026-04-18T13:38:13.999Z</time></trkpt><trkpt lat="40.96486127516986" lon="14.684346676947204"><ele>1018.6666666666667</ele><time>2026-04-18T13:38:15.999Z</time></trkpt><trkpt lat="40.96487868452343" lon="14.684459749700103"><ele>1016.3333333333334</ele><time>2026-04-18T13:38:17.999Z</time></trkpt><trkpt lat="40.964925518754924" lon="14.684548170417193"><ele>1014.0</ele><time>2026-04-18T13:38:19.999Z</time></trkpt><trkpt lat="40.96493838350411" lon="14.684652729625224"><ele>1013.3333333333334</ele><time>2026-04-18T13:38:21.999Z</time></trkpt><trkpt lat="40.96498196513678" lon="14.684731129629954"><ele>1012.6666666666667</ele><time>2026-04-18T13:38:23.999Z</time></trkpt><trkpt lat="40.96502153030511" lon="14.684831730630574"><ele>1012.0</ele><time>2026-04-18T13:38:25.999Z</time></trkpt><trkpt lat="40.96503943135011" lon="14.68491312392343"><ele>1011.3333333333334</ele><time>2026-04-18T13:38:27.999Z</time></trkpt><trkpt lat="40.96504852306346" lon="14.68499721131308"><ele>1010.6666666666667</ele><time>2026-04-18T13:38:29.999Z</time></trkpt><trkpt lat="40.96504629858888" lon="14.68513231787529"><ele>1010.0</ele><time>2026-04-18T13:38:31.999Z</time></trkpt><trkpt lat="40.96505511237252" lon="14.685258090920474"><ele>1006.3333333333334</ele><time>2026-04-18T13:38:33.999Z</time></trkpt><trkpt lat="40.965057429302604" lon="14.685343943183987"><ele>1002.6666666666667</ele><time>2026-04-18T13:38:34.999Z</time></trkpt><trkpt lat="40.96510743734313" lon="14.685451421496344"><ele>999.0</ele><time>2026-04-18T13:38:36.999Z</time></trkpt><trkpt lat="40.96514963535002" lon="14.685546231192534"><ele>995.3333333333333</ele><time>2026-04-18T13:38:38.999Z</time></trkpt><trkpt lat="40.96519035810425" lon="14.685661924597454"><ele>991.6666666666666</ele><time>2026-04-18T13:38:40.999Z</time></trkpt><trkpt lat="40.96520266921004" lon="14.68574874195992"><ele>988.0</ele><time>2026-04-18T13:38:41.999Z</time></trkpt><trkpt lat="40.9651966711049" lon="14.685922635977022"><ele>988.0</ele><time>2026-04-18T13:38:43.998Z</time></trkpt><trkpt lat="40.96519326953084" lon="14.686061740364483"><ele>988.0</ele><time>2026-04-18T13:38:45.998Z</time></trkpt><trkpt lat="40.965178369754035" lon="14.686150293631336"><ele>988.0</ele><time>2026-04-18T13:38:46.998Z</time></trkpt><trkpt lat="40.965164253906416" lon="14.686289278318245"><ele>988.0</ele><time>2026-04-18T13:38:47.998Z</time></trkpt><trkpt lat="40.96512132925784" lon="14.686391930772356"><ele>988.0</ele><time>2026-04-18T13:38:48.998Z</time></trkpt><trkpt lat="40.965100350081904" lon="14.68650551091577"><ele>988.3333333333333</ele><time>2026-04-18T13:38:49.998Z</time></trkpt><trkpt lat="40.96512374905589" lon="14.68660248452499"><ele>988.6666666666666</ele><time>2026-04-18T13:38:50.998Z</time></trkpt><trkpt lat="40.96512444980935" lon="14.68669991234553"><ele>989.0</ele><time>2026-04-18T13:38:51.998Z</time></trkpt><trkpt lat="40.965112678033144" lon="14.686786913362878"><ele>989.3333333333333</ele><time>2026-04-18T13:38:52.998Z</time></trkpt><trkpt lat="40.96509671958448" lon="14.686879674332282"><ele>989.6666666666666</ele><time>2026-04-18T13:38:53.998Z</time></trkpt><trkpt lat="40.96507811093945" lon="14.687021003214747"><ele>990.0</ele><time>2026-04-18T13:38:55.998Z</time></trkpt><trkpt lat="40.96508581401806" lon="14.687164655887342"><ele>991.2</ele><time>2026-04-18T13:38:57.998Z</time></trkpt><trkpt lat="40.96506561177819" lon="14.687290515323093"><ele>992.4</ele><time>2026-04-18T13:38:59.998Z</time></trkpt><trkpt lat="40.96504743627022" lon="14.687394742194375"><ele>993.5999999999999</ele><time>2026-04-18T13:39:01.998Z</time></trkpt><trkpt lat="40.96505731939502" lon="14.687539941842456"><ele>994.8</ele><time>2026-04-18T13:39:03.998Z</time></trkpt><trkpt lat="40.965077022485445" lon="14.6876710971746"><ele>996.0</ele><time>2026-04-18T13:39:05.998Z</time></trkpt><trkpt lat="40.96507098084302" lon="14.687789084266694"><ele>996.5</ele><time>2026-04-18T13:39:07.998Z</time></trkpt><trkpt lat="40.96509290535919" lon="14.68787222475142"><ele>997.0</ele><time>2026-04-18T13:39:09.998Z</time></trkpt><trkpt lat="40.96514722384615" lon="14.687965915466789"><ele>997.5</ele><time>2026-04-18T13:39:11.998Z</time></trkpt><trkpt lat="40.965140135410095" lon="14.688049056742425"><ele>998.0</ele><time>2026-04-18T13:39:13.998Z</time></trkpt><trkpt lat="40.9651872972398" lon="14.688125825713685"><ele>998.5</ele><time>2026-04-18T13:46:56.999Z</time></trkpt><trkpt lat="40.96525290377984" lon="14.68818833229234"><ele>999.0</ele><time>2026-04-18T13:47:03.998Z</time></trkpt><trkpt lat="40.965328278732535" lon="14.688210758222674"><ele>999.0</ele><time>2026-04-18T13:47:06.998Z</time></trkpt><trkpt lat="40.965382091032616" lon="14.688269775159245"><ele>999.0</ele><time>2026-04-18T13:47:32.998Z</time></trkpt><trkpt lat="40.96533172958979" lon="14.6883411113146"><ele>999.0</ele><time>2026-04-18T13:48:40.999Z</time></trkpt><trkpt lat="40.96534959515535" lon="14.688259262028208"><ele>999.0</ele><time>2026-04-18T13:49:16.998Z</time></trkpt><trkpt lat="40.965385531348616" lon="14.688362587613499"><ele>999.0</ele><time>2026-04-18T13:51:33.998Z</time></trkpt><trkpt lat="40.96545725232494" lon="14.688377325089688"><ele>999.0</ele><time>2026-04-18T13:53:54.998Z</time></trkpt><trkpt lat="40.96546637403933" lon="14.68850263641584"><ele>999.0</ele><time>2026-04-18T13:53:57.998Z</time></trkpt><trkpt lat="40.96551376002901" lon="14.688590615419946"><ele>999.0</ele><time>2026-04-18T13:53:59.998Z</time></trkpt><trkpt lat="40.965533475591066" lon="14.688692615259404"><ele>999.0</ele><time>2026-04-18T13:54:01.998Z</time></trkpt><trkpt lat="40.9655310220812" lon="14.688784931166243"><ele>999.0</ele><time>2026-04-18T13:54:04Z</time></trkpt><trkpt lat="40.9655002773329" lon="14.688877209216571"><ele>999.0</ele><time>2026-04-18T13:54:07Z</time></trkpt><trkpt lat="40.965475384675585" lon="14.688976650634693"><ele>999.0</ele><time>2026-04-18T13:54:09Z</time></trkpt><trkpt lat="40.96547262239424" lon="14.68910766168671"><ele>1000.1666666666666</ele><time>2026-04-18T13:54:11Z</time></trkpt><trkpt lat="40.965517364732634" lon="14.689223389228202"><ele>1001.3333333333333</ele><time>2026-04-18T13:54:13Z</time></trkpt><trkpt lat="40.965521171862235" lon="14.689341594975447"><ele>1002.5</ele><time>2026-04-18T13:54:15Z</time></trkpt><trkpt lat="40.965568808166566" lon="14.689427386509056"><ele>1003.6666666666666</ele><time>2026-04-18T13:54:29Z</time></trkpt><trkpt lat="40.96561978876025" lon="14.68948530923399"><ele>1004.8333333333333</ele><time>2026-04-18T13:54:31Z</time></trkpt><trkpt lat="40.965690376283696" lon="14.689503451344544"><ele>1006.0</ele><time>2026-04-18T13:54:33Z</time></trkpt><trkpt lat="40.96578822894054" lon="14.689531152903989"><ele>1007.1666666666666</ele><time>2026-04-18T13:54:36Z</time></trkpt><trkpt lat="40.96586015970887" lon="14.689537406833432"><ele>1008.3333333333333</ele><time>2026-04-18T13:54:37Z</time></trkpt><trkpt lat="40.96593309238705" lon="14.689556028152685"><ele>1009.5</ele><time>2026-04-18T13:54:39Z</time></trkpt><trkpt lat="40.96601317297829" lon="14.689574292615525"><ele>1010.6666666666667</ele><time>2026-04-18T13:54:41Z</time></trkpt><trkpt lat="40.966094260404375" lon="14.68960268905653"><ele>1011.8333333333334</ele><time>2026-04-18T13:54:43Z</time></trkpt><trkpt lat="40.966201833554955" lon="14.689614792227168"><ele>1013.0</ele><time>2026-04-18T13:54:44.999Z</time></trkpt><trkpt lat="40.966264696476436" lon="14.689607266827368"><ele>1013.4285714285714</ele><time>2026-04-18T13:54:46.999Z</time></trkpt><trkpt lat="40.96630599241352" lon="14.689541274244814"><ele>1013.8571428571429</ele><time>2026-04-18T13:54:48.999Z</time></trkpt><trkpt lat="40.966245678457796" lon="14.689515809620367"><ele>1014.2857142857143</ele><time>2026-04-18T13:56:49.999Z</time></trkpt><trkpt lat="40.96627896080197" lon="14.6894429455866"><ele>1014.7142857142858</ele><time>2026-04-18T13:56:56.999Z</time></trkpt><trkpt lat="40.96632052366509" lon="14.689371449433075"><ele>1015.1428571428571</ele><time>2026-04-18T13:57:05.999Z</time></trkpt><trkpt lat="40.96630518894818" lon="14.68927725889864"><ele>1015.5714285714287</ele><time>2026-04-18T13:57:14.999Z</time></trkpt><trkpt lat="40.96631553584254" lon="14.689194550085547"><ele>1016.0</ele><time>2026-04-18T13:57:40.998Z</time></trkpt><trkpt lat="40.966307037823" lon="14.689280349450392"><ele>1016.0</ele><time>2026-04-18T13:58:12.998Z</time></trkpt><trkpt lat="40.966278753955734" lon="14.689355749324363"><ele>1016.0</ele><time>2026-04-18T13:58:22Z</time></trkpt><trkpt lat="40.966284613728675" lon="14.689447808833542"><ele>1016.0</ele><time>2026-04-18T13:58:28Z</time></trkpt><trkpt lat="40.966247775142534" lon="14.689526431662115"><ele>1016.0</ele><time>2026-04-18T14:00:52.999Z</time></trkpt><trkpt lat="40.9663133927963" lon="14.689511473561573"><ele>1016.0</ele><time>2026-04-18T14:29:39.998Z</time></trkpt><trkpt lat="40.966292216874194" lon="14.689597630078149"><ele>1016.0</ele><time>2026-04-18T14:29:58Z</time></trkpt><trkpt lat="40.96622374259397" lon="14.68961413937715"><ele>1016.0</ele><time>2026-04-18T14:30:01Z</time></trkpt><trkpt lat="40.966152852414034" lon="14.689604610575943"><ele>1015.5000000000001</ele><time>2026-04-18T14:30:03Z</time></trkpt><trkpt lat="40.96605593284226" lon="14.689572463923538"><ele>1015.0</ele><time>2026-04-18T14:30:06Z</time></trkpt><trkpt lat="40.96597364034903" lon="14.689563976688664"><ele>1014.5</ele><time>2026-04-18T14:30:08Z</time></trkpt><trkpt lat="40.96590334527521" lon="14.689538012151912"><ele>1014.0</ele><time>2026-04-18T14:30:10Z</time></trkpt><trkpt lat="40.9658384349962" lon="14.689510077963794"><ele>1013.5000000000001</ele><time>2026-04-18T14:30:12Z</time></trkpt><trkpt lat="40.96575496883016" lon="14.689498114666009"><ele>1013.0</ele><time>2026-04-18T14:30:14Z</time></trkpt><trkpt lat="40.96566841279741" lon="14.689490481434639"><ele>1013.0</ele><time>2026-04-18T14:30:16Z</time></trkpt><trkpt lat="40.96561410256062" lon="14.689440418235852"><ele>1013.0000000000001</ele><time>2026-04-18T14:30:18Z</time></trkpt><trkpt lat="40.96555467955771" lon="14.689371283003966"><ele>1013.0</ele><time>2026-04-18T14:30:20.999Z</time></trkpt><trkpt lat="40.96551257689921" lon="14.68929497417869"><ele>1013.0</ele><time>2026-04-18T14:30:23.999Z</time></trkpt><trkpt lat="40.96547293024038" lon="14.689228913881843"><ele>1013.0000000000001</ele><time>2026-04-18T14:30:25.999Z</time></trkpt><trkpt lat="40.965468631294364" lon="14.689143101873542"><ele>1013.0</ele><time>2026-04-18T14:30:27.999Z</time></trkpt><trkpt lat="40.96546303282121" lon="14.689052459796137"><ele>1013.0</ele><time>2026-04-18T14:30:29.999Z</time></trkpt><trkpt lat="40.96546026736803" lon="14.688949025816088"><ele>1011.8333333333334</ele><time>2026-04-18T14:30:31.999Z</time></trkpt><trkpt lat="40.96546476572725" lon="14.688854603128483"><ele>1010.6666666666667</ele><time>2026-04-18T14:30:33.999Z</time></trkpt><trkpt lat="40.96549040685654" lon="14.688746536564437"><ele>1009.5</ele><time>2026-04-18T14:30:36.999Z</time></trkpt><trkpt lat="40.96546248241982" lon="14.688640205401736"><ele>1008.3333333333333</ele><time>2026-04-18T14:30:39.999Z</time></trkpt><trkpt lat="40.96542000704689" lon="14.688532313177639"><ele>1007.1666666666666</ele><time>2026-04-18T14:30:42.999Z</time></trkpt><trkpt lat="40.965413926900226" lon="14.688422305379838"><ele>1006.0</ele><time>2026-04-18T14:30:45.999Z</time></trkpt><trkpt lat="40.965376828081595" lon="14.688315287514516"><ele>1004.8333333333333</ele><time>2026-04-18T14:30:48.999Z</time></trkpt><trkpt lat="40.96532718375027" lon="14.688226327439384"><ele>1003.6666666666666</ele><time>2026-04-18T14:30:55.999Z</time></trkpt><trkpt lat="40.96525365877718" lon="14.688201956513458"><ele>1002.5</ele><time>2026-04-18T14:30:58.999Z</time></trkpt><trkpt lat="40.96517872701715" lon="14.688217734998949"><ele>1001.3333333333333</ele><time>2026-04-18T14:31:03.999Z</time></trkpt><trkpt lat="40.96513837840376" lon="14.688127106720081"><ele>1000.1666666666666</ele><time>2026-04-18T14:31:07.998Z</time></trkpt><trkpt lat="40.96512181020077" lon="14.68803007149079"><ele>999.0</ele><time>2026-04-18T14:31:09.998Z</time></trkpt><trkpt lat="40.96510463554228" lon="14.687864162709205"><ele>999.0</ele><time>2026-04-18T14:31:11.998Z</time></trkpt><trkpt lat="40.965082404394124" lon="14.687765549426716"><ele>999.0</ele><time>2026-04-18T14:31:12.998Z</time></trkpt><trkpt lat="40.965070815026614" lon="14.687596377880237"><ele>999.0</ele><time>2026-04-18T14:31:14.998Z</time></trkpt><trkpt lat="40.96506879009941" lon="14.687509636836472"><ele>999.0</ele><time>2026-04-18T14:31:15.998Z</time></trkpt><trkpt lat="40.96507234930715" lon="14.687394009034177"><ele>999.0</ele><time>2026-04-18T14:31:17.998Z</time></trkpt><trkpt lat="40.965083655803134" lon="14.687280108795584"><ele>999.0</ele><time>2026-04-18T14:31:19.998Z</time></trkpt><trkpt lat="40.96509963116522" lon="14.687165975194125"><ele>998.4000000000001</ele><time>2026-04-18T14:31:22.998Z</time></trkpt><trkpt lat="40.965101719980154" lon="14.686951785733882"><ele>997.8000000000001</ele><time>2026-04-18T14:31:24.998Z</time></trkpt><trkpt lat="40.96509459004906" lon="14.68682705720001"><ele>997.1999999999999</ele><time>2026-04-18T14:31:25.998Z</time></trkpt><trkpt lat="40.96509548276264" lon="14.686712523199025"><ele>996.5999999999999</ele><time>2026-04-18T14:31:26.998Z</time></trkpt><trkpt lat="40.96509425885867" lon="14.686609578717551"><ele>996.0</ele><time>2026-04-18T14:31:27.998Z</time></trkpt><trkpt lat="40.965113789939856" lon="14.686525896366359"><ele>995.0</ele><time>2026-04-18T14:31:28.998Z</time></trkpt><trkpt lat="40.965112099033554" lon="14.686434491708809"><ele>994.0</ele><time>2026-04-18T14:31:29.998Z</time></trkpt><trkpt lat="40.96513764888687" lon="14.686275300656444"><ele>993.0</ele><time>2026-04-18T14:31:31.998Z</time></trkpt><trkpt lat="40.96516678518153" lon="14.68618741588215"><ele>992.0</ele><time>2026-04-18T14:31:32.998Z</time></trkpt><trkpt lat="40.965186319896134" lon="14.686097707242899"><ele>991.0</ele><time>2026-04-18T14:31:33.998Z</time></trkpt><trkpt lat="40.96520129885417" lon="14.686013088288906"><ele>990.0</ele><time>2026-04-18T14:31:34.998Z</time></trkpt><trkpt lat="40.965213764472885" lon="14.685911689654544"><ele>989.6</ele><time>2026-04-18T14:31:35.998Z</time></trkpt><trkpt lat="40.96520041512331" lon="14.685762786540716"><ele>989.2</ele><time>2026-04-18T14:31:36.998Z</time></trkpt><trkpt lat="40.96520681803992" lon="14.685649646157076"><ele>988.8</ele><time>2026-04-18T14:31:37.998Z</time></trkpt><trkpt lat="40.9651360829897" lon="14.685558959813855"><ele>988.4</ele><time>2026-04-18T14:31:40.998Z</time></trkpt><trkpt lat="40.96506564272832" lon="14.685454556157197"><ele>988.0</ele><time>2026-04-18T14:31:42.998Z</time></trkpt><trkpt lat="40.96506259781209" lon="14.685328793507516"><ele>988.6666666666666</ele><time>2026-04-18T14:31:44.998Z</time></trkpt><trkpt lat="40.96506031141464" lon="14.685235091121264"><ele>989.3333333333333</ele><time>2026-04-18T14:31:45.998Z</time></trkpt><trkpt lat="40.965066717526064" lon="14.6851264792133"><ele>990.0</ele><time>2026-04-18T14:31:46.998Z</time></trkpt><trkpt lat="40.96507000731976" lon="14.685030783099585"><ele>990.6666666666667</ele><time>2026-04-18T14:31:47.998Z</time></trkpt><trkpt lat="40.965043449618754" lon="14.68492584248335"><ele>991.3333333333334</ele><time>2026-04-18T14:31:50Z</time></trkpt><trkpt lat="40.96498785768261" lon="14.68481563822855"><ele>992.0</ele><time>2026-04-18T14:31:52Z</time></trkpt><trkpt lat="40.964940897437074" lon="14.68475841696374"><ele>995.6</ele><time>2026-04-18T14:31:53Z</time></trkpt><trkpt lat="40.964903120883875" lon="14.684597573895639"><ele>999.2</ele><time>2026-04-18T14:31:55Z</time></trkpt><trkpt lat="40.96489681762603" lon="14.68446696834145"><ele>1002.8</ele><time>2026-04-18T14:31:56Z</time></trkpt><trkpt lat="40.96487001175694" lon="14.68437704626433"><ele>1006.4</ele><time>2026-04-18T14:31:57Z</time></trkpt><trkpt lat="40.964822069657565" lon="14.684263909779844"><ele>1010.0</ele><time>2026-04-18T14:31:59Z</time></trkpt><trkpt lat="40.96483544908977" lon="14.684126610169967"><ele>1010.6666666666667</ele><time>2026-04-18T14:32:01Z</time></trkpt><trkpt lat="40.96480436732422" lon="14.684007440258954"><ele>1011.3333333333334</ele><time>2026-04-18T14:32:03Z</time></trkpt><trkpt lat="40.96481429498392" lon="14.683899624334023"><ele>1012.0</ele><time>2026-04-18T14:32:26.999Z</time></trkpt><trkpt lat="40.96483690585656" lon="14.68380389314404"><ele>1012.6666666666667</ele><time>2026-04-18T14:32:27.999Z</time></trkpt><trkpt lat="40.96486941351606" lon="14.683703759697982"><ele>1013.3333333333334</ele><time>2026-04-18T14:32:28.999Z</time></trkpt><trkpt lat="40.9648988434362" lon="14.683615833047593"><ele>1014.0</ele><time>2026-04-18T14:32:29.999Z</time></trkpt><trkpt lat="40.96492702491019" lon="14.683535844540666"><ele>1016.3333333333334</ele><time>2026-04-18T14:32:30.999Z</time></trkpt><trkpt lat="40.96489609458095" lon="14.683373671543286"><ele>1018.6666666666667</ele><time>2026-04-18T14:32:32.999Z</time></trkpt><trkpt lat="40.96488252682992" lon="14.683286616655776"><ele>1021.0</ele><time>2026-04-18T14:32:33.999Z</time></trkpt><trkpt lat="40.964891499256005" lon="14.683163585917697"><ele>1023.3333333333334</ele><time>2026-04-18T14:32:34.999Z</time></trkpt><trkpt lat="40.96491265022755" lon="14.683069284793335"><ele>1025.6666666666667</ele><time>2026-04-18T14:32:35.999Z</time></trkpt><trkpt lat="40.96495341878244" lon="14.682966618840112"><ele>1028.0</ele><time>2026-04-18T14:32:36.999Z</time></trkpt><trkpt lat="40.96497522372159" lon="14.682872743458713"><ele>1029.2</ele><time>2026-04-18T14:32:38.999Z</time></trkpt><trkpt lat="40.96500562326889" lon="14.682752523147027"><ele>1030.4</ele><time>2026-04-18T14:32:42.999Z</time></trkpt><trkpt lat="40.965060080473414" lon="14.682680657945777"><ele>1031.6000000000001</ele><time>2026-04-18T14:32:44.999Z</time></trkpt><trkpt lat="40.96514483714819" lon="14.682607698510092"><ele>1032.8</ele><time>2026-04-18T14:32:46.999Z</time></trkpt><trkpt lat="40.965238487127635" lon="14.682493109963506"><ele>1034.0</ele><time>2026-04-18T14:32:48.999Z</time></trkpt><trkpt lat="40.96527373283925" lon="14.682387456333885"><ele>1034.0</ele><time>2026-04-18T14:32:49.999Z</time></trkpt><trkpt lat="40.96533614525006" lon="14.682309796605681"><ele>1034.0</ele><time>2026-04-18T14:32:50.999Z</time></trkpt><trkpt lat="40.965373754941936" lon="14.682149763473245"><ele>1034.0</ele><time>2026-04-18T14:32:52.999Z</time></trkpt><trkpt lat="40.96541236217485" lon="14.682083816751062"><ele>1034.0</ele><time>2026-04-18T14:32:53.999Z</time></trkpt><trkpt lat="40.965493589128855" lon="14.682014344076542"><ele>1034.0</ele><time>2026-04-18T14:32:55.999Z</time></trkpt><trkpt lat="40.965596488620804" lon="14.681902834885793"><ele>1034.5</ele><time>2026-04-18T14:32:57.999Z</time></trkpt><trkpt lat="40.965645321589385" lon="14.681839940875847"><ele>1035.0</ele><time>2026-04-18T14:32:58.999Z</time></trkpt><trkpt lat="40.96564699433458" lon="14.681716629285104"><ele>1035.5</ele><time>2026-04-18T14:33:00.999Z</time></trkpt><trkpt lat="40.9656171604728" lon="14.68161302918373"><ele>1036.0</ele><time>2026-04-18T14:33:03.999Z</time></trkpt><trkpt lat="40.965556758644865" lon="14.681663434676574"><ele>1036.5</ele><time>2026-04-18T14:33:05.999Z</time></trkpt><trkpt lat="40.965443043885664" lon="14.681734216684962"><ele>1037.0</ele><time>2026-04-18T14:33:07.999Z</time></trkpt><trkpt lat="40.96536229877965" lon="14.681735361057362"><ele>1037.0</ele><time>2026-04-18T14:33:08.999Z</time></trkpt><trkpt lat="40.96528997680216" lon="14.681742614117443"><ele>1037.0</ele><time>2026-04-18T14:33:09.999Z</time></trkpt><trkpt lat="40.96520755417361" lon="14.681831747809374"><ele>1037.0</ele><time>2026-04-18T14:33:11.999Z</time></trkpt><trkpt lat="40.96513481219511" lon="14.68196694334147"><ele>1037.0</ele><time>2026-04-18T14:33:13.999Z</time></trkpt><trkpt lat="40.96504778043033" lon="14.681991137474714"><ele>1037.0</ele><time>2026-04-18T14:33:14.999Z</time></trkpt><trkpt lat="40.964963590937785" lon="14.682063407350723"><ele>1038.0</ele><time>2026-04-18T14:33:15.998Z</time></trkpt><trkpt lat="40.964872082785014" lon="14.682131103820506"><ele>1039.0</ele><time>2026-04-18T14:33:16.998Z</time></trkpt><trkpt lat="40.964781463627126" lon="14.682175822337094"><ele>1040.0</ele><time>2026-04-18T14:33:17.998Z</time></trkpt><trkpt lat="40.9647180301113" lon="14.682255026384121"><ele>1041.0</ele><time>2026-04-18T14:33:18.998Z</time></trkpt><trkpt lat="40.96462205761979" lon="14.682406791134518"><ele>1042.0</ele><time>2026-04-18T14:33:20.998Z</time></trkpt><trkpt lat="40.96457571534219" lon="14.68253041452048"><ele>1042.0</ele><time>2026-04-18T14:33:21.998Z</time></trkpt><trkpt lat="40.96453151714955" lon="14.682608026775084"><ele>1042.0</ele><time>2026-04-18T14:33:22.998Z</time></trkpt><trkpt lat="40.964455955232715" lon="14.68266267353684"><ele>1042.0</ele><time>2026-04-18T14:33:23.998Z</time></trkpt><trkpt lat="40.96437916335105" lon="14.682705184933576"><ele>1042.0</ele><time>2026-04-18T14:33:24.998Z</time></trkpt><trkpt lat="40.96429893965096" lon="14.682759447242894"><ele>1042.0</ele><time>2026-04-18T14:33:25.998Z</time></trkpt><trkpt lat="40.96423468206193" lon="14.682782472552741"><ele>1042.0</ele><time>2026-04-18T14:33:26.998Z</time></trkpt><trkpt lat="40.964147634343526" lon="14.682875717717996"><ele>1043.8333333333333</ele><time>2026-04-18T14:33:28.998Z</time></trkpt><trkpt lat="40.96411016481646" lon="14.682944650830766"><ele>1045.6666666666665</ele><time>2026-04-18T14:33:29.998Z</time></trkpt><trkpt lat="40.96409939999342" lon="14.683028227454859"><ele>1047.5</ele><time>2026-04-18T14:33:30.998Z</time></trkpt><trkpt lat="40.96409764273045" lon="14.683140937129219"><ele>1049.3333333333333</ele><time>2026-04-18T14:33:31.998Z</time></trkpt><trkpt lat="40.964071402228576" lon="14.6832472510841"><ele>1051.1666666666667</ele><time>2026-04-18T14:33:32.998Z</time></trkpt><trkpt lat="40.96403763175554" lon="14.683347886180057"><ele>1053.0</ele><time>2026-04-18T14:33:33.998Z</time></trkpt><trkpt lat="40.96398276423325" lon="14.683424324561921"><ele>1051.2</ele><time>2026-04-18T14:33:34.998Z</time></trkpt><trkpt lat="40.963908952216585" lon="14.683598164734795"><ele>1049.4</ele><time>2026-04-18T14:33:36.998Z</time></trkpt><trkpt lat="40.96387459407134" lon="14.683670722852296"><ele>1047.6000000000001</ele><time>2026-04-18T14:33:37.998Z</time></trkpt><trkpt lat="40.96380695199695" lon="14.683741093984906"><ele>1045.8</ele><time>2026-04-18T14:33:39.998Z</time></trkpt><trkpt lat="40.963745070873564" lon="14.683789253572405"><ele>1044.0</ele><time>2026-04-18T14:33:41.998Z</time></trkpt><trkpt lat="40.96364405820172" lon="14.683946543541712"><ele>1044.0</ele><time>2026-04-18T14:33:43.998Z</time></trkpt><trkpt lat="40.963594070993786" lon="14.684026217672026"><ele>1044.0</ele><time>2026-04-18T14:33:44.998Z</time></trkpt><trkpt lat="40.96356199467001" lon="14.684126375495174"><ele>1044.0</ele><time>2026-04-18T14:33:45.998Z</time></trkpt><trkpt lat="40.9635285971837" lon="14.684211993855758"><ele>1044.0</ele><time>2026-04-18T14:33:46.998Z</time></trkpt><trkpt lat="40.963518043579406" lon="14.684298814781958"><ele>1044.0</ele><time>2026-04-18T14:33:47.998Z</time></trkpt><trkpt lat="40.96349721766351" lon="14.684464674282024"><ele>1044.0</ele><time>2026-04-18T14:33:49.998Z</time></trkpt><trkpt lat="40.963525819858795" lon="14.68457536261296"><ele>1043.142857142857</ele><time>2026-04-18T14:33:51.998Z</time></trkpt><trkpt lat="40.9635046329366" lon="14.684677335301476"><ele>1042.2857142857142</ele><time>2026-04-18T14:33:56Z</time></trkpt><trkpt lat="40.963447864065245" lon="14.684735018550876"><ele>1041.4285714285713</ele><time>2026-04-18T14:33:58Z</time></trkpt><trkpt lat="40.96340150319736" lon="14.68480387732162"><ele>1040.5714285714284</ele><time>2026-04-18T14:33:59Z</time></trkpt><trkpt lat="40.963342442973584" lon="14.684846711380262"><ele>1039.7142857142856</ele><time>2026-04-18T14:34:00Z</time></trkpt><trkpt lat="40.96328965823015" lon="14.684895050030342"><ele>1038.857142857143</ele><time>2026-04-18T14:34:01Z</time></trkpt><trkpt lat="40.96321810858834" lon="14.684943619623812"><ele>1038.0</ele><time>2026-04-18T14:34:03Z</time></trkpt><trkpt lat="40.96318920807757" lon="14.685036820900965"><ele>1044.3333333333333</ele><time>2026-04-18T14:36:11Z</time></trkpt><trkpt lat="40.96314903128662" lon="14.685136215577192"><ele>1050.6666666666667</ele><time>2026-04-18T14:36:15Z</time></trkpt><trkpt lat="40.963115357522135" lon="14.685226698698578"><ele>1057.0</ele><time>2026-04-18T14:36:17Z</time></trkpt><trkpt lat="40.963069766764285" lon="14.685292107199619"><ele>1063.3333333333335</ele><time>2026-04-18T14:36:19Z</time></trkpt><trkpt lat="40.963013671442965" lon="14.685387945793877"><ele>1069.6666666666667</ele><time>2026-04-18T14:38:23Z</time></trkpt><trkpt lat="40.962889412920006" lon="14.685431353669562"><ele>1076.0</ele><time>2026-04-18T14:38:25Z</time></trkpt><trkpt lat="40.962825797627836" lon="14.68546360440872"><ele>1077.0</ele><time>2026-04-18T14:38:26Z</time></trkpt><trkpt lat="40.962779438928" lon="14.6855363873763"><ele>1078.0</ele><time>2026-04-18T14:38:27Z</time></trkpt><trkpt lat="40.962744131892656" lon="14.685625187036775"><ele>1079.0</ele><time>2026-04-18T14:38:28Z</time></trkpt><trkpt lat="40.96272860034009" lon="14.68575711212335"><ele>1080.0</ele><time>2026-04-18T14:38:30Z</time></trkpt><trkpt lat="40.962638891201784" lon="14.685872443943632"><ele>1081.0</ele><time>2026-04-18T14:38:32Z</time></trkpt><trkpt lat="40.96259454807562" lon="14.685935427604617"><ele>1082.0</ele><time>2026-04-18T14:38:33Z</time></trkpt><trkpt lat="40.9625473649773" lon="14.686008698246857"><ele>1084.1428571428573</ele><time>2026-04-18T14:38:34Z</time></trkpt><trkpt lat="40.96249555536585" lon="14.686105229302454"><ele>1086.2857142857142</ele><time>2026-04-18T14:38:36Z</time></trkpt><trkpt lat="40.96247490775008" lon="14.686197427858424"><ele>1088.4285714285716</ele><time>2026-04-18T14:38:38Z</time></trkpt><trkpt lat="40.962515449138444" lon="14.68628086228025"><ele>1090.5714285714287</ele><time>2026-04-18T14:38:40Z</time></trkpt><trkpt lat="40.96258036637823" lon="14.686262699004738"><ele>1092.7142857142858</ele><time>2026-04-18T14:38:43.999Z</time></trkpt><trkpt lat="40.962646283642364" lon="14.686287596088778"><ele>1094.857142857143</ele><time>2026-04-18T14:38:47.999Z</time></trkpt><trkpt lat="40.962590590108945" lon="14.686341897029383"><ele>1097.0</ele><time>2026-04-18T14:39:16.999Z</time></trkpt><trkpt lat="40.962608051418115" lon="14.686429271097804"><ele>1097.0</ele><time>2026-04-18T14:39:18.999Z</time></trkpt><trkpt lat="40.96260687269781" lon="14.68658897735972"><ele>1097.0</ele><time>2026-04-18T14:39:20.999Z</time></trkpt><trkpt lat="40.96261097550306" lon="14.686681419649027"><ele>1097.0</ele><time>2026-04-18T14:39:21.999Z</time></trkpt><trkpt lat="40.96260307604158" lon="14.686771513908703"><ele>1097.0</ele><time>2026-04-18T14:39:22.999Z</time></trkpt><trkpt lat="40.96259785449282" lon="14.686922308285416"><ele>1097.0</ele><time>2026-04-18T14:39:24.999Z</time></trkpt><trkpt lat="40.962588006971586" lon="14.687070223961872"><ele>1097.1666666666667</ele><time>2026-04-18T14:39:26.999Z</time></trkpt><trkpt lat="40.96257639383152" lon="14.687177506894317"><ele>1097.3333333333335</ele><time>2026-04-18T14:39:27.999Z</time></trkpt><trkpt lat="40.96252940205785" lon="14.687301197704524"><ele>1097.5</ele><time>2026-04-18T14:39:29.999Z</time></trkpt><trkpt lat="40.96246608952225" lon="14.68739695194617"><ele>1097.6666666666667</ele><time>2026-04-18T14:39:31.998Z</time></trkpt><trkpt lat="40.96240901830599" lon="14.687464395192592"><ele>1097.8333333333333</ele><time>2026-04-18T14:39:33.998Z</time></trkpt><trkpt lat="40.96240123247954" lon="14.687547397442852"><ele>1098.0</ele><time>2026-04-18T14:39:35.998Z</time></trkpt><trkpt lat="40.96237920427564" lon="14.687637411803994"><ele>1099.8333333333333</ele><time>2026-04-18T14:39:37.998Z</time></trkpt><trkpt lat="40.96227833836007" lon="14.687746583212547"><ele>1101.6666666666667</ele><time>2026-04-18T14:39:39.998Z</time></trkpt><trkpt lat="40.96222834927047" lon="14.68780178206953"><ele>1103.5</ele><time>2026-04-18T14:39:40.998Z</time></trkpt><trkpt lat="40.96216924311505" lon="14.687843396926663"><ele>1105.3333333333335</ele><time>2026-04-18T14:39:41.998Z</time></trkpt><trkpt lat="40.96211130459211" lon="14.68790025479117"><ele>1107.1666666666667</ele><time>2026-04-18T14:39:42.998Z</time></trkpt><trkpt lat="40.96201910470518" lon="14.68796434715883"><ele>1109.0</ele><time>2026-04-18T14:39:44.998Z</time></trkpt><trkpt lat="40.961938046886964" lon="14.688003542736556"><ele>1110.5</ele><time>2026-04-18T14:39:45.998Z</time></trkpt><trkpt lat="40.96186193485041" lon="14.688037325302506"><ele>1112.0</ele><time>2026-04-18T14:39:47.998Z</time></trkpt><trkpt lat="40.961779803866165" lon="14.688050385104308"><ele>1113.5</ele><time>2026-04-18T14:39:49.998Z</time></trkpt><trkpt lat="40.96170487157416" lon="14.688064328485973"><ele>1115.0</ele><time>2026-04-18T14:39:51.998Z</time></trkpt><trkpt lat="40.96167472874014" lon="14.688137707509327"><ele>1116.5</ele><time>2026-04-18T14:39:52.998Z</time></trkpt><trkpt lat="40.96157304723842" lon="14.688155886878441"><ele>1118.0</ele><time>2026-04-18T14:39:55.998Z</time></trkpt><trkpt lat="40.961509697070156" lon="14.688191397935565"><ele>1118.0</ele><time>2026-04-18T14:39:57.998Z</time></trkpt><trkpt lat="40.96141193844345" lon="14.688251866002483"><ele>1118.0</ele><time>2026-04-18T14:39:59.998Z</time></trkpt><trkpt lat="40.96135177933008" lon="14.688297737935"><ele>1118.0</ele><time>2026-04-18T14:40:00.998Z</time></trkpt><trkpt lat="40.96129458609202" lon="14.68833832288387"><ele>1118.0</ele><time>2026-04-18T14:40:01.998Z</time></trkpt><trkpt lat="40.96118812881478" lon="14.688396278432734"><ele>1118.0</ele><time>2026-04-18T14:40:03.998Z</time></trkpt><trkpt lat="40.96108639083051" lon="14.688429583178984"><ele>1118.0</ele><time>2026-04-18T14:40:05.998Z</time></trkpt><trkpt lat="40.961045255231326" lon="14.688523405556419"><ele>1118.0</ele><time>2026-04-18T14:40:07.998Z</time></trkpt><trkpt lat="40.96097198222398" lon="14.688582738943214"><ele>1118.0</ele><time>2026-04-18T14:40:09.998Z</time></trkpt><trkpt lat="40.96089778497837" lon="14.68864052730474"><ele>1118.0</ele><time>2026-04-18T14:40:11.998Z</time></trkpt><trkpt lat="40.96081558667788" lon="14.68864483968169"><ele>1118.0</ele><time>2026-04-18T14:40:14Z</time></trkpt><trkpt lat="40.96074496966388" lon="14.688679911334162"><ele>1118.0</ele><time>2026-04-18T14:40:16Z</time></trkpt><trkpt lat="40.96067440951216" lon="14.688701981499639"><ele>1119.3333333333335</ele><time>2026-04-18T14:40:19Z</time></trkpt><trkpt lat="40.960616555798666" lon="14.688748122862071"><ele>1120.6666666666667</ele><time>2026-04-18T14:40:24Z</time></trkpt><trkpt lat="40.96056989787379" lon="14.688827854936866"><ele>1122.0</ele><time>2026-04-18T14:41:53.998Z</time></trkpt><trkpt lat="40.96048767723207" lon="14.688875524656451"><ele>1123.3333333333333</ele><time>2026-04-18T14:41:57.998Z</time></trkpt><trkpt lat="40.96040444847934" lon="14.688933295443434"><ele>1124.6666666666665</ele><time>2026-04-18T14:42:00.998Z</time></trkpt><trkpt lat="40.960347593145116" lon="14.68897710470595"><ele>1126.0</ele><time>2026-04-18T14:42:03.998Z</time></trkpt><trkpt lat="40.96029630635249" lon="14.689043067796096"><ele>1126.0</ele><time>2026-04-18T14:42:05.998Z</time></trkpt><trkpt lat="40.960226627012915" lon="14.689075152928307"><ele>1126.0</ele><time>2026-04-18T14:42:59.999Z</time></trkpt><trkpt lat="40.96017364717381" lon="14.689132873362917"><ele>1126.0</ele><time>2026-04-18T14:43:02.999Z</time></trkpt><trkpt lat="40.96011375909878" lon="14.689178655051663"><ele>1126.0</ele><time>2026-04-18T14:43:04.999Z</time></trkpt><trkpt lat="40.960050443345686" lon="14.689213072726638"><ele>1126.0</ele><time>2026-04-18T14:43:08.999Z</time></trkpt><trkpt lat="40.95999248666505" lon="14.68925728428041"><ele>1126.0</ele><time>2026-04-18T14:43:11.999Z</time></trkpt><trkpt lat="40.95992991355531" lon="14.68931960046075"><ele>1126.0</ele><time>2026-04-18T14:43:27.999Z</time></trkpt><trkpt lat="40.95987552822821" lon="14.689378049281128"><ele>1126.0</ele><time>2026-04-18T14:43:35.999Z</time></trkpt><trkpt lat="40.95981808592739" lon="14.689415353929355"><ele>1126.0</ele><time>2026-04-18T14:43:40.999Z</time></trkpt><trkpt lat="40.95975854827433" lon="14.689447805505228"><ele>1126.0</ele><time>2026-04-18T14:43:47.999Z</time></trkpt><trkpt lat="40.95970708720965" lon="14.689498006930052"><ele>1126.0</ele><time>2026-04-18T14:43:52.998Z</time></trkpt><trkpt lat="40.95965075944047" lon="14.689559464828045"><ele>1126.0</ele><time>2026-04-18T14:44:03.998Z</time></trkpt><trkpt lat="40.95959293904148" lon="14.689605764036022"><ele>1126.0</ele><time>2026-04-18T14:44:11.998Z</time></trkpt><trkpt lat="40.95953582682208" lon="14.689642644054382"><ele>1126.0</ele><time>2026-04-18T14:44:22.998Z</time></trkpt><trkpt lat="40.95948282834047" lon="14.689726901625686"><ele>1126.0</ele><time>2026-04-18T14:44:27Z</time></trkpt><trkpt lat="40.95940963707736" lon="14.689763504387933"><ele>1126.0</ele><time>2026-04-18T14:44:31Z</time></trkpt><trkpt lat="40.95935435747066" lon="14.689815161338387"><ele>1126.0</ele><time>2026-04-18T14:44:37Z</time></trkpt><trkpt lat="40.95929122938813" lon="14.689870594492714"><ele>1126.0</ele><time>2026-04-18T14:44:42Z</time></trkpt><trkpt lat="40.95923881322588" lon="14.689921522909996"><ele>1126.0</ele><time>2026-04-18T14:44:48Z</time></trkpt><trkpt lat="40.95919118513281" lon="14.689976363286107"><ele>1126.0</ele><time>2026-04-18T14:44:58Z</time></trkpt><trkpt lat="40.95913094637213" lon="14.690022493750549"><ele>1126.0</ele><time>2026-04-18T14:45:08.999Z</time></trkpt><trkpt lat="40.95906227042409" lon="14.690079629447519"><ele>1123.5</ele><time>2026-04-18T14:45:28.999Z</time></trkpt><trkpt lat="40.959020047010746" lon="14.690145155487237"><ele>1121.0</ele><time>2026-04-18T14:46:21.998Z</time></trkpt><trkpt lat="40.95894024297808" lon="14.69022725194048"><ele>1118.5</ele><time>2026-04-18T14:47:42.999Z</time></trkpt><trkpt lat="40.95886274202977" lon="14.690246991120747"><ele>1116.0</ele><time>2026-04-18T14:47:49.999Z</time></trkpt><trkpt lat="40.95880743127944" lon="14.690289283009887"><ele>1113.5</ele><time>2026-04-18T14:47:52.999Z</time></trkpt><trkpt lat="40.95874770571081" lon="14.690331971780756"><ele>1111.0</ele><time>2026-04-18T14:47:54.999Z</time></trkpt><trkpt lat="40.95865904521806" lon="14.69036695404282"><ele>1111.0</ele><time>2026-04-18T14:47:57.999Z</time></trkpt><trkpt lat="40.95857996387668" lon="14.690414398839081"><ele>1111.0</ele><time>2026-04-18T14:47:59.998Z</time></trkpt><trkpt lat="40.958486017608905" lon="14.690456798957227"><ele>1111.0</ele><time>2026-04-18T14:48:01.998Z</time></trkpt><trkpt lat="40.95840504552571" lon="14.69051810472561"><ele>1111.0</ele><time>2026-04-18T14:48:03.998Z</time></trkpt><trkpt lat="40.95834169480501" lon="14.690560040552434"><ele>1111.0</ele><time>2026-04-18T14:48:05.998Z</time></trkpt><trkpt lat="40.95828845213665" lon="14.69062594950004"><ele>1111.0</ele><time>2026-04-18T14:48:07.998Z</time></trkpt><trkpt lat="40.95822473494685" lon="14.690667554679843"><ele>1105.2</ele><time>2026-04-18T14:48:11.998Z</time></trkpt><trkpt lat="40.958145837853856" lon="14.690752242511982"><ele>1099.3999999999999</ele><time>2026-04-18T14:48:14.998Z</time></trkpt><trkpt lat="40.95806588350249" lon="14.690874791076464"><ele>1093.6</ele><time>2026-04-18T14:49:10Z</time></trkpt><trkpt lat="40.95801834553829" lon="14.690976460224139"><ele>1087.8</ele><time>2026-04-18T14:49:13.999Z</time></trkpt><trkpt lat="40.957969362577906" lon="14.691030947532576"><ele>1082.0</ele><time>2026-04-18T14:49:15.999Z</time></trkpt><trkpt lat="40.95789877496438" lon="14.691062470901924"><ele>1080.5</ele><time>2026-04-18T14:49:17.999Z</time></trkpt><trkpt lat="40.95782512367643" lon="14.69117031091799"><ele>1079.0</ele><time>2026-04-18T14:49:20.999Z</time></trkpt><trkpt lat="40.95775055249675" lon="14.691235739768375"><ele>1077.5</ele><time>2026-04-18T14:49:22.999Z</time></trkpt><trkpt lat="40.95768171963363" lon="14.691259863837537"><ele>1076.0</ele><time>2026-04-18T14:49:25.999Z</time></trkpt><trkpt lat="40.95765393992897" lon="14.691337053481702"><ele>1074.5</ele><time>2026-04-18T14:49:29.999Z</time></trkpt><trkpt lat="40.95759976730303" lon="14.69142653620798"><ele>1073.0</ele><time>2026-04-18T14:49:31.999Z</time></trkpt><trkpt lat="40.95750313600668" lon="14.691562702637825"><ele>1073.0</ele><time>2026-04-18T14:49:33.999Z</time></trkpt><trkpt lat="40.957429422272014" lon="14.691659912206845"><ele>1073.0</ele><time>2026-04-18T14:49:34.999Z</time></trkpt><trkpt lat="40.95735015330981" lon="14.691778645362954"><ele>1073.0</ele><time>2026-04-18T14:49:36.999Z</time></trkpt><trkpt lat="40.95726982935266" lon="14.691884992470612"><ele>1073.0</ele><time>2026-04-18T14:49:38.999Z</time></trkpt><trkpt lat="40.95721874463262" lon="14.691995830708693"><ele>1073.0</ele><time>2026-04-18T14:49:40.999Z</time></trkpt><trkpt lat="40.95716130027952" lon="14.692068423277354"><ele>1076.8333333333335</ele><time>2026-04-18T14:49:42.999Z</time></trkpt><trkpt lat="40.95707987045509" lon="14.692147466373745"><ele>1080.6666666666667</ele><time>2026-04-18T14:49:44.999Z</time></trkpt><trkpt lat="40.95701842972983" lon="14.692200172205052"><ele>1084.5</ele><time>2026-04-18T14:49:45.999Z</time></trkpt><trkpt lat="40.95694461393702" lon="14.692295621303774"><ele>1088.3333333333333</ele><time>2026-04-18T14:49:47.999Z</time></trkpt><trkpt lat="40.956876396929886" lon="14.692348322182802"><ele>1092.1666666666665</ele><time>2026-04-18T14:49:49.999Z</time></trkpt><trkpt lat="40.95681706906504" lon="14.692402824664198"><ele>1096.0</ele><time>2026-04-18T14:49:50.999Z</time></trkpt><trkpt lat="40.95672708797822" lon="14.69248972593746"><ele>1092.2</ele><time>2026-04-18T14:49:52.999Z</time></trkpt><trkpt lat="40.956695161054654" lon="14.6925767308156"><ele>1088.3999999999999</ele><time>2026-04-18T14:49:53.999Z</time></trkpt><trkpt lat="40.95664471389116" lon="14.692659756107709"><ele>1084.6</ele><time>2026-04-18T14:49:54.999Z</time></trkpt><trkpt lat="40.956596114255575" lon="14.692787845528565"><ele>1080.8</ele><time>2026-04-18T14:49:56.999Z</time></trkpt><trkpt lat="40.95650506056692" lon="14.692919205387906"><ele>1077.0</ele><time>2026-04-18T14:49:58.999Z</time></trkpt><trkpt lat="40.95641479244732" lon="14.693006768409711"><ele>1077.0</ele><time>2026-04-18T14:50:00.998Z</time></trkpt><trkpt lat="40.956344381476555" lon="14.693082836905687"><ele>1077.0</ele><time>2026-04-18T14:50:02.998Z</time></trkpt><trkpt lat="40.956306825011595" lon="14.693176590751674"><ele>1077.0</ele><time>2026-04-18T14:50:03.998Z</time></trkpt><trkpt lat="40.95624841918069" lon="14.693238240989205"><ele>1077.0</ele><time>2026-04-18T14:50:04.998Z</time></trkpt><trkpt lat="40.95619760401669" lon="14.693289599286876"><ele>1077.0</ele><time>2026-04-18T14:50:05.998Z</time></trkpt><trkpt lat="40.956136264841064" lon="14.693367988756624"><ele>1077.0</ele><time>2026-04-18T14:50:06.998Z</time></trkpt><trkpt lat="40.956067549301004" lon="14.69342923952294"><ele>1077.0</ele><time>2026-04-18T14:50:07.998Z</time></trkpt><trkpt lat="40.95599524464933" lon="14.69350215475523"><ele>1077.0</ele><time>2026-04-18T14:50:08.998Z</time></trkpt><trkpt lat="40.955907661087004" lon="14.693636091261329"><ele>1077.0</ele><time>2026-04-18T14:50:10.998Z</time></trkpt><trkpt lat="40.955852354986604" lon="14.693734126630533"><ele>1077.0</ele><time>2026-04-18T14:50:11.998Z</time></trkpt><trkpt lat="40.95578776015037" lon="14.693836323242481"><ele>1077.0</ele><time>2026-04-18T14:50:12.998Z</time></trkpt><trkpt lat="40.95573238214345" lon="14.693931730916509"><ele>1073.2</ele><time>2026-04-18T14:50:13.998Z</time></trkpt><trkpt lat="40.95568000934236" lon="14.69400250033298"><ele>1069.4</ele><time>2026-04-18T14:50:14.998Z</time></trkpt><trkpt lat="40.955580007507855" lon="14.69410014872696"><ele>1065.6</ele><time>2026-04-18T14:50:16.998Z</time></trkpt><trkpt lat="40.95543870556585" lon="14.694177255917866"><ele>1061.8</ele><time>2026-04-18T14:50:18.998Z</time></trkpt><trkpt lat="40.95537577847699" lon="14.694224804696443"><ele>1058.0</ele><time>2026-04-18T14:50:19.998Z</time></trkpt><trkpt lat="40.95531898102927" lon="14.694285879757025"><ele>1058.0</ele><time>2026-04-18T14:50:20.998Z</time></trkpt><trkpt lat="40.955262555743474" lon="14.69433113646883"><ele>1058.0</ele><time>2026-04-18T14:50:21.998Z</time></trkpt><trkpt lat="40.95517337299347" lon="14.694461239180946"><ele>1058.0</ele><time>2026-04-18T14:50:23.998Z</time></trkpt><trkpt lat="40.955128627906916" lon="14.694531835905371"><ele>1058.0</ele><time>2026-04-18T14:50:24.998Z</time></trkpt><trkpt lat="40.955027220519916" lon="14.694622171376265"><ele>1058.0</ele><time>2026-04-18T14:50:26.998Z</time></trkpt><trkpt lat="40.95496174958056" lon="14.694677217744664"><ele>1058.8</ele><time>2026-04-18T14:50:27.998Z</time></trkpt><trkpt lat="40.954915020922215" lon="14.694736287031054"><ele>1059.6</ele><time>2026-04-18T14:50:28.998Z</time></trkpt><trkpt lat="40.954808437875926" lon="14.69481000293031"><ele>1060.4</ele><time>2026-04-18T14:50:30.998Z</time></trkpt><trkpt lat="40.954682947254184" lon="14.694778897915047"><ele>1061.2</ele><time>2026-04-18T14:50:32.998Z</time></trkpt><trkpt lat="40.95459775917468" lon="14.694780137537114"><ele>1062.0</ele><time>2026-04-18T14:50:33.998Z</time></trkpt><trkpt lat="40.95453268874467" lon="14.69480504920995"><ele>1062.0</ele><time>2026-04-18T14:50:34.998Z</time></trkpt><trkpt lat="40.954425073949864" lon="14.694842265935605"><ele>1062.0</ele><time>2026-04-18T14:50:36.998Z</time></trkpt><trkpt lat="40.95434811284716" lon="14.694897288504752"><ele>1062.0</ele><time>2026-04-18T14:50:38.998Z</time></trkpt><trkpt lat="40.95429227113061" lon="14.694962079870574"><ele>1062.0</ele><time>2026-04-18T14:50:40.998Z</time></trkpt><trkpt lat="40.954221420348574" lon="14.695026595969368"><ele>1062.0</ele><time>2026-04-18T14:50:42.998Z</time></trkpt><trkpt lat="40.95413179085955" lon="14.695103102076873"><ele>1059.3333333333333</ele><time>2026-04-18T14:50:45Z</time></trkpt><trkpt lat="40.95404623595605" lon="14.695163519707762"><ele>1056.6666666666667</ele><time>2026-04-18T14:50:47Z</time></trkpt><trkpt lat="40.953968109360936" lon="14.695214861741546"><ele>1054.0</ele><time>2026-04-18T14:50:49Z</time></trkpt><trkpt lat="40.953896284052995" lon="14.695240892980614"><ele>1051.3333333333335</ele><time>2026-04-18T14:50:51Z</time></trkpt><trkpt lat="40.953811841737505" lon="14.695231923337625"><ele>1048.6666666666667</ele><time>2026-04-18T14:50:53Z</time></trkpt><trkpt lat="40.953735470119575" lon="14.695235469966816"><ele>1046.0</ele><time>2026-04-18T14:50:55Z</time></trkpt><trkpt lat="40.953660328826885" lon="14.695235077959707"><ele>1046.0</ele><time>2026-04-18T14:50:57Z</time></trkpt><trkpt lat="40.95356953068998" lon="14.695213521819216"><ele>1046.0</ele><time>2026-04-18T14:50:59Z</time></trkpt><trkpt lat="40.95349675721841" lon="14.695223141700968"><ele>1046.0</ele><time>2026-04-18T14:51:01Z</time></trkpt><trkpt lat="40.95337312060873" lon="14.695180354068315"><ele>1046.0</ele><time>2026-04-18T14:51:03Z</time></trkpt><trkpt lat="40.953310535113005" lon="14.695158782938211"><ele>1046.0</ele><time>2026-04-18T14:51:04Z</time></trkpt><trkpt lat="40.95324726914933" lon="14.695156984473899"><ele>1046.0</ele><time>2026-04-18T14:51:05Z</time></trkpt><trkpt lat="40.953146145167466" lon="14.695152118368911"><ele>1044.1666666666667</ele><time>2026-04-18T14:51:07Z</time></trkpt><trkpt lat="40.95306619875347" lon="14.69513973857835"><ele>1042.3333333333335</ele><time>2026-04-18T14:51:08Z</time></trkpt><trkpt lat="40.95299397871567" lon="14.695096216240458"><ele>1040.5</ele><time>2026-04-18T14:51:09Z</time></trkpt><trkpt lat="40.95292094294114" lon="14.695053429941414"><ele>1038.6666666666667</ele><time>2026-04-18T14:51:10Z</time></trkpt><trkpt lat="40.952855097834764" lon="14.695042029959833"><ele>1036.8333333333333</ele><time>2026-04-18T14:51:11Z</time></trkpt><trkpt lat="40.952784316842184" lon="14.69501960383423"><ele>1035.0</ele><time>2026-04-18T14:51:12Z</time></trkpt><trkpt lat="40.95271301012037" lon="14.695006797923094"><ele>1035.0</ele><time>2026-04-18T14:51:13Z</time></trkpt><trkpt lat="40.95264979112214" lon="14.695020105328808"><ele>1035.0</ele><time>2026-04-18T14:51:14Z</time></trkpt><trkpt lat="40.95258951538778" lon="14.695049605778802"><ele>1035.0</ele><time>2026-04-18T14:51:15Z</time></trkpt><trkpt lat="40.95248331444765" lon="14.695095350429163"><ele>1035.0</ele><time>2026-04-18T14:51:17Z</time></trkpt><trkpt lat="40.95237545702122" lon="14.695145749351004"><ele>1035.0</ele><time>2026-04-18T14:51:19Z</time></trkpt><trkpt lat="40.95229941029636" lon="14.695199224609045"><ele>1035.0</ele><time>2026-04-18T14:51:20.999Z</time></trkpt><trkpt lat="40.95224336539787" lon="14.695252560411355"><ele>1036.5</ele><time>2026-04-18T14:51:21.999Z</time></trkpt><trkpt lat="40.95218267060039" lon="14.695312851772929"><ele>1038.0</ele><time>2026-04-18T14:51:22.999Z</time></trkpt><trkpt lat="40.95212800338564" lon="14.695361334333873"><ele>1039.5</ele><time>2026-04-18T14:51:23.999Z</time></trkpt><trkpt lat="40.95203929046502" lon="14.695424408795729"><ele>1041.0</ele><time>2026-04-18T14:51:25.999Z</time></trkpt><trkpt lat="40.95193026965782" lon="14.695453599202612"><ele>1042.5</ele><time>2026-04-18T14:51:27.999Z</time></trkpt><trkpt lat="40.95186004245982" lon="14.695450645465359"><ele>1044.0</ele><time>2026-04-18T14:51:28.999Z</time></trkpt><trkpt lat="40.951761213902344" lon="14.69543149167846"><ele>1043.6666666666667</ele><time>2026-04-18T14:51:30.999Z</time></trkpt><trkpt lat="40.95169525834314" lon="14.69535144820374"><ele>1043.3333333333333</ele><time>2026-04-18T14:51:32.999Z</time></trkpt><trkpt lat="40.951665028743086" lon="14.695251376294559"><ele>1043.0</ele><time>2026-04-18T14:51:34.999Z</time></trkpt><trkpt lat="40.951630528707454" lon="14.6951803118787"><ele>1042.6666666666665</ele><time>2026-04-18T14:51:36.999Z</time></trkpt><trkpt lat="40.95155003281207" lon="14.695045364783146"><ele>1042.3333333333333</ele><time>2026-04-18T14:51:39.999Z</time></trkpt><trkpt lat="40.95151588476764" lon="14.694963558902897"><ele>1042.0</ele><time>2026-04-18T14:51:40.999Z</time></trkpt><trkpt lat="40.95149884659463" lon="14.694870750005158"><ele>1042.0</ele><time>2026-04-18T14:51:41.999Z</time></trkpt><trkpt lat="40.95146169528901" lon="14.694746683631326"><ele>1042.0</ele><time>2026-04-18T14:51:43.999Z</time></trkpt><trkpt lat="40.95144023540925" lon="14.694592560544523"><ele>1042.0</ele><time>2026-04-18T14:51:45.999Z</time></trkpt><trkpt lat="40.95144221164387" lon="14.694503568508223"><ele>1042.0</ele><time>2026-04-18T14:51:46.999Z</time></trkpt><trkpt lat="40.951417333733566" lon="14.694417846586811"><ele>1042.0</ele><time>2026-04-18T14:51:48.999Z</time></trkpt><trkpt lat="40.9513310460371" lon="14.694361280612897"><ele>1040.8</ele><time>2026-04-18T14:51:50.999Z</time></trkpt><trkpt lat="40.95125640811746" lon="14.69431269486071"><ele>1039.6</ele><time>2026-04-18T14:51:52.999Z</time></trkpt><trkpt lat="40.95120165139267" lon="14.694235126417668"><ele>1038.3999999999999</ele><time>2026-04-18T14:51:54.999Z</time></trkpt><trkpt lat="40.9511508754301" lon="14.694086412495855"><ele>1037.2</ele><time>2026-04-18T14:51:56.999Z</time></trkpt><trkpt lat="40.95108753856218" lon="14.693931968555004"><ele>1036.0</ele><time>2026-04-18T14:51:58.999Z</time></trkpt><trkpt lat="40.951015568097674" lon="14.693851861429929"><ele>1036.0</ele><time>2026-04-18T14:51:59.999Z</time></trkpt><trkpt lat="40.95095488770186" lon="14.69377258984028"><ele>1036.0</ele><time>2026-04-18T14:52:00.999Z</time></trkpt><trkpt lat="40.950876225888464" lon="14.69371062350759"><ele>1036.0</ele><time>2026-04-18T14:52:02.999Z</time></trkpt><trkpt lat="40.950786928295564" lon="14.693632994838898"><ele>1036.0</ele><time>2026-04-18T14:52:04.999Z</time></trkpt><trkpt lat="40.95074023313715" lon="14.693521414429163"><ele>1036.0</ele><time>2026-04-18T14:52:07.999Z</time></trkpt><trkpt lat="40.95068253790063" lon="14.693578605032078"><ele>1036.3333333333333</ele><time>2026-04-18T14:52:24.998Z</time></trkpt><trkpt lat="40.95062393192114" lon="14.693530458484794"><ele>1036.6666666666665</ele><time>2026-04-18T14:53:35.999Z</time></trkpt><trkpt lat="40.950641837184165" lon="14.693424470799922"><ele>1037.0</ele><time>2026-04-18T14:53:37.999Z</time></trkpt><trkpt lat="40.950650738175995" lon="14.693311815383053"><ele>1037.3333333333333</ele><time>2026-04-18T14:53:39.999Z</time></trkpt><trkpt lat="40.950612529456784" lon="14.693205845066732"><ele>1037.6666666666667</ele><time>2026-04-18T14:53:41.999Z</time></trkpt><trkpt lat="40.950580413302426" lon="14.693070662446127"><ele>1038.0</ele><time>2026-04-18T14:53:43.999Z</time></trkpt><trkpt lat="40.95053414168911" lon="14.692921035576534"><ele>1038.0</ele><time>2026-04-18T14:53:45.999Z</time></trkpt><trkpt lat="40.95046691656205" lon="14.692825277592593"><ele>1038.0</ele><time>2026-04-18T14:53:47.999Z</time></trkpt><trkpt lat="40.950379521816686" lon="14.692768557842085"><ele>1038.0</ele><time>2026-04-18T14:53:49.999Z</time></trkpt><trkpt lat="40.950295841444586" lon="14.69272359790297"><ele>1038.0</ele><time>2026-04-18T14:53:51.999Z</time></trkpt><trkpt lat="40.95025282025644" lon="14.692636953443657"><ele>1038.0</ele><time>2026-04-18T14:53:53.999Z</time></trkpt><trkpt lat="40.950190509146196" lon="14.692563010424246"><ele>1038.0</ele><time>2026-04-18T14:53:57.999Z</time></trkpt><trkpt lat="40.950181012737374" lon="14.69247952485546"><ele>1036.8333333333333</ele><time>2026-04-18T14:54:02.999Z</time></trkpt><trkpt lat="40.95017157804894" lon="14.692392716047822"><ele>1035.6666666666667</ele><time>2026-04-18T14:54:05.999Z</time></trkpt><trkpt lat="40.9501708686172" lon="14.692304292782485"><ele>1034.5</ele><time>2026-04-18T14:54:07.999Z</time></trkpt><trkpt lat="40.950209793792766" lon="14.692203269321828"><ele>1033.3333333333335</ele><time>2026-04-18T14:54:09.999Z</time></trkpt><trkpt lat="40.95026499197626" lon="14.692120155413594"><ele>1032.1666666666667</ele><time>2026-04-18T14:54:11.999Z</time></trkpt><trkpt lat="40.950280045094374" lon="14.692032276272698"><ele>1031.0</ele><time>2026-04-18T14:54:13.998Z</time></trkpt><trkpt lat="40.950284108012454" lon="14.691891989885889"><ele>1030.0</ele><time>2026-04-18T14:54:15.998Z</time></trkpt><trkpt lat="40.9502756493394" lon="14.69178831709095"><ele>1029.0</ele><time>2026-04-18T14:54:16.998Z</time></trkpt><trkpt lat="40.950267915809185" lon="14.691671289603601"><ele>1028.0</ele><time>2026-04-18T14:54:17.998Z</time></trkpt><trkpt lat="40.950235829127536" lon="14.691597790851384"><ele>1027.0</ele><time>2026-04-18T14:54:18.998Z</time></trkpt><trkpt lat="40.95024798490793" lon="14.691402156206562"><ele>1026.0</ele><time>2026-04-18T14:54:20.998Z</time></trkpt><trkpt lat="40.95023233601343" lon="14.691227166545348"><ele>1026.0</ele><time>2026-04-18T14:54:22.998Z</time></trkpt><trkpt lat="40.95027366300259" lon="14.691094715269637"><ele>1026.0</ele><time>2026-04-18T14:54:23.998Z</time></trkpt><trkpt lat="40.950326246065565" lon="14.69090738077637"><ele>1026.0</ele><time>2026-04-18T14:54:24.998Z</time></trkpt><trkpt lat="40.95039435626858" lon="14.690762079354544"><ele>1026.0</ele><time>2026-04-18T14:54:25.998Z</time></trkpt><trkpt lat="40.95043079312304" lon="14.690630481026126"><ele>1026.1666666666667</ele><time>2026-04-18T14:54:26.998Z</time></trkpt><trkpt lat="40.950461877845704" lon="14.69049807832743"><ele>1026.3333333333333</ele><time>2026-04-18T14:54:27.998Z</time></trkpt><trkpt lat="40.95044048799216" lon="14.690404502329319"><ele>1026.5</ele><time>2026-04-18T14:54:28.998Z</time></trkpt><trkpt lat="40.95044644047566" lon="14.690290089200202"><ele>1026.6666666666665</ele><time>2026-04-18T14:54:29.998Z</time></trkpt><trkpt lat="40.95043620120073" lon="14.690196217732536"><ele>1026.8333333333333</ele><time>2026-04-18T14:54:30.998Z</time></trkpt><trkpt lat="40.95042483313348" lon="14.690088161393207"><ele>1027.0</ele><time>2026-04-18T14:54:31.998Z</time></trkpt><trkpt lat="40.95040534374185" lon="14.689895310994297"><ele>1027.6666666666665</ele><time>2026-04-18T14:54:33.998Z</time></trkpt><trkpt lat="40.95041011657091" lon="14.689796351352124"><ele>1028.3333333333333</ele><time>2026-04-18T14:54:34.998Z</time></trkpt><trkpt lat="40.95040736939011" lon="14.689699367290896"><ele>1029.0</ele><time>2026-04-18T14:54:35.998Z</time></trkpt><trkpt lat="40.950394118203924" lon="14.689549262039472"><ele>1029.6666666666667</ele><time>2026-04-18T14:54:37.998Z</time></trkpt><trkpt lat="40.95032326831229" lon="14.689524533323846"><ele>1030.3333333333335</ele><time>2026-04-18T14:54:39.998Z</time></trkpt><trkpt lat="40.950255039398606" lon="14.68952928918705"><ele>1031.0</ele><time>2026-04-18T14:54:40.998Z</time></trkpt><trkpt lat="40.9501476592163" lon="14.689523798325"><ele>1030.0</ele><time>2026-04-18T14:54:41.998Z</time></trkpt><trkpt lat="40.95004158397975" lon="14.689496223231137"><ele>1029.0</ele><time>2026-04-18T14:54:42.998Z</time></trkpt><trkpt lat="40.94996560994429" lon="14.689439910595716"><ele>1028.0</ele><time>2026-04-18T14:54:43.998Z</time></trkpt><trkpt lat="40.949900282089644" lon="14.689390727748926"><ele>1027.0</ele><time>2026-04-18T14:54:44.998Z</time></trkpt><trkpt lat="40.94983142702191" lon="14.689417605136242"><ele>1026.0</ele><time>2026-04-18T14:54:45.998Z</time></trkpt><trkpt lat="40.94970238023449" lon="14.689484665597542"><ele>1028.3333333333333</ele><time>2026-04-18T14:54:47.998Z</time></trkpt><trkpt lat="40.94966552972553" lon="14.689555290114418"><ele>1030.6666666666667</ele><time>2026-04-18T14:54:48.998Z</time></trkpt><trkpt lat="40.949611798686625" lon="14.689629241737059"><ele>1033.0</ele><time>2026-04-18T14:54:49.998Z</time></trkpt><trkpt lat="40.94958650271946" lon="14.689712976940937"><ele>1035.3333333333335</ele><time>2026-04-18T14:54:50.998Z</time></trkpt><trkpt lat="40.949590526052056" lon="14.68987723508329"><ele>1037.6666666666667</ele><time>2026-04-18T14:54:52.998Z</time></trkpt><trkpt lat="40.9495653856821" lon="14.6899604659755"><ele>1040.0</ele><time>2026-04-18T14:54:53.998Z</time></trkpt><trkpt lat="40.94954265944048" lon="14.69005068143127"><ele>1040.0</ele><time>2026-04-18T15:09:48Z</time></trkpt><trkpt lat="40.949480672891944" lon="14.690115275794343"><ele>1040.0</ele><time>2026-04-18T15:09:51Z</time></trkpt><trkpt lat="40.949410638858886" lon="14.690066207477885"><ele>1040.0</ele><time>2026-04-18T15:09:53Z</time></trkpt><trkpt lat="40.949356532551526" lon="14.690010411384831"><ele>1040.0</ele><time>2026-04-18T15:09:55Z</time></trkpt><trkpt lat="40.94937008050834" lon="14.689912346438128"><ele>1040.0</ele><time>2026-04-18T15:09:59Z</time></trkpt><trkpt lat="40.94945822479248" lon="14.689937423541021"><ele>1040.0</ele><time>2026-04-18T15:10:02Z</time></trkpt><trkpt lat="40.94959897025985" lon="14.690039770892866"><ele>1040.0</ele><time>2026-04-18T15:10:03.999Z</time></trkpt><trkpt lat="40.94968481909572" lon="14.690095549816292"><ele>1040.0</ele><time>2026-04-18T15:10:04.999Z</time></trkpt><trkpt lat="40.94973641152629" lon="14.690150144654499"><ele>1040.0</ele><time>2026-04-18T15:10:05.999Z</time></trkpt><trkpt lat="40.949783796201245" lon="14.6902312365153"><ele>1040.0</ele><time>2026-04-18T15:10:07.999Z</time></trkpt><trkpt lat="40.94984874138655" lon="14.69031450863682"><ele>1040.0</ele><time>2026-04-18T15:10:09.999Z</time></trkpt><trkpt lat="40.949882924035215" lon="14.69043348654361"><ele>1040.0</ele><time>2026-04-18T15:10:11.999Z</time></trkpt><trkpt lat="40.94993311233691" lon="14.690494696643185"><ele>1041.8</ele><time>2026-04-18T15:10:14.999Z</time></trkpt><trkpt lat="40.95002039466622" lon="14.690538198653668"><ele>1043.6</ele><time>2026-04-18T15:10:16.999Z</time></trkpt><trkpt lat="40.95011518383774" lon="14.690589941374117"><ele>1045.4</ele><time>2026-04-18T15:10:18.999Z</time></trkpt><trkpt lat="40.95021901569358" lon="14.690632435314456"><ele>1047.2</ele><time>2026-04-18T15:10:20.999Z</time></trkpt><trkpt lat="40.950300174735325" lon="14.69067222809381"><ele>1049.0</ele><time>2026-04-18T15:10:22.999Z</time></trkpt><trkpt lat="40.95035615920986" lon="14.690776062063295"><ele>1044.6000000000001</ele><time>2026-04-18T15:10:24.999Z</time></trkpt><trkpt lat="40.9503566372049" lon="14.690916880588478"><ele>1040.2</ele><time>2026-04-18T15:10:27.999Z</time></trkpt><trkpt lat="40.9503129718398" lon="14.691007231060652"><ele>1035.8000000000002</ele><time>2026-04-18T15:10:29.999Z</time></trkpt><trkpt lat="40.950256458201935" lon="14.691155339214957"><ele>1031.4</ele><time>2026-04-18T15:10:31.999Z</time></trkpt><trkpt lat="40.950247845295436" lon="14.6912647449726"><ele>1027.0</ele><time>2026-04-18T15:10:32.999Z</time></trkpt><trkpt lat="40.950240764887916" lon="14.691404325181841"><ele>1026.8333333333333</ele><time>2026-04-18T15:10:33.999Z</time></trkpt><trkpt lat="40.95023871464987" lon="14.691537304238654"><ele>1026.6666666666665</ele><time>2026-04-18T15:10:34.999Z</time></trkpt><trkpt lat="40.95025788549079" lon="14.691657568401217"><ele>1026.5</ele><time>2026-04-18T15:10:35.999Z</time></trkpt><trkpt lat="40.95026079253007" lon="14.69178603121009"><ele>1026.3333333333333</ele><time>2026-04-18T15:10:36.999Z</time></trkpt><trkpt lat="40.95026818089341" lon="14.691879217118744"><ele>1026.1666666666667</ele><time>2026-04-18T15:10:37.999Z</time></trkpt><trkpt lat="40.9503108957704" lon="14.691963249195428"><ele>1026.0</ele><time>2026-04-18T15:10:38.999Z</time></trkpt><trkpt lat="40.95030446741678" lon="14.692053617675555"><ele>1026.8333333333333</ele><time>2026-04-18T15:10:39.999Z</time></trkpt><trkpt lat="40.950250913354516" lon="14.692116332070501"><ele>1027.6666666666667</ele><time>2026-04-18T15:10:45.998Z</time></trkpt><trkpt lat="40.950208551918706" lon="14.692246490736894"><ele>1028.5</ele><time>2026-04-18T15:10:47.998Z</time></trkpt><trkpt lat="40.95014379153158" lon="14.692328559703215"><ele>1029.3333333333335</ele><time>2026-04-18T15:10:48.998Z</time></trkpt><trkpt lat="40.95014836980374" lon="14.69241474159109"><ele>1030.1666666666667</ele><time>2026-04-18T15:10:49.998Z</time></trkpt><trkpt lat="40.950156815464574" lon="14.692501205439383"><ele>1031.0</ele><time>2026-04-18T15:10:50.998Z</time></trkpt><trkpt lat="40.95017458836015" lon="14.69262660836692"><ele>1031.0</ele><time>2026-04-18T15:10:51.998Z</time></trkpt><trkpt lat="40.950194078812906" lon="14.692745199975962"><ele>1031.0</ele><time>2026-04-18T15:10:52.998Z</time></trkpt><trkpt lat="40.95019206854263" lon="14.692843602280021"><ele>1031.0</ele><time>2026-04-18T15:10:53.998Z</time></trkpt><trkpt lat="40.950166067645036" lon="14.69297836197598"><ele>1031.0</ele><time>2026-04-18T15:10:55.998Z</time></trkpt><trkpt lat="40.95013618968981" lon="14.693148334944755"><ele>1031.0</ele><time>2026-04-18T15:10:57.998Z</time></trkpt><trkpt lat="40.95010553651246" lon="14.693264333343324"><ele>1035.6</ele><time>2026-04-18T15:10:58.998Z</time></trkpt><trkpt lat="40.95002909272744" lon="14.693388530675382"><ele>1040.1999999999998</ele><time>2026-04-18T15:11:00.998Z</time></trkpt><trkpt lat="40.949942470987054" lon="14.693502601770362"><ele>1044.8000000000002</ele><time>2026-04-18T15:11:02.998Z</time></trkpt><trkpt lat="40.949859193587116" lon="14.693537818188236"><ele>1049.4</ele><time>2026-04-18T15:11:04.998Z</time></trkpt><trkpt lat="40.949787085103175" lon="14.693537977341032"><ele>1054.0</ele><time>2026-04-18T15:11:05.998Z</time></trkpt><trkpt lat="40.949681671870614" lon="14.693477084468011"><ele>1054.0</ele><time>2026-04-18T15:11:07.998Z</time></trkpt><trkpt lat="40.94961363896099" lon="14.693427506143488"><ele>1054.0</ele><time>2026-04-18T15:11:08.998Z</time></trkpt><trkpt lat="40.94953524909597" lon="14.69337934162165"><ele>1054.0</ele><time>2026-04-18T15:11:09.998Z</time></trkpt><trkpt lat="40.94943566157694" lon="14.693360544921328"><ele>1054.0</ele><time>2026-04-18T15:11:10.998Z</time></trkpt><trkpt lat="40.94936213278184" lon="14.693323160694007"><ele>1054.0</ele><time>2026-04-18T15:11:11.998Z</time></trkpt><trkpt lat="40.949292955112384" lon="14.69325092094824"><ele>1054.0</ele><time>2026-04-18T15:11:12.998Z</time></trkpt><trkpt lat="40.94922035544775" lon="14.693206139843529"><ele>1057.1666666666665</ele><time>2026-04-18T15:11:13.998Z</time></trkpt><trkpt lat="40.94914299637575" lon="14.69315246932553"><ele>1060.3333333333333</ele><time>2026-04-18T15:11:14.998Z</time></trkpt><trkpt lat="40.949065801519026" lon="14.69312901152699"><ele>1063.5</ele><time>2026-04-18T15:11:15.998Z</time></trkpt><trkpt lat="40.948996426503236" lon="14.693135170070686"><ele>1066.6666666666667</ele><time>2026-04-18T15:11:16.998Z</time></trkpt><trkpt lat="40.94893012893743" lon="14.693105711335335"><ele>1069.8333333333335</ele><time>2026-04-18T15:11:17.998Z</time></trkpt><trkpt lat="40.94881064037246" lon="14.693042507950741"><ele>1073.0</ele><time>2026-04-18T15:11:19.998Z</time></trkpt><trkpt lat="40.94869212468049" lon="14.692961194330701"><ele>1073.0</ele><time>2026-04-18T15:11:21.998Z</time></trkpt><trkpt lat="40.94862938437252" lon="14.692905105142646"><ele>1073.0</ele><time>2026-04-18T15:11:22.998Z</time></trkpt><trkpt lat="40.94857002706664" lon="14.6928732760244"><ele>1073.0</ele><time>2026-04-18T15:11:23.998Z</time></trkpt><trkpt lat="40.94851704590149" lon="14.69281217114521"><ele>1073.0</ele><time>2026-04-18T15:11:24.998Z</time></trkpt><trkpt lat="40.94845261876122" lon="14.692767052851922"><ele>1073.0</ele><time>2026-04-18T15:11:25.998Z</time></trkpt><trkpt lat="40.948376378617596" lon="14.692724877339355"><ele>1073.0</ele><time>2026-04-18T15:11:26.998Z</time></trkpt><trkpt lat="40.948310559448345" lon="14.692654061471599"><ele>1075.2</ele><time>2026-04-18T15:11:27.997Z</time></trkpt><trkpt lat="40.94825233669181" lon="14.69259546498698"><ele>1077.4</ele><time>2026-04-18T15:11:28.997Z</time></trkpt><trkpt lat="40.94818774760745" lon="14.692523746865513"><ele>1079.6000000000001</ele><time>2026-04-18T15:11:29.997Z</time></trkpt><trkpt lat="40.94807084067139" lon="14.692447108990448"><ele>1081.8</ele><time>2026-04-18T15:11:31.997Z</time></trkpt><trkpt lat="40.947979031556365" lon="14.69242454405495"><ele>1084.0</ele><time>2026-04-18T15:11:32.997Z</time></trkpt><trkpt lat="40.947890779427986" lon="14.692374388094867"><ele>1084.0</ele><time>2026-04-18T15:11:33.997Z</time></trkpt><trkpt lat="40.94782271472678" lon="14.692333502313103"><ele>1084.0</ele><time>2026-04-18T15:11:34.997Z</time></trkpt><trkpt lat="40.947738990238165" lon="14.692316171004897"><ele>1084.0</ele><time>2026-04-18T15:11:35.997Z</time></trkpt><trkpt lat="40.94766219752079" lon="14.692315903804358"><ele>1084.0</ele><time>2026-04-18T15:11:36.997Z</time></trkpt><trkpt lat="40.94754342739323" lon="14.692311333406643"><ele>1084.0</ele><time>2026-04-18T15:11:37.997Z</time></trkpt><trkpt lat="40.94745323430064" lon="14.69226535384157"><ele>1085.8</ele><time>2026-04-18T15:11:38.997Z</time></trkpt><trkpt lat="40.94734931068639" lon="14.69221624912984"><ele>1087.6000000000001</ele><time>2026-04-18T15:11:39.997Z</time></trkpt><trkpt lat="40.947256680874865" lon="14.69218298272153"><ele>1089.4</ele><time>2026-04-18T15:11:40.997Z</time></trkpt><trkpt lat="40.947180871563084" lon="14.692116197154215"><ele>1091.2</ele><time>2026-04-18T15:11:41.997Z</time></trkpt><trkpt lat="40.94709826199994" lon="14.692047165536092"><ele>1093.0</ele><time>2026-04-18T15:11:42.997Z</time></trkpt><trkpt lat="40.947006352145145" lon="14.691967620558943"><ele>1093.2</ele><time>2026-04-18T15:11:44Z</time></trkpt><trkpt lat="40.94690957395815" lon="14.691909827914309"><ele>1093.4</ele><time>2026-04-18T15:11:45Z</time></trkpt><trkpt lat="40.946821191464174" lon="14.691880406785682"><ele>1093.6000000000001</ele><time>2026-04-18T15:11:46Z</time></trkpt><trkpt lat="40.94674087961533" lon="14.69189801665355"><ele>1093.8</ele><time>2026-04-18T15:11:47Z</time></trkpt><trkpt lat="40.94667143022342" lon="14.691814369667684"><ele>1094.0</ele><time>2026-04-18T15:11:49Z</time></trkpt><trkpt lat="40.94662368384551" lon="14.691718415103042"><ele>1094.0</ele><time>2026-04-18T15:11:50Z</time></trkpt><trkpt lat="40.94657809676053" lon="14.691611292677843"><ele>1094.0</ele><time>2026-04-18T15:11:51Z</time></trkpt><trkpt lat="40.946523239905765" lon="14.691535009449408"><ele>1094.0</ele><time>2026-04-18T15:11:52Z</time></trkpt><trkpt lat="40.946448644139366" lon="14.691474228597807"><ele>1094.0</ele><time>2026-04-18T15:11:53Z</time></trkpt><trkpt lat="40.94638910944439" lon="14.69140621270248"><ele>1094.0</ele><time>2026-04-18T15:11:54Z</time></trkpt><trkpt lat="40.94629749053691" lon="14.691357431605795"><ele>1094.0</ele><time>2026-04-18T15:11:55Z</time></trkpt><trkpt lat="40.946232533830724" lon="14.691278507921274"><ele>1094.0</ele><time>2026-04-18T15:11:56Z</time></trkpt><trkpt lat="40.946180045689786" lon="14.69119130632725"><ele>1094.0</ele><time>2026-04-18T15:11:57Z</time></trkpt><trkpt lat="40.946118640203665" lon="14.69113739990057"><ele>1094.0</ele><time>2026-04-18T15:11:58Z</time></trkpt><trkpt lat="40.94607228632173" lon="14.691064106324745"><ele>1094.0</ele><time>2026-04-18T15:11:59Z</time></trkpt><trkpt lat="40.94603920380938" lon="14.690923552646739"><ele>1094.0</ele><time>2026-04-18T15:12:01Z</time></trkpt><trkpt lat="40.94592580463925" lon="14.690827579953007"><ele>1095.0</ele><time>2026-04-18T15:12:04Z</time></trkpt><trkpt lat="40.94583728297923" lon="14.690768537177023"><ele>1096.0</ele><time>2026-04-18T15:12:05Z</time></trkpt><trkpt lat="40.94575721173957" lon="14.690740068884837"><ele>1097.0</ele><time>2026-04-18T15:12:06Z</time></trkpt><trkpt lat="40.945674018726585" lon="14.690697486894301"><ele>1098.0</ele><time>2026-04-18T15:12:07Z</time></trkpt><trkpt lat="40.945583305259085" lon="14.6906320987947"><ele>1099.0</ele><time>2026-04-18T15:12:08Z</time></trkpt><trkpt lat="40.94548991979259" lon="14.690582342189337"><ele>1099.0</ele><time>2026-04-18T15:12:09Z</time></trkpt><trkpt lat="40.945404657231386" lon="14.690525970342732"><ele>1099.0</ele><time>2026-04-18T15:12:10Z</time></trkpt><trkpt lat="40.945311124953506" lon="14.690474641351003"><ele>1099.0</ele><time>2026-04-18T15:12:11Z</time></trkpt><trkpt lat="40.94522873373365" lon="14.690446548934426"><ele>1099.0</ele><time>2026-04-18T15:12:12Z</time></trkpt><trkpt lat="40.94514101840833" lon="14.69038459601107"><ele>1099.0</ele><time>2026-04-18T15:12:13Z</time></trkpt><trkpt lat="40.94505493526156" lon="14.69030261686312"><ele>1098.1666666666665</ele><time>2026-04-18T15:12:14Z</time></trkpt><trkpt lat="40.94498120621695" lon="14.690238378014065"><ele>1097.3333333333333</ele><time>2026-04-18T15:12:15Z</time></trkpt><trkpt lat="40.94491061445933" lon="14.690164947121191"><ele>1096.5</ele><time>2026-04-18T15:12:16Z</time></trkpt><trkpt lat="40.94485316446435" lon="14.690089683051207"><ele>1095.6666666666667</ele><time>2026-04-18T15:12:17Z</time></trkpt><trkpt lat="40.94480420844299" lon="14.690034730370217"><ele>1094.8333333333335</ele><time>2026-04-18T15:12:17.999Z</time></trkpt><trkpt lat="40.94475410722421" lon="14.68994999003696"><ele>1094.0</ele><time>2026-04-18T15:12:19.999Z</time></trkpt><trkpt lat="40.944688424832435" lon="14.68990068408721"><ele>1094.0</ele><time>2026-04-18T15:12:38.999Z</time></trkpt><trkpt lat="40.94464036321449" lon="14.689833012516287"><ele>1094.0</ele><time>2026-04-18T15:12:39.999Z</time></trkpt><trkpt lat="40.94458182744615" lon="14.689775311543613"><ele>1094.0</ele><time>2026-04-18T15:12:40.999Z</time></trkpt><trkpt lat="40.94452154979368" lon="14.689748833921014"><ele>1094.0</ele><time>2026-04-18T15:12:41.999Z</time></trkpt><trkpt lat="40.944439344699234" lon="14.68971015516549"><ele>1094.0</ele><time>2026-04-18T15:12:42.999Z</time></trkpt><trkpt lat="40.94434822963226" lon="14.689658551714398"><ele>1094.0</ele><time>2026-04-18T15:12:43.999Z</time></trkpt><trkpt lat="40.944249040951036" lon="14.689594202433225"><ele>1093.2</ele><time>2026-04-18T15:12:44.999Z</time></trkpt><trkpt lat="40.9441741746711" lon="14.689543274157028"><ele>1092.4</ele><time>2026-04-18T15:12:45.999Z</time></trkpt><trkpt lat="40.94408409227922" lon="14.689506620164824"><ele>1091.6</ele><time>2026-04-18T15:12:46.999Z</time></trkpt><trkpt lat="40.94399728566798" lon="14.68947870550189"><ele>1090.8</ele><time>2026-04-18T15:12:47.999Z</time></trkpt><trkpt lat="40.94391195182463" lon="14.68941090800661"><ele>1090.0</ele><time>2026-04-18T15:12:48.999Z</time></trkpt><trkpt lat="40.94382390803373" lon="14.689328288414801"><ele>1090.0</ele><time>2026-04-18T15:12:49.999Z</time></trkpt><trkpt lat="40.94376146554887" lon="14.68922999854542"><ele>1090.0</ele><time>2026-04-18T15:12:50.999Z</time></trkpt><trkpt lat="40.943690920529754" lon="14.68914082659036"><ele>1090.0</ele><time>2026-04-18T15:12:51.999Z</time></trkpt><trkpt lat="40.94362658812291" lon="14.689018152656152"><ele>1090.0</ele><time>2026-04-18T15:12:52.999Z</time></trkpt><trkpt lat="40.94359279482163" lon="14.688891587818333"><ele>1090.0</ele><time>2026-04-18T15:12:53.999Z</time></trkpt><trkpt lat="40.9435400048536" lon="14.688720867977045"><ele>1091.25</ele><time>2026-04-18T15:12:54.999Z</time></trkpt><trkpt lat="40.94347258761575" lon="14.688524808509438"><ele>1092.5</ele><time>2026-04-18T15:12:55.999Z</time></trkpt><trkpt lat="40.94339799082649" lon="14.688357044336904"><ele>1093.75</ele><time>2026-04-18T15:12:56.999Z</time></trkpt><trkpt lat="40.94333350174641" lon="14.688233342270484"><ele>1095.0</ele><time>2026-04-18T15:12:57.999Z</time></trkpt><trkpt lat="40.94330304303058" lon="14.688128638471424"><ele>1095.0</ele><time>2026-04-18T15:12:58.999Z</time></trkpt><trkpt lat="40.943287807602466" lon="14.687987943534724"><ele>1095.0</ele><time>2026-04-18T15:12:59.999Z</time></trkpt><trkpt lat="40.94327493606492" lon="14.687875477683605"><ele>1095.0</ele><time>2026-04-18T15:13:00.999Z</time></trkpt><trkpt lat="40.94325029678453" lon="14.687772784069274"><ele>1095.0</ele><time>2026-04-18T15:13:01.999Z</time></trkpt><trkpt lat="40.9432006204574" lon="14.687678740077242"><ele>1095.0</ele><time>2026-04-18T15:13:02.999Z</time></trkpt><trkpt lat="40.943158016836755" lon="14.687547846865026"><ele>1092.75</ele><time>2026-04-18T15:13:03.999Z</time></trkpt><trkpt lat="40.94311403212122" lon="14.687388633952505"><ele>1090.5</ele><time>2026-04-18T15:13:04.999Z</time></trkpt><trkpt lat="40.943063749276114" lon="14.687232534892736"><ele>1088.25</ele><time>2026-04-18T15:13:05.999Z</time></trkpt><trkpt lat="40.94301350309779" lon="14.687045846016048"><ele>1086.0</ele><time>2026-04-18T15:13:06.999Z</time></trkpt><trkpt lat="40.942976395050934" lon="14.6868771775774"><ele>1084.3999999999999</ele><time>2026-04-18T15:13:07.998Z</time></trkpt><trkpt lat="40.94294403567619" lon="14.68672703743001"><ele>1082.8</ele><time>2026-04-18T15:13:08.998Z</time></trkpt><trkpt lat="40.9429163166065" lon="14.686572163349187"><ele>1081.1999999999998</ele><time>2026-04-18T15:13:09.998Z</time></trkpt><trkpt lat="40.94288333429705" lon="14.686448636400735"><ele>1079.6</ele><time>2026-04-18T15:13:10.998Z</time></trkpt><trkpt lat="40.942859184525865" lon="14.686334953007643"><ele>1078.0</ele><time>2026-04-18T15:13:11.998Z</time></trkpt><trkpt lat="40.94284568130056" lon="14.68621147290023"><ele>1076.25</ele><time>2026-04-18T15:13:12.998Z</time></trkpt><trkpt lat="40.94282010136092" lon="14.686081510527043"><ele>1074.5</ele><time>2026-04-18T15:13:13.998Z</time></trkpt><trkpt lat="40.94275738542895" lon="14.685942456087593"><ele>1072.75</ele><time>2026-04-18T15:13:14.998Z</time></trkpt><trkpt lat="40.9426803260432" lon="14.685788924868135"><ele>1071.0</ele><time>2026-04-18T15:13:15.998Z</time></trkpt><trkpt lat="40.9425931014523" lon="14.685631101191346"><ele>1074.0</ele><time>2026-04-18T15:13:16.998Z</time></trkpt><trkpt lat="40.942517005382875" lon="14.685465240049387"><ele>1077.0</ele><time>2026-04-18T15:13:17.998Z</time></trkpt><trkpt lat="40.942467115247176" lon="14.685298218843027"><ele>1080.0</ele><time>2026-04-18T15:13:18.998Z</time></trkpt><trkpt lat="40.942421266049635" lon="14.685168337917208"><ele>1083.0</ele><time>2026-04-18T15:13:19.998Z</time></trkpt><trkpt lat="40.942390039153075" lon="14.685092971628238"><ele>1083.0</ele><time>2026-04-18T15:13:20.998Z</time></trkpt><trkpt lat="40.94234327308434" lon="14.685032711620805"><ele>1083.0</ele><time>2026-04-18T15:13:21.998Z</time></trkpt><trkpt lat="40.94228732914375" lon="14.684983181979526"><ele>1083.0</ele><time>2026-04-18T15:13:22.998Z</time></trkpt><trkpt lat="40.9422231753019" lon="14.6849522121109"><ele>1083.0</ele><time>2026-04-18T15:13:23.998Z</time></trkpt><trkpt lat="40.94216103572662" lon="14.684932525315928"><ele>1083.0</ele><time>2026-04-18T15:13:24.998Z</time></trkpt><trkpt lat="40.94208114227139" lon="14.684913422192658"><ele>1083.0</ele><time>2026-04-18T15:13:25.998Z</time></trkpt><trkpt lat="40.94196805484774" lon="14.684903013614884"><ele>1083.0</ele><time>2026-04-18T15:13:26.998Z</time></trkpt><trkpt lat="40.94186621943909" lon="14.684892737450719"><ele>1083.0</ele><time>2026-04-18T15:13:27.998Z</time></trkpt><trkpt lat="40.94177320799062" lon="14.684898754009055"><ele>1083.0</ele><time>2026-04-18T15:13:28.998Z</time></trkpt><trkpt lat="40.9416713957096" lon="14.684910048500125"><ele>1083.0</ele><time>2026-04-18T15:13:29.998Z</time></trkpt><trkpt lat="40.9415891412162" lon="14.684923873222958"><ele>1083.0</ele><time>2026-04-18T15:13:30.998Z</time></trkpt><trkpt lat="40.94151054832536" lon="14.684955702007706"><ele>1083.5</ele><time>2026-04-18T15:13:31.998Z</time></trkpt><trkpt lat="40.94143766976128" lon="14.684983922064264"><ele>1084.0</ele><time>2026-04-18T15:13:32.998Z</time></trkpt><trkpt lat="40.941369691121864" lon="14.685015241828667"><ele>1084.5</ele><time>2026-04-18T15:13:33.998Z</time></trkpt><trkpt lat="40.94129696822105" lon="14.685055324169227"><ele>1085.0</ele><time>2026-04-18T15:13:34.998Z</time></trkpt><trkpt lat="40.94122058217647" lon="14.68509136208742"><ele>1085.5</ele><time>2026-04-18T15:13:35.998Z</time></trkpt><trkpt lat="40.94115351644965" lon="14.685139787164923"><ele>1086.0</ele><time>2026-04-18T15:13:36.998Z</time></trkpt><trkpt lat="40.94109188745553" lon="14.68517646078846"><ele>1086.0</ele><time>2026-04-18T15:13:37.998Z</time></trkpt><trkpt lat="40.94102704760953" lon="14.685239075490093"><ele>1086.0</ele><time>2026-04-18T15:13:38.998Z</time></trkpt><trkpt lat="40.94091954923056" lon="14.685332567324252"><ele>1086.0</ele><time>2026-04-18T15:13:40.998Z</time></trkpt><trkpt lat="40.940850241429885" lon="14.685394618560386"><ele>1086.0</ele><time>2026-04-18T15:13:41.998Z</time></trkpt><trkpt lat="40.9407426086321" lon="14.685496800516862"><ele>1086.0</ele><time>2026-04-18T15:13:43.998Z</time></trkpt><trkpt lat="40.94068588660878" lon="14.685568402808912"><ele>1087.0</ele><time>2026-04-18T15:13:44.998Z</time></trkpt><trkpt lat="40.94060873985851" lon="14.685708179528756"><ele>1088.0</ele><time>2026-04-18T15:13:46.998Z</time></trkpt><trkpt lat="40.94055617708082" lon="14.685778538145922"><ele>1089.0</ele><time>2026-04-18T15:13:47.998Z</time></trkpt><trkpt lat="40.94050506563191" lon="14.685842190471794"><ele>1090.0</ele><time>2026-04-18T15:13:48.998Z</time></trkpt><trkpt lat="40.940387124842246" lon="14.685890090192437"><ele>1091.0</ele><time>2026-04-18T15:13:51Z</time></trkpt><trkpt lat="40.94033411311701" lon="14.685955389745981"><ele>1091.0</ele><time>2026-04-18T15:13:52Z</time></trkpt><trkpt lat="40.94029174398217" lon="14.686019158613743"><ele>1091.0</ele><time>2026-04-18T15:13:53Z</time></trkpt><trkpt lat="40.94017124849022" lon="14.68607043702999"><ele>1091.0</ele><time>2026-04-18T15:13:55Z</time></trkpt><trkpt lat="40.9400777205969" lon="14.686129251848374"><ele>1091.0</ele><time>2026-04-18T15:13:57Z</time></trkpt><trkpt lat="40.94002562645527" lon="14.686197936512693"><ele>1091.0</ele><time>2026-04-18T15:13:58Z</time></trkpt><trkpt lat="40.939964858797836" lon="14.686259346273292"><ele>1091.0</ele><time>2026-04-18T15:13:59Z</time></trkpt><trkpt lat="40.939906983638345" lon="14.686300849874874"><ele>1087.75</ele><time>2026-04-18T15:14:00Z</time></trkpt><trkpt lat="40.9398212137161" lon="14.686414506977552"><ele>1084.5</ele><time>2026-04-18T15:14:02Z</time></trkpt><trkpt lat="40.939753769048835" lon="14.686525760237947"><ele>1081.25</ele><time>2026-04-18T15:14:03Z</time></trkpt><trkpt lat="40.9396876841679" lon="14.68663064532312"><ele>1078.0</ele><time>2026-04-18T15:14:04Z</time></trkpt><trkpt lat="40.939612305761564" lon="14.686755037179589"><ele>1078.0</ele><time>2026-04-18T15:14:05Z</time></trkpt><trkpt lat="40.93953189676277" lon="14.686870981308653"><ele>1078.0</ele><time>2026-04-18T15:14:06Z</time></trkpt><trkpt lat="40.939451783023856" lon="14.686963657090178"><ele>1078.0</ele><time>2026-04-18T15:14:07Z</time></trkpt><trkpt lat="40.93938510671322" lon="14.687051602992529"><ele>1078.0</ele><time>2026-04-18T15:14:08Z</time></trkpt><trkpt lat="40.93934248233824" lon="14.687134358339005"><ele>1078.0</ele><time>2026-04-18T15:14:09Z</time></trkpt><trkpt lat="40.9392906221822" lon="14.687203007080159"><ele>1078.1666666666665</ele><time>2026-04-18T15:14:10Z</time></trkpt><trkpt lat="40.9392374055526" lon="14.687319495630113"><ele>1078.3333333333333</ele><time>2026-04-18T15:14:11Z</time></trkpt><trkpt lat="40.939194846590944" lon="14.687411149538436"><ele>1078.5</ele><time>2026-04-18T15:14:12Z</time></trkpt><trkpt lat="40.93915495470121" lon="14.687495813785656"><ele>1078.6666666666667</ele><time>2026-04-18T15:14:13Z</time></trkpt><trkpt lat="40.939133281813895" lon="14.687579089550123"><ele>1078.8333333333335</ele><time>2026-04-18T15:14:14Z</time></trkpt><trkpt lat="40.93913683097677" lon="14.687691599632474"><ele>1079.0</ele><time>2026-04-18T15:14:15Z</time></trkpt><trkpt lat="40.93911307748793" lon="14.687834454389805"><ele>1079.0</ele><time>2026-04-18T15:14:17Z</time></trkpt><trkpt lat="40.939030462840094" lon="14.6879113099929"><ele>1079.0</ele><time>2026-04-18T15:14:19Z</time></trkpt><trkpt lat="40.93897385257754" lon="14.687972128474751"><ele>1079.0</ele><time>2026-04-18T15:14:20Z</time></trkpt><trkpt lat="40.93891960411537" lon="14.688025828773238"><ele>1079.0</ele><time>2026-04-18T15:14:21Z</time></trkpt><trkpt lat="40.938848438545996" lon="14.68808831292065"><ele>1079.0</ele><time>2026-04-18T15:14:22Z</time></trkpt><trkpt lat="40.93877737118022" lon="14.68812619339281"><ele>1079.0</ele><time>2026-04-18T15:14:23Z</time></trkpt><trkpt lat="40.93873652958239" lon="14.688193328293853"><ele>1079.0</ele><time>2026-04-18T15:14:24Z</time></trkpt><trkpt lat="40.9386799186449" lon="14.688264380616637"><ele>1079.0</ele><time>2026-04-18T15:14:25Z</time></trkpt><trkpt lat="40.93862466830764" lon="14.688370142398602"><ele>1079.0</ele><time>2026-04-18T15:14:26Z</time></trkpt><trkpt lat="40.93854387714085" lon="14.688478853107032"><ele>1079.0</ele><time>2026-04-18T15:14:27Z</time></trkpt><trkpt lat="40.93848055934468" lon="14.688595856352574"><ele>1079.0</ele><time>2026-04-18T15:14:27.999Z</time></trkpt><trkpt lat="40.93841722758546" lon="14.688710568837037"><ele>1078.3333333333335</ele><time>2026-04-18T15:14:28.999Z</time></trkpt><trkpt lat="40.93835896089812" lon="14.688795768195329"><ele>1077.6666666666667</ele><time>2026-04-18T15:14:29.999Z</time></trkpt><trkpt lat="40.93830186801976" lon="14.688864785361458"><ele>1077.0</ele><time>2026-04-18T15:14:30.999Z</time></trkpt><trkpt lat="40.938225776379326" lon="14.688932007490635"><ele>1076.3333333333333</ele><time>2026-04-18T15:14:31.999Z</time></trkpt><trkpt lat="40.938145943663514" lon="14.688986226233627"><ele>1075.6666666666665</ele><time>2026-04-18T15:14:32.999Z</time></trkpt><trkpt lat="40.93805295617143" lon="14.689032948606828"><ele>1075.0</ele><time>2026-04-18T15:14:33.999Z</time></trkpt><trkpt lat="40.93795742021217" lon="14.689099158803236"><ele>1075.0</ele><time>2026-04-18T15:14:34.999Z</time></trkpt><trkpt lat="40.9378718030513" lon="14.689177014336746"><ele>1075.0</ele><time>2026-04-18T15:14:35.999Z</time></trkpt><trkpt lat="40.93780609060194" lon="14.689234689562932"><ele>1075.0</ele><time>2026-04-18T15:14:36.999Z</time></trkpt><trkpt lat="40.93773508845979" lon="14.689306639260346"><ele>1075.0</ele><time>2026-04-18T15:14:37.999Z</time></trkpt><trkpt lat="40.93766312001753" lon="14.689397248633098"><ele>1075.0</ele><time>2026-04-18T15:14:39.999Z</time></trkpt><trkpt lat="40.93753553986011" lon="14.689415006034983"><ele>1074.1666666666665</ele><time>2026-04-18T15:14:41.999Z</time></trkpt><trkpt lat="40.93747019753684" lon="14.689417582864001"><ele>1073.3333333333333</ele><time>2026-04-18T15:14:42.999Z</time></trkpt><trkpt lat="40.9373599445357" lon="14.689515053451393"><ele>1072.5</ele><time>2026-04-18T15:14:44.999Z</time></trkpt><trkpt lat="40.93730922524086" lon="14.6896053584394"><ele>1071.6666666666667</ele><time>2026-04-18T15:14:45.999Z</time></trkpt><trkpt lat="40.93723880595297" lon="14.689673619818128"><ele>1070.8333333333335</ele><time>2026-04-18T15:14:46.999Z</time></trkpt><trkpt lat="40.93717224714414" lon="14.689726430927447"><ele>1070.0</ele><time>2026-04-18T15:14:47.999Z</time></trkpt><trkpt lat="40.93711587439476" lon="14.68978177371432"><ele>1070.0</ele><time>2026-04-18T15:14:48.999Z</time></trkpt><trkpt lat="40.93708084105006" lon="14.689877395652903"><ele>1070.0</ele><time>2026-04-18T15:14:49.999Z</time></trkpt><trkpt lat="40.93704891783604" lon="14.689965236768513"><ele>1070.0</ele><time>2026-04-18T15:14:50.999Z</time></trkpt><trkpt lat="40.9369876062606" lon="14.690097563271843"><ele>1070.0</ele><time>2026-04-18T15:14:52.999Z</time></trkpt><trkpt lat="40.936948103945184" lon="14.690251446480342"><ele>1070.0</ele><time>2026-04-18T15:14:54.999Z</time></trkpt><trkpt lat="40.93689716797087" lon="14.690335107514285"><ele>1068.2</ele><time>2026-04-18T15:14:56.999Z</time></trkpt><trkpt lat="40.936801175920806" lon="14.69040504648034"><ele>1066.4</ele><time>2026-04-18T15:14:58.999Z</time></trkpt><trkpt lat="40.936736720611705" lon="14.690404839444046"><ele>1064.6</ele><time>2026-04-18T15:15:00.999Z</time></trkpt><trkpt lat="40.936636929174355" lon="14.690442916913783"><ele>1062.8</ele><time>2026-04-18T15:15:02.999Z</time></trkpt><trkpt lat="40.936536115910734" lon="14.690479093588904"><ele>1061.0</ele><time>2026-04-18T15:15:04.999Z</time></trkpt><trkpt lat="40.936481198996766" lon="14.690533389579068"><ele>1061.0</ele><time>2026-04-18T15:15:05.999Z</time></trkpt><trkpt lat="40.93638606337835" lon="14.690581515666015"><ele>1061.0</ele><time>2026-04-18T15:15:07.999Z</time></trkpt><trkpt lat="40.93626755805571" lon="14.69059568029983"><ele>1061.0</ele><time>2026-04-18T15:15:09.999Z</time></trkpt><trkpt lat="40.93620275843485" lon="14.690580251032141"><ele>1061.0</ele><time>2026-04-18T15:15:10.999Z</time></trkpt><trkpt lat="40.936139540015006" lon="14.690529280177175"><ele>1061.0</ele><time>2026-04-18T15:15:11.999Z</time></trkpt><trkpt lat="40.936034371095815" lon="14.690527216736584"><ele>1061.0</ele><time>2026-04-18T15:15:13.999Z</time></trkpt><trkpt lat="40.93594133960106" lon="14.690576446481403"><ele>1061.0</ele><time>2026-04-18T15:15:15.998Z</time></trkpt><trkpt lat="40.935847473356674" lon="14.690605322132201"><ele>1061.0</ele><time>2026-04-18T15:15:17.998Z</time></trkpt><trkpt lat="40.93581882931503" lon="14.690682054563336"><ele>1061.0</ele><time>2026-04-18T15:15:18.998Z</time></trkpt><trkpt lat="40.935733971003025" lon="14.690776770399815"><ele>1061.0</ele><time>2026-04-18T15:15:20.998Z</time></trkpt><trkpt lat="40.93567362549476" lon="14.690857577877473"><ele>1059.2</ele><time>2026-04-18T15:15:22.998Z</time></trkpt><trkpt lat="40.93561364136965" lon="14.690898979267482"><ele>1057.3999999999999</ele><time>2026-04-18T15:15:23.998Z</time></trkpt><trkpt lat="40.93553022115802" lon="14.690999868318595"><ele>1055.6</ele><time>2026-04-18T15:15:25.998Z</time></trkpt><trkpt lat="40.93543822419774" lon="14.691110871049142"><ele>1053.8</ele><time>2026-04-18T15:15:27.998Z</time></trkpt><trkpt lat="40.935387545230796" lon="14.69116243272656"><ele>1052.0</ele><time>2026-04-18T15:15:28.998Z</time></trkpt><trkpt lat="40.935303468180734" lon="14.69120774162699"><ele>1052.0</ele><time>2026-04-18T15:15:29.998Z</time></trkpt><trkpt lat="40.93522886946945" lon="14.691255409524636"><ele>1052.0</ele><time>2026-04-18T15:15:30.998Z</time></trkpt><trkpt lat="40.93516112406359" lon="14.691321848347979"><ele>1052.0</ele><time>2026-04-18T15:15:31.998Z</time></trkpt><trkpt lat="40.93510912737172" lon="14.691392084314346"><ele>1052.0</ele><time>2026-04-18T15:15:32.998Z</time></trkpt><trkpt lat="40.93503168077456" lon="14.69145948696479"><ele>1052.0</ele><time>2026-04-18T15:15:33.998Z</time></trkpt><trkpt lat="40.934961649632356" lon="14.691521035391169"><ele>1052.0</ele><time>2026-04-18T15:15:34.998Z</time></trkpt><trkpt lat="40.934875706566224" lon="14.691572269254669"><ele>1047.4</ele><time>2026-04-18T15:15:35.998Z</time></trkpt><trkpt lat="40.934771011251705" lon="14.691613857874145"><ele>1042.8000000000002</ele><time>2026-04-18T15:15:36.998Z</time></trkpt><trkpt lat="40.93468733069182" lon="14.691639519927552"><ele>1038.2</ele><time>2026-04-18T15:15:37.998Z</time></trkpt><trkpt lat="40.93458935146596" lon="14.691691546955434"><ele>1033.6000000000001</ele><time>2026-04-18T15:15:38.998Z</time></trkpt><trkpt lat="40.93447016781766" lon="14.69175581095441"><ele>1029.0</ele><time>2026-04-18T15:15:39.998Z</time></trkpt><trkpt lat="40.93436041975646" lon="14.69185064317069"><ele>1029.0</ele><time>2026-04-18T15:15:40.998Z</time></trkpt><trkpt lat="40.9342735777525" lon="14.691901150614646"><ele>1029.0</ele><time>2026-04-18T15:15:41.998Z</time></trkpt><trkpt lat="40.93418115794117" lon="14.691962026946632"><ele>1029.0</ele><time>2026-04-18T15:15:42.998Z</time></trkpt><trkpt lat="40.934098618066486" lon="14.692038587484127"><ele>1029.0</ele><time>2026-04-18T15:15:43.998Z</time></trkpt><trkpt lat="40.934004125248094" lon="14.692135718169657"><ele>1029.0</ele><time>2026-04-18T15:15:44.998Z</time></trkpt><trkpt lat="40.93390845180899" lon="14.692273138118251"><ele>1028.1666666666667</ele><time>2026-04-18T15:15:45.998Z</time></trkpt><trkpt lat="40.93383275250227" lon="14.692402218055575"><ele>1027.3333333333333</ele><time>2026-04-18T15:15:46.998Z</time></trkpt><trkpt lat="40.93377857750545" lon="14.692514993113257"><ele>1026.5</ele><time>2026-04-18T15:15:47.998Z</time></trkpt><trkpt lat="40.93373274906192" lon="14.692590054317893"><ele>1025.6666666666665</ele><time>2026-04-18T15:15:48.998Z</time></trkpt><trkpt lat="40.93368535769561" lon="14.692647133440046"><ele>1024.8333333333333</ele><time>2026-04-18T15:15:49.998Z</time></trkpt><trkpt lat="40.93360099432799" lon="14.6926723354012"><ele>1024.0</ele><time>2026-04-18T15:15:51.998Z</time></trkpt><trkpt lat="40.9335326184741" lon="14.692665838469797"><ele>1024.0</ele><time>2026-04-18T15:16:02Z</time></trkpt><trkpt lat="40.93345410414434" lon="14.692595416273525"><ele>1024.0</ele><time>2026-04-18T15:16:04Z</time></trkpt><trkpt lat="40.93338937720192" lon="14.692542318649377"><ele>1024.0</ele><time>2026-04-18T15:16:06Z</time></trkpt><trkpt lat="40.93326070057372" lon="14.692547631756888"><ele>1024.0</ele><time>2026-04-18T15:16:08Z</time></trkpt><trkpt lat="40.93315961612446" lon="14.692556154488264"><ele>1024.0</ele><time>2026-04-18T15:16:09Z</time></trkpt><trkpt lat="40.93305492614009" lon="14.692558004197195"><ele>1023.8000000000001</ele><time>2026-04-18T15:16:10Z</time></trkpt><trkpt lat="40.93293447883993" lon="14.69258147762121"><ele>1023.6000000000001</ele><time>2026-04-18T15:16:11Z</time></trkpt><trkpt lat="40.932831409048134" lon="14.69259298948023"><ele>1023.4</ele><time>2026-04-18T15:16:12Z</time></trkpt><trkpt lat="40.93273169188936" lon="14.692609818132425"><ele>1023.2</ele><time>2026-04-18T15:16:13Z</time></trkpt><trkpt lat="40.93264992456206" lon="14.692618810282998"><ele>1023.0</ele><time>2026-04-18T15:16:14Z</time></trkpt><trkpt lat="40.93257409462784" lon="14.692634263715775"><ele>1023.1666666666666</ele><time>2026-04-18T15:16:15Z</time></trkpt><trkpt lat="40.93249824715616" lon="14.692648089317967"><ele>1023.3333333333333</ele><time>2026-04-18T15:16:16Z</time></trkpt><trkpt lat="40.932423718198706" lon="14.692655285516592"><ele>1023.5</ele><time>2026-04-18T15:16:17Z</time></trkpt><trkpt lat="40.93235971403069" lon="14.692683238589838"><ele>1023.6666666666666</ele><time>2026-04-18T15:16:18Z</time></trkpt><trkpt lat="40.93224021426304" lon="14.692782857568112"><ele>1023.8333333333333</ele><time>2026-04-18T15:16:20Z</time></trkpt><trkpt lat="40.932170790628035" lon="14.692827291614257"><ele>1024.0</ele><time>2026-04-18T15:16:21Z</time></trkpt><trkpt lat="40.93205442612937" lon="14.69286739356348"><ele>1023.2</ele><time>2026-04-18T15:16:23Z</time></trkpt><trkpt lat="40.931968934153396" lon="14.69288947181831"><ele>1022.4000000000001</ele><time>2026-04-18T15:16:24Z</time></trkpt><trkpt lat="40.93186380011099" lon="14.693023225736395"><ele>1021.6</ele><time>2026-04-18T15:16:26Z</time></trkpt><trkpt lat="40.93178163677696" lon="14.69309811798207"><ele>1020.8</ele><time>2026-04-18T15:16:27Z</time></trkpt><trkpt lat="40.93172337315019" lon="14.693164097933293"><ele>1020.0</ele><time>2026-04-18T15:16:28Z</time></trkpt><trkpt lat="40.9316671045794" lon="14.69321214249535"><ele>1019.8333333333334</ele><time>2026-04-18T15:16:29Z</time></trkpt><trkpt lat="40.93158738851697" lon="14.693256687619442"><ele>1019.6666666666667</ele><time>2026-04-18T15:16:30Z</time></trkpt><trkpt lat="40.931511498611826" lon="14.693281264563257"><ele>1019.5</ele><time>2026-04-18T15:16:31Z</time></trkpt><trkpt lat="40.93142886199793" lon="14.693279164636639"><ele>1019.3333333333334</ele><time>2026-04-18T15:16:31.999Z</time></trkpt><trkpt lat="40.931352246617045" lon="14.69330248565502"><ele>1019.1666666666667</ele><time>2026-04-18T15:16:32.999Z</time></trkpt><trkpt lat="40.9312649389858" lon="14.693365932483335"><ele>1019.0</ele><time>2026-04-18T15:16:33.999Z</time></trkpt><trkpt lat="40.93118245803847" lon="14.693447198715932"><ele>1019.0000000000001</ele><time>2026-04-18T15:16:34.999Z</time></trkpt><trkpt lat="40.931103943406086" lon="14.693495512315579"><ele>1019.0</ele><time>2026-04-18T15:16:35.999Z</time></trkpt><trkpt lat="40.93101823132808" lon="14.693502674577363"><ele>1019.0</ele><time>2026-04-18T15:16:36.999Z</time></trkpt><trkpt lat="40.93093372867422" lon="14.693508509479434"><ele>1019.0</ele><time>2026-04-18T15:16:37.999Z</time></trkpt><trkpt lat="40.93086084703951" lon="14.693520514707254"><ele>1019.0000000000001</ele><time>2026-04-18T15:16:38.999Z</time></trkpt><trkpt lat="40.930769456094986" lon="14.69353824311838"><ele>1019.0</ele><time>2026-04-18T15:16:39.999Z</time></trkpt><trkpt lat="40.93066248104971" lon="14.693569149932939"><ele>1019.8000000000001</ele><time>2026-04-18T15:16:40.999Z</time></trkpt><trkpt lat="40.93055538304085" lon="14.693572665539843"><ele>1020.6000000000001</ele><time>2026-04-18T15:16:41.999Z</time></trkpt><trkpt lat="40.93043095085302" lon="14.693622196652816"><ele>1021.4</ele><time>2026-04-18T15:16:42.999Z</time></trkpt><trkpt lat="40.930330144208014" lon="14.69365749981212"><ele>1022.2</ele><time>2026-04-18T15:16:43.999Z</time></trkpt><trkpt lat="40.930232446484936" lon="14.693689905231121"><ele>1023.0</ele><time>2026-04-18T15:16:44.999Z</time></trkpt><trkpt lat="40.93013662710263" lon="14.693695428938698"><ele>1021.5999999999999</ele><time>2026-04-18T15:16:45.999Z</time></trkpt><trkpt lat="40.930012698663695" lon="14.693687107195235"><ele>1020.1999999999999</ele><time>2026-04-18T15:16:46.999Z</time></trkpt><trkpt lat="40.9299164287998" lon="14.69365919646918"><ele>1018.8</ele><time>2026-04-18T15:16:47.999Z</time></trkpt><trkpt lat="40.929819816787955" lon="14.693624599006105"><ele>1017.4</ele><time>2026-04-18T15:16:48.999Z</time></trkpt><trkpt lat="40.92970715830457" lon="14.693611749332188"><ele>1016.0</ele><time>2026-04-18T15:16:49.999Z</time></trkpt><trkpt lat="40.92961751844962" lon="14.693536675686195"><ele>1016.0</ele><time>2026-04-18T15:16:50.999Z</time></trkpt><trkpt lat="40.929535514994306" lon="14.693422463581912"><ele>1016.0</ele><time>2026-04-18T15:16:51.999Z</time></trkpt><trkpt lat="40.92941554185705" lon="14.693304637887769"><ele>1016.0</ele><time>2026-04-18T15:16:52.999Z</time></trkpt><trkpt lat="40.929285274695005" lon="14.693198533356302"><ele>1016.0</ele><time>2026-04-18T15:16:53.999Z</time></trkpt><trkpt lat="40.92917404809171" lon="14.693095352711373"><ele>1015.5999999999999</ele><time>2026-04-18T15:16:54.999Z</time></trkpt><trkpt lat="40.92909455438079" lon="14.693008905242559"><ele>1015.1999999999999</ele><time>2026-04-18T15:16:55.999Z</time></trkpt><trkpt lat="40.92902119130873" lon="14.692916327400637"><ele>1014.8000000000001</ele><time>2026-04-18T15:16:56.999Z</time></trkpt><trkpt lat="40.92895296260875" lon="14.692814470624917"><ele>1014.4000000000001</ele><time>2026-04-18T15:16:57.999Z</time></trkpt><trkpt lat="40.92890300643209" lon="14.69271388728687"><ele>1014.0</ele><time>2026-04-18T15:16:58.999Z</time></trkpt><trkpt lat="40.928855006703756" lon="14.69263158324638"><ele>1014.0</ele><time>2026-04-18T15:16:59.999Z</time></trkpt><trkpt lat="40.92880660070925" lon="14.69245479935825"><ele>1014.0</ele><time>2026-04-18T15:17:01.999Z</time></trkpt><trkpt lat="40.92879358635244" lon="14.692329241078761"><ele>1014.0</ele><time>2026-04-18T15:17:02.999Z</time></trkpt><trkpt lat="40.92880244808974" lon="14.692189429569803"><ele>1014.0</ele><time>2026-04-18T15:17:03.999Z</time></trkpt><trkpt lat="40.928820095887126" lon="14.692048831500587"><ele>1014.0</ele><time>2026-04-18T15:17:04.999Z</time></trkpt><trkpt lat="40.928832540607" lon="14.691926182928032"><ele>1014.0</ele><time>2026-04-18T15:17:05.999Z</time></trkpt><trkpt lat="40.928843063362784" lon="14.69180324663319"><ele>1014.0</ele><time>2026-04-18T15:17:06.999Z</time></trkpt><trkpt lat="40.92884435301684" lon="14.691699697574325"><ele>1014.0</ele><time>2026-04-18T15:17:07.999Z</time></trkpt><trkpt lat="40.928822030361836" lon="14.691579634127278"><ele>1014.0</ele><time>2026-04-18T15:17:08.999Z</time></trkpt><trkpt lat="40.92878718680003" lon="14.691476093812845"><ele>1014.0</ele><time>2026-04-18T15:17:09.999Z</time></trkpt><trkpt lat="40.92874990524976" lon="14.691393056568335"><ele>1015.0</ele><time>2026-04-18T15:17:10.999Z</time></trkpt><trkpt lat="40.92870092775945" lon="14.691282765794206"><ele>1016.0</ele><time>2026-04-18T15:17:11.999Z</time></trkpt><trkpt lat="40.92866336751027" lon="14.691179111031483"><ele>1017.0</ele><time>2026-04-18T15:17:12.999Z</time></trkpt><trkpt lat="40.928634807105965" lon="14.691081777333377"><ele>1018.0</ele><time>2026-04-18T15:17:13.999Z</time></trkpt><trkpt lat="40.92859921117487" lon="14.690999096745616"><ele>1019.0</ele><time>2026-04-18T15:17:14.999Z</time></trkpt><trkpt lat="40.92857331214235" lon="14.6908967456459"><ele>1020.0</ele><time>2026-04-18T15:17:15.999Z</time></trkpt><trkpt lat="40.92853808891085" lon="14.69080752234711"><ele>1020.6</ele><time>2026-04-18T15:17:16.999Z</time></trkpt><trkpt lat="40.92856392605224" lon="14.690643019262568"><ele>1021.2</ele><time>2026-04-18T15:17:18.999Z</time></trkpt><trkpt lat="40.928590509874745" lon="14.690481422273471"><ele>1021.8</ele><time>2026-04-18T15:17:20.998Z</time></trkpt><trkpt lat="40.92861308144315" lon="14.69038735675026"><ele>1022.4</ele><time>2026-04-18T15:17:21.998Z</time></trkpt><trkpt lat="40.92862575846723" lon="14.690294377345117"><ele>1023.0</ele><time>2026-04-18T15:17:22.998Z</time></trkpt><trkpt lat="40.928644837265864" lon="14.690200751506238"><ele>1021.8</ele><time>2026-04-18T15:17:23.998Z</time></trkpt><trkpt lat="40.928645401720686" lon="14.690107672968105"><ele>1020.5999999999999</ele><time>2026-04-18T15:17:24.998Z</time></trkpt><trkpt lat="40.928652431476756" lon="14.689967745732607"><ele>1019.4000000000001</ele><time>2026-04-18T15:17:26.998Z</time></trkpt><trkpt lat="40.92860709030063" lon="14.689866073107677"><ele>1018.2</ele><time>2026-04-18T15:17:28.998Z</time></trkpt><trkpt lat="40.92846088746283" lon="14.689851243977632"><ele>1017.0</ele><time>2026-04-18T15:17:30.998Z</time></trkpt><trkpt lat="40.92837507022844" lon="14.689880369362948"><ele>1013.6666666666666</ele><time>2026-04-18T15:17:31.998Z</time></trkpt><trkpt lat="40.92828647135237" lon="14.689897853759971"><ele>1010.3333333333333</ele><time>2026-04-18T15:17:32.998Z</time></trkpt><trkpt lat="40.928196105920115" lon="14.689898996970838"><ele>1007.0</ele><time>2026-04-18T15:17:33.998Z</time></trkpt><trkpt lat="40.92811562529112" lon="14.689894604519736"><ele>1003.6666666666666</ele><time>2026-04-18T15:17:34.998Z</time></trkpt><trkpt lat="40.92802925369732" lon="14.689890690470518"><ele>1000.3333333333333</ele><time>2026-04-18T15:17:35.998Z</time></trkpt><trkpt lat="40.92793496888753" lon="14.689902123375608"><ele>997.0</ele><time>2026-04-18T15:17:36.998Z</time></trkpt><trkpt lat="40.927839304982136" lon="14.689916398454478"><ele>996.9999999999999</ele><time>2026-04-18T15:17:37.998Z</time></trkpt><trkpt lat="40.927754026428865" lon="14.68991641099118"><ele>997.0</ele><time>2026-04-18T15:17:38.998Z</time></trkpt><trkpt lat="40.927662338961376" lon="14.689922362950327"><ele>997.0</ele><time>2026-04-18T15:17:39.998Z</time></trkpt><trkpt lat="40.927574664018515" lon="14.68993889841325"><ele>997.0</ele><time>2026-04-18T15:17:40.998Z</time></trkpt><trkpt lat="40.927482078614936" lon="14.689948056733694"><ele>996.9999999999999</ele><time>2026-04-18T15:17:41.998Z</time></trkpt><trkpt lat="40.92739664299754" lon="14.689964327773609"><ele>997.0</ele><time>2026-04-18T15:17:42.998Z</time></trkpt><trkpt lat="40.92733118980037" lon="14.689949009986147"><ele>995.3333333333333</ele><time>2026-04-18T15:17:43.998Z</time></trkpt><trkpt lat="40.927253544247954" lon="14.689923466799712"><ele>993.6666666666666</ele><time>2026-04-18T15:17:44.998Z</time></trkpt><trkpt lat="40.927145151725064" lon="14.689865194751356"><ele>992.0</ele><time>2026-04-18T15:17:46.998Z</time></trkpt><trkpt lat="40.92710433693958" lon="14.689790135085525"><ele>990.3333333333333</ele><time>2026-04-18T15:17:47.998Z</time></trkpt><trkpt lat="40.92707940919003" lon="14.689710321662968"><ele>988.6666666666666</ele><time>2026-04-18T15:17:48.998Z</time></trkpt><trkpt lat="40.9271138278946" lon="14.689608287026823"><ele>987.0</ele><time>2026-04-18T15:17:49.998Z</time></trkpt><trkpt lat="40.927177639301334" lon="14.689526245963691"><ele>987.0</ele><time>2026-04-18T15:17:50.998Z</time></trkpt><trkpt lat="40.9272720940816" lon="14.689434230856415"><ele>987.0</ele><time>2026-04-18T15:17:51.998Z</time></trkpt><trkpt lat="40.92738586771063" lon="14.689341442515621"><ele>987.0</ele><time>2026-04-18T15:17:52.998Z</time></trkpt><trkpt lat="40.927501390709" lon="14.689256773250783"><ele>987.0</ele><time>2026-04-18T15:17:53.998Z</time></trkpt><trkpt lat="40.92759833565911" lon="14.689151844706764"><ele>986.0</ele><time>2026-04-18T15:17:54.998Z</time></trkpt><trkpt lat="40.92768230299293" lon="14.689064742780166"><ele>985.0</ele><time>2026-04-18T15:17:55.998Z</time></trkpt><trkpt lat="40.92776092347203" lon="14.688980600184445"><ele>984.0</ele><time>2026-04-18T15:17:56.998Z</time></trkpt><trkpt lat="40.92782356366231" lon="14.688866912302261"><ele>983.0</ele><time>2026-04-18T15:17:57.998Z</time></trkpt><trkpt lat="40.927870682571836" lon="14.688727768849768"><ele>982.0</ele><time>2026-04-18T15:17:58.998Z</time></trkpt><trkpt lat="40.92793413929975" lon="14.688589260284571"><ele>977.25</ele><time>2026-04-18T15:17:59.998Z</time></trkpt><trkpt lat="40.9280016749382" lon="14.688443018639761"><ele>972.5</ele><time>2026-04-18T15:18:00.998Z</time></trkpt><trkpt lat="40.928082186313716" lon="14.688305287497588"><ele>967.75</ele><time>2026-04-18T15:18:02Z</time></trkpt><trkpt lat="40.92817331464615" lon="14.688176192635762"><ele>963.0</ele><time>2026-04-18T15:18:03Z</time></trkpt><trkpt lat="40.92826700163394" lon="14.688039314118592"><ele>963.0</ele><time>2026-04-18T15:18:04Z</time></trkpt><trkpt lat="40.928358317160715" lon="14.68792303282903"><ele>963.0</ele><time>2026-04-18T15:18:05Z</time></trkpt><trkpt lat="40.928429265928614" lon="14.687770920728347"><ele>963.0</ele><time>2026-04-18T15:18:06Z</time></trkpt><trkpt lat="40.92848124737734" lon="14.687600970392625"><ele>963.0</ele><time>2026-04-18T15:18:07Z</time></trkpt><trkpt lat="40.928534284399156" lon="14.687437271592747"><ele>965.5</ele><time>2026-04-18T15:18:08Z</time></trkpt><trkpt lat="40.92859618013794" lon="14.687277840340636"><ele>968.0</ele><time>2026-04-18T15:18:09Z</time></trkpt><trkpt lat="40.928654068598156" lon="14.68713307804924"><ele>970.5</ele><time>2026-04-18T15:18:10Z</time></trkpt><trkpt lat="40.9287183147708" lon="14.686999867906886"><ele>973.0</ele><time>2026-04-18T15:18:11Z</time></trkpt><trkpt lat="40.92880559265882" lon="14.686861834837254"><ele>967.75</ele><time>2026-04-18T15:18:12Z</time></trkpt><trkpt lat="40.92889854840604" lon="14.686723857649136"><ele>962.5</ele><time>2026-04-18T15:18:13Z</time></trkpt><trkpt lat="40.92897596531684" lon="14.686586021424514"><ele>957.25</ele><time>2026-04-18T15:18:14Z</time></trkpt><trkpt lat="40.9290728819512" lon="14.686481004833167"><ele>952.0</ele><time>2026-04-18T15:18:15Z</time></trkpt><trkpt lat="40.92913463104748" lon="14.686357372018893"><ele>952.0</ele><time>2026-04-18T15:18:16Z</time></trkpt><trkpt lat="40.92920562459964" lon="14.686231646876415"><ele>952.0</ele><time>2026-04-18T15:18:17Z</time></trkpt><trkpt lat="40.92927208496518" lon="14.68611853655183"><ele>952.0</ele><time>2026-04-18T15:18:18Z</time></trkpt><trkpt lat="40.92934641247115" lon="14.686024568266568"><ele>952.0</ele><time>2026-04-18T15:18:19Z</time></trkpt><trkpt lat="40.92940865751723" lon="14.68592262811059"><ele>952.0</ele><time>2026-04-18T15:18:20Z</time></trkpt><trkpt lat="40.92947589914367" lon="14.685833935727938"><ele>952.0</ele><time>2026-04-18T15:18:21Z</time></trkpt><trkpt lat="40.92954828037214" lon="14.685716514408423"><ele>952.0</ele><time>2026-04-18T15:18:22Z</time></trkpt><trkpt lat="40.92964491517144" lon="14.685623340783739"><ele>952.0</ele><time>2026-04-18T15:18:23Z</time></trkpt><trkpt lat="40.929736397941404" lon="14.685534143651074"><ele>952.0</ele><time>2026-04-18T15:18:24Z</time></trkpt><trkpt lat="40.92982891292903" lon="14.68546140618251"><ele>952.0</ele><time>2026-04-18T15:18:25Z</time></trkpt><trkpt lat="40.92991899347441" lon="14.68539713079116"><ele>952.0</ele><time>2026-04-18T15:18:26Z</time></trkpt><trkpt lat="40.930001952292216" lon="14.685319718099215"><ele>952.0</ele><time>2026-04-18T15:18:27Z</time></trkpt><trkpt lat="40.930090181210744" lon="14.685269922320698"><ele>952.0</ele><time>2026-04-18T15:18:28Z</time></trkpt><trkpt lat="40.930193196107545" lon="14.685241281051375"><ele>952.0</ele><time>2026-04-18T15:18:29Z</time></trkpt><trkpt lat="40.93029128338242" lon="14.685196986678507"><ele>947.4000000000001</ele><time>2026-04-18T15:18:30Z</time></trkpt><trkpt lat="40.930389583950934" lon="14.685157460927867"><ele>942.8000000000001</ele><time>2026-04-18T15:18:31Z</time></trkpt><trkpt lat="40.930489356302374" lon="14.685115451709564"><ele>938.2</ele><time>2026-04-18T15:18:32Z</time></trkpt><trkpt lat="40.93059113607952" lon="14.685084175795772"><ele>933.6</ele><time>2026-04-18T15:18:33Z</time></trkpt><trkpt lat="40.930689675622624" lon="14.685045866163598"><ele>929.0</ele><time>2026-04-18T15:18:34Z</time></trkpt><trkpt lat="40.93078924003524" lon="14.685006199315051"><ele>930.75</ele><time>2026-04-18T15:18:35Z</time></trkpt><trkpt lat="40.93089817794368" lon="14.684944091419027"><ele>932.5</ele><time>2026-04-18T15:18:36Z</time></trkpt><trkpt lat="40.93100253625168" lon="14.684899855834395"><ele>934.25</ele><time>2026-04-18T15:18:37Z</time></trkpt><trkpt lat="40.931120124636024" lon="14.684839418676525"><ele>936.0</ele><time>2026-04-18T15:18:38Z</time></trkpt><trkpt lat="40.9312437449265" lon="14.684768980978708"><ele>936.0</ele><time>2026-04-18T15:18:39Z</time></trkpt><trkpt lat="40.93135732824935" lon="14.684685735381423"><ele>936.0</ele><time>2026-04-18T15:18:40Z</time></trkpt><trkpt lat="40.93146854022442" lon="14.684606286580445"><ele>936.0</ele><time>2026-04-18T15:18:41Z</time></trkpt><trkpt lat="40.93158220536058" lon="14.684548891427374"><ele>936.0</ele><time>2026-04-18T15:18:41.999Z</time></trkpt><trkpt lat="40.9317002050111" lon="14.684501608101067"><ele>936.25</ele><time>2026-04-18T15:18:42.999Z</time></trkpt><trkpt lat="40.931829839700825" lon="14.684450191027521"><ele>936.5</ele><time>2026-04-18T15:18:43.999Z</time></trkpt><trkpt lat="40.931955143288526" lon="14.68440379078663"><ele>936.75</ele><time>2026-04-18T15:18:44.999Z</time></trkpt><trkpt lat="40.932068283974225" lon="14.684365248825497"><ele>937.0</ele><time>2026-04-18T15:18:45.999Z</time></trkpt><trkpt lat="40.93217513460123" lon="14.684328944268602"><ele>930.75</ele><time>2026-04-18T15:18:46.999Z</time></trkpt><trkpt lat="40.93228650838791" lon="14.684328238736637"><ele>924.5</ele><time>2026-04-18T15:18:47.999Z</time></trkpt><trkpt lat="40.93238798395654" lon="14.684336314624348"><ele>918.25</ele><time>2026-04-18T15:18:48.999Z</time></trkpt><trkpt lat="40.93250336012296" lon="14.684365525681125"><ele>912.0</ele><time>2026-04-18T15:18:49.999Z</time></trkpt><trkpt lat="40.93262926387029" lon="14.684392456361872"><ele>910.5</ele><time>2026-04-18T15:18:50.999Z</time></trkpt><trkpt lat="40.93272256564719" lon="14.684425819964236"><ele>909.0</ele><time>2026-04-18T15:18:51.999Z</time></trkpt><trkpt lat="40.93283209842418" lon="14.6844039287213"><ele>907.5</ele><time>2026-04-18T15:18:52.999Z</time></trkpt><trkpt lat="40.93295524088951" lon="14.684394941782582"><ele>906.0</ele><time>2026-04-18T15:18:53.999Z</time></trkpt><trkpt lat="40.933080848689514" lon="14.684355994700443"><ele>906.0</ele><time>2026-04-18T15:18:54.999Z</time></trkpt><trkpt lat="40.933209327846455" lon="14.68432025961015"><ele>906.0</ele><time>2026-04-18T15:18:55.999Z</time></trkpt><trkpt lat="40.93333029082052" lon="14.684286744997545"><ele>906.0</ele><time>2026-04-18T15:18:56.999Z</time></trkpt><trkpt lat="40.933455028462376" lon="14.684259983255046"><ele>906.0</ele><time>2026-04-18T15:18:57.999Z</time></trkpt><trkpt lat="40.933569637604926" lon="14.684238197179434"><ele>904.1999999999999</ele><time>2026-04-18T15:18:58.999Z</time></trkpt><trkpt lat="40.93368932112293" lon="14.684208766336118"><ele>902.3999999999999</ele><time>2026-04-18T15:18:59.999Z</time></trkpt><trkpt lat="40.93380138858002" lon="14.684168866101084"><ele>900.6</ele><time>2026-04-18T15:19:00.999Z</time></trkpt><trkpt lat="40.93390054869436" lon="14.684144699611148"><ele>898.8</ele><time>2026-04-18T15:19:01.999Z</time></trkpt><trkpt lat="40.93400085943525" lon="14.684127783542449"><ele>897.0</ele><time>2026-04-18T15:19:02.999Z</time></trkpt><trkpt lat="40.93410183530751" lon="14.684151987685533"><ele>897.0</ele><time>2026-04-18T15:19:03.999Z</time></trkpt><trkpt lat="40.93420554638648" lon="14.684204297995398"><ele>897.0</ele><time>2026-04-18T15:19:04.999Z</time></trkpt><trkpt lat="40.93430503956654" lon="14.68428984225123"><ele>897.0</ele><time>2026-04-18T15:19:05.999Z</time></trkpt><trkpt lat="40.934412697029025" lon="14.68438176612045"><ele>897.0</ele><time>2026-04-18T15:19:06.999Z</time></trkpt><trkpt lat="40.934504965545116" lon="14.684475221616255"><ele>897.5714285714287</ele><time>2026-04-18T15:19:07.999Z</time></trkpt><trkpt lat="40.9345755518525" lon="14.684549450220695"><ele>898.1428571428571</ele><time>2026-04-18T15:19:08.999Z</time></trkpt><trkpt lat="40.9346255882713" lon="14.684602094330762"><ele>898.7142857142858</ele><time>2026-04-18T15:19:09.999Z</time></trkpt><trkpt lat="40.93468838536606" lon="14.68461408893652"><ele>899.2857142857143</ele><time>2026-04-18T15:19:10.999Z</time></trkpt><trkpt lat="40.93475676953713" lon="14.68458212628015"><ele>899.8571428571429</ele><time>2026-04-18T15:19:11.999Z</time></trkpt><trkpt lat="40.934796179183756" lon="14.684503804238524"><ele>900.4285714285714</ele><time>2026-04-18T15:19:12.999Z</time></trkpt><trkpt lat="40.9348074287553" lon="14.684395431029046"><ele>901.0</ele><time>2026-04-18T15:19:13.999Z</time></trkpt><trkpt lat="40.93480864258799" lon="14.684265838288223"><ele>901.0</ele><time>2026-04-18T15:19:14.999Z</time></trkpt><trkpt lat="40.93479941424296" lon="14.684145984539168"><ele>901.0</ele><time>2026-04-18T15:19:15.999Z</time></trkpt><trkpt lat="40.93478690160416" lon="14.684020541964061"><ele>901.0</ele><time>2026-04-18T15:19:16.999Z</time></trkpt><trkpt lat="40.93477774682261" lon="14.683867530020418"><ele>901.0</ele><time>2026-04-18T15:19:17.999Z</time></trkpt><trkpt lat="40.93480629775823" lon="14.68366171417699"><ele>896.6666666666666</ele><time>2026-04-18T15:19:18.999Z</time></trkpt><trkpt lat="40.93484179982591" lon="14.683410328603157"><ele>892.3333333333333</ele><time>2026-04-18T15:19:19.999Z</time></trkpt><trkpt lat="40.934880580262494" lon="14.683171357053201"><ele>888.0</ele><time>2026-04-18T15:19:20.999Z</time></trkpt><trkpt lat="40.93492514861611" lon="14.68295321251115"><ele>883.6666666666667</ele><time>2026-04-18T15:19:21.999Z</time></trkpt><trkpt lat="40.934979774435" lon="14.682758904118486"><ele>879.3333333333334</ele><time>2026-04-18T15:19:22.999Z</time></trkpt><trkpt lat="40.93501783393212" lon="14.682568863212312"><ele>875.0</ele><time>2026-04-18T15:19:23.999Z</time></trkpt><trkpt lat="40.9350297106286" lon="14.682352539572285"><ele>875.0</ele><time>2026-04-18T15:19:24.999Z</time></trkpt><trkpt lat="40.93501935472636" lon="14.682118754165051"><ele>875.0</ele><time>2026-04-18T15:19:25.999Z</time></trkpt><trkpt lat="40.934994348851795" lon="14.68187549820352"><ele>875.0</ele><time>2026-04-18T15:19:26.999Z</time></trkpt><trkpt lat="40.93496297228062" lon="14.681602251123708"><ele>870.3333333333334</ele><time>2026-04-18T15:19:27.999Z</time></trkpt><trkpt lat="40.93491131691522" lon="14.6813195791654"><ele>865.6666666666667</ele><time>2026-04-18T15:19:28.999Z</time></trkpt><trkpt lat="40.93486817098295" lon="14.681051809012445"><ele>861.0</ele><time>2026-04-18T15:19:29.998Z</time></trkpt><trkpt lat="40.93482262939841" lon="14.680793071525319"><ele>860.3333333333333</ele><time>2026-04-18T15:19:30.998Z</time></trkpt><trkpt lat="40.93477570031219" lon="14.680557308380326"><ele>859.6666666666666</ele><time>2026-04-18T15:19:31.998Z</time></trkpt><trkpt lat="40.93473183085144" lon="14.680346970343638"><ele>859.0</ele><time>2026-04-18T15:19:32.998Z</time></trkpt><trkpt lat="40.93470183400522" lon="14.680141254855325"><ele>858.0</ele><time>2026-04-18T15:19:33.998Z</time></trkpt><trkpt lat="40.934688071897945" lon="14.679935740712164"><ele>857.0</ele><time>2026-04-18T15:19:34.998Z</time></trkpt><trkpt lat="40.93469297198277" lon="14.679729462014704"><ele>856.0</ele><time>2026-04-18T15:19:35.998Z</time></trkpt><trkpt lat="40.93471331014441" lon="14.679529856748564"><ele>850.0</ele><time>2026-04-18T15:19:36.998Z</time></trkpt><trkpt lat="40.9347691816747" lon="14.67935481164747"><ele>844.0</ele><time>2026-04-18T15:19:37.998Z</time></trkpt><trkpt lat="40.934849788723646" lon="14.679194031803505"><ele>838.0</ele><time>2026-04-18T15:19:38.998Z</time></trkpt><trkpt lat="40.93495730785846" lon="14.679035756266574"><ele>834.0</ele><time>2026-04-18T15:19:39.998Z</time></trkpt><trkpt lat="40.93508180131069" lon="14.678871054929033"><ele>830.0</ele><time>2026-04-18T15:19:40.998Z</time></trkpt><trkpt lat="40.93521529250556" lon="14.678718259575675"><ele>826.0</ele><time>2026-04-18T15:19:41.998Z</time></trkpt><trkpt lat="40.93534107566408" lon="14.678579919766035"><ele>826.0</ele><time>2026-04-18T15:19:42.998Z</time></trkpt><trkpt lat="40.935447141079926" lon="14.678467389854726"><ele>826.0</ele><time>2026-04-18T15:19:43.998Z</time></trkpt><trkpt lat="40.935549443143934" lon="14.678354175815047"><ele>826.0</ele><time>2026-04-18T15:19:44.998Z</time></trkpt><trkpt lat="40.935642472168276" lon="14.678256965143445"><ele>826.0</ele><time>2026-04-18T15:19:45.998Z</time></trkpt><trkpt lat="40.93573346667844" lon="14.678141761277635"><ele>826.0</ele><time>2026-04-18T15:19:46.998Z</time></trkpt><trkpt lat="40.93582515413158" lon="14.678049668706528"><ele>826.0</ele><time>2026-04-18T15:19:47.998Z</time></trkpt><trkpt lat="40.93591785860991" lon="14.677986406959104"><ele>826.0</ele><time>2026-04-18T15:19:48.998Z</time></trkpt><trkpt lat="40.93603389828374" lon="14.677916243524404"><ele>826.0</ele><time>2026-04-18T15:19:49.998Z</time></trkpt><trkpt lat="40.936163014695495" lon="14.67784813431595"><ele>826.0</ele><time>2026-04-18T15:19:50.998Z</time></trkpt><trkpt lat="40.93630804460321" lon="14.67778234178248"><ele>826.0</ele><time>2026-04-18T15:19:51.998Z</time></trkpt><trkpt lat="40.936445209557036" lon="14.677716061240714"><ele>826.0</ele><time>2026-04-18T15:19:52.998Z</time></trkpt><trkpt lat="40.93656676331505" lon="14.677659408009301"><ele>826.0</ele><time>2026-04-18T15:19:53.998Z</time></trkpt><trkpt lat="40.93668984974305" lon="14.677623240434766"><ele>815.25</ele><time>2026-04-18T15:19:54.998Z</time></trkpt><trkpt lat="40.93682213672259" lon="14.677614713144608"><ele>804.5</ele><time>2026-04-18T15:19:55.998Z</time></trkpt><trkpt lat="40.93694604766874" lon="14.677623911568157"><ele>793.75</ele><time>2026-04-18T15:19:56.998Z</time></trkpt><trkpt lat="40.93706148787119" lon="14.677642488772092"><ele>783.0</ele><time>2026-04-18T15:19:57.998Z</time></trkpt><trkpt lat="40.93714891682216" lon="14.67768188291989"><ele>783.0</ele><time>2026-04-18T15:19:58.998Z</time></trkpt><trkpt lat="40.93722326613329" lon="14.67771431110292"><ele>783.0</ele><time>2026-04-18T15:19:59.998Z</time></trkpt><trkpt lat="40.93732023142347" lon="14.67771389385311"><ele>783.0</ele><time>2026-04-18T15:20:01.998Z</time></trkpt><trkpt lat="40.93732461441354" lon="14.677575137059746"><ele>783.0</ele><time>2026-04-18T15:20:03.998Z</time></trkpt><trkpt lat="40.93725609223907" lon="14.677505812278355"><ele>783.0</ele><time>2026-04-18T15:20:04.998Z</time></trkpt><trkpt lat="40.93717356299063" lon="14.677447292799071"><ele>783.0</ele><time>2026-04-18T15:20:05.998Z</time></trkpt><trkpt lat="40.93708782033664" lon="14.677377561847841"><ele>783.0</ele><time>2026-04-18T15:20:06.998Z</time></trkpt><trkpt lat="40.93700332331788" lon="14.677319950371547"><ele>783.0</ele><time>2026-04-18T15:20:08Z</time></trkpt><trkpt lat="40.93692154931832" lon="14.677273082028576"><ele>783.0</ele><time>2026-04-18T15:20:09Z</time></trkpt><trkpt lat="40.93684411883361" lon="14.677237837047306"><ele>783.0</ele><time>2026-04-18T15:20:10Z</time></trkpt><trkpt lat="40.93676773379666" lon="14.677214755274758"><ele>783.0</ele><time>2026-04-18T15:20:11Z</time></trkpt><trkpt lat="40.93670230069553" lon="14.677187196603029"><ele>783.0</ele><time>2026-04-18T15:20:12Z</time></trkpt><trkpt lat="40.936629979298864" lon="14.677110575307672"><ele>783.0</ele><time>2026-04-18T15:20:14Z</time></trkpt><trkpt lat="40.93668592386275" lon="14.677000795076294"><ele>783.0</ele><time>2026-04-18T15:20:16Z</time></trkpt><trkpt lat="40.936769124533555" lon="14.676983390382096"><ele>783.0</ele><time>2026-04-18T15:20:17Z</time></trkpt><trkpt lat="40.9368639159918" lon="14.67700630648921"><ele>783.0</ele><time>2026-04-18T15:20:18Z</time></trkpt><trkpt lat="40.936944770405724" lon="14.677014522185546"><ele>783.0</ele><time>2026-04-18T15:20:19Z</time></trkpt><trkpt lat="40.937035424954146" lon="14.677024631441704"><ele>783.0</ele><time>2026-04-18T15:20:20Z</time></trkpt><trkpt lat="40.9371638447262" lon="14.677031400328742"><ele>783.0</ele><time>2026-04-18T15:20:21Z</time></trkpt><trkpt lat="40.93728807359084" lon="14.677046447627365"><ele>783.0</ele><time>2026-04-18T15:20:22Z</time></trkpt><trkpt lat="40.93741026352628" lon="14.67706388373316"><ele>783.0</ele><time>2026-04-18T15:20:23Z</time></trkpt><trkpt lat="40.93752222996756" lon="14.677082930765211"><ele>783.0</ele><time>2026-04-18T15:20:24Z</time></trkpt><trkpt lat="40.937631412362265" lon="14.677096442257048"><ele>783.0</ele><time>2026-04-18T15:20:25Z</time></trkpt><trkpt lat="40.93773920238699" lon="14.677108507525814"><ele>783.0</ele><time>2026-04-18T15:20:26Z</time></trkpt><trkpt lat="40.93784556335977" lon="14.67712801516285"><ele>783.0</ele><time>2026-04-18T15:20:27Z</time></trkpt><trkpt lat="40.93795012070858" lon="14.677145374895726"><ele>782.0</ele><time>2026-04-18T15:20:28Z</time></trkpt><trkpt lat="40.9380498162052" lon="14.677157728551336"><ele>781.0</ele><time>2026-04-18T15:20:29Z</time></trkpt><trkpt lat="40.93813847245641" lon="14.677149515651104"><ele>780.0</ele><time>2026-04-18T15:20:30Z</time></trkpt><trkpt lat="40.93821285529969" lon="14.677112543766293"><ele>779.0</ele><time>2026-04-18T15:20:31Z</time></trkpt><trkpt lat="40.938264053323806" lon="14.677036280399161"><ele>778.0</ele><time>2026-04-18T15:20:32Z</time></trkpt><trkpt lat="40.93828455821267" lon="14.676931862418163"><ele>777.0</ele><time>2026-04-18T15:20:33Z</time></trkpt><trkpt lat="40.938292675322295" lon="14.676831612797512"><ele>774.5</ele><time>2026-04-18T15:20:34Z</time></trkpt><trkpt lat="40.938299857546205" lon="14.676715919367147"><ele>772.0</ele><time>2026-04-18T15:20:35Z</time></trkpt><trkpt lat="40.93831115176951" lon="14.676598752099576"><ele>769.5</ele><time>2026-04-18T15:20:36Z</time></trkpt><trkpt lat="40.938323664293314" lon="14.676492174445873"><ele>767.0</ele><time>2026-04-18T15:20:37Z</time></trkpt><trkpt lat="40.938338229561204" lon="14.676381283164792"><ele>764.5</ele><time>2026-04-18T15:20:38Z</time></trkpt><trkpt lat="40.93834694457361" lon="14.676269131180597"><ele>762.0</ele><time>2026-04-18T15:20:39Z</time></trkpt><trkpt lat="40.93836025548333" lon="14.676166236305253"><ele>760.8333333333334</ele><time>2026-04-18T15:20:40Z</time></trkpt><trkpt lat="40.93836764978919" lon="14.676062029721042"><ele>759.6666666666666</ele><time>2026-04-18T15:20:41Z</time></trkpt><trkpt lat="40.93837231501307" lon="14.6759624362038"><ele>758.5</ele><time>2026-04-18T15:20:42Z</time></trkpt><trkpt lat="40.938379109024474" lon="14.675878193528176"><ele>757.3333333333333</ele><time>2026-04-18T15:20:43Z</time></trkpt><trkpt lat="40.938389397505276" lon="14.675789288453654"><ele>756.1666666666666</ele><time>2026-04-18T15:20:44Z</time></trkpt><trkpt lat="40.93838296732335" lon="14.675659458680151"><ele>755.0</ele><time>2026-04-18T15:20:45Z</time></trkpt><trkpt lat="40.938372991163455" lon="14.675512167097303"><ele>753.75</ele><time>2026-04-18T15:20:45.999Z</time></trkpt><trkpt lat="40.93837581906855" lon="14.675419916746911"><ele>752.5</ele><time>2026-04-18T15:20:46.999Z</time></trkpt><trkpt lat="40.93837780677728" lon="14.67508023930626"><ele>751.25</ele><time>2026-04-18T15:20:47.999Z</time></trkpt><trkpt lat="40.93838881814447" lon="14.674933807640466"><ele>750.0</ele><time>2026-04-18T15:20:48.999Z</time></trkpt><trkpt lat="40.93838904804284" lon="14.674796711773418"><ele>750.0</ele><time>2026-04-18T15:20:49.999Z</time></trkpt><trkpt lat="40.93838817253296" lon="14.674653967053304"><ele>750.0</ele><time>2026-04-18T15:20:50.999Z</time></trkpt><trkpt lat="40.93837271257901" lon="14.674513717017872"><ele>750.0</ele><time>2026-04-18T15:20:51.999Z</time></trkpt><trkpt lat="40.93833520915526" lon="14.674366826133541"><ele>750.0</ele><time>2026-04-18T15:20:52.999Z</time></trkpt><trkpt lat="40.93826794716721" lon="14.674195589740517"><ele>744.6666666666666</ele><time>2026-04-18T15:20:53.999Z</time></trkpt><trkpt lat="40.938182911119675" lon="14.674017990771116"><ele>739.3333333333333</ele><time>2026-04-18T15:20:54.999Z</time></trkpt><trkpt lat="40.938094867476586" lon="14.673842951305216"><ele>734.0</ele><time>2026-04-18T15:20:55.999Z</time></trkpt><trkpt lat="40.93801371155798" lon="14.673672284407408"><ele>732.25</ele><time>2026-04-18T15:20:56.999Z</time></trkpt><trkpt lat="40.93794166504951" lon="14.6735056730276"><ele>730.5</ele><time>2026-04-18T15:20:57.999Z</time></trkpt><trkpt lat="40.9378728742174" lon="14.673342441657198"><ele>728.75</ele><time>2026-04-18T15:20:58.999Z</time></trkpt><trkpt lat="40.93781708804876" lon="14.67321125945753"><ele>727.0</ele><time>2026-04-18T15:20:59.999Z</time></trkpt><trkpt lat="40.93777069106775" lon="14.673099809332172"><ele>727.0</ele><time>2026-04-18T15:21:00.999Z</time></trkpt><trkpt lat="40.93774505459376" lon="14.67301397300058"><ele>727.0</ele><time>2026-04-18T15:21:01.999Z</time></trkpt><trkpt lat="40.93775351894357" lon="14.672925405482118"><ele>727.0</ele><time>2026-04-18T15:21:02.999Z</time></trkpt><trkpt lat="40.9378124824468" lon="14.67284645576474"><ele>727.0</ele><time>2026-04-18T15:21:03.999Z</time></trkpt><trkpt lat="40.93789263689031" lon="14.672775737648308"><ele>727.0</ele><time>2026-04-18T15:21:04.999Z</time></trkpt><trkpt lat="40.93800042777206" lon="14.672714928431331"><ele>727.0</ele><time>2026-04-18T15:21:05.999Z</time></trkpt><trkpt lat="40.93811591454271" lon="14.672653505479179"><ele>725.6</ele><time>2026-04-18T15:21:06.999Z</time></trkpt><trkpt lat="40.938213669821685" lon="14.67259166934241"><ele>724.2</ele><time>2026-04-18T15:21:07.999Z</time></trkpt><trkpt lat="40.93829736228198" lon="14.672539246318399"><ele>722.8</ele><time>2026-04-18T15:21:08.999Z</time></trkpt><trkpt lat="40.93837160176273" lon="14.672493183436066"><ele>721.4</ele><time>2026-04-18T15:21:09.999Z</time></trkpt><trkpt lat="40.93844333242163" lon="14.672441258587844"><ele>720.0</ele><time>2026-04-18T15:21:10.999Z</time></trkpt><trkpt lat="40.93852146062576" lon="14.6723888223691"><ele>720.0</ele><time>2026-04-18T15:21:11.999Z</time></trkpt><trkpt lat="40.938605575492005" lon="14.672328302058796"><ele>720.0</ele><time>2026-04-18T15:21:12.999Z</time></trkpt><trkpt lat="40.938698428531815" lon="14.672257921695065"><ele>720.0</ele><time>2026-04-18T15:21:13.999Z</time></trkpt><trkpt lat="40.93879319583468" lon="14.672183704230836"><ele>720.0</ele><time>2026-04-18T15:21:14.999Z</time></trkpt><trkpt lat="40.93889089278471" lon="14.672097524930443"><ele>720.0</ele><time>2026-04-18T15:21:15.999Z</time></trkpt><trkpt lat="40.938983569174496" lon="14.672019198608517"><ele>720.0</ele><time>2026-04-18T15:21:16.999Z</time></trkpt><trkpt lat="40.939081173379925" lon="14.671944276539836"><ele>720.0</ele><time>2026-04-18T15:21:17.999Z</time></trkpt><trkpt lat="40.93918042561876" lon="14.671876024683883"><ele>720.0</ele><time>2026-04-18T15:21:18.999Z</time></trkpt><trkpt lat="40.93926853160076" lon="14.671816767612604"><ele>720.0</ele><time>2026-04-18T15:21:19.999Z</time></trkpt><trkpt lat="40.939345366055775" lon="14.671758110987543"><ele>720.0</ele><time>2026-04-18T15:21:20.999Z</time></trkpt><trkpt lat="40.939417827160135" lon="14.671701131307005"><ele>721.3333333333334</ele><time>2026-04-18T15:21:21.999Z</time></trkpt><trkpt lat="40.93948362946756" lon="14.6716423952042"><ele>722.6666666666666</ele><time>2026-04-18T15:21:22.999Z</time></trkpt><trkpt lat="40.93951964515842" lon="14.671570962198809"><ele>724.0</ele><time>2026-04-18T15:21:23.999Z</time></trkpt><trkpt lat="40.93952691046025" lon="14.671478837020702"><ele>725.3333333333333</ele><time>2026-04-18T15:21:24.999Z</time></trkpt><trkpt lat="40.93948587539868" lon="14.671363760310848"><ele>726.6666666666666</ele><time>2026-04-18T15:21:25.999Z</time></trkpt><trkpt lat="40.939468901434275" lon="14.671267186334813"><ele>728.0</ele><time>2026-04-18T15:21:26.999Z</time></trkpt><trkpt lat="40.939456099844335" lon="14.671174917416977"><ele>727.3333333333333</ele><time>2026-04-18T15:21:27.999Z</time></trkpt><trkpt lat="40.93945312218405" lon="14.671078026132296"><ele>726.6666666666666</ele><time>2026-04-18T15:21:28.999Z</time></trkpt><trkpt lat="40.939448131036976" lon="14.670982465036166"><ele>726.0</ele><time>2026-04-18T15:21:29.999Z</time></trkpt><trkpt lat="40.939450180123956" lon="14.67088435761403"><ele>725.3333333333334</ele><time>2026-04-18T15:21:30.999Z</time></trkpt><trkpt lat="40.939454740843026" lon="14.670797738509924"><ele>724.6666666666667</ele><time>2026-04-18T15:21:31.999Z</time></trkpt><trkpt lat="40.93945763250071" lon="14.670665624520902"><ele>724.0</ele><time>2026-04-18T15:21:33.998Z</time></trkpt><trkpt lat="40.939463300328796" lon="14.670509706559958"><ele>724.0</ele><time>2026-04-18T15:21:35.998Z</time></trkpt><trkpt lat="40.939454685298884" lon="14.67038947073997"><ele>724.0</ele><time>2026-04-18T15:21:36.998Z</time></trkpt><trkpt lat="40.939434724571164" lon="14.67029901862595"><ele>724.0</ele><time>2026-04-18T15:21:37.998Z</time></trkpt><trkpt lat="40.93940949739943" lon="14.670204221973922"><ele>724.0</ele><time>2026-04-18T15:21:38.998Z</time></trkpt><trkpt lat="40.93935064393888" lon="14.670071619902558"><ele>724.0</ele><time>2026-04-18T15:21:40.998Z</time></trkpt><trkpt lat="40.939288955274606" lon="14.669969007317068"><ele>723.6</ele><time>2026-04-18T15:21:42.998Z</time></trkpt><trkpt lat="40.93923400810642" lon="14.669860717874093"><ele>723.2</ele><time>2026-04-18T15:21:44.998Z</time></trkpt><trkpt lat="40.93924383132201" lon="14.669743311674036"><ele>722.8000000000001</ele><time>2026-04-18T15:21:45.998Z</time></trkpt><trkpt lat="40.939271199621416" lon="14.66961442711536"><ele>722.4000000000001</ele><time>2026-04-18T15:21:46.998Z</time></trkpt><trkpt lat="40.93930696182017" lon="14.669484272627109"><ele>722.0</ele><time>2026-04-18T15:21:47.998Z</time></trkpt><trkpt lat="40.93933157568176" lon="14.669325500768984"><ele>720.8</ele><time>2026-04-18T15:21:48.998Z</time></trkpt><trkpt lat="40.93932196305997" lon="14.669174385693253"><ele>719.6</ele><time>2026-04-18T15:21:49.998Z</time></trkpt><trkpt lat="40.939304458098924" lon="14.669026328021868"><ele>718.4</ele><time>2026-04-18T15:21:50.998Z</time></trkpt><trkpt lat="40.93928112035677" lon="14.668901030780876"><ele>717.1999999999999</ele><time>2026-04-18T15:21:51.998Z</time></trkpt><trkpt lat="40.93925596336336" lon="14.66878528694347"><ele>716.0</ele><time>2026-04-18T15:21:52.998Z</time></trkpt><trkpt lat="40.93924845935067" lon="14.668648678245214"><ele>713.8</ele><time>2026-04-18T15:21:53.998Z</time></trkpt><trkpt lat="40.93926989752483" lon="14.668533393424008"><ele>711.5999999999999</ele><time>2026-04-18T15:21:54.998Z</time></trkpt><trkpt lat="40.93930752916174" lon="14.668398161205214"><ele>709.4</ele><time>2026-04-18T15:21:55.998Z</time></trkpt><trkpt lat="40.939346107889214" lon="14.668251451594866"><ele>707.2</ele><time>2026-04-18T15:21:56.998Z</time></trkpt><trkpt lat="40.93937314162008" lon="14.668107904793743"><ele>705.0</ele><time>2026-04-18T15:21:57.998Z</time></trkpt><trkpt lat="40.939381738610756" lon="14.667961498245361"><ele>705.0</ele><time>2026-04-18T15:21:58.998Z</time></trkpt><trkpt lat="40.93937542264875" lon="14.667810705860617"><ele>705.0</ele><time>2026-04-18T15:21:59.998Z</time></trkpt><trkpt lat="40.93937030753428" lon="14.667665524851833"><ele>705.0</ele><time>2026-04-18T15:22:00.998Z</time></trkpt><trkpt lat="40.93936648029343" lon="14.667531143468755"><ele>705.0</ele><time>2026-04-18T15:22:01.998Z</time></trkpt><trkpt lat="40.93939143177503" lon="14.667403445980646"><ele>705.0</ele><time>2026-04-18T15:22:02.998Z</time></trkpt><trkpt lat="40.93945882818771" lon="14.667274178507933"><ele>701.5</ele><time>2026-04-18T15:22:03.998Z</time></trkpt><trkpt lat="40.93954586214656" lon="14.667153224910141"><ele>698.0</ele><time>2026-04-18T15:22:04.998Z</time></trkpt><trkpt lat="40.939607796163244" lon="14.667021256059583"><ele>694.5</ele><time>2026-04-18T15:22:05.998Z</time></trkpt><trkpt lat="40.9396468180609" lon="14.666857448430374"><ele>691.0</ele><time>2026-04-18T15:22:06.998Z</time></trkpt><trkpt lat="40.939674451546075" lon="14.666683011709946"><ele>688.0</ele><time>2026-04-18T15:22:07.998Z</time></trkpt><trkpt lat="40.93970180037707" lon="14.666513615874575"><ele>685.0</ele><time>2026-04-18T15:22:08.998Z</time></trkpt><trkpt lat="40.93972879952143" lon="14.666360634389038"><ele>682.0</ele><time>2026-04-18T15:22:09.998Z</time></trkpt><trkpt lat="40.93975311669846" lon="14.666251229268076"><ele>679.0</ele><time>2026-04-18T15:22:10.998Z</time></trkpt><trkpt lat="40.93977070175242" lon="14.666157591743806"><ele>676.0</ele><time>2026-04-18T15:22:11.998Z</time></trkpt><trkpt lat="40.9397596915769" lon="14.666040890615099"><ele>676.0</ele><time>2026-04-18T15:22:14Z</time></trkpt><trkpt lat="40.93964399390833" lon="14.666056472424858"><ele>676.0</ele><time>2026-04-18T15:22:16Z</time></trkpt><trkpt lat="40.93960670854148" lon="14.666130202716348"><ele>676.0</ele><time>2026-04-18T15:22:17Z</time></trkpt><trkpt lat="40.939566583095974" lon="14.666219190231049"><ele>676.0</ele><time>2026-04-18T15:22:18Z</time></trkpt><trkpt lat="40.93948074410478" lon="14.666288330193137"><ele>676.0</ele><time>2026-04-18T15:22:20Z</time></trkpt><trkpt lat="40.939416032749754" lon="14.666138015171303"><ele>673.4</ele><time>2026-04-18T15:22:22Z</time></trkpt><trkpt lat="40.93942320056049" lon="14.666012175208374"><ele>670.8</ele><time>2026-04-18T15:22:23Z</time></trkpt><trkpt lat="40.93945194335261" lon="14.665875774272168"><ele>668.1999999999999</ele><time>2026-04-18T15:22:24Z</time></trkpt><trkpt lat="40.939478280236294" lon="14.66574975504214"><ele>665.5999999999999</ele><time>2026-04-18T15:22:25Z</time></trkpt><trkpt lat="40.939498746128116" lon="14.665621367414891"><ele>663.0</ele><time>2026-04-18T15:22:26Z</time></trkpt><trkpt lat="40.9395189035194" lon="14.665487322242985"><ele>663.0</ele><time>2026-04-18T15:22:27Z</time></trkpt><trkpt lat="40.93954256026062" lon="14.665349999027756"><ele>663.0</ele><time>2026-04-18T15:22:28Z</time></trkpt><trkpt lat="40.939569443488615" lon="14.665208664014944"><ele>663.0</ele><time>2026-04-18T15:22:29Z</time></trkpt><trkpt lat="40.939598682774474" lon="14.665064563295214"><ele>663.0</ele><time>2026-04-18T15:22:30Z</time></trkpt><trkpt lat="40.939634705660296" lon="14.664925550793257"><ele>663.0</ele><time>2026-04-18T15:22:31Z</time></trkpt><trkpt lat="40.939676652922685" lon="14.664779783278718"><ele>659.5</ele><time>2026-04-18T15:22:32Z</time></trkpt><trkpt lat="40.93971718859843" lon="14.664626613352421"><ele>656.0</ele><time>2026-04-18T15:22:33Z</time></trkpt><trkpt lat="40.93975267838102" lon="14.664471260136773"><ele>652.5</ele><time>2026-04-18T15:22:34Z</time></trkpt><trkpt lat="40.93979048725084" lon="14.664315633173242"><ele>649.0</ele><time>2026-04-18T15:22:35Z</time></trkpt><trkpt lat="40.939833107990715" lon="14.664165394588593"><ele>645.5</ele><time>2026-04-18T15:22:36Z</time></trkpt><trkpt lat="40.93987201390352" lon="14.664017306912468"><ele>642.0</ele><time>2026-04-18T15:22:37Z</time></trkpt><trkpt lat="40.93990215548137" lon="14.663856727740749"><ele>638.5</ele><time>2026-04-18T15:22:38Z</time></trkpt><trkpt lat="40.939923429905534" lon="14.66370088000573"><ele>635.0</ele><time>2026-04-18T15:22:39Z</time></trkpt><trkpt lat="40.939953142663846" lon="14.663539920485373"><ele>635.75</ele><time>2026-04-18T15:22:40Z</time></trkpt><trkpt lat="40.939989818698585" lon="14.663399146320502"><ele>636.5</ele><time>2026-04-18T15:22:41Z</time></trkpt><trkpt lat="40.94004642300745" lon="14.663277398027505"><ele>637.25</ele><time>2026-04-18T15:22:42Z</time></trkpt><trkpt lat="40.94010068514717" lon="14.663150482569717"><ele>638.0</ele><time>2026-04-18T15:22:43Z</time></trkpt><trkpt lat="40.94015781714799" lon="14.663005937165138"><ele>638.0</ele><time>2026-04-18T15:22:44Z</time></trkpt><trkpt lat="40.940214827259766" lon="14.662855323307094"><ele>638.0</ele><time>2026-04-18T15:22:45Z</time></trkpt><trkpt lat="40.94026494552599" lon="14.662707478053276"><ele>638.0</ele><time>2026-04-18T15:22:46Z</time></trkpt><trkpt lat="40.94031099594428" lon="14.662553269717398"><ele>638.0</ele><time>2026-04-18T15:22:47Z</time></trkpt><trkpt lat="40.940352393650265" lon="14.662399577231362"><ele>633.5</ele><time>2026-04-18T15:22:48Z</time></trkpt><trkpt lat="40.94038511969264" lon="14.662234272066087"><ele>629.0</ele><time>2026-04-18T15:22:49Z</time></trkpt><trkpt lat="40.94041959449091" lon="14.662064342990947"><ele>624.5</ele><time>2026-04-18T15:22:50Z</time></trkpt><trkpt lat="40.94045823544682" lon="14.661889046714506"><ele>620.0</ele><time>2026-04-18T15:22:51Z</time></trkpt><trkpt lat="40.94050637578129" lon="14.661719916850373"><ele>616.0</ele><time>2026-04-18T15:22:52Z</time></trkpt><trkpt lat="40.940559325136675" lon="14.66153905727462"><ele>612.0</ele><time>2026-04-18T15:22:52.999Z</time></trkpt><trkpt lat="40.94061886938528" lon="14.66137434364746"><ele>608.0</ele><time>2026-04-18T15:22:53.999Z</time></trkpt><trkpt lat="40.94068822940644" lon="14.6611903296716"><ele>604.0</ele><time>2026-04-18T15:22:54.999Z</time></trkpt><trkpt lat="40.94076603655965" lon="14.661012615443264"><ele>604.0</ele><time>2026-04-18T15:22:55.999Z</time></trkpt><trkpt lat="40.94084789133185" lon="14.66085089368764"><ele>604.0</ele><time>2026-04-18T15:22:56.999Z</time></trkpt><trkpt lat="40.94092392937584" lon="14.660707006349545"><ele>604.0</ele><time>2026-04-18T15:22:57.999Z</time></trkpt><trkpt lat="40.94098213785722" lon="14.660553197344639"><ele>604.0</ele><time>2026-04-18T15:22:58.999Z</time></trkpt><trkpt lat="40.94102805269597" lon="14.660382878139387"><ele>600.5</ele><time>2026-04-18T15:22:59.999Z</time></trkpt><trkpt lat="40.941070830670455" lon="14.660186621256644"><ele>597.0</ele><time>2026-04-18T15:23:00.999Z</time></trkpt><trkpt lat="40.94111049006184" lon="14.659981607105943"><ele>593.5</ele><time>2026-04-18T15:23:01.999Z</time></trkpt><trkpt lat="40.941156257379845" lon="14.659820579595191"><ele>590.0</ele><time>2026-04-18T15:23:02.999Z</time></trkpt><trkpt lat="40.94119820543951" lon="14.659687638334628"><ele>590.0</ele><time>2026-04-18T15:23:03.999Z</time></trkpt><trkpt lat="40.9412280903152" lon="14.659557796865482"><ele>590.0</ele><time>2026-04-18T15:23:04.999Z</time></trkpt><trkpt lat="40.94126283853295" lon="14.659418731473474"><ele>590.0</ele><time>2026-04-18T15:23:05.999Z</time></trkpt><trkpt lat="40.941319209553725" lon="14.659289609523018"><ele>590.0</ele><time>2026-04-18T15:23:06.999Z</time></trkpt><trkpt lat="40.941395372053684" lon="14.659172951904237"><ele>590.0</ele><time>2026-04-18T15:23:07.999Z</time></trkpt><trkpt lat="40.94149238565637" lon="14.659074157236907"><ele>587.25</ele><time>2026-04-18T15:23:08.999Z</time></trkpt><trkpt lat="40.941591562032016" lon="14.658975883779677"><ele>584.5</ele><time>2026-04-18T15:23:09.999Z</time></trkpt><trkpt lat="40.94168457398705" lon="14.658891754526794"><ele>581.75</ele><time>2026-04-18T15:23:10.999Z</time></trkpt><trkpt lat="40.94176936070574" lon="14.65879589103832"><ele>579.0</ele><time>2026-04-18T15:23:11.999Z</time></trkpt><trkpt lat="40.941850019282604" lon="14.658688796407308"><ele>574.6</ele><time>2026-04-18T15:23:12.999Z</time></trkpt><trkpt lat="40.94192422689204" lon="14.6585812812056"><ele>570.2</ele><time>2026-04-18T15:23:13.999Z</time></trkpt><trkpt lat="40.941990268038744" lon="14.65846918278849"><ele>565.8000000000001</ele><time>2026-04-18T15:23:14.999Z</time></trkpt><trkpt lat="40.942046651605224" lon="14.65837585133529"><ele>561.4</ele><time>2026-04-18T15:23:15.999Z</time></trkpt><trkpt lat="40.94210040711252" lon="14.658289167828578"><ele>557.0</ele><time>2026-04-18T15:23:16.999Z</time></trkpt><trkpt lat="40.942157438691744" lon="14.658215106681695"><ele>557.0</ele><time>2026-04-18T15:23:17.999Z</time></trkpt><trkpt lat="40.94223129063168" lon="14.658167905106312"><ele>557.0</ele><time>2026-04-18T15:23:18.999Z</time></trkpt><trkpt lat="40.94230980250019" lon="14.658161622060113"><ele>557.0</ele><time>2026-04-18T15:23:19.999Z</time></trkpt><trkpt lat="40.94239387911241" lon="14.658188526423995"><ele>557.0</ele><time>2026-04-18T15:23:20.999Z</time></trkpt><trkpt lat="40.94248271299302" lon="14.658237442682601"><ele>557.0</ele><time>2026-04-18T15:23:21.999Z</time></trkpt><trkpt lat="40.942576701640895" lon="14.658307802856495"><ele>560.4</ele><time>2026-04-18T15:23:22.999Z</time></trkpt><trkpt lat="40.94267436384481" lon="14.65838204643654"><ele>563.8000000000001</ele><time>2026-04-18T15:23:23.999Z</time></trkpt><trkpt lat="40.94274667692204" lon="14.658441327887092"><ele>567.2</ele><time>2026-04-18T15:23:24.999Z</time></trkpt><trkpt lat="40.94280295467042" lon="14.658480808543372"><ele>570.6</ele><time>2026-04-18T15:23:25.999Z</time></trkpt><trkpt lat="40.94289341955961" lon="14.658517077347279"><ele>574.0</ele><time>2026-04-18T15:23:27.999Z</time></trkpt><trkpt lat="40.942957681460825" lon="14.658406572399558"><ele>574.0</ele><time>2026-04-18T15:23:29.999Z</time></trkpt><trkpt lat="40.94293501385994" lon="14.658319884353574"><ele>574.0</ele><time>2026-04-18T15:23:30.999Z</time></trkpt><trkpt lat="40.94287689903714" lon="14.658227728551843"><ele>574.0</ele><time>2026-04-18T15:23:31.999Z</time></trkpt><trkpt lat="40.94283232150734" lon="14.658148864154954"><ele>574.0</ele><time>2026-04-18T15:23:32.999Z</time></trkpt><trkpt lat="40.942801990516216" lon="14.65806509258052"><ele>574.0</ele><time>2026-04-18T15:23:33.999Z</time></trkpt><trkpt lat="40.942762782771204" lon="14.657973100876744"><ele>574.0</ele><time>2026-04-18T15:23:34.999Z</time></trkpt><trkpt lat="40.942735764045615" lon="14.657883592358903"><ele>572.6666666666667</ele><time>2026-04-18T15:23:35.999Z</time></trkpt><trkpt lat="40.94270674884996" lon="14.657777907866462"><ele>571.3333333333334</ele><time>2026-04-18T15:23:36.999Z</time></trkpt><trkpt lat="40.942683106402015" lon="14.657675442183313"><ele>570.0</ele><time>2026-04-18T15:23:37.999Z</time></trkpt><trkpt lat="40.94267446883097" lon="14.657586585302397"><ele>568.6666666666666</ele><time>2026-04-18T15:23:38.999Z</time></trkpt><trkpt lat="40.94267020632086" lon="14.657487169330366"><ele>567.3333333333333</ele><time>2026-04-18T15:23:39.999Z</time></trkpt><trkpt lat="40.94268276271179" lon="14.657388175855152"><ele>566.0</ele><time>2026-04-18T15:23:40.999Z</time></trkpt><trkpt lat="40.94270414795079" lon="14.657300780477101"><ele>566.0</ele><time>2026-04-18T15:23:41.998Z</time></trkpt><trkpt lat="40.94272239673703" lon="14.657211629603735"><ele>566.0</ele><time>2026-04-18T15:23:42.998Z</time></trkpt><trkpt lat="40.942746408766965" lon="14.657119075333593"><ele>566.0</ele><time>2026-04-18T15:23:43.998Z</time></trkpt><trkpt lat="40.942774045390806" lon="14.657031299516522"><ele>566.0</ele><time>2026-04-18T15:23:44.998Z</time></trkpt><trkpt lat="40.94280379223977" lon="14.656952212513453"><ele>566.0</ele><time>2026-04-18T15:23:45.998Z</time></trkpt><trkpt lat="40.94283391786217" lon="14.656873052646535"><ele>566.0</ele><time>2026-04-18T15:23:46.998Z</time></trkpt><trkpt lat="40.94286291820162" lon="14.656786354845675"><ele>566.0</ele><time>2026-04-18T15:23:47.998Z</time></trkpt><trkpt lat="40.94289450145125" lon="14.656689386758954"><ele>563.0</ele><time>2026-04-18T15:23:48.998Z</time></trkpt><trkpt lat="40.94294458580288" lon="14.656606686493111"><ele>560.0</ele><time>2026-04-18T15:23:49.998Z</time></trkpt><trkpt lat="40.942997918586535" lon="14.656513414599775"><ele>557.0</ele><time>2026-04-18T15:23:50.998Z</time></trkpt><trkpt lat="40.94304007916369" lon="14.656395873612615"><ele>554.0</ele><time>2026-04-18T15:23:51.998Z</time></trkpt><trkpt lat="40.943096618781915" lon="14.656284081619285"><ele>551.0</ele><time>2026-04-18T15:23:52.998Z</time></trkpt><trkpt lat="40.94314792408544" lon="14.656168587187492"><ele>552.4</ele><time>2026-04-18T15:23:53.998Z</time></trkpt><trkpt lat="40.94319456091566" lon="14.65604722265398"><ele>553.8</ele><time>2026-04-18T15:23:54.998Z</time></trkpt><trkpt lat="40.94324654441611" lon="14.655920439516184"><ele>555.1999999999999</ele><time>2026-04-18T15:23:55.998Z</time></trkpt><trkpt lat="40.94329929939471" lon="14.655803662644589"><ele>556.6</ele><time>2026-04-18T15:23:56.998Z</time></trkpt><trkpt lat="40.94335114113613" lon="14.655701337228999"><ele>558.0</ele><time>2026-04-18T15:23:57.998Z</time></trkpt><trkpt lat="40.94339059678773" lon="14.655591463955854"><ele>558.0</ele><time>2026-04-18T15:23:58.998Z</time></trkpt><trkpt lat="40.94340520362575" lon="14.655465427342453"><ele>558.0</ele><time>2026-04-18T15:23:59.998Z</time></trkpt><trkpt lat="40.94339397788607" lon="14.655332747781951"><ele>558.0</ele><time>2026-04-18T15:24:00.998Z</time></trkpt><trkpt lat="40.94338886096608" lon="14.65521023789097"><ele>558.0</ele><time>2026-04-18T15:24:01.998Z</time></trkpt><trkpt lat="40.94341381251941" lon="14.655082168110235"><ele>558.0</ele><time>2026-04-18T15:24:02.998Z</time></trkpt><trkpt lat="40.943439476274236" lon="14.654960922467891"><ele>555.8</ele><time>2026-04-18T15:24:03.998Z</time></trkpt><trkpt lat="40.94348125283152" lon="14.654845266007642"><ele>553.5999999999999</ele><time>2026-04-18T15:24:04.998Z</time></trkpt><trkpt lat="40.94352068246725" lon="14.654715057696318"><ele>551.4000000000001</ele><time>2026-04-18T15:24:05.998Z</time></trkpt><trkpt lat="40.9435625703641" lon="14.654568751013217"><ele>549.2</ele><time>2026-04-18T15:24:06.998Z</time></trkpt><trkpt lat="40.94360081120866" lon="14.6544187836868"><ele>547.0</ele><time>2026-04-18T15:24:07.998Z</time></trkpt><trkpt lat="40.94363812967039" lon="14.654268870755612"><ele>543.5</ele><time>2026-04-18T15:24:08.998Z</time></trkpt><trkpt lat="40.94367424908736" lon="14.65411460127127"><ele>540.0</ele><time>2026-04-18T15:24:09.998Z</time></trkpt><trkpt lat="40.94370766086041" lon="14.653959851462414"><ele>536.5</ele><time>2026-04-18T15:24:10.998Z</time></trkpt><trkpt lat="40.94374154597282" lon="14.653806544901963"><ele>533.0</ele><time>2026-04-18T15:24:11.998Z</time></trkpt><trkpt lat="40.9437803252516" lon="14.653644495604665"><ele>529.25</ele><time>2026-04-18T15:24:12.998Z</time></trkpt><trkpt lat="40.94381468996866" lon="14.653484565841332"><ele>525.5</ele><time>2026-04-18T15:24:13.998Z</time></trkpt><trkpt lat="40.94384189021436" lon="14.653316679430873"><ele>521.75</ele><time>2026-04-18T15:24:14.998Z</time></trkpt><trkpt lat="40.943870757446774" lon="14.653157179373803"><ele>518.0</ele><time>2026-04-18T15:24:15.998Z</time></trkpt><trkpt lat="40.94390159234342" lon="14.652987680662985"><ele>518.0</ele><time>2026-04-18T15:24:16.998Z</time></trkpt><trkpt lat="40.943938924852574" lon="14.652828073085884"><ele>518.0</ele><time>2026-04-18T15:24:17.998Z</time></trkpt><trkpt lat="40.94398119434921" lon="14.652663449699356"><ele>518.0</ele><time>2026-04-18T15:24:18.998Z</time></trkpt><trkpt lat="40.94402787347596" lon="14.652501069980461"><ele>518.0</ele><time>2026-04-18T15:24:20Z</time></trkpt><trkpt lat="40.9440697519831" lon="14.65234607894049"><ele>515.0</ele><time>2026-04-18T15:24:21Z</time></trkpt><trkpt lat="40.94411324849696" lon="14.652210070807966"><ele>511.99999999999994</ele><time>2026-04-18T15:24:22Z</time></trkpt><trkpt lat="40.94416036090562" lon="14.65208970251252"><ele>508.99999999999994</ele><time>2026-04-18T15:24:23Z</time></trkpt><trkpt lat="40.944210468184224" lon="14.651971075764507"><ele>506.0</ele><time>2026-04-18T15:24:24Z</time></trkpt><trkpt lat="40.944262595510416" lon="14.651842915657335"><ele>503.0</ele><time>2026-04-18T15:24:25Z</time></trkpt><trkpt lat="40.94432062087271" lon="14.651707094041246"><ele>503.0</ele><time>2026-04-18T15:24:26Z</time></trkpt><trkpt lat="40.94436335086689" lon="14.6515815474478"><ele>502.99999999999994</ele><time>2026-04-18T15:24:27Z</time></trkpt><trkpt lat="40.94440014973027" lon="14.651470568376391"><ele>502.99999999999994</ele><time>2026-04-18T15:24:28Z</time></trkpt><trkpt lat="40.94443950227136" lon="14.651341627007433"><ele>503.0</ele><time>2026-04-18T15:24:29Z</time></trkpt><trkpt lat="40.94448053135585" lon="14.651206948870284"><ele>503.0</ele><time>2026-04-18T15:24:30Z</time></trkpt><trkpt lat="40.94451768600603" lon="14.651105640408105"><ele>499.0</ele><time>2026-04-18T15:24:31Z</time></trkpt><trkpt lat="40.94454901534699" lon="14.651019569399839"><ele>494.99999999999994</ele><time>2026-04-18T15:24:32Z</time></trkpt><trkpt lat="40.94459529969076" lon="14.650897824939912"><ele>490.99999999999994</ele><time>2026-04-18T15:24:34Z</time></trkpt><trkpt lat="40.94456449603359" lon="14.650805671007047"><ele>487.0</ele><time>2026-04-18T15:24:36Z</time></trkpt><trkpt lat="40.94447380894657" lon="14.650803656687957"><ele>483.0</ele><time>2026-04-18T15:24:38Z</time></trkpt><trkpt lat="40.94437973996722" lon="14.650882248694103"><ele>483.0</ele><time>2026-04-18T15:24:40Z</time></trkpt><trkpt lat="40.94428232757603" lon="14.650958493217976"><ele>482.99999999999994</ele><time>2026-04-18T15:24:42Z</time></trkpt><trkpt lat="40.94421495519434" lon="14.650999563884291"><ele>482.99999999999994</ele><time>2026-04-18T15:24:44Z</time></trkpt><trkpt lat="40.94415899095133" lon="14.650878506607661"><ele>483.0</ele><time>2026-04-18T15:24:46Z</time></trkpt><trkpt lat="40.944188678062744" lon="14.650772866897796"><ele>483.0</ele><time>2026-04-18T15:24:47Z</time></trkpt><trkpt lat="40.944229745914235" lon="14.650657948134018"><ele>483.0</ele><time>2026-04-18T15:24:48Z</time></trkpt><trkpt lat="40.94427385985335" lon="14.650535757328123"><ele>482.99999999999994</ele><time>2026-04-18T15:24:49Z</time></trkpt><trkpt lat="40.94431032224192" lon="14.65041148070318"><ele>482.99999999999994</ele><time>2026-04-18T15:24:50Z</time></trkpt><trkpt lat="40.94434952729258" lon="14.650285658259177"><ele>483.0</ele><time>2026-04-18T15:24:51Z</time></trkpt><trkpt lat="40.944390961825114" lon="14.650163383725548"><ele>483.0</ele><time>2026-04-18T15:24:52Z</time></trkpt><trkpt lat="40.944438697119566" lon="14.65003971987302"><ele>479.4</ele><time>2026-04-18T15:24:53Z</time></trkpt><trkpt lat="40.944488938516834" lon="14.649915098419045"><ele>475.79999999999995</ele><time>2026-04-18T15:24:54Z</time></trkpt><trkpt lat="40.944545791420715" lon="14.649800070992006"><ele>472.2</ele><time>2026-04-18T15:24:54.999Z</time></trkpt><trkpt lat="40.94460454168587" lon="14.649692061938099"><ele>468.6</ele><time>2026-04-18T15:24:55.999Z</time></trkpt><trkpt lat="40.94466493726978" lon="14.649611465368077"><ele>465.0</ele><time>2026-04-18T15:24:56.999Z</time></trkpt><trkpt lat="40.94472692395124" lon="14.64953409876553"><ele>464.3333333333333</ele><time>2026-04-18T15:24:57.999Z</time></trkpt><trkpt lat="40.9447867860205" lon="14.64945804848986"><ele>463.66666666666663</ele><time>2026-04-18T15:24:58.999Z</time></trkpt><trkpt lat="40.94484555628213" lon="14.649378924236874"><ele>463.0</ele><time>2026-04-18T15:24:59.999Z</time></trkpt><trkpt lat="40.944901701318884" lon="14.649293021281245"><ele>462.3333333333333</ele><time>2026-04-18T15:25:00.999Z</time></trkpt><trkpt lat="40.944952162037524" lon="14.649206022250354"><ele>461.66666666666663</ele><time>2026-04-18T15:25:01.999Z</time></trkpt><trkpt lat="40.94500340474405" lon="14.649115719478504"><ele>461.0</ele><time>2026-04-18T15:25:02.999Z</time></trkpt><trkpt lat="40.945055808120934" lon="14.649017738554647"><ele>461.0</ele><time>2026-04-18T15:25:03.999Z</time></trkpt><trkpt lat="40.94511118821886" lon="14.64891936533243"><ele>461.0</ele><time>2026-04-18T15:25:04.999Z</time></trkpt><trkpt lat="40.945152196646326" lon="14.648824194539538"><ele>461.0</ele><time>2026-04-18T15:25:05.999Z</time></trkpt><trkpt lat="40.94518390012474" lon="14.648731057359598"><ele>461.0</ele><time>2026-04-18T15:25:06.999Z</time></trkpt><trkpt lat="40.94524025119905" lon="14.648573656345105"><ele>461.0</ele><time>2026-04-18T15:25:08.999Z</time></trkpt><trkpt lat="40.945279113280776" lon="14.64849052207386"><ele>458.7142857142857</ele><time>2026-04-18T15:25:09.999Z</time></trkpt><trkpt lat="40.9453159579774" lon="14.648414166927774"><ele>456.42857142857144</ele><time>2026-04-18T15:25:10.999Z</time></trkpt><trkpt lat="40.94536271486429" lon="14.648343884305634"><ele>454.14285714285717</ele><time>2026-04-18T15:25:11.999Z</time></trkpt><trkpt lat="40.945410026131285" lon="14.648274840394802"><ele>451.8571428571429</ele><time>2026-04-18T15:25:12.999Z</time></trkpt><trkpt lat="40.94545959206022" lon="14.648212056373515"><ele>449.57142857142856</ele><time>2026-04-18T15:25:13.999Z</time></trkpt><trkpt lat="40.94550884532243" lon="14.648142409339995"><ele>447.28571428571433</ele><time>2026-04-18T15:25:14.999Z</time></trkpt><trkpt lat="40.945556654328534" lon="14.648076966610915"><ele>445.0</ele><time>2026-04-18T15:25:15.999Z</time></trkpt><trkpt lat="40.94560320585866" lon="14.648018179149508"><ele>445.0</ele><time>2026-04-18T15:25:16.999Z</time></trkpt><trkpt lat="40.945689478660924" lon="14.64790252943048"><ele>445.0</ele><time>2026-04-18T15:25:18.999Z</time></trkpt><trkpt lat="40.94577089289776" lon="14.647793556975657"><ele>445.0</ele><time>2026-04-18T15:25:20.999Z</time></trkpt><trkpt lat="40.945816999131" lon="14.647735674734902"><ele>445.0</ele><time>2026-04-18T15:25:21.999Z</time></trkpt><trkpt lat="40.94590315916742" lon="14.647623498514461"><ele>445.0</ele><time>2026-04-18T15:25:23.999Z</time></trkpt><trkpt lat="40.94598988509098" lon="14.647510120710631"><ele>444.0</ele><time>2026-04-18T15:25:25.999Z</time></trkpt><trkpt lat="40.946036776271406" lon="14.647453290537536"><ele>443.0</ele><time>2026-04-18T15:25:26.999Z</time></trkpt><trkpt lat="40.946103214580404" lon="14.64732983350308"><ele>442.0</ele><time>2026-04-18T15:25:28.999Z</time></trkpt><trkpt lat="40.94609876017401" lon="14.647222835691776"><ele>441.0</ele><time>2026-04-18T15:25:30.999Z</time></trkpt><trkpt lat="40.946016391998484" lon="14.647146755429624"><ele>440.0</ele><time>2026-04-18T15:25:32.999Z</time></trkpt><trkpt lat="40.94590424069232" lon="14.647109781481392"><ele>437.99999999999994</ele><time>2026-04-18T15:25:34.999Z</time></trkpt><trkpt lat="40.94583836215175" lon="14.647091984144058"><ele>436.0</ele><time>2026-04-18T15:25:35.999Z</time></trkpt><trkpt lat="40.945763922367036" lon="14.647074943637998"><ele>434.0</ele><time>2026-04-18T15:25:36.999Z</time></trkpt><trkpt lat="40.945685467053984" lon="14.64706134763172"><ele>432.0</ele><time>2026-04-18T15:25:37.999Z</time></trkpt><trkpt lat="40.94560440474394" lon="14.647050251432981"><ele>429.99999999999994</ele><time>2026-04-18T15:25:38.999Z</time></trkpt><trkpt lat="40.94552370629864" lon="14.647039224150188"><ele>428.0</ele><time>2026-04-18T15:25:39.999Z</time></trkpt><trkpt lat="40.94544092479041" lon="14.64702599333484"><ele>428.0</ele><time>2026-04-18T15:25:40.999Z</time></trkpt><trkpt lat="40.945377331631505" lon="14.647016050133814"><ele>427.99999999999994</ele><time>2026-04-18T15:25:41.999Z</time></trkpt><trkpt lat="40.9452815182173" lon="14.64696800158905"><ele>427.99999999999994</ele><time>2026-04-18T15:25:43.998Z</time></trkpt><trkpt lat="40.94529991936076" lon="14.646743556069406"><ele>428.0</ele><time>2026-04-18T15:25:46.998Z</time></trkpt><trkpt lat="40.94534684091002" lon="14.646654749546608"><ele>428.0</ele><time>2026-04-18T15:25:47.998Z</time></trkpt><trkpt lat="40.945398610192896" lon="14.646555804320327"><ele>424.79999999999995</ele><time>2026-04-18T15:25:48.998Z</time></trkpt><trkpt lat="40.94545523197343" lon="14.646445632665813"><ele>421.59999999999997</ele><time>2026-04-18T15:25:49.998Z</time></trkpt><trkpt lat="40.945518402477425" lon="14.646331043681313"><ele>418.4</ele><time>2026-04-18T15:25:50.998Z</time></trkpt><trkpt lat="40.94558164154209" lon="14.646218019655223"><ele>415.20000000000005</ele><time>2026-04-18T15:25:51.998Z</time></trkpt><trkpt lat="40.945647537077924" lon="14.64610160813606"><ele>412.0</ele><time>2026-04-18T15:25:52.998Z</time></trkpt><trkpt lat="40.94571369012567" lon="14.645978628153596"><ele>410.8</ele><time>2026-04-18T15:25:53.998Z</time></trkpt><trkpt lat="40.945773755405156" lon="14.645860546534545"><ele>409.6</ele><time>2026-04-18T15:25:54.998Z</time></trkpt><trkpt lat="40.94584323158561" lon="14.645739360590627"><ele>408.40000000000003</ele><time>2026-04-18T15:25:55.998Z</time></trkpt><trkpt lat="40.94590594338933" lon="14.645620306767455"><ele>407.20000000000005</ele><time>2026-04-18T15:25:56.998Z</time></trkpt><trkpt lat="40.94597231905678" lon="14.645511626469416"><ele>406.0</ele><time>2026-04-18T15:25:57.998Z</time></trkpt><trkpt lat="40.946033276323746" lon="14.645402665974997"><ele>406.0</ele><time>2026-04-18T15:25:58.998Z</time></trkpt><trkpt lat="40.94609554839329" lon="14.64530384465666"><ele>406.0</ele><time>2026-04-18T15:25:59.998Z</time></trkpt><trkpt lat="40.946155585843805" lon="14.645223348227084"><ele>406.0</ele><time>2026-04-18T15:26:00.998Z</time></trkpt><trkpt lat="40.94622144574638" lon="14.645130606541034"><ele>406.0</ele><time>2026-04-18T15:26:01.998Z</time></trkpt><trkpt lat="40.94624703962602" lon="14.645017280410944"><ele>406.0</ele><time>2026-04-18T15:26:02.998Z</time></trkpt><trkpt lat="40.94628046833613" lon="14.64487087596271"><ele>402.75</ele><time>2026-04-18T15:26:03.998Z</time></trkpt><trkpt lat="40.94630408904571" lon="14.644733771411744"><ele>399.5</ele><time>2026-04-18T15:26:04.998Z</time></trkpt><trkpt lat="40.94631317654981" lon="14.644580908687159"><ele>396.25</ele><time>2026-04-18T15:26:05.998Z</time></trkpt><trkpt lat="40.94629884233964" lon="14.644409248179155"><ele>393.0</ele><time>2026-04-18T15:26:06.998Z</time></trkpt><trkpt lat="40.94630236835698" lon="14.644261444068519"><ele>390.59999999999997</ele><time>2026-04-18T15:26:07.998Z</time></trkpt><trkpt lat="40.94629504472487" lon="14.644104677917193"><ele>388.2</ele><time>2026-04-18T15:26:08.998Z</time></trkpt><trkpt lat="40.946283272029326" lon="14.643962628255485"><ele>385.8</ele><time>2026-04-18T15:26:09.998Z</time></trkpt><trkpt lat="40.946277118227904" lon="14.643829736675896"><ele>383.4</ele><time>2026-04-18T15:26:10.998Z</time></trkpt><trkpt lat="40.94626653027745" lon="14.643690253229718"><ele>381.0</ele><time>2026-04-18T15:26:11.998Z</time></trkpt><trkpt lat="40.94625433738095" lon="14.643546286792038"><ele>378.6</ele><time>2026-04-18T15:26:12.998Z</time></trkpt><trkpt lat="40.946243112747354" lon="14.643407833960264"><ele>376.20000000000005</ele><time>2026-04-18T15:26:13.998Z</time></trkpt><trkpt lat="40.946234343748934" lon="14.64327847406502"><ele>373.79999999999995</ele><time>2026-04-18T15:26:14.998Z</time></trkpt><trkpt lat="40.94624008594993" lon="14.643190033302231"><ele>371.4</ele><time>2026-04-18T15:26:15.998Z</time></trkpt><trkpt lat="40.94625823153368" lon="14.64304161670518"><ele>369.0</ele><time>2026-04-18T15:26:17.998Z</time></trkpt><trkpt lat="40.946236350475175" lon="14.64294822165309"><ele>369.0</ele><time>2026-04-18T15:26:19.998Z</time></trkpt><trkpt lat="40.94609141128016" lon="14.642932122637136"><ele>369.0</ele><time>2026-04-18T15:26:20.998Z</time></trkpt><trkpt lat="40.94600656897154" lon="14.642938867706503"><ele>369.0</ele><time>2026-04-18T15:26:21.998Z</time></trkpt><trkpt lat="40.945943471648455" lon="14.642931087988842"><ele>369.0</ele><time>2026-04-18T15:26:22.998Z</time></trkpt><trkpt lat="40.94585152733328" lon="14.642849780386385"><ele>369.0</ele><time>2026-04-18T15:26:24.998Z</time></trkpt><trkpt lat="40.94581393230622" lon="14.642754364674682"><ele>364.2</ele><time>2026-04-18T15:26:27Z</time></trkpt><trkpt lat="40.945790874929784" lon="14.642651805911363"><ele>359.4</ele><time>2026-04-18T15:26:29Z</time></trkpt><trkpt lat="40.94587642832536" lon="14.642523052215266"><ele>354.6</ele><time>2026-04-18T15:26:31Z</time></trkpt><trkpt lat="40.945963140277506" lon="14.642472515641623"><ele>349.8</ele><time>2026-04-18T15:26:32Z</time></trkpt><trkpt lat="40.946092249789146" lon="14.642484919529434"><ele>345.0</ele><time>2026-04-18T15:26:33Z</time></trkpt><trkpt lat="40.9462237320257" lon="14.64246905476172"><ele>344.75</ele><time>2026-04-18T15:26:34Z</time></trkpt><trkpt lat="40.94636449012258" lon="14.642454321201404"><ele>344.5</ele><time>2026-04-18T15:26:35Z</time></trkpt><trkpt lat="40.94651046770774" lon="14.642441359869236"><ele>344.25</ele><time>2026-04-18T15:26:36Z</time></trkpt><trkpt lat="40.94665966461838" lon="14.64242807775222"><ele>344.0</ele><time>2026-04-18T15:26:37Z</time></trkpt><trkpt lat="40.946803422920745" lon="14.642418657575114"><ele>342.5</ele><time>2026-04-18T15:26:38Z</time></trkpt><trkpt lat="40.946949800315465" lon="14.642411053109162"><ele>341.0</ele><time>2026-04-18T15:26:39Z</time></trkpt><trkpt lat="40.947096411567095" lon="14.642399226821027"><ele>339.5</ele><time>2026-04-18T15:26:40Z</time></trkpt><trkpt lat="40.94722377934393" lon="14.64236664841393"><ele>338.0</ele><time>2026-04-18T15:26:41Z</time></trkpt><trkpt lat="40.94733380176326" lon="14.642378437881177"><ele>338.0</ele><time>2026-04-18T15:26:42Z</time></trkpt><trkpt lat="40.94743612244237" lon="14.642347672947807"><ele>338.0</ele><time>2026-04-18T15:26:43Z</time></trkpt><trkpt lat="40.947549395935575" lon="14.642361253072465"><ele>338.0</ele><time>2026-04-18T15:26:44Z</time></trkpt><trkpt lat="40.947660401894" lon="14.642353791553154"><ele>338.0</ele><time>2026-04-18T15:26:45Z</time></trkpt><trkpt lat="40.9477676227727" lon="14.64234655925052"><ele>338.0</ele><time>2026-04-18T15:26:46Z</time></trkpt><trkpt lat="40.94785659087214" lon="14.642340642746673"><ele>337.4</ele><time>2026-04-18T15:26:47Z</time></trkpt><trkpt lat="40.947957099868695" lon="14.642326375164933"><ele>336.79999999999995</ele><time>2026-04-18T15:26:48Z</time></trkpt><trkpt lat="40.9480670845931" lon="14.642310989928124"><ele>336.2</ele><time>2026-04-18T15:26:49Z</time></trkpt><trkpt lat="40.948178193348916" lon="14.64230804803604"><ele>335.6</ele><time>2026-04-18T15:26:50Z</time></trkpt><trkpt lat="40.948274267947646" lon="14.642298650387094"><ele>335.0</ele><time>2026-04-18T15:26:51Z</time></trkpt><trkpt lat="40.94837090880555" lon="14.642303361399872"><ele>334.8</ele><time>2026-04-18T15:26:52Z</time></trkpt><trkpt lat="40.948466605308084" lon="14.642271063447854"><ele>334.6</ele><time>2026-04-18T15:26:53Z</time></trkpt><trkpt lat="40.94857163195426" lon="14.642249086727084"><ele>334.4</ele><time>2026-04-18T15:26:54Z</time></trkpt><trkpt lat="40.94867582907832" lon="14.642247665512368"><ele>334.2</ele><time>2026-04-18T15:26:55Z</time></trkpt><trkpt lat="40.948778340165276" lon="14.642225307004992"><ele>334.0</ele><time>2026-04-18T15:26:55.999Z</time></trkpt><trkpt lat="40.94888025683894" lon="14.642205119558433"><ele>334.0</ele><time>2026-04-18T15:26:56.999Z</time></trkpt><trkpt lat="40.94896760017644" lon="14.642204133541751"><ele>334.0</ele><time>2026-04-18T15:26:57.999Z</time></trkpt><trkpt lat="40.949046641216405" lon="14.642202106250002"><ele>334.0</ele><time>2026-04-18T15:26:58.999Z</time></trkpt><trkpt lat="40.949121153424294" lon="14.64219604460813"><ele>334.0</ele><time>2026-04-18T15:26:59.999Z</time></trkpt><trkpt lat="40.94919454485881" lon="14.642171994287981"><ele>334.0</ele><time>2026-04-18T15:27:00.999Z</time></trkpt><trkpt lat="40.949257031137165" lon="14.642101578266798"><ele>334.0</ele><time>2026-04-18T15:27:01.999Z</time></trkpt><trkpt lat="40.94932171082512" lon="14.64202506687961"><ele>330.8</ele><time>2026-04-18T15:27:02.999Z</time></trkpt><trkpt lat="40.9493985376687" lon="14.641956162102899"><ele>327.59999999999997</ele><time>2026-04-18T15:27:03.999Z</time></trkpt><trkpt lat="40.94945297467915" lon="14.641858266057994"><ele>324.4</ele><time>2026-04-18T15:27:04.999Z</time></trkpt><trkpt lat="40.94950936438718" lon="14.641735315337149"><ele>321.2</ele><time>2026-04-18T15:27:05.999Z</time></trkpt><trkpt lat="40.94954178142247" lon="14.641585438294973"><ele>318.0</ele><time>2026-04-18T15:27:06.999Z</time></trkpt><trkpt lat="40.949580452155416" lon="14.641464192742147"><ele>318.0</ele><time>2026-04-18T15:27:07.999Z</time></trkpt><trkpt lat="40.949618567326304" lon="14.641332194814344"><ele>318.0</ele><time>2026-04-18T15:27:08.999Z</time></trkpt><trkpt lat="40.94964969827302" lon="14.641213874548724"><ele>318.0</ele><time>2026-04-18T15:27:09.999Z</time></trkpt><trkpt lat="40.949674713690015" lon="14.641082324145364"><ele>318.0</ele><time>2026-04-18T15:27:10.999Z</time></trkpt><trkpt lat="40.94971267272578" lon="14.640947950041715"><ele>318.0</ele><time>2026-04-18T15:27:11.999Z</time></trkpt><trkpt lat="40.94976119024931" lon="14.640824539554085"><ele>316.8333333333333</ele><time>2026-04-18T15:27:12.999Z</time></trkpt><trkpt lat="40.94978956935636" lon="14.640736690691655"><ele>315.6666666666667</ele><time>2026-04-18T15:27:13.999Z</time></trkpt><trkpt lat="40.94981928300983" lon="14.640657110462632"><ele>314.5</ele><time>2026-04-18T15:27:14.999Z</time></trkpt><trkpt lat="40.94986761682957" lon="14.640531307607063"><ele>313.33333333333337</ele><time>2026-04-18T15:27:16.999Z</time></trkpt><trkpt lat="40.94992119232586" lon="14.640401759330778"><ele>312.1666666666667</ele><time>2026-04-18T15:27:18.999Z</time></trkpt><trkpt lat="40.94997674324828" lon="14.6403362581236"><ele>311.0</ele><time>2026-04-18T15:27:19.999Z</time></trkpt><trkpt lat="40.95001934024844" lon="14.640238167420604"><ele>311.33333333333337</ele><time>2026-04-18T15:27:20.999Z</time></trkpt><trkpt lat="40.950046786671265" lon="14.640130815580866"><ele>311.6666666666667</ele><time>2026-04-18T15:27:21.999Z</time></trkpt><trkpt lat="40.950086300608774" lon="14.640032685456926"><ele>312.0</ele><time>2026-04-18T15:27:22.999Z</time></trkpt><trkpt lat="40.950128189826124" lon="14.639926168240903"><ele>312.3333333333333</ele><time>2026-04-18T15:27:23.999Z</time></trkpt><trkpt lat="40.95016881446334" lon="14.639818040524313"><ele>312.66666666666663</ele><time>2026-04-18T15:27:24.999Z</time></trkpt><trkpt lat="40.95022432637361" lon="14.639725718893724"><ele>313.0</ele><time>2026-04-18T15:27:25.999Z</time></trkpt><trkpt lat="40.95027543339007" lon="14.639619503467834"><ele>313.0</ele><time>2026-04-18T15:27:26.999Z</time></trkpt><trkpt lat="40.950323134295665" lon="14.639512592591519"><ele>313.0</ele><time>2026-04-18T15:27:27.999Z</time></trkpt><trkpt lat="40.95040972068521" lon="14.639430108394842"><ele>313.0</ele><time>2026-04-18T15:27:28.999Z</time></trkpt><trkpt lat="40.95051386044364" lon="14.639377592854164"><ele>313.0</ele><time>2026-04-18T15:27:29.999Z</time></trkpt><trkpt lat="40.95061049768745" lon="14.63928394326438"><ele>313.0</ele><time>2026-04-18T15:27:30.999Z</time></trkpt><trkpt lat="40.95071125169953" lon="14.63920354734945"><ele>312.6</ele><time>2026-04-18T15:27:31.999Z</time></trkpt><trkpt lat="40.95080160592834" lon="14.639121345413617"><ele>312.20000000000005</ele><time>2026-04-18T15:27:32.999Z</time></trkpt><trkpt lat="40.95089446545497" lon="14.639027515331977"><ele>311.8</ele><time>2026-04-18T15:27:33.999Z</time></trkpt><trkpt lat="40.950978482232856" lon="14.63894067266562"><ele>311.40000000000003</ele><time>2026-04-18T15:27:34.999Z</time></trkpt><trkpt lat="40.95105799929326" lon="14.638860997468706"><ele>311.0</ele><time>2026-04-18T15:27:35.999Z</time></trkpt><trkpt lat="40.95113727746669" lon="14.6387824558953"><ele>311.0</ele><time>2026-04-18T15:27:36.999Z</time></trkpt><trkpt lat="40.9512340992778" lon="14.638703549596526"><ele>311.0</ele><time>2026-04-18T15:27:37.999Z</time></trkpt><trkpt lat="40.95131961795526" lon="14.6386201431472"><ele>311.0</ele><time>2026-04-18T15:27:38.999Z</time></trkpt><trkpt lat="40.95138742016123" lon="14.638546261225843"><ele>311.0</ele><time>2026-04-18T15:27:39.999Z</time></trkpt><trkpt lat="40.95142475366983" lon="14.638397216255711"><ele>311.0</ele><time>2026-04-18T15:27:41.999Z</time></trkpt><trkpt lat="40.951386764604536" lon="14.638310679693074"><ele>310.6</ele><time>2026-04-18T15:27:42.999Z</time></trkpt><trkpt lat="40.9513256699004" lon="14.63825240638447"><ele>310.20000000000005</ele><time>2026-04-18T15:27:43.999Z</time></trkpt><trkpt lat="40.951233112873574" lon="14.638190768968858"><ele>309.79999999999995</ele><time>2026-04-18T15:27:44.999Z</time></trkpt><trkpt lat="40.95113289738686" lon="14.638144508745196"><ele>309.4</ele><time>2026-04-18T15:27:45.999Z</time></trkpt><trkpt lat="40.951031756542626" lon="14.638124881103339"><ele>309.0</ele><time>2026-04-18T15:27:46.999Z</time></trkpt><trkpt lat="40.95094234845137" lon="14.638095194000517"><ele>308.0</ele><time>2026-04-18T15:27:47.999Z</time></trkpt><trkpt lat="40.95084697740059" lon="14.63806501445946"><ele>307.0</ele><time>2026-04-18T15:27:48.999Z</time></trkpt><trkpt lat="40.95074881265257" lon="14.638034490245767"><ele>306.0</ele><time>2026-04-18T15:27:49.998Z</time></trkpt><trkpt lat="40.95065627320347" lon="14.638008535737555"><ele>305.0</ele><time>2026-04-18T15:27:50.998Z</time></trkpt><trkpt lat="40.95056944632086" lon="14.637967741274766"><ele>304.0</ele><time>2026-04-18T15:27:51.998Z</time></trkpt><trkpt lat="40.950481470791935" lon="14.637950883816318"><ele>304.0</ele><time>2026-04-18T15:27:52.998Z</time></trkpt><trkpt lat="40.95040997434721" lon="14.63789977582105"><ele>304.0</ele><time>2026-04-18T15:27:53.998Z</time></trkpt><trkpt lat="40.95034212046653" lon="14.637865840808319"><ele>304.0</ele><time>2026-04-18T15:27:54.998Z</time></trkpt><trkpt lat="40.95027599271592" lon="14.637828104018226"><ele>304.0</ele><time>2026-04-18T15:27:55.998Z</time></trkpt><trkpt lat="40.95020948403073" lon="14.637809295869276"><ele>304.0</ele><time>2026-04-18T15:27:56.998Z</time></trkpt><trkpt lat="40.95009729183368" lon="14.637731073830706"><ele>304.0</ele><time>2026-04-18T15:27:58.998Z</time></trkpt><trkpt lat="40.94999850358133" lon="14.63767137621979"><ele>302.8333333333333</ele><time>2026-04-18T15:28:00.998Z</time></trkpt><trkpt lat="40.94994114878248" lon="14.637620370764184"><ele>301.66666666666663</ele><time>2026-04-18T15:28:01.998Z</time></trkpt><trkpt lat="40.94987386639581" lon="14.637583223495515"><ele>300.5</ele><time>2026-04-18T15:28:02.998Z</time></trkpt><trkpt lat="40.94980083637935" lon="14.637542035937672"><ele>299.3333333333333</ele><time>2026-04-18T15:28:03.998Z</time></trkpt><trkpt lat="40.949715974674525" lon="14.637511687543125"><ele>298.1666666666667</ele><time>2026-04-18T15:28:04.998Z</time></trkpt><trkpt lat="40.94963772827582" lon="14.63745927825894"><ele>297.0</ele><time>2026-04-18T15:28:05.998Z</time></trkpt><trkpt lat="40.949561124261436" lon="14.637415040335078"><ele>297.0</ele><time>2026-04-18T15:28:06.998Z</time></trkpt><trkpt lat="40.94949824979335" lon="14.63738214660973"><ele>297.0</ele><time>2026-04-18T15:28:07.998Z</time></trkpt><trkpt lat="40.949436681419755" lon="14.637333918765203"><ele>297.0</ele><time>2026-04-18T15:28:08.998Z</time></trkpt><trkpt lat="40.949369917840535" lon="14.63732048815478"><ele>297.0</ele><time>2026-04-18T15:28:09.998Z</time></trkpt><trkpt lat="40.949310840455034" lon="14.637275702784287"><ele>297.0</ele><time>2026-04-18T15:28:10.998Z</time></trkpt><trkpt lat="40.949257594994165" lon="14.637216288154494"><ele>297.0</ele><time>2026-04-18T15:28:11.998Z</time></trkpt><trkpt lat="40.94926377513274" lon="14.637083569574513"><ele>297.0</ele><time>2026-04-18T15:28:13.998Z</time></trkpt><trkpt lat="40.949181977774266" lon="14.636983694794711"><ele>295.8333333333333</ele><time>2026-04-18T15:28:14.998Z</time></trkpt><trkpt lat="40.949143769779766" lon="14.63690924167925"><ele>294.6666666666667</ele><time>2026-04-18T15:28:15.998Z</time></trkpt><trkpt lat="40.94909218488541" lon="14.636830975984633"><ele>293.5</ele><time>2026-04-18T15:28:16.998Z</time></trkpt><trkpt lat="40.9490376494812" lon="14.636750421025285"><ele>292.33333333333337</ele><time>2026-04-18T15:28:17.998Z</time></trkpt><trkpt lat="40.94898118323742" lon="14.63666862007489"><ele>291.1666666666667</ele><time>2026-04-18T15:28:18.998Z</time></trkpt><trkpt lat="40.94892613165962" lon="14.636585349693403"><ele>290.0</ele><time>2026-04-18T15:28:19.998Z</time></trkpt><trkpt lat="40.94886432840913" lon="14.636513999612053"><ele>290.0</ele><time>2026-04-18T15:28:20.998Z</time></trkpt><trkpt lat="40.948800525463845" lon="14.636434363507059"><ele>290.0</ele><time>2026-04-18T15:28:21.998Z</time></trkpt><trkpt lat="40.94873275781436" lon="14.636364252819522"><ele>290.0</ele><time>2026-04-18T15:28:22.998Z</time></trkpt><trkpt lat="40.94866564762911" lon="14.63628294312685"><ele>290.0</ele><time>2026-04-18T15:28:23.998Z</time></trkpt><trkpt lat="40.94861185749061" lon="14.63618939692068"><ele>290.0</ele><time>2026-04-18T15:28:24.998Z</time></trkpt><trkpt lat="40.9485578310874" lon="14.636097929527457"><ele>290.0</ele><time>2026-04-18T15:28:25.998Z</time></trkpt><trkpt lat="40.94850685069321" lon="14.636011654583326"><ele>289.33333333333337</ele><time>2026-04-18T15:28:26.998Z</time></trkpt><trkpt lat="40.94845402257744" lon="14.635934902311579"><ele>288.6666666666667</ele><time>2026-04-18T15:28:27.998Z</time></trkpt><trkpt lat="40.94839765423548" lon="14.635869814942092"><ele>288.0</ele><time>2026-04-18T15:28:28.998Z</time></trkpt><trkpt lat="40.94831282136445" lon="14.635821441222863"><ele>287.3333333333333</ele><time>2026-04-18T15:28:29.998Z</time></trkpt><trkpt lat="40.94821579781646" lon="14.635786312837581"><ele>286.66666666666663</ele><time>2026-04-18T15:28:30.998Z</time></trkpt><trkpt lat="40.94812120344102" lon="14.635758179657692"><ele>286.0</ele><time>2026-04-18T15:28:32Z</time></trkpt><trkpt lat="40.948038743008695" lon="14.635713946933299"><ele>285.2</ele><time>2026-04-18T15:28:33Z</time></trkpt><trkpt lat="40.94797041669252" lon="14.635661244381893"><ele>284.40000000000003</ele><time>2026-04-18T15:28:34Z</time></trkpt><trkpt lat="40.94792293059019" lon="14.63558564614437"><ele>283.6</ele><time>2026-04-18T15:28:35Z</time></trkpt><trkpt lat="40.94787854572759" lon="14.635489810973448"><ele>282.8</ele><time>2026-04-18T15:28:36Z</time></trkpt><trkpt lat="40.94783225913287" lon="14.63536392672135"><ele>282.0</ele><time>2026-04-18T15:28:37Z</time></trkpt><trkpt lat="40.94779294231759" lon="14.635227182939106"><ele>281.5</ele><time>2026-04-18T15:28:38Z</time></trkpt><trkpt lat="40.94775166690213" lon="14.635083204842"><ele>281.0</ele><time>2026-04-18T15:28:39Z</time></trkpt><trkpt lat="40.94771075866473" lon="14.634941207433583"><ele>280.5</ele><time>2026-04-18T15:28:40Z</time></trkpt><trkpt lat="40.94766489727947" lon="14.634804742464903"><ele>280.0</ele><time>2026-04-18T15:28:41Z</time></trkpt><trkpt lat="40.94761456200599" lon="14.634681304387627"><ele>280.0</ele><time>2026-04-18T15:28:42Z</time></trkpt><trkpt lat="40.94755019986454" lon="14.634582823654656"><ele>280.0</ele><time>2026-04-18T15:28:43Z</time></trkpt><trkpt lat="40.947513770093536" lon="14.634503588802941"><ele>280.0</ele><time>2026-04-18T15:28:44Z</time></trkpt><trkpt lat="40.94745364193583" lon="14.634372810142043"><ele>280.0</ele><time>2026-04-18T15:28:46Z</time></trkpt><trkpt lat="40.94735846897722" lon="14.634368840460347"><ele>280.0</ele><time>2026-04-18T15:28:49Z</time></trkpt><trkpt lat="40.94729432058758" lon="14.634431456999708"><ele>279.0</ele><time>2026-04-18T15:28:50Z</time></trkpt><trkpt lat="40.94721839988966" lon="14.634512595428143"><ele>278.0</ele><time>2026-04-18T15:28:51Z</time></trkpt><trkpt lat="40.94712590618178" lon="14.634593771141057"><ele>277.0</ele><time>2026-04-18T15:28:52Z</time></trkpt><trkpt lat="40.94705834073246" lon="14.634678919984259"><ele>276.0</ele><time>2026-04-18T15:28:53Z</time></trkpt><trkpt lat="40.94700496202432" lon="14.634757101268029"><ele>275.0</ele><time>2026-04-18T15:28:54Z</time></trkpt><trkpt lat="40.94694364996642" lon="14.634852578882928"><ele>275.0</ele><time>2026-04-18T15:28:56Z</time></trkpt><trkpt lat="40.94689718966325" lon="14.634966377393269"><ele>275.0</ele><time>2026-04-18T15:28:58Z</time></trkpt><trkpt lat="40.94683145860529" lon="14.635063804173102"><ele>275.0</ele><time>2026-04-18T15:29:00Z</time></trkpt><trkpt lat="40.946785511721856" lon="14.635164712639833"><ele>275.0</ele><time>2026-04-18T15:29:01.999Z</time></trkpt><trkpt lat="40.946728036658556" lon="14.635290939288835"><ele>275.0</ele><time>2026-04-18T15:29:03.999Z</time></trkpt><trkpt lat="40.94669254571259" lon="14.635369580242118"><ele>275.2</ele><time>2026-04-18T15:29:04.999Z</time></trkpt><trkpt lat="40.94664099799786" lon="14.635493784574605"><ele>275.4</ele><time>2026-04-18T15:29:06.999Z</time></trkpt><trkpt lat="40.946608846757535" lon="14.635588280598611"><ele>275.6</ele><time>2026-04-18T15:29:08.999Z</time></trkpt><trkpt lat="40.946458142718456" lon="14.635557914047585"><ele>275.8</ele><time>2026-04-18T15:29:12.999Z</time></trkpt><trkpt lat="40.94639110535177" lon="14.635499279523541"><ele>276.0</ele><time>2026-04-18T15:29:13.999Z</time></trkpt><trkpt lat="40.946318608771264" lon="14.635480945692816"><ele>276.0</ele><time>2026-04-18T15:29:14.999Z</time></trkpt><trkpt lat="40.94624916717715" lon="14.635433963336196"><ele>276.0</ele><time>2026-04-18T15:29:15.999Z</time></trkpt><trkpt lat="40.9461720222762" lon="14.635370865574304"><ele>276.0</ele><time>2026-04-18T15:29:16.999Z</time></trkpt><trkpt lat="40.946091098034024" lon="14.635290604633324"><ele>276.0</ele><time>2026-04-18T15:29:17.999Z</time></trkpt><trkpt lat="40.94602613344157" lon="14.635199804640362"><ele>276.0</ele><time>2026-04-18T15:29:18.999Z</time></trkpt><trkpt lat="40.94594252434656" lon="14.63513068808719"><ele>274.6666666666667</ele><time>2026-04-18T15:29:19.999Z</time></trkpt><trkpt lat="40.9458719508262" lon="14.63505357995552"><ele>273.3333333333333</ele><time>2026-04-18T15:29:20.999Z</time></trkpt><trkpt lat="40.9458144884317" lon="14.634966591776328"><ele>272.0</ele><time>2026-04-18T15:29:21.999Z</time></trkpt><trkpt lat="40.94575788963084" lon="14.634878854388667"><ele>270.66666666666663</ele><time>2026-04-18T15:29:22.999Z</time></trkpt><trkpt lat="40.94569669238909" lon="14.634809929137582"><ele>269.3333333333333</ele><time>2026-04-18T15:29:23.999Z</time></trkpt><trkpt lat="40.94564995582844" lon="14.634713317908698"><ele>268.0</ele><time>2026-04-18T15:29:24.999Z</time></trkpt><trkpt lat="40.94562629737864" lon="14.634610724042433"><ele>268.0</ele><time>2026-04-18T15:29:25.999Z</time></trkpt><trkpt lat="40.94562727161995" lon="14.634515167973358"><ele>268.0</ele><time>2026-04-18T15:29:26.999Z</time></trkpt><trkpt lat="40.94563278515141" lon="14.634421890080397"><ele>268.0</ele><time>2026-04-18T15:29:27.999Z</time></trkpt><trkpt lat="40.94564603277344" lon="14.634336151033335"><ele>268.0</ele><time>2026-04-18T15:29:28.999Z</time></trkpt><trkpt lat="40.94566153634104" lon="14.634249921992309"><ele>268.0</ele><time>2026-04-18T15:29:29.999Z</time></trkpt><trkpt lat="40.9456795043103" lon="14.63414310646411"><ele>268.0</ele><time>2026-04-18T15:29:30.999Z</time></trkpt><trkpt lat="40.945692220278374" lon="14.634035406674466"><ele>268.0</ele><time>2026-04-18T15:29:31.999Z</time></trkpt><trkpt lat="40.94570393814536" lon="14.633922066990523"><ele>267.6</ele><time>2026-04-18T15:29:32.999Z</time></trkpt><trkpt lat="40.945698227764424" lon="14.63382763521335"><ele>267.20000000000005</ele><time>2026-04-18T15:29:33.999Z</time></trkpt><trkpt lat="40.94563586970253" lon="14.633661247286804"><ele>266.8</ele><time>2026-04-18T15:29:35.999Z</time></trkpt><trkpt lat="40.945575432879416" lon="14.633515075821933"><ele>266.40000000000003</ele><time>2026-04-18T15:29:36.999Z</time></trkpt><trkpt lat="40.9455352599061" lon="14.63338328750424"><ele>266.0</ele><time>2026-04-18T15:29:37.999Z</time></trkpt><trkpt lat="40.94549529563302" lon="14.633277372884931"><ele>265.40000000000003</ele><time>2026-04-18T15:29:38.999Z</time></trkpt><trkpt lat="40.94545529906639" lon="14.633189131595861"><ele>264.8</ele><time>2026-04-18T15:29:39.999Z</time></trkpt><trkpt lat="40.94537438681385" lon="14.633046096206314"><ele>264.20000000000005</ele><time>2026-04-18T15:29:41.999Z</time></trkpt><trkpt lat="40.94530986842644" lon="14.63294757467707"><ele>263.6</ele><time>2026-04-18T15:29:42.999Z</time></trkpt><trkpt lat="40.94525047927384" lon="14.63285768526041"><ele>263.0</ele><time>2026-04-18T15:29:43.999Z</time></trkpt><trkpt lat="40.94519423250173" lon="14.632782164996923"><ele>262.5</ele><time>2026-04-18T15:29:44.999Z</time></trkpt><trkpt lat="40.94513482890989" lon="14.632699779970727"><ele>262.0</ele><time>2026-04-18T15:29:45.999Z</time></trkpt><trkpt lat="40.94508096884772" lon="14.632620366421317"><ele>261.5</ele><time>2026-04-18T15:29:46.999Z</time></trkpt><trkpt lat="40.9450313907835" lon="14.632544701525015"><ele>261.0</ele><time>2026-04-18T15:29:47.999Z</time></trkpt><trkpt lat="40.94497788392298" lon="14.632480683940324"><ele>260.5</ele><time>2026-04-18T15:29:48.999Z</time></trkpt><trkpt lat="40.9449184174333" lon="14.632425341960264"><ele>260.0</ele><time>2026-04-18T15:29:49.999Z</time></trkpt><trkpt lat="40.944856315382744" lon="14.63236948780655"><ele>259.42857142857144</ele><time>2026-04-18T15:29:50.999Z</time></trkpt><trkpt lat="40.94479839463055" lon="14.632315027330558"><ele>258.8571428571429</ele><time>2026-04-18T15:29:51.999Z</time></trkpt><trkpt lat="40.94474176563737" lon="14.63226344104209"><ele>258.2857142857143</ele><time>2026-04-18T15:29:52.999Z</time></trkpt><trkpt lat="40.944689124044494" lon="14.632210817411034"><ele>257.7142857142857</ele><time>2026-04-18T15:29:53.999Z</time></trkpt><trkpt lat="40.94463454200131" lon="14.632162686862312"><ele>257.1428571428571</ele><time>2026-04-18T15:29:54.999Z</time></trkpt><trkpt lat="40.9445854668054" lon="14.632100991305233"><ele>256.57142857142856</ele><time>2026-04-18T15:29:55.998Z</time></trkpt><trkpt lat="40.94451564492297" lon="14.632039142574472"><ele>256.0</ele><time>2026-04-18T15:29:57.998Z</time></trkpt><trkpt lat="40.94454889798154" lon="14.631872305773076"><ele>255.8</ele><time>2026-04-18T15:30:00.998Z</time></trkpt><trkpt lat="40.94457558484818" lon="14.63176390666815"><ele>255.60000000000002</ele><time>2026-04-18T15:30:01.998Z</time></trkpt><trkpt lat="40.94460540977079" lon="14.631645314472465"><ele>255.4</ele><time>2026-04-18T15:30:02.998Z</time></trkpt><trkpt lat="40.944638011809744" lon="14.631510616210711"><ele>255.2</ele><time>2026-04-18T15:30:03.998Z</time></trkpt><trkpt lat="40.944674524477094" lon="14.631386378195895"><ele>255.0</ele><time>2026-04-18T15:30:04.998Z</time></trkpt><trkpt lat="40.94470037396946" lon="14.63126437045614"><ele>255.0</ele><time>2026-04-18T15:30:05.998Z</time></trkpt><trkpt lat="40.944734133914444" lon="14.631154579171426"><ele>255.0</ele><time>2026-04-18T15:30:06.998Z</time></trkpt><trkpt lat="40.94475639082342" lon="14.631042923513768"><ele>255.0</ele><time>2026-04-18T15:30:07.998Z</time></trkpt><trkpt lat="40.944775085933394" lon="14.630945769409385"><ele>255.0</ele><time>2026-04-18T15:30:08.998Z</time></trkpt><trkpt lat="40.94479891540894" lon="14.630851907900514"><ele>255.0</ele><time>2026-04-18T15:30:09.998Z</time></trkpt><trkpt lat="40.9448274973103" lon="14.630768124850345"><ele>255.0</ele><time>2026-04-18T15:30:10.998Z</time></trkpt><trkpt lat="40.94485208273135" lon="14.630662659156354"><ele>254.33333333333334</ele><time>2026-04-18T15:30:11.998Z</time></trkpt><trkpt lat="40.94487670482644" lon="14.6305613253925"><ele>253.66666666666669</ele><time>2026-04-18T15:30:12.998Z</time></trkpt><trkpt lat="40.944908203329845" lon="14.630446910628436"><ele>253.0</ele><time>2026-04-18T15:30:13.998Z</time></trkpt><trkpt lat="40.94493915685715" lon="14.630334731690008"><ele>252.33333333333334</ele><time>2026-04-18T15:30:14.998Z</time></trkpt><trkpt lat="40.94497112822652" lon="14.630222141658184"><ele>251.66666666666669</ele><time>2026-04-18T15:30:15.998Z</time></trkpt><trkpt lat="40.94500101693894" lon="14.630111420277471"><ele>251.0</ele><time>2026-04-18T15:30:16.998Z</time></trkpt><trkpt lat="40.945030716993834" lon="14.6300057010964"><ele>250.66666666666669</ele><time>2026-04-18T15:30:17.998Z</time></trkpt><trkpt lat="40.94506009318641" lon="14.629903159877106"><ele>250.33333333333334</ele><time>2026-04-18T15:30:18.998Z</time></trkpt><trkpt lat="40.94508094248513" lon="14.629796462130363"><ele>250.0</ele><time>2026-04-18T15:30:19.998Z</time></trkpt><trkpt lat="40.94510714382337" lon="14.629703235956093"><ele>249.66666666666669</ele><time>2026-04-18T15:30:20.998Z</time></trkpt><trkpt lat="40.94513552774284" lon="14.629611793492044"><ele>249.33333333333334</ele><time>2026-04-18T15:30:21.998Z</time></trkpt><trkpt lat="40.94516279138911" lon="14.629524114403722"><ele>249.0</ele><time>2026-04-18T15:30:22.998Z</time></trkpt><trkpt lat="40.94518695239156" lon="14.629423405106182"><ele>248.5</ele><time>2026-04-18T15:30:23.998Z</time></trkpt><trkpt lat="40.945227280914004" lon="14.629347881087353"><ele>248.0</ele><time>2026-04-18T15:30:24.998Z</time></trkpt><trkpt lat="40.94524955841722" lon="14.629236118583279"><ele>247.5</ele><time>2026-04-18T15:30:25.998Z</time></trkpt><trkpt lat="40.9452755225454" lon="14.62911965004048"><ele>247.0</ele><time>2026-04-18T15:30:26.998Z</time></trkpt><trkpt lat="40.945299499756004" lon="14.629012475025833"><ele>246.5</ele><time>2026-04-18T15:30:27.998Z</time></trkpt><trkpt lat="40.94532917332333" lon="14.628907420827815"><ele>246.0</ele><time>2026-04-18T15:30:28.998Z</time></trkpt><trkpt lat="40.94535410853845" lon="14.628803927124116"><ele>246.0</ele><time>2026-04-18T15:30:29.998Z</time></trkpt><trkpt lat="40.94537856034824" lon="14.62869610640771"><ele>246.0</ele><time>2026-04-18T15:30:30.998Z</time></trkpt><trkpt lat="40.94540708669149" lon="14.628591270128231"><ele>246.0</ele><time>2026-04-18T15:30:31.998Z</time></trkpt><trkpt lat="40.94543191074609" lon="14.628480121607472"><ele>246.0</ele><time>2026-04-18T15:30:32.998Z</time></trkpt><trkpt lat="40.94546075260307" lon="14.628371085731736"><ele>246.0</ele><time>2026-04-18T15:30:33.998Z</time></trkpt><trkpt lat="40.9454945324624" lon="14.628272236269037"><ele>246.0</ele><time>2026-04-18T15:30:34.998Z</time></trkpt><trkpt lat="40.94552509052007" lon="14.62817397802409"><ele>245.20000000000002</ele><time>2026-04-18T15:30:35.998Z</time></trkpt><trkpt lat="40.945554522547745" lon="14.628075922842772"><ele>244.40000000000003</ele><time>2026-04-18T15:30:37Z</time></trkpt><trkpt lat="40.94558463877225" lon="14.62796966191364"><ele>243.6</ele><time>2026-04-18T15:30:38Z</time></trkpt><trkpt lat="40.945615350711186" lon="14.627856952562764"><ele>242.8</ele><time>2026-04-18T15:30:39Z</time></trkpt><trkpt lat="40.94565039633904" lon="14.627731989715839"><ele>242.0</ele><time>2026-04-18T15:30:40Z</time></trkpt><trkpt lat="40.94568811936741" lon="14.627594527201998"><ele>241.25</ele><time>2026-04-18T15:30:41Z</time></trkpt><trkpt lat="40.94572632615496" lon="14.627448188822529"><ele>240.5</ele><time>2026-04-18T15:30:42Z</time></trkpt><trkpt lat="40.945768357005896" lon="14.627295974153474"><ele>239.75</ele><time>2026-04-18T15:30:43Z</time></trkpt><trkpt lat="40.945814055239836" lon="14.627132680703886"><ele>239.0</ele><time>2026-04-18T15:30:44Z</time></trkpt><trkpt lat="40.94585653340453" lon="14.62696449183253"><ele>238.25</ele><time>2026-04-18T15:30:45Z</time></trkpt><trkpt lat="40.94590239253942" lon="14.626797474839869"><ele>237.5</ele><time>2026-04-18T15:30:46Z</time></trkpt><trkpt lat="40.945956197043294" lon="14.6266399448778"><ele>236.75</ele><time>2026-04-18T15:30:47Z</time></trkpt><trkpt lat="40.94602173776843" lon="14.626498023186123"><ele>236.0</ele><time>2026-04-18T15:30:48Z</time></trkpt><trkpt lat="40.94609198825764" lon="14.626363080426385"><ele>236.0</ele><time>2026-04-18T15:30:49Z</time></trkpt><trkpt lat="40.94616146269732" lon="14.626237813968702"><ele>236.0</ele><time>2026-04-18T15:30:50Z</time></trkpt><trkpt lat="40.94622857702611" lon="14.626115423666484"><ele>236.0</ele><time>2026-04-18T15:30:51Z</time></trkpt><trkpt lat="40.946289317452084" lon="14.626003552793145"><ele>236.0</ele><time>2026-04-18T15:30:52Z</time></trkpt><trkpt lat="40.94635517795401" lon="14.625875380027901"><ele>235.0</ele><time>2026-04-18T15:30:53Z</time></trkpt><trkpt lat="40.94642473293698" lon="14.625749399082293"><ele>234.0</ele><time>2026-04-18T15:30:54Z</time></trkpt><trkpt lat="40.94649401505215" lon="14.625620907559414"><ele>233.0</ele><time>2026-04-18T15:30:55Z</time></trkpt><trkpt lat="40.94656414664845" lon="14.625495775428764"><ele>232.0</ele><time>2026-04-18T15:30:56Z</time></trkpt><trkpt lat="40.94663974111788" lon="14.625365695967146"><ele>231.75</ele><time>2026-04-18T15:30:57Z</time></trkpt><trkpt lat="40.946713738181636" lon="14.625227963533911"><ele>231.5</ele><time>2026-04-18T15:30:58Z</time></trkpt><trkpt lat="40.94678929049443" lon="14.62509228548253"><ele>231.25</ele><time>2026-04-18T15:30:59Z</time></trkpt><trkpt lat="40.94686746692461" lon="14.624955116858528"><ele>231.0</ele><time>2026-04-18T15:31:00Z</time></trkpt><trkpt lat="40.94694562076577" lon="14.62482175299878"><ele>231.0</ele><time>2026-04-18T15:31:01Z</time></trkpt><trkpt lat="40.947022620289545" lon="14.624684779851014"><ele>231.0</ele><time>2026-04-18T15:31:02Z</time></trkpt><trkpt lat="40.94709993000417" lon="14.624548668729068"><ele>231.0</ele><time>2026-04-18T15:31:03Z</time></trkpt><trkpt lat="40.947178910249896" lon="14.624412618243193"><ele>231.0</ele><time>2026-04-18T15:31:04Z</time></trkpt><trkpt lat="40.947254756373" lon="14.624273617274365"><ele>230.25</ele><time>2026-04-18T15:31:05Z</time></trkpt><trkpt lat="40.94733074647605" lon="14.624132620558571"><ele>229.5</ele><time>2026-04-18T15:31:06Z</time></trkpt><trkpt lat="40.947406452619916" lon="14.623989609581853"><ele>228.75</ele><time>2026-04-18T15:31:07Z</time></trkpt><trkpt lat="40.94748575861129" lon="14.623850366060497"><ele>228.0</ele><time>2026-04-18T15:31:08Z</time></trkpt><trkpt lat="40.94756284884567" lon="14.62370766736495"><ele>226.25</ele><time>2026-04-18T15:31:08.999Z</time></trkpt><trkpt lat="40.94764030080406" lon="14.623565038103134"><ele>224.5</ele><time>2026-04-18T15:31:09.999Z</time></trkpt><trkpt lat="40.94771615747902" lon="14.623431678915184"><ele>222.75</ele><time>2026-04-18T15:31:10.999Z</time></trkpt><trkpt lat="40.94779057533296" lon="14.623292868638375"><ele>221.0</ele><time>2026-04-18T15:31:11.999Z</time></trkpt><trkpt lat="40.94786351171499" lon="14.623165310264556"><ele>221.0</ele><time>2026-04-18T15:31:12.999Z</time></trkpt><trkpt lat="40.94793399260704" lon="14.623041006834193"><ele>221.0</ele><time>2026-04-18T15:31:13.999Z</time></trkpt><trkpt lat="40.94800158028429" lon="14.622916359430128"><ele>221.0</ele><time>2026-04-18T15:31:14.999Z</time></trkpt><trkpt lat="40.94807129201368" lon="14.622798026280792"><ele>221.0</ele><time>2026-04-18T15:31:15.999Z</time></trkpt><trkpt lat="40.948140308343454" lon="14.62268725647475"><ele>220.60000000000002</ele><time>2026-04-18T15:31:16.999Z</time></trkpt><trkpt lat="40.94821021946057" lon="14.622581852249148"><ele>220.20000000000002</ele><time>2026-04-18T15:31:17.999Z</time></trkpt><trkpt lat="40.94827939908914" lon="14.622481896822185"><ele>219.79999999999998</ele><time>2026-04-18T15:31:18.999Z</time></trkpt><trkpt lat="40.94834796879376" lon="14.62238451748601"><ele>219.39999999999998</ele><time>2026-04-18T15:31:19.999Z</time></trkpt><trkpt lat="40.94841524658111" lon="14.622297353072893"><ele>219.0</ele><time>2026-04-18T15:31:20.999Z</time></trkpt><trkpt lat="40.94848056982513" lon="14.62221881201854"><ele>219.0</ele><time>2026-04-18T15:31:21.999Z</time></trkpt><trkpt lat="40.9485398942377" lon="14.622146273122246"><ele>218.99999999999997</ele><time>2026-04-18T15:31:22.999Z</time></trkpt><trkpt lat="40.94858563936105" lon="14.622063712876317"><ele>218.99999999999997</ele><time>2026-04-18T15:31:23.999Z</time></trkpt><trkpt lat="40.94860352162775" lon="14.621960492391198"><ele>219.0</ele><time>2026-04-18T15:31:24.999Z</time></trkpt><trkpt lat="40.94861300366908" lon="14.621809366695885"><ele>219.0</ele><time>2026-04-18T15:31:25.999Z</time></trkpt><trkpt lat="40.948613487627924" lon="14.621640911043093"><ele>218.39999999999998</ele><time>2026-04-18T15:31:26.999Z</time></trkpt><trkpt lat="40.94861142126697" lon="14.621490978954332"><ele>217.79999999999998</ele><time>2026-04-18T15:31:27.999Z</time></trkpt><trkpt lat="40.94860748768634" lon="14.621350146363781"><ele>217.20000000000002</ele><time>2026-04-18T15:31:28.999Z</time></trkpt><trkpt lat="40.948602330576264" lon="14.621214275984835"><ele>216.60000000000002</ele><time>2026-04-18T15:31:29.999Z</time></trkpt><trkpt lat="40.948594009559926" lon="14.621086340921618"><ele>216.0</ele><time>2026-04-18T15:31:30.999Z</time></trkpt><trkpt lat="40.948584134387865" lon="14.620963023461764"><ele>215.20000000000002</ele><time>2026-04-18T15:31:31.999Z</time></trkpt><trkpt lat="40.94857039563769" lon="14.62084442755931"><ele>214.40000000000003</ele><time>2026-04-18T15:31:32.999Z</time></trkpt><trkpt lat="40.94855728199649" lon="14.620740270507156"><ele>213.6</ele><time>2026-04-18T15:31:33.999Z</time></trkpt><trkpt lat="40.9485492870505" lon="14.620630579440746"><ele>212.8</ele><time>2026-04-18T15:31:34.999Z</time></trkpt><trkpt lat="40.94853843740409" lon="14.62049359702246"><ele>212.0</ele><time>2026-04-18T15:31:35.999Z</time></trkpt><trkpt lat="40.94852795920774" lon="14.620360077087538"><ele>211.57142857142858</ele><time>2026-04-18T15:31:36.999Z</time></trkpt><trkpt lat="40.94850902594789" lon="14.620248697549917"><ele>211.14285714285714</ele><time>2026-04-18T15:31:37.999Z</time></trkpt><trkpt lat="40.94849962197061" lon="14.620151292137516"><ele>210.71428571428572</ele><time>2026-04-18T15:31:38.999Z</time></trkpt><trkpt lat="40.948469338905994" lon="14.620065803333809"><ele>210.28571428571428</ele><time>2026-04-18T15:31:39.999Z</time></trkpt><trkpt lat="40.94845178925586" lon="14.61997593399027"><ele>209.85714285714283</ele><time>2026-04-18T15:31:40.999Z</time></trkpt><trkpt lat="40.94844743732535" lon="14.619886653353765"><ele>209.42857142857142</ele><time>2026-04-18T15:31:41.999Z</time></trkpt><trkpt lat="40.948434186029964" lon="14.619799785498515"><ele>209.0</ele><time>2026-04-18T15:31:42.999Z</time></trkpt><trkpt lat="40.94843388549414" lon="14.619693930515693"><ele>209.00000000000003</ele><time>2026-04-18T15:31:43.999Z</time></trkpt><trkpt lat="40.94842470048642" lon="14.619595086907971"><ele>209.0</ele><time>2026-04-18T15:31:44.999Z</time></trkpt><trkpt lat="40.94841260711717" lon="14.619431923408808"><ele>209.0</ele><time>2026-04-18T15:31:46.999Z</time></trkpt><trkpt lat="40.94841066102782" lon="14.61934468136315"><ele>209.0</ele><time>2026-04-18T15:31:47.999Z</time></trkpt><trkpt lat="40.94840574208212" lon="14.619238827894378"><ele>209.00000000000003</ele><time>2026-04-18T15:31:48.999Z</time></trkpt><trkpt lat="40.948391948604005" lon="14.619118927112735"><ele>209.0</ele><time>2026-04-18T15:31:49.999Z</time></trkpt><trkpt lat="40.948376114600904" lon="14.618992663129662"><ele>208.79999999999998</ele><time>2026-04-18T15:31:50.999Z</time></trkpt><trkpt lat="40.94836791239566" lon="14.618868361016943"><ele>208.6</ele><time>2026-04-18T15:31:51.999Z</time></trkpt><trkpt lat="40.94835768829855" lon="14.61871468791086"><ele>208.4</ele><time>2026-04-18T15:31:52.999Z</time></trkpt><trkpt lat="40.948348247320226" lon="14.618592684935376"><ele>208.2</ele><time>2026-04-18T15:31:53.999Z</time></trkpt><trkpt lat="40.94833706042217" lon="14.618471127325495"><ele>208.0</ele><time>2026-04-18T15:31:54.999Z</time></trkpt><trkpt lat="40.94833233395559" lon="14.618371953413634"><ele>207.2</ele><time>2026-04-18T15:31:55.999Z</time></trkpt><trkpt lat="40.94832026553149" lon="14.618271973856038"><ele>206.4</ele><time>2026-04-18T15:31:56.999Z</time></trkpt><trkpt lat="40.948306698919296" lon="14.618135304679953"><ele>205.6</ele><time>2026-04-18T15:31:57.999Z</time></trkpt><trkpt lat="40.94829391659219" lon="14.61800645197851"><ele>204.79999999999998</ele><time>2026-04-18T15:31:58.999Z</time></trkpt><trkpt lat="40.94828484220386" lon="14.61788282385038"><ele>204.0</ele><time>2026-04-18T15:31:59.999Z</time></trkpt><trkpt lat="40.94827328889692" lon="14.617741851845764"><ele>203.0</ele><time>2026-04-18T15:32:00.999Z</time></trkpt><trkpt lat="40.94825515549765" lon="14.617571355133828"><ele>202.0</ele><time>2026-04-18T15:32:01.999Z</time></trkpt><trkpt lat="40.94824222571312" lon="14.61740792040472"><ele>201.0</ele><time>2026-04-18T15:32:02.999Z</time></trkpt><trkpt lat="40.94823393159182" lon="14.61725546007762"><ele>200.0</ele><time>2026-04-18T15:32:03.999Z</time></trkpt><trkpt lat="40.94821756076026" lon="14.617100876240206"><ele>199.5</ele><time>2026-04-18T15:32:04.999Z</time></trkpt><trkpt lat="40.948207703406965" lon="14.616943024391658"><ele>199.0</ele><time>2026-04-18T15:32:05.999Z</time></trkpt><trkpt lat="40.94818780417573" lon="14.616790859482022"><ele>198.5</ele><time>2026-04-18T15:32:06.999Z</time></trkpt><trkpt lat="40.948169383237186" lon="14.616611251935439"><ele>198.0</ele><time>2026-04-18T15:32:07.998Z</time></trkpt><trkpt lat="40.94814497801639" lon="14.616376048070299"><ele>197.5</ele><time>2026-04-18T15:32:08.998Z</time></trkpt><trkpt lat="40.94812879830276" lon="14.616133706150181"><ele>197.0</ele><time>2026-04-18T15:32:09.998Z</time></trkpt><trkpt lat="40.948118550466134" lon="14.615939882376809"><ele>196.5</ele><time>2026-04-18T15:32:10.998Z</time></trkpt><trkpt lat="40.94811603776481" lon="14.61580409108954"><ele>196.0</ele><time>2026-04-18T15:32:11.998Z</time></trkpt><trkpt lat="40.94810779851893" lon="14.615706908142817"><ele>195.99999999999997</ele><time>2026-04-18T15:32:12.998Z</time></trkpt><trkpt lat="40.94809743260592" lon="14.615620185067142"><ele>196.0</ele><time>2026-04-18T15:32:13.998Z</time></trkpt><trkpt lat="40.948084734563864" lon="14.615505777738765"><ele>196.0</ele><time>2026-04-18T15:32:15.998Z</time></trkpt><trkpt lat="40.94808255492619" lon="14.615422250781196"><ele>196.0</ele><time>2026-04-18T15:32:16.998Z</time></trkpt><trkpt lat="40.948080651828846" lon="14.61531926077956"><ele>195.99999999999997</ele><time>2026-04-18T15:32:17.998Z</time></trkpt><trkpt lat="40.948074850564176" lon="14.615183151496504"><ele>196.0</ele><time>2026-04-18T15:32:18.998Z</time></trkpt><trkpt lat="40.94806315824136" lon="14.615018788239123"><ele>195.25</ele><time>2026-04-18T15:32:19.998Z</time></trkpt><trkpt lat="40.948051637693226" lon="14.614855270721021"><ele>194.5</ele><time>2026-04-18T15:32:20.998Z</time></trkpt><trkpt lat="40.94804407827869" lon="14.614685398742399"><ele>193.75</ele><time>2026-04-18T15:32:21.998Z</time></trkpt><trkpt lat="40.948064623829985" lon="14.614501247279271"><ele>193.0</ele><time>2026-04-18T15:32:22.998Z</time></trkpt><trkpt lat="40.94810633825128" lon="14.614332624775862"><ele>191.66666666666666</ele><time>2026-04-18T15:32:23.998Z</time></trkpt><trkpt lat="40.94818310592179" lon="14.614159856868936"><ele>190.33333333333331</ele><time>2026-04-18T15:32:24.998Z</time></trkpt><trkpt lat="40.94829273687449" lon="14.614005958896307"><ele>189.0</ele><time>2026-04-18T15:32:25.998Z</time></trkpt><trkpt lat="40.94840442505398" lon="14.613868675119367"><ele>189.0</ele><time>2026-04-18T15:32:26.998Z</time></trkpt><trkpt lat="40.94853388461032" lon="14.613744847252605"><ele>189.0</ele><time>2026-04-18T15:32:27.998Z</time></trkpt><trkpt lat="40.94865823770716" lon="14.613650267331057"><ele>189.0</ele><time>2026-04-18T15:32:28.998Z</time></trkpt><trkpt lat="40.94876839530113" lon="14.613610059630236"><ele>189.0</ele><time>2026-04-18T15:32:29.998Z</time></trkpt><trkpt lat="40.948876952811524" lon="14.613600773101101"><ele>188.5</ele><time>2026-04-18T15:32:30.998Z</time></trkpt><trkpt lat="40.94896994203116" lon="14.613584232927838"><ele>188.0</ele><time>2026-04-18T15:32:31.998Z</time></trkpt><trkpt lat="40.949038951853" lon="14.613558434980863"><ele>187.5</ele><time>2026-04-18T15:32:32.998Z</time></trkpt><trkpt lat="40.94913948824354" lon="14.613548639586131"><ele>187.0</ele><time>2026-04-18T15:32:34.998Z</time></trkpt><trkpt lat="40.949224572514666" lon="14.613528820513597"><ele>186.5</ele><time>2026-04-18T15:32:36.998Z</time></trkpt><trkpt lat="40.94928904422413" lon="14.61352430822396"><ele>186.0</ele><time>2026-04-18T15:32:37.998Z</time></trkpt><trkpt lat="40.9493815878204" lon="14.613510066340865"><ele>186.0</ele><time>2026-04-18T15:32:38.998Z</time></trkpt><trkpt lat="40.949521327058235" lon="14.613489587034255"><ele>186.0</ele><time>2026-04-18T15:32:39.998Z</time></trkpt><trkpt lat="40.94965855720657" lon="14.61347071347131"><ele>186.0</ele><time>2026-04-18T15:32:40.998Z</time></trkpt><trkpt lat="40.94978041979183" lon="14.613453574495072"><ele>186.0</ele><time>2026-04-18T15:32:41.998Z</time></trkpt><trkpt lat="40.949900514851436" lon="14.61343621269315"><ele>186.0</ele><time>2026-04-18T15:32:43Z</time></trkpt><trkpt lat="40.95001913085036" lon="14.613416479249876"><ele>186.0</ele><time>2026-04-18T15:32:44Z</time></trkpt><trkpt lat="40.9501337379477" lon="14.613395452894132"><ele>186.0</ele><time>2026-04-18T15:32:45Z</time></trkpt><trkpt lat="40.95024985736805" lon="14.613378193932155"><ele>186.0</ele><time>2026-04-18T15:32:46Z</time></trkpt><trkpt lat="40.95036562296682" lon="14.613360819414599"><ele>186.0</ele><time>2026-04-18T15:32:47Z</time></trkpt><trkpt lat="40.95047809487871" lon="14.613338293066759"><ele>186.0</ele><time>2026-04-18T15:32:48Z</time></trkpt><trkpt lat="40.95058343922542" lon="14.613321043038216"><ele>186.0</ele><time>2026-04-18T15:32:49Z</time></trkpt><trkpt lat="40.95068395938763" lon="14.613303475349582"><ele>186.0</ele><time>2026-04-18T15:32:50Z</time></trkpt><trkpt lat="40.950797055685804" lon="14.613307088283854"><ele>186.0</ele><time>2026-04-18T15:32:51Z</time></trkpt><trkpt lat="40.95092065382206" lon="14.61326870492374"><ele>186.25</ele><time>2026-04-18T15:32:52Z</time></trkpt><trkpt lat="40.95105883849008" lon="14.613267877114561"><ele>186.5</ele><time>2026-04-18T15:32:53Z</time></trkpt><trkpt lat="40.9511958048189" lon="14.613247361531625"><ele>186.75</ele><time>2026-04-18T15:32:54Z</time></trkpt><trkpt lat="40.95134083705379" lon="14.613226465270055"><ele>187.0</ele><time>2026-04-18T15:32:55Z</time></trkpt><trkpt lat="40.95148327171342" lon="14.613204746876038"><ele>187.0</ele><time>2026-04-18T15:32:56Z</time></trkpt><trkpt lat="40.951588310895325" lon="14.61318805259082"><ele>187.0</ele><time>2026-04-18T15:32:57Z</time></trkpt><trkpt lat="40.95167209767807" lon="14.613170572043876"><ele>187.0</ele><time>2026-04-18T15:32:58Z</time></trkpt><trkpt lat="40.95173944921737" lon="14.613135940718449"><ele>187.0</ele><time>2026-04-18T15:32:59Z</time></trkpt><trkpt lat="40.95184418031084" lon="14.613115644888987"><ele>187.0</ele><time>2026-04-18T15:33:01Z</time></trkpt><trkpt lat="40.95192365214069" lon="14.613068033667094"><ele>187.16666666666669</ele><time>2026-04-18T15:33:03Z</time></trkpt><trkpt lat="40.951957239790964" lon="14.612977650514445"><ele>187.33333333333334</ele><time>2026-04-18T15:33:05Z</time></trkpt><trkpt lat="40.95198343402629" lon="14.612881244496476"><ele>187.5</ele><time>2026-04-18T15:33:07Z</time></trkpt><trkpt lat="40.95199497689447" lon="14.612741828175086"><ele>187.66666666666666</ele><time>2026-04-18T15:33:09Z</time></trkpt><trkpt lat="40.95200352628675" lon="14.61263630893785"><ele>187.83333333333331</ele><time>2026-04-18T15:33:14Z</time></trkpt><trkpt lat="40.952005018528865" lon="14.612551181610895"><ele>188.0</ele><time>2026-04-18T15:33:16Z</time></trkpt><trkpt lat="40.95210160173903" lon="14.612566065362449"><ele>188.0</ele><time>2026-04-18T15:33:17.999Z</time></trkpt><trkpt lat="40.95220847339149" lon="14.612534377732205"><ele>188.0</ele><time>2026-04-18T15:33:19.999Z</time></trkpt><trkpt lat="40.95227209992665" lon="14.612528438064276"><ele>188.0</ele><time>2026-04-18T15:33:20.999Z</time></trkpt><trkpt lat="40.952342322356465" lon="14.612508942035378"><ele>188.0</ele><time>2026-04-18T15:33:21.999Z</time></trkpt><trkpt lat="40.95242525853878" lon="14.612500701222405"><ele>188.0</ele><time>2026-04-18T15:33:22.999Z</time></trkpt><trkpt lat="40.95252010113906" lon="14.612475864102263"><ele>188.0</ele><time>2026-04-18T15:33:23.999Z</time></trkpt><trkpt lat="40.95262171788139" lon="14.61243255099725"><ele>188.0</ele><time>2026-04-18T15:33:24.999Z</time></trkpt><trkpt lat="40.95276134827017" lon="14.612416078879487"><ele>188.0</ele><time>2026-04-18T15:33:25.999Z</time></trkpt><trkpt lat="40.9529261124652" lon="14.61237572177772"><ele>188.0</ele><time>2026-04-18T15:33:26.999Z</time></trkpt><trkpt lat="40.95307912261782" lon="14.61233835234447"><ele>188.0</ele><time>2026-04-18T15:33:27.999Z</time></trkpt><trkpt lat="40.95321147283601" lon="14.612306816227514"><ele>188.0</ele><time>2026-04-18T15:33:28.999Z</time></trkpt><trkpt lat="40.95332591798211" lon="14.6122798852179"><ele>188.0</ele><time>2026-04-18T15:33:29.999Z</time></trkpt><trkpt lat="40.9533993426787" lon="14.61226242459942"><ele>188.0</ele><time>2026-04-18T15:33:30.999Z</time></trkpt><trkpt lat="40.95348998268307" lon="14.612240563143823"><ele>188.0</ele><time>2026-04-18T15:33:32.999Z</time></trkpt><trkpt lat="40.95356333205789" lon="14.612222872083533"><ele>188.4</ele><time>2026-04-18T15:33:34.999Z</time></trkpt><trkpt lat="40.95364657093908" lon="14.612189299586257"><ele>188.8</ele><time>2026-04-18T15:33:38.999Z</time></trkpt><trkpt lat="40.95371750032352" lon="14.612176861512719"><ele>189.2</ele><time>2026-04-18T15:33:40.999Z</time></trkpt><trkpt lat="40.95381361233353" lon="14.612163850347315"><ele>189.6</ele><time>2026-04-18T15:33:41.999Z</time></trkpt><trkpt lat="40.95393659027597" lon="14.61213514598713"><ele>190.0</ele><time>2026-04-18T15:33:42.999Z</time></trkpt><trkpt lat="40.95408368057863" lon="14.612099237894839"><ele>190.25</ele><time>2026-04-18T15:33:43.999Z</time></trkpt><trkpt lat="40.954217725818154" lon="14.612066025409172"><ele>190.5</ele><time>2026-04-18T15:33:44.999Z</time></trkpt><trkpt lat="40.95434989850112" lon="14.612034695197428"><ele>190.75</ele><time>2026-04-18T15:33:45.999Z</time></trkpt><trkpt lat="40.954461721877635" lon="14.612009548295484"><ele>191.0</ele><time>2026-04-18T15:33:46.999Z</time></trkpt><trkpt lat="40.95455321740517" lon="14.611995737391545"><ele>191.0</ele><time>2026-04-18T15:33:47.999Z</time></trkpt><trkpt lat="40.954621563648296" lon="14.611987309797353"><ele>191.0</ele><time>2026-04-18T15:33:48.999Z</time></trkpt><trkpt lat="40.95472048812604" lon="14.612017652772023"><ele>191.0</ele><time>2026-04-18T15:33:50.999Z</time></trkpt><trkpt lat="40.954802483005146" lon="14.61203000906537"><ele>191.0</ele><time>2026-04-18T15:33:52.999Z</time></trkpt><trkpt lat="40.954856503938" lon="14.611917266326083"><ele>191.0</ele><time>2026-04-18T15:33:54.999Z</time></trkpt><trkpt lat="40.95488452299696" lon="14.611829424892068"><ele>191.0</ele><time>2026-04-18T15:33:55.999Z</time></trkpt><trkpt lat="40.9549036172218" lon="14.611726901710716"><ele>191.0</ele><time>2026-04-18T15:33:56.999Z</time></trkpt><trkpt lat="40.954918275891806" lon="14.61161267889451"><ele>191.0</ele><time>2026-04-18T15:33:57.999Z</time></trkpt><trkpt lat="40.95492605889064" lon="14.611498868960924"><ele>191.0</ele><time>2026-04-18T15:33:58.999Z</time></trkpt><trkpt lat="40.95493347949712" lon="14.611391364326034"><ele>191.0</ele><time>2026-04-18T15:33:59.999Z</time></trkpt><trkpt lat="40.95493594949428" lon="14.611286157927777"><ele>191.0</ele><time>2026-04-18T15:34:00.999Z</time></trkpt><trkpt lat="40.95493932371615" lon="14.611193295268588"><ele>191.0</ele><time>2026-04-18T15:34:01.999Z</time></trkpt><trkpt lat="40.95493820815827" lon="14.611099702958768"><ele>190.8</ele><time>2026-04-18T15:34:02.999Z</time></trkpt><trkpt lat="40.95494374453698" lon="14.610997619535455"><ele>190.60000000000002</ele><time>2026-04-18T15:34:04.999Z</time></trkpt><trkpt lat="40.95495513697942" lon="14.610885549081553"><ele>190.4</ele><time>2026-04-18T15:34:07.999Z</time></trkpt><trkpt lat="40.95493797610372" lon="14.610693489311174"><ele>190.2</ele><time>2026-04-18T15:34:09.999Z</time></trkpt><trkpt lat="40.95494251234688" lon="14.61052784011501"><ele>190.0</ele><time>2026-04-18T15:34:10.999Z</time></trkpt><trkpt lat="40.95497200781941" lon="14.610377421067415"><ele>190.0</ele><time>2026-04-18T15:34:11.999Z</time></trkpt><trkpt lat="40.95503135099471" lon="14.610218701599576"><ele>190.0</ele><time>2026-04-18T15:34:12.999Z</time></trkpt><trkpt lat="40.95511003056" lon="14.610071815082929"><ele>190.0</ele><time>2026-04-18T15:34:13.999Z</time></trkpt><trkpt lat="40.95522119027188" lon="14.609938704171423"><ele>190.0</ele><time>2026-04-18T15:34:14.999Z</time></trkpt><trkpt lat="40.955374768357444" lon="14.60979625259274"><ele>191.0</ele><time>2026-04-18T15:34:15.999Z</time></trkpt><trkpt lat="40.955538996562204" lon="14.609640654286663"><ele>192.0</ele><time>2026-04-18T15:34:16.998Z</time></trkpt><trkpt lat="40.95566951132036" lon="14.609513106650775"><ele>193.0</ele><time>2026-04-18T15:34:17.998Z</time></trkpt><trkpt lat="40.95578430981661" lon="14.609395866372173"><ele>193.4</ele><time>2026-04-18T15:34:18.998Z</time></trkpt><trkpt lat="40.955890583609694" lon="14.609271284380311"><ele>193.8</ele><time>2026-04-18T15:34:19.998Z</time></trkpt><trkpt lat="40.95599143557116" lon="14.609164666553045"><ele>194.2</ele><time>2026-04-18T15:34:20.998Z</time></trkpt><trkpt lat="40.956065312997715" lon="14.6090979487175"><ele>194.6</ele><time>2026-04-18T15:34:21.998Z</time></trkpt><trkpt lat="40.956139560477645" lon="14.609037363834295"><ele>195.0</ele><time>2026-04-18T15:34:23.998Z</time></trkpt><trkpt lat="40.95606998363103" lon="14.60886229344502"><ele>195.0</ele><time>2026-04-18T15:34:25.998Z</time></trkpt><trkpt lat="40.95607694191442" lon="14.6087746635649"><ele>195.0</ele><time>2026-04-18T15:34:26.998Z</time></trkpt><trkpt lat="40.95607177820762" lon="14.608670509311542"><ele>195.0</ele><time>2026-04-18T15:34:27.998Z</time></trkpt><trkpt lat="40.9560666339177" lon="14.608557656117743"><ele>195.0</ele><time>2026-04-18T15:34:28.998Z</time></trkpt><trkpt lat="40.9560610563636" lon="14.608453671997918"><ele>195.0</ele><time>2026-04-18T15:34:29.998Z</time></trkpt><trkpt lat="40.95605579058486" lon="14.608350872368447"><ele>195.0</ele><time>2026-04-18T15:34:30.998Z</time></trkpt><trkpt lat="40.95603559417172" lon="14.608263022110101"><ele>195.33333333333334</ele><time>2026-04-18T15:34:31.998Z</time></trkpt><trkpt lat="40.95602576905496" lon="14.608113160544828"><ele>195.66666666666669</ele><time>2026-04-18T15:34:33.998Z</time></trkpt><trkpt lat="40.95602192544205" lon="14.608028943133911"><ele>196.0</ele><time>2026-04-18T15:34:36.998Z</time></trkpt><trkpt lat="40.95603618510006" lon="14.60793716492953"><ele>196.33333333333334</ele><time>2026-04-18T15:34:40.998Z</time></trkpt><trkpt lat="40.95603326590689" lon="14.607819022115242"><ele>196.66666666666669</ele><time>2026-04-18T15:34:44.998Z</time></trkpt><trkpt lat="40.95603200219579" lon="14.60770285125211"><ele>197.0</ele><time>2026-04-18T15:34:46.998Z</time></trkpt><trkpt lat="40.956026156981466" lon="14.607803693156843"><ele>197.0</ele><time>2026-04-18T15:34:55Z</time></trkpt><trkpt lat="40.956018990846516" lon="14.607901443546154"><ele>197.0</ele><time>2026-04-18T15:34:57Z</time></trkpt><trkpt lat="40.95599788548349" lon="14.608006833723602"><ele>197.0</ele><time>2026-04-18T15:35:00Z</time></trkpt></trkseg></trk></gpx>